# Wetter Temperatur Luftdruck Luftfeuchtigkeit Sichtweite Windgeschwindigkeit Windrichtung Zeit
1 Clear 6 1029 93 10000 2.06 10 04:45 17.01.2021
2 Clear 6 1029 93 10000 1.03 20 04:27 17.01.2021
3 Clear 6 1030 87 10000 1.54 340 01:38 17.01.2021
4 Clear 7 1030 76 10000 1.03 0 00:37 17.01.2021
5 Clear 7 1030 76 10000 1.03 0 00:18 17.01.2021
6 Clear 8 1030 76 10000 1.03 0 23:46 16.01.2021
7 Clear 8 1030 76 10000 3.09 320 23:18 16.01.2021
8 Clear 9 1030 76 10000 4.12 310 22:27 16.01.2021
9 Clear 9 1030 81 10000 3.6 310 21:58 16.01.2021
10 Clear 9 1030 81 10000 3.09 320 21:24 16.01.2021
11 Clear 10 1029 81 10000 4.12 320 20:53 16.01.2021
12 Clear 10 1029 76 10000 3.6 320 20:29 16.01.2021
13 Clear 10 1029 76 10000 2.57 310 19:50 16.01.2021
14 Clear 11 1029 76 10000 1.98 2 19:31 16.01.2021
15 Clear 11 1029 66 10000 0.51 0 18:49 16.01.2021
16 Clear 12 1028 54 10000 1.03 0 18:28 16.01.2021
17 Clear 13 1028 54 10000 2.06 70 17:59 16.01.2021
18 Clear 13 1028 54 10000 2.06 0 17:40 16.01.2021
19 Clear 13 1028 54 10000 2.06 0 17:21 16.01.2021
20 Clear 13 1028 54 10000 2.57 90 16:44 16.01.2021
21 Clear 13 1028 58 10000 1.54 80 16:21 16.01.2021
22 Clear 13 1028 54 10000 2.06 80 15:43 16.01.2021
23 Clear 12 1029 66 10000 1.54 0 14:53 16.01.2021
24 Clear 12 1029 71 10000 2.06 60 14:18 16.01.2021
25 Clear 11 1029 71 10000 2.06 80 13:47 16.01.2021
26 Clear 11 1030 76 10000 2.06 70 13:19 16.01.2021
27 Clear 10 1030 76 10000 2.57 70 12:39 16.01.2021
28 Clear 10 1030 76 10000 2.57 70 12:20 16.01.2021
29 Clear 9 1030 81 10000 2.57 70 11:46 16.01.2021
30 Clear 9 1030 93 10000 2.57 60 11:24 16.01.2021
31 Clear 7 1030 100 10000 0.51 0 10:43 16.01.2021
32 Fog 6 1029 100 6000 1.03 0 09:59 16.01.2021
33 Mist 6 1029 100 4500 1.03 0 09:32 16.01.2021
34 Clear 7 1028 93 10000 2.57 340 08:35 16.01.2021
35 Clear 8 1028 93 10000 2.06 360 07:31 16.01.2021
36 Clear 8 1028 93 10000 2.06 360 06:43 16.01.2021
37 Clouds 9 1028 81 10000 4.12 350 04:39 16.01.2021
38 Clouds 10 1029 93 10000 6.17 340 02:56 16.01.2021
39 Clouds 10 1029 87 10000 6.17 340 00:50 16.01.2021
40 Clouds 10 1029 87 10000 6.17 330 00:28 16.01.2021
41 Clear 11 1029 87 10000 3.09 330 23:55 15.01.2021
42 Clear 10 1029 87 10000 4.12 340 22:56 15.01.2021
43 Clear 10 1028 87 10000 1.54 0 22:24 15.01.2021
44 Clear 11 1028 87 10000 2.57 310 21:46 15.01.2021
45 Clouds 11 1028 87 10000 3.6 310 20:59 15.01.2021
46 Clouds 11 1028 87 10000 2.57 310 20:40 15.01.2021
47 Clouds 11 1028 87 10000 2.57 310 20:40 15.01.2021
48 Clouds 11 1028 87 10000 2.57 310 20:21 15.01.2021
49 Clouds 12 1028 82 10000 5.14 330 19:41 15.01.2021
50 Clouds 12 1028 82 10000 5.14 330 19:22 15.01.2021
51 Clouds 13 1028 87 10000 4.63 320 18:44 15.01.2021
52 Clouds 13 1028 76 10000 4.63 320 18:19 15.01.2021
53 Clouds 14 1028 77 10000 5.14 320 17:52 15.01.2021
54 Clouds 14 1028 72 10000 5.14 330 17:26 15.01.2021
55 Clouds 15 1028 59 10000 2.57 50 16:55 15.01.2021
56 Clouds 15 1028 72 10000 2.57 90 16:26 15.01.2021
57 Clouds 15 1028 67 10000 2.06 80 15:44 15.01.2021
58 Clouds 15 1028 72 10000 2.57 80 15:23 15.01.2021
59 Clouds 14 1029 82 10000 2.06 80 14:56 15.01.2021
60 Clouds 14 1029 87 10000 2.06 100 14:37 15.01.2021
61 Clouds 13 1029 87 10000 2.06 100 14:18 15.01.2021
62 Fog 12 1030 82 10000 3.09 90 13:40 15.01.2021
63 Fog 12 1030 82 10000 3.09 90 13:19 15.01.2021
64 Fog 11 1030 93 10000 1.54 130 12:37 15.01.2021
65 Fog 10 1030 93 10000 1.54 130 12:19 15.01.2021
66 Fog 10 1030 93 10000 2.06 100 11:42 15.01.2021
67 Clouds 11 1029 87 10000 3.09 20 10:58 15.01.2021
68 Clouds 11 1029 87 10000 4.63 330 10:39 15.01.2021
69 Clouds 11 1029 87 10000 4.63 330 10:21 15.01.2021
70 Clouds 11 1029 93 10000 6.17 340 09:47 15.01.2021
71 Clouds 10 1028 93 10000 5.14 340 09:28 15.01.2021
72 Clouds 11 1028 93 10000 4.12 340 08:28 15.01.2021
73 Clouds 11 1028 93 10000 5.66 340 07:44 15.01.2021
74 Clouds 11 1028 87 10000 5.14 340 07:23 15.01.2021
75 Clouds 11 1028 93 10000 5.66 340 06:35 15.01.2021
76 Clouds 11 1029 93 10000 6.69 320 02:43 15.01.2021
77 Clouds 12 1029 93 10000 5.66 340 00:41 15.01.2021
78 Clouds 11 1029 87 10000 7.72 340 23:30 14.01.2021
79 Clouds 11 1029 87 10000 8.23 340 22:57 14.01.2021
80 Clouds 11 1029 93 10000 6.69 340 22:37 14.01.2021
81 Clouds 11 1029 93 10000 6.69 340 22:19 14.01.2021
82 Clouds 11 1029 93 10000 3.6 320 21:39 14.01.2021
83 Clouds 11 1029 93 10000 3.6 320 21:20 14.01.2021
84 Clouds 11 1029 87 10000 4.12 330 20:47 14.01.2021
85 Clouds 11 1029 87 10000 3.09 340 20:18 14.01.2021
86 Clouds 11 1029 81 10000 7.72 340 19:38 14.01.2021
87 Clouds 11 1029 81 10000 7.72 340 19:18 14.01.2021
88 Clouds 11 1029 76 10000 6.69 340 18:45 14.01.2021
89 Clouds 12 1029 76 10000 4.63 360 18:18 14.01.2021
90 Clouds 12 1029 71 10000 5.66 350 17:44 14.01.2021
91 Clouds 12 1029 71 10000 7.72 330 17:25 14.01.2021
92 Clouds 13 1029 71 10000 6.17 340 16:39 14.01.2021
93 Clouds 12 1029 71 10000 6.69 330 15:56 14.01.2021
94 Clouds 13 1029 71 10000 5.66 320 15:38 14.01.2021
95 Clouds 13 1029 71 10000 5.14 350 14:58 14.01.2021
96 Clouds 13 1030 71 10000 5.66 330 14:37 14.01.2021
97 Clouds 13 1030 71 10000 5.66 330 14:18 14.01.2021
98 Clouds 13 1030 76 10000 5.66 340 13:48 14.01.2021
99 Clouds 12 1031 76 10000 6.17 340 13:19 14.01.2021
100 Clouds 12 1031 76 10000 5.14 340 12:38 14.01.2021
101 Clouds 11 1031 76 10000 5.14 340 12:18 14.01.2021
102 Clouds 11 1031 76 10000 6.69 340 11:42 14.01.2021
103 Clouds 11 1031 81 10000 4.63 340 11:20 14.01.2021
104 Clouds 11 1031 81 10000 3.6 350 10:50 14.01.2021
105 Clouds 10 1030 87 10000 3.6 350 10:22 14.01.2021
106 Clouds 9 1030 87 10000 3.6 360 09:45 14.01.2021
107 Clouds 9 1030 81 10000 3.6 330 09:22 14.01.2021
108 Clouds 9 1030 87 10000 4.63 340 08:49 14.01.2021
109 Clouds 9 1030 87 10000 3.6 350 08:25 14.01.2021
110 Clouds 9 1030 87 10000 4.12 340 07:48 14.01.2021
111 Clouds 9 1030 87 10000 5.66 340 06:52 14.01.2021
112 Clouds 9 1030 93 10000 3.09 340 05:46 14.01.2021
113 Clear 9 1031 87 10000 2.06 0 00:46 14.01.2021
114 Clear 9 1031 87 10000 3.6 350 23:54 13.01.2021
115 Clouds 9 1031 87 10000 3.6 350 23:23 13.01.2021
116 Clouds 9 1031 87 10000 3.6 340 22:29 13.01.2021
117 Clouds 9 1031 87 10000 4.12 330 21:57 13.01.2021
118 Clouds 9 1031 87 10000 4.12 320 21:38 13.01.2021
119 Clouds 10 1031 87 10000 5.14 310 20:59 13.01.2021
120 Clouds 9 1031 87 10000 5.14 320 20:37 13.01.2021
121 Clouds 9 1031 87 10000 5.14 320 20:18 13.01.2021
122 Clouds 10 1031 87 10000 3.6 320 19:42 13.01.2021
123 Clouds 10 1030 81 10000 3.6 320 19:20 13.01.2021
124 Clear 11 1030 71 10000 3.6 330 18:41 13.01.2021
125 Clear 12 1030 62 10000 0.51 0 17:51 13.01.2021
126 Clear 12 1030 62 10000 2.06 180 17:26 13.01.2021
127 Clear 12 1030 58 10000 1.54 120 16:59 13.01.2021
128 Clear 13 1030 62 10000 1.54 110 16:22 13.01.2021
129 Clear 12 1030 62 10000 1.54 110 16:22 13.01.2021
130 Clear 12 1030 62 10000 2.06 110 15:59 13.01.2021
131 Clear 12 1030 66 10000 1.03 0 15:39 13.01.2021
132 Clear 11 1030 71 10000 1.03 0 14:49 13.01.2021
133 Clear 10 1031 76 10000 2.06 70 13:58 13.01.2021
134 Clouds 10 1032 81 10000 2.06 100 13:37 13.01.2021
135 Clouds 10 1032 81 10000 2.06 100 13:18 13.01.2021
136 Fog 10 1032 76 10000 1.54 90 12:43 13.01.2021
137 Fog 8 1032 75 10000 1.54 100 12:22 13.01.2021
138 Clouds 8 1032 75 10000 1.54 80 11:47 13.01.2021
139 Fog 8 1032 81 10000 1.03 0 11:26 13.01.2021
140 Clouds 5 1032 93 10000 1.96 59 10:43 13.01.2021
141 Fog 4 1032 100 10000 0.51 40 10:24 13.01.2021
142 Clouds 1 1031 100 10000 0.51 0 09:38 13.01.2021
143 Clear 1 1031 100 10000 1.54 40 08:57 13.01.2021
144 Clear 2 1031 93 10000 1.03 50 08:33 13.01.2021
145 Clear 0 1031 93 10000 2.08 47 07:53 13.01.2021
146 Clear 2 1031 93 10000 2.23 53 07:24 13.01.2021
147 Clear 4 1031 86 10000 1.69 57 04:21 13.01.2021
148 Clear 3 1031 80 10000 0.51 0 03:52 13.01.2021
149 Clear 4 1031 80 10000 1.69 57 03:31 13.01.2021
150 Clear 5 1031 81 10000 1.03 300 02:53 13.01.2021
151 Clear 7 1031 65 10000 2.06 340 00:38 13.01.2021
152 Clear 7 1031 65 10000 2.57 320 23:37 12.01.2021
153 Clear 8 1031 65 10000 3.09 320 22:47 12.01.2021
154 Clear 8 1031 65 10000 3.09 310 22:26 12.01.2021
155 Clear 8 1031 65 10000 2.57 310 21:58 12.01.2021
156 Clear 7 1030 75 10000 0.51 0 21:40 12.01.2021
157 Clear 7 1030 75 10000 0.51 0 21:20 12.01.2021
158 Clear 7 1030 70 10000 1.03 270 20:44 12.01.2021
159 Clear 7 1030 70 10000 1.03 300 20:25 12.01.2021
160 Clear 8 1030 70 10000 1.54 10 19:39 12.01.2021
161 Clear 10 1030 53 10000 1.03 0 18:54 12.01.2021
162 Clear 10 1030 49 10000 1.54 70 18:25 12.01.2021
163 Clear 11 1030 43 10000 2.06 90 17:57 12.01.2021
164 Clear 10 1030 43 10000 2.06 70 17:33 12.01.2021
165 Clear 11 1030 43 10000 2.06 60 16:45 12.01.2021
166 Clear 10 1030 50 10000 1.54 60 16:27 12.01.2021
167 Clear 10 1030 50 10000 1.54 70 15:54 12.01.2021
168 Clear 10 1030 57 10000 2.06 80 15:27 12.01.2021
169 Clear 10 1030 61 10000 1.54 50 14:55 12.01.2021
170 Clear 9 1030 57 10000 1.54 60 14:37 12.01.2021
171 Clear 10 1030 57 10000 1.54 60 14:18 12.01.2021
172 Clear 8 1031 65 10000 2.06 60 13:43 12.01.2021
173 Clear 7 1031 70 10000 3.09 50 12:39 12.01.2021
174 Clear 6 1031 75 10000 3.09 50 11:55 12.01.2021
175 Clear 6 1031 75 10000 2.57 50 11:36 12.01.2021
176 Clear 3 1030 87 10000 2.06 40 10:44 12.01.2021
177 Clear 4 1030 87 10000 2.06 40 10:20 12.01.2021
178 Clear 2 1030 100 10000 2.57 30 09:54 12.01.2021
179 Clear 2 1030 86 10000 2.57 60 09:24 12.01.2021
180 Clear 3 1029 86 10000 1.54 60 08:42 12.01.2021
181 Clear 3 1029 80 10000 1.54 50 08:21 12.01.2021
182 Clear 3 1028 75 10000 2.57 30 07:34 12.01.2021
183 Clear 3 1028 80 10000 1.54 360 06:20 12.01.2021
184 Clear 4 1028 75 10000 2.06 10 05:26 12.01.2021
185 Clear 5 1028 70 10000 2.57 20 03:24 12.01.2021
186 Clear 5 1028 65 10000 2.57 20 02:18 12.01.2021
187 Clear 6 1027 65 10000 2.57 10 01:25 12.01.2021
188 Clear 7 1027 61 10000 2.57 320 23:46 11.01.2021
189 Clear 7 1027 57 10000 3.09 310 23:23 11.01.2021
190 Clear 7 1026 57 10000 3.6 310 22:52 11.01.2021
191 Clear 8 1026 61 10000 3.09 310 22:33 11.01.2021
192 Clear 7 1026 61 10000 3.09 310 21:56 11.01.2021
193 Clear 7 1025 65 10000 3.09 310 21:37 11.01.2021
194 Clear 7 1025 65 10000 3.09 310 21:18 11.01.2021
195 Clear 8 1025 65 10000 3.09 310 20:40 11.01.2021
196 Clear 8 1025 65 10000 3.09 310 20:22 11.01.2021
197 Clear 8 1024 61 10000 3.09 340 19:53 11.01.2021
198 Clear 8 1024 53 10000 2.57 360 19:24 11.01.2021
199 Clear 9 1024 53 10000 1.03 0 18:45 11.01.2021
200 Clear 10 1024 43 10000 2.06 70 18:25 11.01.2021
201 Clear 11 1024 43 10000 2.06 80 17:44 11.01.2021
202 Clear 11 1023 43 10000 5.14 50 17:26 11.01.2021
203 Clear 11 1023 46 10000 4.63 50 16:55 11.01.2021
204 Clear 11 1023 46 10000 5.14 50 16:36 11.01.2021
205 Clear 11 1023 46 10000 5.14 50 16:18 11.01.2021
206 Clear 10 1023 43 10000 4.63 60 15:44 11.01.2021
207 Clear 10 1023 49 10000 4.12 60 15:25 11.01.2021
208 Clear 9 1023 46 10000 6.17 40 14:39 11.01.2021
209 Clear 9 1023 49 10000 5.66 60 13:50 11.01.2021
210 Clear 9 1023 46 10000 7.72 40 13:25 11.01.2021
211 Clear 8 1024 46 10000 7.2 40 12:49 11.01.2021
212 Clear 8 1023 46 10000 7.2 50 12:30 11.01.2021
213 Clear 8 1023 49 10000 6.17 40 11:56 11.01.2021
214 Clear 7 1023 49 10000 5.66 40 11:26 11.01.2021
215 Clear 7 1023 52 10000 4.63 30 10:47 11.01.2021
216 Clear 6 1022 56 10000 4.12 20 10:24 11.01.2021
217 Clear 5 1022 65 10000 3.09 360 09:42 11.01.2021
218 Clear 5 1021 65 10000 4.12 10 09:21 11.01.2021
219 Clear 5 1021 56 10000 4.63 10 08:44 11.01.2021
220 Clear 5 1020 56 10000 4.63 20 08:18 11.01.2021
221 Clear 5 1020 65 10000 3.6 360 07:27 11.01.2021
222 Clear 5 1020 65 10000 3.6 360 06:58 11.01.2021
223 Clear 6 1019 65 10000 4.63 30 03:57 11.01.2021
224 Clear 6 1018 61 10000 4.63 30 01:33 11.01.2021
225 Clear 6 1018 61 10000 4.63 30 00:34 11.01.2021
226 Clear 8 1017 65 10000 5.14 350 23:36 10.01.2021
227 Clear 7 1017 61 10000 4.12 330 22:49 10.01.2021
228 Clear 7 1017 65 10000 4.63 330 22:27 10.01.2021
229 Clear 8 1017 65 10000 6.17 340 21:46 10.01.2021
230 Clear 8 1017 65 10000 5.66 340 21:21 10.01.2021
231 Clear 8 1016 65 10000 5.66 340 20:57 10.01.2021
232 Clouds 8 1016 70 10000 4.63 340 20:33 10.01.2021
233 Clouds 8 1016 66 10000 4.12 330 19:59 10.01.2021
234 Clouds 9 1015 61 10000 4.12 360 19:38 10.01.2021
235 Clouds 9 1015 61 10000 4.12 360 19:20 10.01.2021
236 Clouds 9 1015 66 10000 4.63 10 18:42 10.01.2021
237 Clouds 10 1014 61 10000 4.12 360 18:19 10.01.2021
238 Clouds 11 1014 50 10000 5.14 10 17:22 10.01.2021
239 Clouds 11 1014 46 10000 5.66 30 16:43 10.01.2021
240 Clouds 10 1014 53 10000 5.14 10 16:25 10.01.2021
241 Clouds 10 1014 53 10000 6.17 20 15:26 10.01.2021
242 Clear 10 1013 53 10000 4.12 20 14:52 10.01.2021
243 Clear 9 1013 53 10000 4.63 360 14:34 10.01.2021
244 Clouds 9 1014 57 10000 5.14 30 13:56 10.01.2021
245 Clouds 9 1014 61 10000 6.17 60 13:38 10.01.2021
246 Clouds 9 1014 61 10000 6.17 60 13:20 10.01.2021
247 Clear 8 1014 57 10000 4.63 40 12:50 10.01.2021
248 Clear 8 1014 61 10000 4.63 30 12:32 10.01.2021
249 Clear 8 1014 65 10000 5.66 40 11:48 10.01.2021
250 Clear 7 1013 65 10000 6.17 40 11:20 10.01.2021
251 Clear 6 1013 70 10000 4.12 30 10:47 10.01.2021
252 Clear 5 1012 81 10000 3.6 10 10:22 10.01.2021
253 Clouds 4 1011 81 10000 3.6 360 09:36 10.01.2021
254 Clouds 4 1010 81 10000 5.14 30 08:26 10.01.2021
255 Clouds 4 1009 81 10000 4.12 20 07:38 10.01.2021
256 Clouds 4 1008 81 10000 3.6 10 06:21 10.01.2021
257 Clouds 5 1008 81 10000 4.12 360 05:42 10.01.2021
258 Clear 6 1008 65 10000 5.14 20 03:57 10.01.2021
259 Clouds 7 1007 57 10000 4.12 20 01:30 10.01.2021
260 Clear 6 1007 56 10000 2.57 320 23:59 09.01.2021
261 Clear 6 1007 56 10000 3.09 320 23:41 09.01.2021
262 Clear 6 1007 61 10000 3.09 340 22:59 09.01.2021
263 Clear 6 1007 65 10000 2.57 360 22:20 09.01.2021
264 Clear 6 1007 61 10000 2.57 20 21:58 09.01.2021
265 Clouds 6 1007 61 10000 4.12 20 21:39 09.01.2021
266 Clouds 6 1007 61 10000 4.12 20 21:21 09.01.2021
267 Clouds 7 1007 56 10000 5.14 30 20:54 09.01.2021
268 Clouds 7 1007 61 10000 7.72 20 20:29 09.01.2021
269 Clouds 7 1006 56 10000 5.66 360 19:39 09.01.2021
270 Clouds 7 1006 56 10000 5.66 360 19:20 09.01.2021
271 Clouds 7 1006 65 10000 5.66 50 18:37 09.01.2021
272 Clouds 8 1006 49 10000 7.72 360 17:54 09.01.2021
273 Clouds 8 1005 49 10000 8.23 360 17:34 09.01.2021
274 Clouds 8 1005 49 10000 7.2 10 16:57 09.01.2021
275 Clouds 9 1005 53 10000 7.2 10 16:23 09.01.2021
276 Clouds 9 1005 53 10000 7.72 360 15:41 09.01.2021
277 Clouds 8 1005 53 10000 7.72 360 15:21 09.01.2021
278 Clouds 8 1005 53 10000 8.23 10 14:37 09.01.2021
279 Clouds 8 1005 53 10000 8.23 10 14:19 09.01.2021
280 Clouds 8 1006 53 10000 6.17 350 13:44 09.01.2021
281 Clouds 7 1006 56 10000 7.2 350 13:25 09.01.2021
282 Clouds 7 1007 49 10000 7.2 350 12:28 09.01.2021
283 Clouds 7 1007 52 10000 5.66 350 11:58 09.01.2021
284 Clouds 7 1007 49 10000 5.14 350 11:40 09.01.2021
285 Clouds 7 1007 49 10000 5.14 350 11:22 09.01.2021
286 Clouds 6 1006 49 10000 6.17 350 10:48 09.01.2021
287 Clouds 6 1006 56 10000 5.14 340 10:25 09.01.2021
288 Clouds 5 1006 56 10000 4.12 350 09:44 09.01.2021
289 Clouds 5 1006 56 10000 5.66 340 09:21 09.01.2021
290 Clear 5 1005 60 10000 3.09 300 08:19 09.01.2021
291 Clear 5 1005 60 10000 2.57 310 06:54 09.01.2021
292 Clear 5 1005 60 10000 3.09 310 06:36 09.01.2021
293 Clear 6 1006 56 10000 1.03 0 04:25 09.01.2021
294 Clear 6 1006 45 10000 3.6 350 02:46 09.01.2021
295 Clear 6 1006 42 10000 6.69 340 02:27 09.01.2021
296 Clear 6 1006 45 10000 4.12 330 01:25 09.01.2021
297 Clear 6 1006 42 10000 6.17 350 00:34 09.01.2021
298 Clear 6 1006 45 10000 6.17 350 23:49 08.01.2021
299 Clear 7 1006 53 10000 8.75 10 22:49 08.01.2021
300 Clear 7 1006 49 10000 8.23 350 21:57 08.01.2021
301 Clear 7 1006 49 10000 6.69 350 21:27 08.01.2021
302 Clear 7 1005 52 10000 5.66 340 20:41 08.01.2021
303 Clear 7 1005 52 10000 5.66 340 20:21 08.01.2021
304 Clear 7 1005 53 10000 6.17 340 19:38 08.01.2021
305 Clear 7 1005 53 10000 6.17 340 19:19 08.01.2021
306 Clear 8 1004 49 10000 7.2 350 18:34 08.01.2021
307 Clear 10 1004 46 10000 6.69 360 17:55 08.01.2021
308 Clear 10 1004 46 10000 6.69 350 17:30 08.01.2021
309 Clear 10 1004 46 10000 8.75 360 16:51 08.01.2021
310 Clear 10 1004 46 10000 10.29 30 15:55 08.01.2021
311 Clear 11 1005 46 10000 8.75 30 15:33 08.01.2021
312 Clear 10 1005 49 10000 10.29 40 14:41 08.01.2021
313 Clear 10 1005 49 10000 10.29 40 14:22 08.01.2021
314 Clear 9 1006 46 10000 9.26 30 13:22 08.01.2021
315 Clear 8 1007 46 10000 9.77 20 12:53 08.01.2021
316 Clear 8 1008 39 10000 10.29 30 12:23 08.01.2021
317 Clear 8 1008 39 10000 10.29 30 12:23 08.01.2021
318 Clear 8 1008 42 10000 9.26 30 11:59 08.01.2021
319 Clear 7 1008 42 10000 8.75 30 11:40 08.01.2021
320 Clear 7 1008 42 10000 8.75 30 11:20 08.01.2021
321 Clear 7 1008 49 10000 8.23 30 10:46 08.01.2021
322 Clear 6 1008 52 10000 7.72 30 10:23 08.01.2021
323 Clear 6 1007 52 10000 8.23 30 09:41 08.01.2021
324 Clear 6 1007 52 10000 8.23 30 09:20 08.01.2021
325 Clear 7 1007 56 10000 8.23 30 07:44 08.01.2021
326 Clear 7 1007 61 10000 7.2 20 07:25 08.01.2021
327 Clear 6 1009 75 10000 7.72 30 04:20 08.01.2021
328 Clear 7 1011 75 10000 5.66 30 23:45 07.01.2021
329 Clear 7 1011 75 10000 6.17 30 23:27 07.01.2021
330 Clear 8 1010 65 10000 5.66 40 22:38 07.01.2021
331 Clear 8 1010 65 10000 5.66 40 22:18 07.01.2021
332 Clear 8 1010 65 10000 6.17 40 21:40 07.01.2021
333 Clear 8 1010 65 10000 6.17 40 21:21 07.01.2021
334 Clear 8 1010 57 10000 6.17 40 20:43 07.01.2021
335 Clear 8 1010 57 10000 5.14 30 20:23 07.01.2021
336 Clear 8 1010 57 10000 3.6 30 19:41 07.01.2021
337 Clear 9 1010 46 10000 4.63 30 18:54 07.01.2021
338 Clear 10 1010 49 10000 5.66 30 18:23 07.01.2021
339 Clear 10 1009 46 10000 6.17 40 17:42 07.01.2021
340 Clear 11 1009 50 10000 5.66 40 17:22 07.01.2021
341 Clear 12 1009 43 10000 5.14 60 16:52 07.01.2021
342 Clear 12 1009 46 10000 5.66 40 16:24 07.01.2021
343 Clear 12 1009 50 10000 5.66 60 15:37 07.01.2021
344 Clear 10 1010 53 10000 5.66 50 14:45 07.01.2021
345 Clear 10 1010 57 10000 6.69 50 14:26 07.01.2021
346 Clear 10 1011 53 10000 7.2 40 13:41 07.01.2021
347 Clear 9 1011 53 10000 7.2 40 13:18 07.01.2021
348 Clear 9 1012 52 10000 7.2 30 12:35 07.01.2021
349 Clear 9 1012 52 10000 7.2 30 11:52 07.01.2021
350 Clear 8 1012 56 10000 6.7 40 11:34 07.01.2021
351 Clear 8 1011 52 10000 5.1 30 10:48 07.01.2021
352 Clear 7 1011 52 10000 5.1 30 10:20 07.01.2021
353 Clear 7 1010 52 10000 5.1 30 09:47 07.01.2021
354 Clear 7 1010 52 10000 5.7 30 09:19 07.01.2021
355 Clear 7 1010 52 10000 5.1 20 08:29 07.01.2021
356 Rain 7 1009 52 10000 5.1 20 07:48 07.01.2021
357 Rain 7 1009 52 10000 5.1 20 07:22 07.01.2021
358 Clear 6 1009 56 10000 6.2 30 04:30 07.01.2021
359 Clear 7 1009 60 10000 6.7 40 00:30 07.01.2021
360 Clear 7 1009 60 10000 7.2 30 23:48 06.01.2021
361 Clear 7 1010 56 10000 7.2 30 22:39 06.01.2021
362 Clear 7 1010 59 10000 7.2 30 21:44 06.01.2021
363 Clear 7 1010 57 10000 7.2 30 21:23 06.01.2021
364 Clear 7 1010 57 10000 6.7 30 20:58 06.01.2021
365 Clear 7 1009 57 10000 6.2 30 20:36 06.01.2021
366 Clear 7 1009 55 10000 5.1 30 20:18 06.01.2021
367 Clear 7 1010 65 10000 4.6 20 19:38 06.01.2021
368 Clear 8 1010 65 10000 4.6 40 19:18 06.01.2021
369 Clear 8 1010 70 10000 5.1 50 18:41 06.01.2021
370 Clear 8 1010 70 10000 6.2 50 18:23 06.01.2021
371 Clear 8 1010 70 10000 4.6 50 17:42 06.01.2021
372 Clear 8 1010 70 10000 4.6 50 17:24 06.01.2021
373 Clear 8 1009 70 10000 6.7 40 16:42 06.01.2021
374 Clear 8 1010 70 10000 5.7 50 16:19 06.01.2021
375 Clear 8 1010 70 10000 5.7 50 15:52 06.01.2021
376 Clear 8 1010 75 10000 5.1 50 15:31 06.01.2021
377 Clear 7 1011 80 10000 4.6 60 14:48 06.01.2021
378 Clear 7 1011 80 10000 4.6 60 14:20 06.01.2021
379 Clear 6 1012 80 10000 5.7 50 13:45 06.01.2021
380 Clear 6 1012 80 10000 5.7 50 13:23 06.01.2021
381 Clear 6 1013 80 10000 4.6 60 12:48 06.01.2021
382 Clear 5 1013 80 10000 5.1 50 12:20 06.01.2021
383 Clear 4 1013 86 10000 4.6 50 11:36 06.01.2021
384 Clear 4 1013 69 10000 4.1 50 11:18 06.01.2021
385 Clear 3 1013 74 10000 4.6 60 10:20 06.01.2021
386 Clear 2 1012 74 10000 3.6 40 09:50 06.01.2021
387 Clear 2 1012 77 10000 2.6 50 08:58 06.01.2021
388 Clear 2 1012 100 10000 2.1 30 08:30 06.01.2021
389 Clear 2 1011 100 10000 2.6 60 07:54 06.01.2021
390 Clear 2 1011 100 10000 1.5 40 06:48 06.01.2021
391 Clear 3 1012 93 10000 2.1 40 05:33 06.01.2021
392 Clear 3 1012 93 10000 2.6 40 04:34 06.01.2021
393 Clear 4 1011 86 10000 1 30 02:47 06.01.2021
394 Clear 4 1011 86 10000 1 30 02:25 06.01.2021
395 Clear 5 1012 80 10000 2.1 10 00:51 06.01.2021
396 Clear 6 1011 75 10000 3.1 40 23:31 05.01.2021
397 Clear 7 1011 70 10000 4.6 40 22:44 05.01.2021
398 Clear 7 1011 75 10000 3.6 340 22:21 05.01.2021
399 Clear 7 1011 75 10000 3.6 340 22:21 05.01.2021
400 Clear 7 1011 75 10000 3.6 340 21:56 05.01.2021
401 Clouds 7 1011 70 10000 3.6 340 20:58 05.01.2021
402 Clouds 7 1011 75 10000 3.1 340 20:27 05.01.2021
403 Clouds 8 1011 70 10000 2.6 340 19:44 05.01.2021
404 Clouds 8 1011 70 10000 2.6 340 19:21 05.01.2021
405 Clouds 9 1010 66 10000 3.6 40 18:44 05.01.2021
406 Clouds 9 1010 66 10000 3.6 40 18:25 05.01.2021
407 Clouds 10 1010 70 10000 4.6 50 17:50 05.01.2021
408 Clouds 10 1010 70 10000 4.6 50 17:31 05.01.2021
409 Clouds 10 1010 70 10000 4.6 50 16:53 05.01.2021
410 Clouds 10 1010 70 10000 4.1 60 16:22 05.01.2021
411 Clouds 9 1010 70 10000 4.6 50 15:51 05.01.2021
412 Clouds 9 1010 75 10000 4.1 50 15:26 05.01.2021
413 Fog 8 1011 81 10000 4.6 50 14:46 05.01.2021
414 Fog 8 1012 87 10000 5.1 50 13:55 05.01.2021
415 Fog 8 1012 87 10000 5.7 60 13:35 05.01.2021
416 Fog 7 1013 100 10000 4.1 70 12:51 05.01.2021
417 Fog 6 1013 100 10000 3.6 50 12:29 05.01.2021
418 Clouds 6 1013 100 6000 2.1 40 11:49 05.01.2021
419 -273 0 0 0 0 0 11:24 05.01.2021
420 Fog 6 1013 100 10000 1.5 80 11:24 05.01.2021
421 Fog 5 1013 100 400 3.73 52 10:44 05.01.2021
422 Fog 4 1013 100 300 1.5 40 09:58 05.01.2021
423 Fog 4 1012 100 8000 2.1 50 09:38 05.01.2021
424 Fog 4 1012 93 10000 1 0 08:45 05.01.2021
425 Clear 5 1012 93 10000 1.5 330 08:18 05.01.2021
426 Fog 5 1012 100 10000 2.1 360 05:29 05.01.2021
427 Clear 7 1012 75 10000 3.1 320 02:58 05.01.2021
428 Clear 7 1013 93 10000 1.5 260 00:23 05.01.2021
429 Clouds 7 1013 100 10000 1.5 310 23:41 04.01.2021
430 Clouds 7 1013 93 10000 2.1 340 23:21 04.01.2021
431 Clouds 8 1013 87 10000 1.5 300 22:45 04.01.2021
432 Clouds 8 1013 93 10000 3.1 330 21:58 04.01.2021
433 Clouds 8 1013 87 10000 3.1 330 21:40 04.01.2021
434 Clouds 9 1013 81 10000 2.6 280 20:59 04.01.2021
435 Clouds 9 1013 81 10000 3.1 310 20:37 04.01.2021
436 Clouds 9 1013 76 10000 3.6 300 20:18 04.01.2021
437 Clouds 9 1013 81 10000 2.1 280 19:41 04.01.2021
438 Clouds 10 1013 81 10000 2.1 270 19:19 04.01.2021
439 Clouds 10 1013 81 10000 2.1 270 19:19 04.01.2021
440 Clouds 10 1013 76 10000 2.6 290 18:44 04.01.2021
441 Clouds 11 1013 76 10000 2.6 310 17:56 04.01.2021
442 Clouds 11 1013 76 10000 3.1 320 17:37 04.01.2021
443 Clouds 11 1013 71 10000 4.6 310 17:18 04.01.2021
444 Clouds 12 1013 66 10000 4.6 340 16:40 04.01.2021
445 Clouds 12 1013 66 10000 3.6 320 16:22 04.01.2021
446 Clouds 12 1013 66 10000 2.6 280 15:47 04.01.2021
447 Clouds 12 1014 71 10000 2.6 310 15:21 04.01.2021
448 Clouds 12 1014 76 10000 1.5 0 13:57 04.01.2021
449 Clouds 12 1015 76 10000 1 0 13:36 04.01.2021
450 Clouds 10 1015 93 10000 1 0 12:55 04.01.2021
451 Clouds 10 1016 87 10000 2.1 10 12:30 04.01.2021
452 Clouds 9 1016 93 10000 2.1 210 11:41 04.01.2021
453 Clouds 9 1016 93 10000 1.5 260 11:18 04.01.2021
454 Clouds 7 1016 100 10000 2.1 50 10:44 04.01.2021
455 Clouds 8 1015 100 10000 2.6 250 10:22 04.01.2021
456 Clouds 8 1015 93 10000 2.1 290 09:36 04.01.2021
457 Rain 8 1015 93 10000 1.5 290 09:18 04.01.2021
458 Clouds 7 1015 87 10000 1.5 270 08:23 04.01.2021
459 Clouds 7 1015 93 10000 3.1 260 07:47 04.01.2021
460 Clouds 6 1016 93 10000 2.6 280 05:42 04.01.2021
461 Clouds 7 1017 87 10000 2.1 290 05:20 04.01.2021
462 Clouds 8 1017 93 10000 2.1 270 02:27 04.01.2021
463 Clouds 7 1018 93 10000 2.1 280 00:27 04.01.2021
464 Clouds 8 1018 93 10000 0.5 0 23:38 03.01.2021
465 Clouds 8 1018 87 10000 1.5 270 22:59 03.01.2021
466 Clouds 8 1018 87 10000 2.1 270 22:40 03.01.2021
467 Clouds 8 1018 87 10000 2.1 270 22:22 03.01.2021
468 Clouds 8 1018 93 10000 2.1 270 21:45 03.01.2021
469 Clouds 9 1018 93 10000 2.1 270 21:24 03.01.2021
470 Clouds 9 1019 87 10000 1.5 280 20:42 03.01.2021
471 Clouds 9 1019 93 10000 1.5 270 20:20 03.01.2021
472 Clouds 9 1019 87 10000 0.5 340 19:47 03.01.2021
473 Clouds 9 1019 87 10000 0.5 340 19:28 03.01.2021
474 Clouds 10 1019 87 10000 2.1 10 18:50 03.01.2021
475 Clouds 10 1018 81 10000 3.6 10 18:30 03.01.2021
476 Clouds 11 1018 76 10000 3.1 320 17:53 03.01.2021
477 Clouds 11 1018 76 10000 1.5 310 17:29 03.01.2021
478 Clouds 11 1018 81 10000 2.1 280 16:57 03.01.2021
479 Clouds 11 1019 93 10000 3.1 340 16:38 03.01.2021
480 Clouds 11 1019 81 10000 4.6 320 16:18 03.01.2021
481 Rain 12 1019 62 10000 4.1 330 15:41 03.01.2021
482 Clouds 12 1019 66 10000 3.1 330 15:19 03.01.2021
483 Clouds 12 1019 66 10000 3.1 350 14:43 03.01.2021
484 Clouds 12 1020 71 10000 2.6 320 13:57 03.01.2021
485 Clouds 12 1020 71 10000 3.6 330 13:37 03.01.2021
486 Clouds 11 1021 71 10000 3.1 330 13:19 03.01.2021
487 Clouds 10 1021 81 10000 1 0 11:46 03.01.2021
488 Clouds 9 1021 81 10000 1 0 11:27 03.01.2021
489 Clouds 9 1021 93 10000 1.5 220 10:57 03.01.2021
490 Clouds 7 1020 87 10000 1 0 10:32 03.01.2021
491 Clouds 6 1020 93 10000 1.5 260 09:49 03.01.2021
492 Clouds 5 1020 93 10000 1 0 09:25 03.01.2021
493 Clear 5 1020 93 10000 1.5 240 08:31 03.01.2021
494 Clear 6 1019 93 10000 2.6 340 06:57 03.01.2021
495 Clear 6 1020 93 10000 2.15 12 03:29 03.01.2021
496 Clear 7 1020 87 10000 0.5 0 02:26 03.01.2021
497 Clear 7 1020 93 10000 1 0 00:33 03.01.2021
498 Clear 7 1020 93 10000 1 0 23:52 02.01.2021
499 Clear 7 1020 87 10000 1.5 330 23:19 02.01.2021
500 Clouds 7 1020 87 10000 2.77 2 22:47 02.01.2021
501 Clouds 7 1020 87 10000 2.98 5 22:28 02.01.2021
502 Clouds 9 1020 81 10000 2.1 330 21:48 02.01.2021
503 Clouds 8 1020 81 10000 2.1 330 21:28 02.01.2021
504 Clouds 9 1019 81 10000 2.1 320 20:45 02.01.2021
505 Clouds 9 1019 81 10000 2.1 320 20:25 02.01.2021
506 Clouds 9 1019 76 10000 3.6 320 19:46 02.01.2021
507 Clouds 10 1019 76 10000 3.1 320 19:20 02.01.2021
508 Clouds 10 1019 76 10000 3.1 320 19:20 02.01.2021
509 Clouds 10 1019 71 10000 4.6 330 18:47 02.01.2021
510 Clouds 10 1019 71 10000 4.6 330 18:29 02.01.2021
511 Clouds 11 1019 66 10000 5.1 340 17:46 02.01.2021
512 Clouds 11 1019 66 10000 5.1 340 17:28 02.01.2021
513 Clouds 12 1018 66 10000 6.2 350 16:46 02.01.2021
514 Clouds 12 1018 62 10000 5.1 340 16:21 02.01.2021
515 Clouds 12 1018 66 10000 5.1 340 15:46 02.01.2021
516 Clouds 12 1018 66 10000 5.1 340 15:27 02.01.2021
517 Clouds 12 1019 71 10000 3.6 350 14:47 02.01.2021
518 Clouds 12 1019 71 10000 3.6 350 14:23 02.01.2021
519 Clouds 11 1019 66 10000 3.6 350 13:43 02.01.2021
520 Clouds 11 1020 71 10000 3.6 350 12:55 02.01.2021
521 Clouds 11 1020 76 10000 2.1 330 12:32 02.01.2021
522 Clouds 11 1019 71 10000 2.1 300 11:59 02.01.2021
523 Clouds 10 1019 87 10000 1.5 290 11:26 02.01.2021
524 Clouds 9 1019 76 10000 2.1 300 10:59 02.01.2021
525 Clouds 8 1019 87 10000 1.5 310 10:40 02.01.2021
526 Clouds 8 1018 87 10000 1.5 290 10:21 02.01.2021
527 Clouds 8 1018 87 10000 1 0 09:39 02.01.2021
528 Clouds 8 1018 81 10000 2.1 300 09:19 02.01.2021
529 Clouds 7 1018 81 10000 1.5 340 08:46 02.01.2021
530 Clouds 8 1018 87 10000 2.1 310 08:19 02.01.2021
531 Clouds 7 1018 81 10000 2.1 280 07:24 02.01.2021
532 Clouds 8 1018 87 10000 3.1 300 06:57 02.01.2021
533 Clear 8 1018 81 10000 3.1 310 05:57 02.01.2021
534 Clear 8 1018 75 10000 3.6 300 01:59 02.01.2021
535 Clouds 8 1018 81 10000 4.1 320 00:43 02.01.2021
536 Clouds 8 1018 81 10000 4.1 320 00:23 02.01.2021
537 Clouds 8 1018 87 10000 3.6 340 23:37 01.01.2021
538 Clouds 8 1018 87 10000 2.6 350 23:19 01.01.2021
539 Clear 8 1018 87 10000 2.1 320 22:44 01.01.2021
540 Clear 8 1018 87 10000 2.1 320 22:21 01.01.2021
541 Clear 8 1018 87 10000 3.6 330 21:42 01.01.2021
542 Clouds 9 1018 81 10000 2.6 320 21:20 01.01.2021
543 Clouds 9 1018 81 10000 2.6 320 20:50 01.01.2021
544 Clouds 8 1017 87 10000 4.1 330 20:19 01.01.2021
545 Clouds 9 1017 87 10000 2.1 340 19:42 01.01.2021
546 Clouds 9 1017 87 10000 2.1 340 19:22 01.01.2021
547 Clouds 10 1017 76 10000 4.6 340 18:47 01.01.2021
548 Clouds 10 1017 76 10000 4.6 340 18:28 01.01.2021
549 Clouds 10 1017 81 10000 4.1 350 17:50 01.01.2021
550 Clouds 10 1016 81 10000 5.7 10 17:24 01.01.2021
551 Clouds 11 1016 76 10000 3.1 320 16:52 01.01.2021
552 Rain 12 1016 76 10000 3.1 320 16:28 01.01.2021
553 Clouds 11 1016 93 10000 4.1 80 15:42 01.01.2021
554 Rain 11 1016 81 10000 2.1 300 14:51 01.01.2021
555 Clouds 10 1017 87 10000 3.1 350 14:32 01.01.2021
556 Rain 11 1018 76 10000 4.1 330 13:42 01.01.2021
557 Clouds 12 1018 76 10000 4.1 330 13:23 01.01.2021
558 Clouds 12 1018 76 10000 2.1 300 12:39 01.01.2021
559 Clouds 12 1018 81 10000 2.1 210 12:18 01.01.2021
560 Clouds 11 1018 81 10000 2.1 0 11:39 01.01.2021
561 Clouds 10 1018 87 10000 1 0 11:18 01.01.2021
562 Clouds 9 1018 87 10000 1.5 230 10:34 01.01.2021
563 Clouds 8 1018 87 10000 2.1 250 09:47 01.01.2021
564 Clouds 9 1017 81 10000 1 320 09:20 01.01.2021
565 Clouds 8 1017 93 10000 1.5 210 08:25 01.01.2021
566 Clouds 9 1017 87 10000 3.1 350 04:53 01.01.2021
567 Clouds 11 1017 76 10000 3.1 310 02:44 01.01.2021
568 Clouds 11 1017 81 10000 2.1 300 01:35 01.01.2021
569 Clouds 11 1017 81 10000 1.5 300 00:28 01.01.2021
570 Clouds 11 1017 87 10000 2.1 290 23:37 31.12.2020
571 Clouds 12 1017 81 10000 4.1 320 23:19 31.12.2020
572 Clouds 12 1017 71 10000 2.6 280 22:40 31.12.2020
573 Clouds 12 1017 71 10000 2.6 280 22:20 31.12.2020
574 Clouds 12 1017 87 10000 3.1 300 21:47 31.12.2020
575 Clouds 12 1017 87 10000 3.1 300 21:25 31.12.2020
576 Rain 12 1017 87 10000 2.1 290 20:54 31.12.2020
577 Clouds 12 1017 93 10000 2.1 270 20:18 31.12.2020
578 Clouds 12 1017 93 10000 3.6 240 19:47 31.12.2020
579 Clouds 12 1017 93 10000 3.6 240 19:28 31.12.2020
580 Clouds 12 1017 93 7000 4.6 300 18:50 31.12.2020
581 Clouds 12 1017 93 7000 4.6 300 18:24 31.12.2020
582 Clouds 13 1017 76 10000 5.1 270 17:45 31.12.2020
583 Clouds 13 1017 76 10000 5.1 270 17:23 31.12.2020
584 Clouds 14 1017 67 10000 4.6 280 16:43 31.12.2020
585 Clouds 14 1018 71 10000 5.7 270 16:25 31.12.2020
586 Clouds 14 1018 71 10000 5.7 270 15:50 31.12.2020
587 Clouds 15 1018 67 10000 5.1 280 15:23 31.12.2020
588 Clouds 15 1018 67 10000 5.1 280 15:23 31.12.2020
589 Clouds 15 1018 67 10000 5.1 280 14:58 31.12.2020
590 Clouds 14 1019 67 10000 5.7 290 14:39 31.12.2020
591 Clouds 14 1019 67 10000 5.7 290 14:39 31.12.2020
592 Clouds 14 1019 67 10000 5.7 290 14:21 31.12.2020
593 Clouds 14 1019 71 10000 4.1 280 13:39 31.12.2020
594 Clouds 13 1020 82 10000 3.1 280 13:21 31.12.2020
595 Clouds 13 1020 82 10000 3.1 280 12:55 31.12.2020
596 Clouds 13 1020 82 10000 3.6 300 12:36 31.12.2020
597 Clouds 12 1020 100 10000 1.5 210 11:53 31.12.2020
598 Clouds 12 1020 93 10000 1 0 11:32 31.12.2020
599 Clouds 11 1021 100 10000 1 0 10:50 31.12.2020
600 Clouds 11 1020 100 10000 1.5 230 10:30 31.12.2020
601 Clouds 10 1020 100 10000 3.1 230 09:58 31.12.2020
602 Clouds 10 1020 100 10000 3.1 230 09:39 31.12.2020
603 Clouds 9 1020 100 10000 2.1 250 09:20 31.12.2020
604 Clouds 9 1020 100 10000 2.6 240 08:45 31.12.2020
605 Clear 9 1020 100 10000 2.6 240 08:27 31.12.2020
606 Clouds 9 1020 100 10000 2.6 270 07:52 31.12.2020
607 Clouds 9 1020 100 10000 2.1 270 06:49 31.12.2020
608 Clear 8 1021 93 10000 1.5 290 05:30 31.12.2020
609 Clear 8 1021 93 10000 1 0 03:24 31.12.2020
610 Clear 8 1021 93 10000 1.5 260 02:26 31.12.2020
611 Clouds 8 1022 93 10000 2.1 260 01:50 31.12.2020
612 Clouds 8 1022 93 10000 1.5 240 01:31 31.12.2020
613 Clouds 8 1022 93 10000 1 280 00:52 31.12.2020
614 Clouds 9 1022 87 10000 2.6 280 23:55 30.12.2020
615 Clouds 9 1022 93 10000 1 290 23:20 30.12.2020
616 Clouds 9 1022 87 10000 1.5 310 22:52 30.12.2020
617 Clouds 9 1022 87 10000 1.5 310 22:32 30.12.2020
618 Clear 10 1022 81 10000 1.5 300 21:49 30.12.2020
619 Clear 10 1022 81 10000 1.5 300 21:25 30.12.2020
620 Clear 10 1022 81 10000 2.1 310 20:52 30.12.2020
621 Clouds 10 1022 81 10000 2.1 300 20:25 30.12.2020
622 Clouds 11 1021 81 10000 2.6 340 19:42 30.12.2020
623 Clouds 11 1021 81 10000 2.6 340 19:23 30.12.2020
624 Clouds 12 1021 76 10000 2.6 350 18:57 30.12.2020
625 Clouds 12 1021 76 10000 3.1 340 18:37 30.12.2020
626 Clouds 12 1021 66 10000 3.1 340 18:19 30.12.2020
627 Clouds 12 1021 71 10000 2.6 340 17:41 30.12.2020
628 Clouds 13 1021 66 10000 4.1 360 17:21 30.12.2020
629 Clouds 13 1021 66 10000 3.1 320 16:41 30.12.2020
630 Clouds 13 1022 66 10000 2.1 0 15:50 30.12.2020
631 Clouds 13 1022 66 10000 2.1 0 15:29 30.12.2020
632 Clouds 12 1022 66 10000 2.1 100 14:45 30.12.2020
633 Clouds 12 1022 66 10000 2.1 100 14:26 30.12.2020
634 Clouds 12 1022 66 10000 2.6 80 13:59 30.12.2020
635 Clouds 12 1023 62 10000 1 0 12:56 30.12.2020
636 Clouds 12 1023 62 10000 1 0 12:26 30.12.2020
637 Clouds 10 1022 71 10000 0.5 0 11:39 30.12.2020
638 Clouds 9 1022 81 10000 0.5 0 11:21 30.12.2020
639 Clouds 9 1022 81 10000 0.5 0 10:56 30.12.2020
640 Clouds 8 1022 81 10000 1.5 310 10:37 30.12.2020
641 Clouds 7 1021 93 10000 1 0 09:55 30.12.2020
642 Clouds 7 1021 87 10000 1 290 09:36 30.12.2020
643 Clouds 8 1021 81 10000 2.6 310 08:35 30.12.2020
644 Clouds 7 1020 87 10000 2.1 300 07:46 30.12.2020
645 Clouds 7 1020 87 10000 2.1 300 07:21 30.12.2020
646 Clouds 6 1020 87 10000 1.5 0 06:38 30.12.2020
647 Clouds 6 1020 87 10000 2.1 310 05:47 30.12.2020
648 Clouds 7 1020 87 10000 2.1 310 05:27 30.12.2020
649 Clouds 8 1019 87 10000 1.5 300 03:29 30.12.2020
650 Clouds 8 1019 81 10000 2.1 270 02:47 30.12.2020
651 Clouds 8 1019 81 10000 2.1 270 02:28 30.12.2020
652 Clouds 8 1018 93 10000 2.1 270 01:42 30.12.2020
653 Rain 8 1018 93 10000 2.1 270 01:23 30.12.2020
654 Clouds 8 1018 87 10000 2.6 300 00:37 30.12.2020
655 Clouds 8 1018 87 10000 1.5 310 23:59 29.12.2020
656 Clouds 9 1018 81 10000 1 300 23:40 29.12.2020
657 Clouds 9 1018 81 10000 1 300 23:22 29.12.2020
658 Clouds 9 1017 87 10000 2.6 320 22:44 29.12.2020
659 Clouds 9 1017 87 10000 2.6 320 22:26 29.12.2020
660 Clouds 10 1017 87 10000 2.6 300 21:52 29.12.2020
661 Clouds 9 1016 87 10000 3.1 300 21:34 29.12.2020
662 Clouds 10 1016 81 10000 3.1 310 20:55 29.12.2020
663 Clouds 10 1016 81 10000 3.1 310 20:37 29.12.2020
664 Clouds 10 1015 81 10000 2.1 300 20:19 29.12.2020
665 Clouds 9 1015 81 10000 3.1 310 19:40 29.12.2020
666 Rain 10 1015 81 10000 2.6 320 19:20 29.12.2020
667 Clouds 10 1015 81 10000 7.7 350 18:46 29.12.2020
668 Clouds 11 1015 81 10000 7.7 350 18:27 29.12.2020
669 Clouds 12 1014 76 10000 5.7 330 17:44 29.12.2020
670 Clouds 12 1014 66 10000 6.2 320 17:20 29.12.2020
671 Clouds 13 1013 71 10000 5.7 340 16:52 29.12.2020
672 Clouds 12 1013 71 10000 5.7 340 16:25 29.12.2020
673 Clouds 13 1013 76 10000 4.6 310 15:38 29.12.2020
674 Clouds 13 1013 76 10000 5.1 330 15:19 29.12.2020
675 Clouds 13 1013 67 8000 4.6 320 14:40 29.12.2020
676 Clouds 13 1013 71 10000 3.1 0 14:20 29.12.2020
677 Clouds 13 1013 71 10000 3.1 0 13:54 29.12.2020
678 Clouds 12 1013 76 10000 5.1 310 13:23 29.12.2020
679 Clouds 12 1013 81 10000 2.1 320 12:44 29.12.2020
680 Clouds 12 1013 81 10000 2.1 320 12:25 29.12.2020
681 Clouds 12 1013 81 10000 2.1 350 11:57 29.12.2020
682 Clouds 11 1013 93 10000 2.1 310 11:31 29.12.2020
683 Clouds 10 1012 93 10000 3.1 320 10:40 29.12.2020
684 Clouds 10 1011 93 10000 2.6 250 09:59 29.12.2020
685 Clouds 10 1011 93 10000 2.6 280 09:37 29.12.2020
686 Clouds 10 1011 93 10000 2.1 270 09:18 29.12.2020
687 Rain 10 1011 81 10000 2.6 290 08:43 29.12.2020
688 Clouds 11 1010 93 10000 3.1 240 07:33 29.12.2020
689 Clouds 11 1010 87 10000 2.6 240 06:55 29.12.2020
690 Clouds 11 1011 87 10000 2.1 270 05:33 29.12.2020
691 Clouds 10 1012 87 10000 2.6 260 01:36 29.12.2020
692 Clouds 11 1012 87 10000 2.6 240 00:24 29.12.2020
693 Rain 11 1012 81 10000 2.1 280 23:37 28.12.2020
694 Clouds 11 1011 87 10000 2.1 280 22:41 28.12.2020
695 Clouds 11 1011 87 10000 1.5 300 21:47 28.12.2020
696 Clouds 11 1011 87 10000 1.5 300 21:29 28.12.2020
697 Clouds 11 1011 81 10000 2.1 290 20:47 28.12.2020
698 Clouds 11 1011 81 10000 2.1 290 20:29 28.12.2020
699 Clouds 11 1011 81 10000 2.6 300 19:59 28.12.2020
700 Clouds 11 1011 81 10000 3.1 300 19:40 28.12.2020
701 Clouds 11 1011 71 10000 4.1 290 19:20 28.12.2020
702 Clouds 11 1010 71 10000 3.1 300 18:44 28.12.2020
703 Clouds 12 1010 71 10000 3.1 300 18:23 28.12.2020
704 Clouds 12 1011 71 10000 3.6 300 17:41 28.12.2020
705 Clouds 12 1011 71 10000 4.1 300 17:18 28.12.2020
706 Clouds 13 1010 76 10000 3.6 310 16:32 28.12.2020
707 Clouds 13 1011 66 10000 4.1 310 15:58 28.12.2020
708 Clouds 13 1011 71 10000 3.1 310 15:38 28.12.2020
709 Clouds 13 1011 71 10000 3.6 300 14:43 28.12.2020
710 Clouds 13 1011 62 10000 4.1 310 13:51 28.12.2020
711 Clouds 13 1012 62 10000 5.1 330 13:23 28.12.2020
712 Clouds 13 1012 66 9000 4.6 310 12:38 28.12.2020
713 Clouds 13 1012 66 10000 4.1 310 12:19 28.12.2020
714 Clouds 13 1012 76 10000 2.6 300 11:44 28.12.2020
715 Clouds 12 1011 81 10000 3.6 330 11:18 28.12.2020
716 Clouds 12 1011 76 10000 3.1 310 10:42 28.12.2020
717 Clouds 12 1011 76 10000 3.1 310 10:23 28.12.2020
718 Clouds 12 1010 76 10000 4.6 330 09:45 28.12.2020
719 Clouds 12 1010 76 10000 3.1 300 09:18 28.12.2020
720 Clouds 13 1009 93 10000 3.6 310 07:21 28.12.2020
721 Clouds 13 1009 87 10000 5.7 300 06:43 28.12.2020
722 Clouds 14 1010 87 10000 6.2 250 04:22 28.12.2020
723 Clouds 14 1012 82 10000 6.7 260 01:57 28.12.2020
724 Clouds 14 1013 76 10000 5.1 270 00:30 28.12.2020
725 Clouds 14 1013 76 10000 5.1 270 00:30 28.12.2020
726 Clouds 14 1013 76 10000 6.2 260 23:45 27.12.2020
727 Clouds 13 1014 76 10000 5.1 260 23:18 27.12.2020
728 Clouds 13 1014 71 10000 6.7 270 21:56 27.12.2020
729 Clouds 13 1014 76 10000 3.6 250 21:25 27.12.2020
730 Clouds 13 1015 71 10000 4.1 240 20:45 27.12.2020
731 Clouds 13 1015 71 10000 5.1 270 19:25 27.12.2020
732 Clouds 13 1016 71 10000 5.1 260 18:57 27.12.2020
733 Clouds 13 1016 71 10000 4.6 280 18:38 27.12.2020
734 Clouds 13 1016 76 10000 4.6 250 18:18 27.12.2020
735 Clouds 13 1016 71 10000 3.6 270 17:43 27.12.2020
736 Clouds 13 1016 71 10000 4.1 290 17:22 27.12.2020
737 Clouds 13 1017 71 10000 4.6 300 16:32 27.12.2020
738 Clouds 13 1017 66 10000 4.1 270 15:50 27.12.2020
739 Clouds 13 1018 66 10000 3.6 280 14:59 27.12.2020
740 Clouds 12 1019 66 10000 1.5 170 14:40 27.12.2020
741 Clouds 12 1019 76 10000 3.1 150 14:18 27.12.2020
742 Clouds 11 1020 71 10000 2.1 120 13:22 27.12.2020
743 Clouds 11 1021 71 10000 1 0 12:43 27.12.2020
744 Clouds 10 1021 76 10000 1.5 180 11:56 27.12.2020
745 Clouds 8 1021 87 10000 1.5 180 11:36 27.12.2020
746 Clouds 6 1021 100 10000 2.1 200 10:52 27.12.2020
747 Clouds 5 1021 93 10000 1 230 10:24 27.12.2020
748 Clouds 4 1021 93 10000 1.5 220 09:53 27.12.2020
749 Clear 4 1022 65 10000 1.34 110 08:50 27.12.2020
750 Clear 4 1022 65 10000 1 150 08:25 27.12.2020
751 Clear 4 1022 64 10000 1 270 07:26 27.12.2020
752 Clear 3 1022 93 10000 1 310 05:45 27.12.2020
753 Clear 4 1023 63 10000 0.5 40 04:25 27.12.2020
754 Clear 4 1024 62 10000 1 190 03:20 27.12.2020
755 Clear 5 1024 61 10000 1.5 20 01:34 27.12.2020
756 Clear 6 1025 59 10000 3.1 10 00:24 27.12.2020
757 Clear 8 1025 59 10000 3.1 350 23:32 26.12.2020
758 Clear 8 1025 56 10000 2.6 340 22:57 26.12.2020
759 Clear 8 1025 56 10000 2.1 360 22:36 26.12.2020
760 Clear 8 1026 60 10000 3.1 350 22:18 26.12.2020
761 Clear 8 1026 60 10000 3.1 350 22:18 26.12.2020
762 Clear 8 1026 52 10000 2.1 360 21:43 26.12.2020
763 Clear 9 1026 52 10000 2.1 360 21:22 26.12.2020
764 Clear 8 1026 54 10000 3.1 360 20:42 26.12.2020
765 Clear 8 1026 53 10000 3.1 350 20:19 26.12.2020
766 Clear 9 1026 65 10000 3.6 360 19:27 26.12.2020
767 Clear 10 1025 51 10000 3.6 10 18:53 26.12.2020
768 Clear 11 1025 53 10000 3.6 40 18:29 26.12.2020
769 Clear 12 1026 49 10000 5.1 40 17:42 26.12.2020
770 Clear 12 1026 46 10000 5.1 40 17:21 26.12.2020
771 Clear 12 1026 50 10000 5.7 40 16:37 26.12.2020
772 Clear 11 1027 45 10000 5.7 30 15:52 26.12.2020
773 Clear 11 1027 50 10000 5.7 50 15:19 26.12.2020
774 Clear 11 1027 47 10000 6.2 50 14:29 26.12.2020
775 Clear 10 1028 47 10000 7.2 50 13:56 26.12.2020
776 Clear 10 1029 47 10000 6.7 50 13:36 26.12.2020
777 Clear 10 1029 52 10000 7.7 50 12:53 26.12.2020
778 Clear 9 1030 52 10000 7.2 50 12:30 26.12.2020
779 Clear 9 1030 52 10000 6.7 50 11:58 26.12.2020
780 Clear 9 1029 52 10000 7.7 50 11:39 26.12.2020
781 Clear 8 1029 60 10000 6.7 50 11:18 26.12.2020
782 Clear 7 1029 60 10000 7.2 60 10:42 26.12.2020
783 Clear 7 1029 60 10000 7.2 60 10:22 26.12.2020
784 Clear 7 1029 56 10000 7.2 50 09:39 26.12.2020
785 Clear 7 1028 56 10000 7.2 50 08:54 26.12.2020
786 Clear 7 1027 56 10000 7.2 50 08:18 26.12.2020
787 Clear 7 1027 60 10000 7.2 50 07:20 26.12.2020
788 Clear 7 1028 57 10000 6.2 60 03:54 26.12.2020
789 Clear 8 1028 65 10000 5.7 50 02:34 26.12.2020
790 Clear 9 1028 61 10000 7.7 50 00:34 26.12.2020
791 Clear 10 1028 61 10000 7.7 50 23:49 25.12.2020
792 Clear 10 1028 61 10000 8.2 40 23:28 25.12.2020
793 Clear 10 1027 57 10000 6.7 40 22:51 25.12.2020
794 Clear 11 1027 61 10000 6.2 50 22:26 25.12.2020
795 Clear 12 1026 57 10000 6.2 50 21:42 25.12.2020
796 Clear 12 1026 57 10000 6.2 40 21:24 25.12.2020
797 Clear 12 1026 62 10000 5.7 40 20:45 25.12.2020
798 Clear 12 1026 62 10000 5.7 40 20:26 25.12.2020
799 Clear 12 1025 62 10000 6.2 40 19:43 25.12.2020
800 Clear 13 1024 62 10000 6.7 30 18:47 25.12.2020
801 Clear 13 1024 62 10000 6.7 30 18:29 25.12.2020
802 Clear 13 1023 58 10000 7.2 30 17:35 25.12.2020
803 Clear 14 1023 62 10000 7.7 30 16:55 25.12.2020
804 Clear 14 1023 58 10000 7.2 40 16:25 25.12.2020
805 Clear 14 1023 58 10000 7.7 40 15:50 25.12.2020
806 Clouds 14 1023 54 10000 6.2 70 15:31 25.12.2020
807 Clouds 14 1024 58 10000 8.2 50 14:38 25.12.2020
808 Clear 13 1024 62 10000 7.7 50 14:19 25.12.2020
809 Clear 13 1024 58 10000 7.7 50 13:43 25.12.2020
810 Clear 12 1024 58 10000 7.7 50 13:24 25.12.2020
811 Clear 11 1024 61 10000 8.2 50 12:28 25.12.2020
812 Clouds 10 1024 66 10000 7.7 50 11:50 25.12.2020
813 Clouds 10 1024 66 10000 7.7 50 11:25 25.12.2020
814 Clouds 10 1024 66 10000 7.7 50 11:25 25.12.2020
815 Clouds 9 1024 65 10000 7.2 40 10:49 25.12.2020
816 Clouds 9 1024 65 10000 7.2 40 10:22 25.12.2020
817 Clear 8 1023 70 10000 7.7 40 09:27 25.12.2020
818 Clear 8 1023 70 10000 7.7 40 09:27 25.12.2020
819 Clear 8 1023 75 10000 6.2 40 08:45 25.12.2020
820 Clear 7 1022 81 10000 5.1 40 07:52 25.12.2020
821 Clear 7 1022 65 10000 5.7 40 06:44 25.12.2020
822 Clear 8 1023 75 10000 3.1 360 02:47 25.12.2020
823 Clear 9 1024 70 10000 4.1 340 00:48 25.12.2020
824 Clear 9 1024 70 10000 4.1 340 00:18 25.12.2020
825 Clear 9 1024 70 10000 4.6 350 23:23 24.12.2020
826 Clear 9 1024 75 10000 4.6 350 22:37 24.12.2020
827 Clear 10 1024 70 10000 5.1 340 22:18 24.12.2020
828 Clear 9 1024 70 10000 5.1 350 21:32 24.12.2020
829 Clear 10 1023 76 10000 4.6 350 20:20 24.12.2020
830 Clear 11 1023 71 10000 4.6 360 18:39 24.12.2020
831 Clear 12 1023 66 10000 6.2 350 18:18 24.12.2020
832 Clear 12 1023 66 10000 5.7 350 17:36 24.12.2020
833 Clear 13 1024 54 10000 8.2 350 16:28 24.12.2020
834 Clear 13 1024 54 10000 7.7 350 15:59 24.12.2020
835 Clear 13 1024 54 10000 7.7 350 15:59 24.12.2020
836 Clear 13 1024 54 10000 7.2 350 15:41 24.12.2020
837 Clear 13 1024 58 10000 7.2 350 15:19 24.12.2020
838 Clear 13 1025 54 10000 6.7 340 14:42 24.12.2020
839 Clear 13 1025 54 10000 6.7 340 14:23 24.12.2020
840 Clear 13 1026 54 10000 6.7 350 13:41 24.12.2020
841 Clouds 13 1026 58 10000 7.2 340 13:21 24.12.2020
842 Clouds 12 1027 66 10000 6.2 340 12:41 24.12.2020
843 Clouds 12 1027 62 10000 6.7 340 12:21 24.12.2020
844 Clouds 12 1026 62 10000 6.7 350 11:39 24.12.2020
845 Clouds 12 1027 71 10000 4.1 330 11:20 24.12.2020
846 Clouds 12 1027 71 10000 4.1 330 11:20 24.12.2020
847 Clouds 11 1027 71 10000 4.1 330 10:52 24.12.2020
848 Clouds 11 1027 81 10000 4.6 330 10:34 24.12.2020
849 Clear 10 1026 76 10000 4.6 340 09:52 24.12.2020
850 Clear 10 1026 76 10000 4.6 340 09:24 24.12.2020
851 Clouds 11 1026 81 10000 3.6 350 08:20 24.12.2020
852 Clear 11 1025 76 10000 3.6 350 07:39 24.12.2020
853 Clear 11 1025 76 10000 3.6 350 07:18 24.12.2020
854 Clear 12 1026 81 10000 3.1 350 05:36 24.12.2020
855 Clouds 12 1026 81 10000 5.7 360 01:56 24.12.2020
856 Clouds 12 1026 81 10000 5.7 360 01:56 24.12.2020
857 Clouds 13 1026 87 10000 4.6 360 01:36 24.12.2020
858 Clouds 13 1026 87 10000 5.1 10 01:18 24.12.2020
859 Clouds 13 1026 87 10000 3.6 350 00:21 24.12.2020
860 Clouds 13 1026 93 10000 5.7 350 23:46 23.12.2020
861 Clouds 13 1026 93 10000 5.7 350 23:26 23.12.2020
862 Clouds 13 1026 93 10000 4.1 10 22:55 23.12.2020
863 Clouds 13 1026 87 10000 4.6 350 22:30 23.12.2020
864 Clouds 13 1026 87 10000 4.1 340 21:56 23.12.2020
865 Drizzle 13 1026 93 10000 4.6 340 21:28 23.12.2020
866 Clouds 13 1025 93 10000 4.1 330 20:54 23.12.2020
867 Clouds 13 1025 100 10000 3.6 350 20:36 23.12.2020
868 Clouds 13 1025 100 10000 4.1 330 20:18 23.12.2020
869 Clouds 13 1025 100 10000 4.1 330 19:39 23.12.2020
870 Clouds 14 1025 100 10000 3.1 330 19:20 23.12.2020
871 Drizzle 14 1025 100 4000 1.5 310 18:48 23.12.2020
872 Mist 14 1025 100 5000 1 0 18:24 23.12.2020
873 Clouds 14 1025 100 6000 1 0 17:39 23.12.2020
874 Clouds 14 1025 100 6000 1 0 17:39 23.12.2020
875 Clouds 14 1025 100 6000 1 0 17:39 23.12.2020
876 Clouds 15 1024 100 6000 2.11 278 17:20 23.12.2020
877 Clouds 14 1024 100 6000 2.1 350 16:47 23.12.2020
878 Clouds 15 1024 100 6000 2.1 350 16:29 23.12.2020
879 Drizzle 15 1024 100 4500 1 0 15:56 23.12.2020
880 Mist 14 1024 100 2000 1.5 350 15:30 23.12.2020
881 Clouds 15 1025 93 8000 2.1 0 14:59 23.12.2020
882 Clouds 15 1025 87 9000 2.1 110 14:39 23.12.2020
883 Clouds 15 1025 87 9000 2.1 110 14:20 23.12.2020
884 Clouds 15 1025 93 8000 2.1 100 13:44 23.12.2020
885 Clouds 15 1026 100 6000 0.5 0 13:20 23.12.2020
886 Clouds 15 1026 100 6000 0.5 0 12:54 23.12.2020
887 Mist 15 1026 100 5000 2.65 231 12:30 23.12.2020
888 Fog 14 1026 100 5000 1.35 204 11:54 23.12.2020
889 Mist 13 1026 100 4000 1 0 11:27 23.12.2020
890 Mist 12 1025 100 4000 1 0 10:52 23.12.2020
891 Mist 12 1025 100 4000 2.1 40 10:33 23.12.2020
892 Mist 11 1024 100 4500 1.5 50 09:37 23.12.2020
893 Mist 11 1024 100 5000 2.1 60 08:52 23.12.2020
894 Clouds 11 1024 100 7000 1.5 60 08:31 23.12.2020
895 Fog 11 1024 100 1200 0.5 0 07:48 23.12.2020
896 Clouds 12 1023 100 10000 1 40 06:42 23.12.2020
897 Clouds 12 1024 100 10000 1 330 05:58 23.12.2020
898 Clouds 12 1023 100 10000 1 0 05:22 23.12.2020
899 Fog 12 1024 100 10000 1 0 01:59 23.12.2020
900 Clouds 12 1024 100 10000 1 0 00:32 23.12.2020
901 Clouds 13 1024 93 10000 1 0 23:43 22.12.2020
902 Clouds 13 1024 93 10000 1 0 23:22 22.12.2020
903 Clouds 13 1024 93 10000 1 270 22:42 22.12.2020
904 Clouds 13 1024 100 10000 2.1 210 22:24 22.12.2020
905 Clouds 13 1024 100 10000 2.1 210 21:52 22.12.2020
906 Clouds 14 1024 87 10000 2.6 230 21:21 22.12.2020
907 Clouds 15 1024 87 10000 2.6 230 20:54 22.12.2020
908 Clouds 14 1024 93 10000 3.1 230 20:35 22.12.2020
909 Clouds 15 1023 87 10000 3.6 220 19:59 22.12.2020
910 Clouds 15 1023 82 10000 3.6 220 19:41 22.12.2020
911 Clouds 15 1023 77 10000 3.6 220 19:20 22.12.2020
912 Clear 15 1023 77 10000 2.1 190 18:44 22.12.2020
913 Clear 15 1023 77 10000 2.1 190 18:24 22.12.2020
914 Clear 16 1023 72 10000 2.6 130 17:41 22.12.2020
915 Clear 16 1023 67 10000 3.1 130 17:18 22.12.2020
916 Clear 16 1023 67 10000 3.1 130 17:18 22.12.2020
917 Clear 17 1023 67 10000 2.6 120 16:47 22.12.2020
918 Clear 17 1023 77 10000 1.5 150 16:21 22.12.2020
919 Clear 17 1023 77 10000 2.1 110 15:49 22.12.2020
920 Clear 17 1023 77 10000 2.1 110 15:31 22.12.2020
921 Clear 16 1025 82 10000 2.6 80 14:58 22.12.2020
922 Clear 15 1025 82 10000 2.6 80 14:40 22.12.2020
923 Clear 15 1025 87 10000 2.6 90 14:21 22.12.2020
924 Clouds 15 1025 87 10000 3.1 80 13:45 22.12.2020
925 Clouds 14 1026 93 10000 2.1 60 13:19 22.12.2020
926 Clouds 13 1026 93 10000 2.1 60 12:53 22.12.2020
927 Clouds 13 1026 93 10000 3.1 50 12:34 22.12.2020
928 Clouds 12 1026 100 10000 3.1 60 11:58 22.12.2020
929 Clouds 12 1026 100 10000 3.1 70 11:39 22.12.2020
930 Clouds 11 1026 100 10000 3.1 60 11:20 22.12.2020
931 Clouds 11 1026 100 10000 2.6 60 10:53 22.12.2020
932 Clouds 11 1026 100 10000 2.6 60 10:24 22.12.2020
933 Clouds 10 1026 100 10000 2.6 60 09:57 22.12.2020
934 Clouds 9 1026 100 10000 2.6 50 09:24 22.12.2020
935 Clouds 9 1026 100 10000 2.1 50 08:53 22.12.2020
936 Clouds 10 1026 100 10000 2.6 60 08:34 22.12.2020
937 Clouds 9 1026 100 10000 2.6 60 07:56 22.12.2020
938 Clouds 9 1026 100 10000 2.6 60 07:56 22.12.2020
939 Clouds 10 1026 100 7000 2.6 50 07:19 22.12.2020
940 Fog 10 1026 100 600 2.6 30 05:51 22.12.2020
941 Clouds 11 1027 100 6000 1.5 40 03:46 22.12.2020
942 Clear 12 1028 100 10000 2.1 10 01:44 22.12.2020
943 Clear 12 1028 100 10000 1 350 23:56 21.12.2020
944 Clear 13 1028 100 10000 1 10 23:38 21.12.2020
945 Clouds 13 1028 100 10000 1 0 23:18 21.12.2020
946 Clouds 13 1028 100 10000 1.11 90 22:36 21.12.2020
947 Clouds 13 1028 100 10000 1.11 90 22:36 21.12.2020
948 Clouds 13 1029 100 10000 1.5 280 22:18 21.12.2020
949 Clouds 14 1029 93 10000 1.5 280 21:42 21.12.2020
950 Clouds 14 1029 93 10000 1.5 280 21:24 21.12.2020
951 Clouds 14 1029 93 10000 2.6 250 20:43 21.12.2020
952 Clouds 14 1029 93 10000 2.6 250 20:20 21.12.2020
953 Clouds 15 1028 87 10000 2.6 260 19:46 21.12.2020
954 Clouds 15 1028 87 10000 2.6 260 19:20 21.12.2020
955 Clouds 15 1028 87 10000 2.6 230 18:57 21.12.2020
956 Clouds 15 1028 82 10000 2.1 130 18:39 21.12.2020
957 Clouds 16 1028 87 10000 2.1 140 18:20 21.12.2020
958 Clouds 16 1028 87 10000 2.6 140 17:42 21.12.2020
959 Clouds 16 1028 87 10000 2.6 140 17:22 21.12.2020
960 Clouds 16 1028 93 10000 2.1 140 16:41 21.12.2020
961 Clouds 16 1028 93 10000 2.1 80 16:19 21.12.2020
962 Clouds 16 1028 87 10000 1.5 70 15:41 21.12.2020
963 Clouds 15 1028 93 10000 2.6 70 14:58 21.12.2020
964 Clouds 16 1029 100 10000 2.1 110 14:23 21.12.2020
965 Clouds 15 1029 100 10000 2.1 80 13:55 21.12.2020
966 Clouds 15 1029 100 8000 2.1 90 13:37 21.12.2020
967 Clouds 15 1030 100 8000 2.1 0 13:18 21.12.2020
968 Clouds 14 1030 100 7000 1 0 12:42 21.12.2020
969 Fog 14 1030 100 6000 1 0 12:19 21.12.2020
970 Mist 14 1030 100 3500 1 0 11:43 21.12.2020
971 Mist 14 1030 100 3500 1 0 11:22 21.12.2020
972 Mist 13 1029 100 3500 1.5 0 10:57 21.12.2020
973 Mist 13 1029 100 4500 1 60 10:39 21.12.2020
974 Mist 13 1029 100 4500 1 60 10:39 21.12.2020
975 Fog 13 1029 100 5000 1 0 09:56 21.12.2020
976 Mist 13 1029 100 5000 0.5 0 09:38 21.12.2020
977 Mist 13 1029 100 5000 0.5 0 09:20 21.12.2020
978 Clouds 13 1028 100 6000 1 0 08:26 21.12.2020
979 Mist 13 1028 100 2000 0.5 50 07:19 21.12.2020
980 Clouds 13 1028 100 8000 0.5 0 05:39 21.12.2020
981 Clouds 13 1028 100 10000 0.5 0 04:31 21.12.2020
982 Clouds 14 1028 100 10000 1 250 00:37 21.12.2020
983 Clouds 14 1028 93 10000 1 220 23:51 20.12.2020
984 Clouds 14 1028 100 10000 2.1 200 23:21 20.12.2020
985 Clouds 14 1028 100 10000 2.1 220 22:55 20.12.2020
986 Clouds 14 1028 87 10000 2.1 210 22:37 20.12.2020
987 Clouds 14 1028 93 10000 2.1 230 22:19 20.12.2020
988 Clouds 14 1027 93 10000 2.1 220 21:38 20.12.2020
989 Clear 14 1027 93 10000 2.6 220 21:19 20.12.2020
990 Clouds 15 1027 87 10000 2.1 220 20:45 20.12.2020
991 Clouds 15 1027 87 10000 2.1 210 20:22 20.12.2020
992 Clouds 15 1026 82 10000 2.1 210 19:44 20.12.2020
993 Clouds 15 1026 82 10000 2.1 210 19:24 20.12.2020
994 Clouds 15 1026 87 10000 3.6 210 18:54 20.12.2020
995 Clouds 15 1026 82 10000 3.1 230 18:36 20.12.2020
996 Clouds 16 1026 82 10000 4.1 220 17:55 20.12.2020
997 Clouds 16 1026 82 10000 4.6 220 17:36 20.12.2020
998 Clouds 16 1026 77 10000 5.1 210 17:18 20.12.2020
999 Clouds 16 1025 77 10000 4.6 210 16:43 20.12.2020
1000 Clouds 16 1025 77 10000 4.1 230 16:23 20.12.2020
1001 Clouds 16 1026 77 10000 4.1 210 15:40 20.12.2020
1002 Clouds 15 1026 82 10000 4.1 220 15:22 20.12.2020
1003 Fog 15 1026 93 10000 1.5 0 14:45 20.12.2020
1004 Fog 15 1026 93 10000 1.5 0 14:27 20.12.2020
1005 Fog 15 1026 93 9000 1.5 80 13:44 20.12.2020
1006 Fog 15 1026 93 9000 1.5 80 13:23 20.12.2020
1007 Fog 14 1026 93 9000 2.1 90 12:51 20.12.2020
1008 Fog 14 1027 100 9000 1.5 90 12:23 20.12.2020
1009 Fog 14 1027 100 9000 1.16 151 11:51 20.12.2020
1010 Fog 13 1026 100 9000 1 0 11:26 20.12.2020
1011 Fog 12 1025 100 10000 1 60 10:49 20.12.2020
1012 Fog 11 1025 100 10000 1 60 10:22 20.12.2020
1013 Clouds 10 1025 100 10000 1.05 122 09:57 20.12.2020
1014 Clouds 10 1025 100 10000 1 260 09:37 20.12.2020
1015 Clouds 10 1025 100 10000 0.98 152 09:19 20.12.2020
1016 Clouds 10 1024 100 10000 0.5 0 08:48 20.12.2020
1017 Clouds 10 1024 100 10000 0.5 0 08:29 20.12.2020
1018 Clouds 10 1023 100 10000 1 230 07:22 20.12.2020
1019 Clouds 11 1023 100 10000 0.48 51 04:42 20.12.2020
1020 Clouds 12 1023 93 10000 2.6 290 01:31 20.12.2020
1021 Clear 12 1023 93 10000 2.6 300 00:22 20.12.2020
1022 Clouds 13 1022 93 10000 1.5 290 23:18 19.12.2020
1023 Clouds 13 1022 93 10000 2.1 300 22:45 19.12.2020
1024 Clouds 13 1022 93 10000 2.1 300 22:25 19.12.2020
1025 Clouds 13 1022 93 10000 2.1 300 22:25 19.12.2020
1026 Clouds 13 1022 87 10000 1 300 21:59 19.12.2020
1027 Clouds 13 1022 93 10000 1.5 300 21:40 19.12.2020
1028 Clouds 13 1021 93 10000 1.5 280 21:21 19.12.2020
1029 Clouds 13 1021 87 10000 1.5 270 20:41 19.12.2020
1030 Clear 13 1021 87 10000 2.1 300 20:18 19.12.2020
1031 Clouds 14 1020 87 10000 2.6 310 19:50 19.12.2020
1032 Clouds 14 1020 87 10000 2.6 310 19:29 19.12.2020
1033 Clouds 14 1020 82 10000 2.1 320 18:38 19.12.2020
1034 Clouds 15 1020 76 10000 3.1 340 18:20 19.12.2020
1035 Clouds 15 1020 72 10000 4.1 320 17:45 19.12.2020
1036 Clouds 15 1019 72 10000 4.1 320 17:23 19.12.2020
1037 Clouds 16 1019 63 10000 4.6 330 16:44 19.12.2020
1038 Clouds 17 1019 63 10000 4.6 330 16:26 19.12.2020
1039 Clouds 17 1018 67 10000 2.6 330 15:58 19.12.2020
1040 Clouds 17 1018 72 10000 3.1 350 15:39 19.12.2020
1041 Clouds 16 1018 82 10000 2.1 0 14:43 19.12.2020
1042 Clouds 16 1018 82 10000 2.1 0 14:22 19.12.2020
1043 Clouds 16 1019 87 10000 3.6 340 13:41 19.12.2020
1044 Clouds 15 1019 87 10000 2.1 330 13:20 19.12.2020
1045 Clouds 15 1019 87 10000 2.1 320 12:44 19.12.2020
1046 Clouds 15 1019 100 8000 1 0 12:26 19.12.2020
1047 Clouds 15 1019 93 10000 1.5 290 11:58 19.12.2020
1048 Clouds 15 1018 93 8000 0.5 0 11:40 19.12.2020
1049 Clouds 14 1018 100 10000 3.39 337 10:45 19.12.2020
1050 Clouds 14 1018 100 10000 2.72 336 10:27 19.12.2020
1051 Clouds 14 1018 93 10000 2.1 240 09:58 19.12.2020
1052 Clouds 14 1018 100 10000 1.5 260 09:38 19.12.2020
1053 Clouds 14 1017 93 10000 2.1 270 08:37 19.12.2020
1054 Rain 14 1017 93 10000 3.1 250 07:53 19.12.2020
1055 Rain 14 1016 93 10000 1.5 240 07:18 19.12.2020
1056 Rain 14 1016 100 10000 2.1 280 06:39 19.12.2020
1057 Rain 15 1016 100 4000 7.7 210 05:19 19.12.2020
1058 Rain 15 1016 100 4500 7.7 190 03:28 19.12.2020
1059 Rain 15 1018 100 6000 7.2 190 00:41 19.12.2020
1060 Rain 15 1018 100 4000 7.7 200 00:18 19.12.2020
1061 Mist 15 1018 100 5000 6.7 180 23:48 18.12.2020
1062 Mist 15 1018 100 5000 6.7 180 23:24 18.12.2020
1063 Clouds 15 1019 93 10000 6.2 180 22:48 18.12.2020
1064 Clouds 15 1019 93 10000 6.2 180 22:24 18.12.2020
1065 Clouds 15 1019 93 10000 5.7 180 21:51 18.12.2020
1066 Clouds 15 1019 93 10000 6.2 180 21:31 18.12.2020
1067 Clouds 15 1019 93 8000 5.1 170 20:44 18.12.2020
1068 Clouds 14 1019 93 8000 5.1 170 20:23 18.12.2020
1069 Clouds 15 1020 93 9000 5.1 180 19:47 18.12.2020
1070 Clouds 15 1020 93 10000 4.6 170 19:22 18.12.2020
1071 Clouds 15 1020 87 10000 3.6 160 18:45 18.12.2020
1072 Clouds 15 1020 87 10000 3.6 160 18:26 18.12.2020
1073 Clouds 15 1020 82 10000 5.1 170 17:36 18.12.2020
1074 Clouds 15 1020 87 10000 4.1 170 16:59 18.12.2020
1075 Clouds 15 1020 87 10000 4.6 150 16:40 18.12.2020
1076 Clouds 15 1020 82 10000 3.6 170 16:20 18.12.2020
1077 Clouds 15 1020 82 10000 3.6 170 15:51 18.12.2020
1078 Clouds 15 1021 82 10000 2.1 140 15:33 18.12.2020
1079 Clouds 14 1021 87 10000 2.1 80 14:57 18.12.2020
1080 Clouds 14 1022 93 10000 2.6 90 14:26 18.12.2020
1081 Clouds 13 1022 93 10000 2.1 90 13:53 18.12.2020
1082 Fog 13 1022 93 10000 2.6 80 13:33 18.12.2020
1083 Fog 12 1023 100 10000 1 0 12:58 18.12.2020
1084 Fog 12 1023 100 10000 1.5 0 12:38 18.12.2020
1085 Fog 10 1023 100 10000 2.1 70 11:29 18.12.2020
1086 Fog 9 1023 100 700 2.1 60 10:45 18.12.2020
1087 Fog 9 1023 100 700 2.1 60 10:24 18.12.2020
1088 Fog 9 1023 100 800 2.1 60 09:59 18.12.2020
1089 Fog 9 1023 100 150 2.1 50 09:37 18.12.2020
1090 Fog 8 1023 100 200 2.6 50 09:19 18.12.2020
1091 Fog 8 1023 100 100 2.6 60 08:46 18.12.2020
1092 Fog 9 1023 100 100 1 0 08:20 18.12.2020
1093 Fog 9 1023 100 100 1 30 07:20 18.12.2020
1094 Fog 9 1023 100 200 1 0 06:59 18.12.2020
1095 Fog 9 1023 100 7000 1.62 116 05:45 18.12.2020
1096 Fog 10 1023 100 7000 1.64 117 05:26 18.12.2020
1097 Fog 10 1024 100 600 1 320 04:42 18.12.2020
1098 Clear 10 1025 93 10000 1.54 114 01:47 18.12.2020
1099 Clear 10 1025 93 10000 1.54 114 01:47 18.12.2020
1100 Clear 11 1024 87 10000 0.5 0 00:38 18.12.2020
1101 Clear 12 1025 87 10000 1.5 290 23:54 17.12.2020
1102 Clear 12 1025 81 10000 2.1 300 23:25 17.12.2020
1103 Clear 12 1025 81 10000 2.1 300 22:49 17.12.2020
1104 Clear 12 1025 81 10000 2.1 300 22:28 17.12.2020
1105 Clear 12 1025 82 10000 2.1 310 21:47 17.12.2020
1106 Clear 12 1025 82 10000 2.1 310 21:47 17.12.2020
1107 Clear 12 1025 82 10000 2.6 300 21:22 17.12.2020
1108 Clear 12 1025 82 10000 2.6 300 20:55 17.12.2020
1109 Clear 13 1024 82 10000 2.1 310 20:37 17.12.2020
1110 Clear 13 1024 82 10000 2.6 310 20:18 17.12.2020
1111 Clouds 13 1024 82 10000 1.5 300 19:44 17.12.2020
1112 Clouds 14 1024 82 10000 1.5 350 19:22 17.12.2020
1113 Clouds 15 1024 82 10000 1 0 18:41 17.12.2020
1114 Clouds 15 1024 82 10000 1 0 18:22 17.12.2020
1115 Clouds 15 1023 77 10000 1 0 18:22 17.12.2020
1116 Clouds 15 1023 77 10000 1 0 17:51 17.12.2020
1117 Clouds 16 1023 77 10000 1 0 17:32 17.12.2020
1118 Clouds 16 1023 77 10000 1 0 17:32 17.12.2020
1119 Clouds 16 1023 72 10000 1 0 16:44 17.12.2020
1120 Clouds 16 1023 77 10000 2.6 90 16:24 17.12.2020
1121 Clouds 16 1023 77 10000 2.6 90 15:52 17.12.2020
1122 Clouds 16 1023 77 10000 2.6 100 15:31 17.12.2020
1123 Clouds 16 1023 77 10000 2.1 80 14:55 17.12.2020
1124 Clouds 15 1024 72 10000 2.6 350 14:31 17.12.2020
1125 Clouds 15 1024 72 10000 2.6 350 13:58 17.12.2020
1126 Clouds 15 1024 72 10000 2.6 350 13:58 17.12.2020
1127 Clouds 15 1024 72 10000 2.6 320 13:35 17.12.2020
1128 Clouds 15 1025 82 10000 1.5 360 12:48 17.12.2020
1129 Clouds 15 1025 82 10000 1.5 360 12:25 17.12.2020
1130 Clouds 14 1024 87 10000 1.17 34 11:45 17.12.2020
1131 Clouds 13 1024 87 10000 1.07 43 11:25 17.12.2020
1132 Clouds 12 1024 93 10000 1.5 270 10:56 17.12.2020
1133 Clouds 11 1024 100 10000 1 270 10:56 17.12.2020
1134 Clouds 9 1024 100 10000 0.5 0 10:21 17.12.2020
1135 Clouds 9 1023 93 10000 1 0 09:29 17.12.2020
1136 Clouds 9 1022 93 10000 0.5 0 08:20 17.12.2020
1137 Clear 9 1022 93 10000 1 310 07:40 17.12.2020
1138 Clear 9 1022 93 10000 1 300 07:18 17.12.2020
1139 Clear 9 1022 87 10000 0.5 0 06:42 17.12.2020
1140 Clear 9 1022 87 10000 0.5 0 06:24 17.12.2020
1141 Clear 11 1021 87 10000 4.1 330 01:40 17.12.2020
1142 Clear 11 1020 81 10000 2.6 330 23:57 16.12.2020
1143 Clear 12 1019 81 10000 3.1 350 23:23 16.12.2020
1144 Clear 12 1019 81 10000 3.1 350 22:58 16.12.2020
1145 Clouds 12 1019 81 10000 1.5 320 22:36 16.12.2020
1146 Clouds 12 1019 81 10000 3.6 330 21:58 16.12.2020
1147 Clouds 12 1019 87 10000 4.1 330 21:38 16.12.2020
1148 Clouds 12 1018 81 10000 4.6 340 21:20 16.12.2020
1149 Clouds 12 1017 87 10000 5.1 340 20:44 16.12.2020
1150 Clouds 13 1016 82 10000 5.1 350 20:19 16.12.2020
1151 Clouds 13 1016 87 10000 5.7 340 19:21 16.12.2020
1152 Clouds 13 1016 87 10000 5.7 340 18:57 16.12.2020
1153 Clouds 13 1016 87 10000 5.7 340 18:57 16.12.2020
1154 Clouds 13 1015 82 10000 5.1 10 18:37 16.12.2020
1155 Clouds 13 1015 82 10000 6.2 350 18:19 16.12.2020
1156 Clouds 14 1014 82 10000 6.7 360 17:33 16.12.2020
1157 Clouds 14 1013 76 10000 7.2 340 16:42 16.12.2020
1158 Clouds 14 1012 82 10000 7.2 350 16:22 16.12.2020
1159 Clouds 14 1012 82 10000 7.2 350 15:52 16.12.2020
1160 Clouds 14 1012 82 10000 6.7 330 15:32 16.12.2020
1161 Clouds 14 1012 87 10000 4.1 330 14:56 16.12.2020
1162 Clouds 14 1012 87 10000 4.1 330 14:37 16.12.2020
1163 Clouds 14 1011 87 10000 3.6 320 14:19 16.12.2020
1164 Clouds 13 1011 93 10000 2.1 300 13:39 16.12.2020
1165 Clouds 13 1011 100 5000 3.1 280 13:19 16.12.2020
1166 Clouds 13 1011 93 10000 4.6 200 12:42 16.12.2020
1167 Clouds 13 1011 93 10000 3.6 200 11:49 16.12.2020
1168 Rain 13 1011 93 10000 3.6 200 11:23 16.12.2020
1169 Rain 13 1010 100 8000 2.6 220 10:53 16.12.2020
1170 Clouds 13 1010 100 8000 2.6 220 10:27 16.12.2020
1171 Clouds 13 1010 100 8000 2.6 220 10:27 16.12.2020
1172 Clouds 13 1009 100 10000 3.1 220 09:54 16.12.2020
1173 Clouds 13 1008 100 10000 2.6 200 09:24 16.12.2020
1174 Clouds 12 1008 100 9000 3.6 240 08:22 16.12.2020
1175 Rain 13 1007 87 9000 7.7 280 07:42 16.12.2020
1176 Rain 14 1007 87 3000 11.3 200 07:20 16.12.2020
1177 Clouds 15 1010 87 10000 9.8 180 03:35 16.12.2020
1178 Clouds 15 1011 82 10000 8.2 190 01:57 16.12.2020
1179 Clouds 15 1013 87 10000 4.1 190 23:46 15.12.2020
1180 Clouds 15 1013 87 10000 6.7 200 23:19 15.12.2020
1181 Clouds 15 1013 87 10000 7.7 190 22:41 15.12.2020
1182 Clouds 15 1014 87 10000 3.6 180 22:20 15.12.2020
1183 Clouds 15 1014 87 10000 4.1 180 21:46 15.12.2020
1184 Clouds 15 1014 87 10000 4.6 180 21:23 15.12.2020
1185 Clouds 14 1014 82 10000 5.1 190 20:45 15.12.2020
1186 Clouds 14 1014 82 10000 5.1 190 20:26 15.12.2020
1187 Clouds 15 1015 76 10000 6.2 200 19:55 15.12.2020
1188 Clouds 15 1015 82 10000 5.7 170 19:33 15.12.2020
1189 Clouds 15 1014 72 10000 4.6 180 18:41 15.12.2020
1190 Clouds 15 1015 76 10000 6.2 190 18:22 15.12.2020
1191 Clouds 15 1015 72 10000 6.7 200 17:58 15.12.2020
1192 Clouds 15 1015 72 10000 6.7 200 17:40 15.12.2020
1193 Clouds 16 1015 72 10000 7.7 200 17:19 15.12.2020
1194 Clouds 16 1016 72 10000 6.7 210 16:32 15.12.2020
1195 Clouds 16 1016 72 10000 7.2 200 15:52 15.12.2020
1196 Clouds 16 1016 72 10000 7.2 200 15:31 15.12.2020
1197 Clouds 16 1017 72 10000 5.7 220 14:48 15.12.2020
1198 Clouds 16 1017 72 10000 5.7 200 14:21 15.12.2020
1199 Clouds 15 1017 82 10000 5.1 200 13:52 15.12.2020
1200 Clouds 15 1017 82 10000 5.1 200 13:32 15.12.2020
1201 Clouds 15 1018 82 10000 3.6 180 12:47 15.12.2020
1202 Clouds 15 1018 82 10000 2.6 190 12:22 15.12.2020
1203 Clouds 15 1018 82 10000 2.6 190 11:56 15.12.2020
1204 Clouds 14 1018 87 10000 2.6 190 11:26 15.12.2020
1205 Clouds 13 1018 93 10000 2.1 200 10:56 15.12.2020
1206 Clouds 13 1017 93 10000 1.5 210 10:35 15.12.2020
1207 Clouds 11 1017 87 10000 1.5 200 09:53 15.12.2020
1208 Clouds 11 1017 93 10000 1 0 09:32 15.12.2020
1209 Clouds 10 1017 93 10000 2.1 250 08:57 15.12.2020
1210 Clouds 11 1017 100 10000 1.5 240 08:29 15.12.2020
1211 Clouds 11 1016 100 10000 1.5 240 07:52 15.12.2020
1212 Clouds 11 1016 93 10000 1 260 07:28 15.12.2020
1213 Clouds 11 1016 93 10000 2.6 230 06:37 15.12.2020
1214 Clouds 12 1015 87 10000 3.1 240 04:20 15.12.2020
1215 Clouds 13 1014 87 10000 2.6 250 00:36 15.12.2020
1216 Clear 13 1014 87 10000 2.6 240 23:28 14.12.2020
1217 Clouds 13 1014 87 10000 2.1 270 22:59 14.12.2020
1218 Clouds 13 1014 87 10000 2.6 270 22:37 14.12.2020
1219 Clouds 13 1013 100 10000 2.6 240 21:54 14.12.2020
1220 Clouds 13 1013 100 10000 2.6 240 21:35 14.12.2020
1221 Clouds 14 1013 87 10000 2.1 250 20:52 14.12.2020
1222 Clouds 14 1013 93 10000 2.6 260 20:33 14.12.2020
1223 Clouds 14 1013 93 10000 3.1 240 19:59 14.12.2020
1224 Clouds 14 1012 93 6000 3.1 240 19:30 14.12.2020
1225 Clouds 15 1012 87 10000 3.1 240 18:55 14.12.2020
1226 Clouds 15 1012 87 10000 3.1 240 18:55 14.12.2020
1227 Clouds 15 1012 87 10000 4.1 250 18:37 14.12.2020
1228 Clouds 15 1011 82 10000 5.1 240 17:53 14.12.2020
1229 Clouds 15 1011 82 10000 5.1 240 17:32 14.12.2020
1230 Clouds 16 1011 82 10000 4.6 250 16:53 14.12.2020
1231 Clouds 16 1011 82 10000 4.6 250 16:30 14.12.2020
1232 Clouds 16 1011 77 10000 5.1 250 15:53 14.12.2020
1233 Clouds 17 1011 77 10000 5.1 250 15:30 14.12.2020
1234 Clouds 17 1011 77 10000 5.7 240 14:45 14.12.2020
1235 Clouds 17 1011 77 10000 5.7 240 14:27 14.12.2020
1236 Clouds 16 1012 87 10000 4.6 240 13:47 14.12.2020
1237 Clouds 16 1012 87 10000 4.6 240 13:27 14.12.2020
1238 Clouds 16 1012 87 10000 3.6 240 12:54 14.12.2020
1239 Clouds 15 1012 93 10000 3.1 240 12:30 14.12.2020
1240 Rain 15 1012 100 6000 3.1 230 11:37 14.12.2020
1241 Rain 14 1011 100 10000 2.6 230 10:48 14.12.2020
1242 Rain 14 1011 100 10000 2.6 230 10:27 14.12.2020
1243 Rain 14 1011 100 10000 2.6 230 09:51 14.12.2020
1244 Rain 14 1011 100 5000 5.7 220 08:52 14.12.2020
1245 Rain 15 1011 100 5000 4.6 220 08:33 14.12.2020
1246 Drizzle 15 1011 100 6000 4.6 210 07:52 14.12.2020
1247 Clouds 15 1011 100 10000 4.1 220 07:19 14.12.2020
1248 Clouds 15 1011 100 10000 3.1 210 06:33 14.12.2020
1249 Clouds 15 1012 100 10000 3.1 210 03:55 14.12.2020
1250 Drizzle 15 1013 100 7000 3.6 190 00:57 14.12.2020
1251 Drizzle 15 1013 93 6000 3.6 190 00:39 14.12.2020
1252 Rain 15 1013 93 10000 3.1 180 00:20 14.12.2020
1253 Clouds 15 1013 93 10000 2.1 210 23:44 13.12.2020
1254 Clouds 15 1013 93 10000 2.1 220 22:57 13.12.2020
1255 Clouds 15 1014 93 10000 2.6 210 22:39 13.12.2020
1256 Clouds 15 1014 93 10000 2.1 200 22:18 13.12.2020
1257 Clouds 15 1014 93 10000 2.6 210 21:41 13.12.2020
1258 Clouds 15 1014 93 10000 3.6 210 20:55 13.12.2020
1259 Clouds 15 1014 93 10000 3.6 220 20:25 13.12.2020
1260 Clouds 15 1014 93 10000 4.1 210 19:47 13.12.2020
1261 Clouds 15 1014 93 10000 4.1 210 19:23 13.12.2020
1262 Clouds 16 1014 93 10000 4.6 220 18:54 13.12.2020
1263 Clouds 16 1014 93 10000 4.1 210 18:36 13.12.2020
1264 Clouds 16 1014 93 10000 4.1 210 18:18 13.12.2020
1265 Clouds 16 1014 93 10000 3.6 210 17:44 13.12.2020
1266 Clouds 16 1014 93 10000 2.6 260 17:18 13.12.2020
1267 Clouds 16 1014 100 10000 3.1 220 16:46 13.12.2020
1268 Clouds 16 1014 100 10000 3.1 220 16:28 13.12.2020
1269 Clouds 16 1014 93 10000 3.6 230 15:45 13.12.2020
1270 Clouds 16 1014 93 10000 3.6 230 15:26 13.12.2020
1271 Rain 16 1015 93 10000 5.1 210 14:47 13.12.2020
1272 Rain 16 1015 93 10000 5.1 210 14:28 13.12.2020
1273 Drizzle 16 1016 93 7000 4.1 220 13:48 13.12.2020
1274 Drizzle 16 1016 93 7000 4.1 220 13:30 13.12.2020
1275 Drizzle 16 1016 93 5000 4.6 230 12:56 13.12.2020
1276 Drizzle 16 1016 93 10000 4.6 210 12:24 13.12.2020
1277 Clouds 16 1017 93 10000 3.1 230 11:58 13.12.2020
1278 Clouds 15 1016 100 10000 2.6 250 11:31 13.12.2020
1279 Drizzle 15 1016 100 5000 3.6 220 10:43 13.12.2020
1280 Mist 15 1016 100 5000 3.6 220 10:21 13.12.2020
1281 Clouds 15 1016 100 10000 3.1 230 09:39 13.12.2020
1282 Clouds 15 1016 100 10000 3.1 220 08:48 13.12.2020
1283 Clouds 15 1016 100 10000 2.6 240 08:30 13.12.2020
1284 Rain 15 1016 100 6000 3.1 230 07:20 13.12.2020
1285 Clouds 15 1018 100 10000 2.6 250 02:44 13.12.2020
1286 Clouds 15 1019 100 10000 2.6 220 02:20 13.12.2020
1287 Clouds 15 1019 100 10000 1.5 230 01:36 13.12.2020
1288 Clouds 15 1019 100 10000 3.1 260 00:44 13.12.2020
1289 Clouds 16 1019 100 10000 2.6 230 23:40 12.12.2020
1290 Clouds 16 1019 100 10000 2.6 230 23:40 12.12.2020
1291 Clouds 16 1019 100 10000 2.6 230 23:20 12.12.2020
1292 Clouds 16 1019 100 10000 1.5 220 22:36 12.12.2020
1293 Clouds 16 1019 100 10000 2.6 250 21:47 12.12.2020
1294 Clouds 16 1019 93 10000 2.6 230 21:20 12.12.2020
1295 Clouds 16 1019 93 10000 3.1 260 20:46 12.12.2020
1296 Clouds 16 1019 93 10000 3.1 260 20:21 12.12.2020
1297 Clouds 16 1019 93 10000 2.1 270 19:53 12.12.2020
1298 Clouds 16 1019 93 10000 1.5 300 19:34 12.12.2020
1299 Clouds 17 1019 93 10000 2.1 310 18:58 12.12.2020
1300 Clouds 17 1019 88 10000 1.5 310 18:38 12.12.2020
1301 Clouds 17 1019 88 10000 2.1 300 18:20 12.12.2020
1302 Clouds 17 1019 88 10000 3.1 310 17:41 12.12.2020
1303 Rain 17 1019 88 10000 4.1 300 16:45 12.12.2020
1304 Clouds 17 1019 88 10000 4.1 300 15:58 12.12.2020
1305 Clouds 17 1020 88 10000 3.1 300 15:40 12.12.2020
1306 Clouds 17 1020 88 10000 3.6 310 14:54 12.12.2020
1307 Clouds 17 1020 88 10000 3.6 290 14:35 12.12.2020
1308 Clouds 17 1021 88 10000 3.6 290 13:46 12.12.2020
1309 Clouds 17 1021 88 10000 3.6 290 13:26 12.12.2020
1310 Rain 17 1021 93 10000 3.6 310 12:43 12.12.2020
1311 Rain 17 1020 93 10000 2.6 300 11:39 12.12.2020
1312 Rain 16 1020 100 10000 3.1 290 10:51 12.12.2020
1313 Drizzle 16 1019 100 5000 2.6 290 09:25 12.12.2020
1314 Drizzle 16 1019 100 5000 2.1 290 08:42 12.12.2020
1315 Clouds 16 1019 100 10000 3.6 290 02:28 12.12.2020
1316 Drizzle 16 1019 100 8000 3.1 280 23:40 11.12.2020
1317 Mist 16 1019 100 5000 3.1 280 22:21 11.12.2020
1318 Drizzle 16 1018 100 2800 5.1 270 19:57 11.12.2020
1319 Mist 16 1018 100 3000 5.1 270 17:39 11.12.2020
1320 Clouds 16 1018 100 8000 5.7 260 14:40 11.12.2020
1321 Drizzle 16 1018 100 7000 5.7 270 13:57 11.12.2020
1322 Drizzle 16 1019 93 3000 5.1 270 12:49 11.12.2020
1323 Drizzle 16 1019 93 2500 4.6 270 11:57 11.12.2020
1324 Drizzle 16 1019 100 3000 6.2 270 11:38 11.12.2020
1325 Drizzle 16 1018 100 3000 4.6 270 10:41 11.12.2020
1326 Clouds 16 1018 100 6000 4.6 270 08:43 11.12.2020
1327 Drizzle 16 1018 100 3500 5.1 270 05:40 11.12.2020
1328 Drizzle 16 1018 100 4000 5.7 260 04:49 11.12.2020
1329 Rain 16 1018 100 3500 5.7 270 01:32 11.12.2020
1330 Rain 16 1019 100 2500 3.6 280 23:38 10.12.2020
1331 Rain 16 1018 100 6000 4.6 270 22:27 10.12.2020
1332 Drizzle 16 1017 100 8000 5.7 280 21:35 10.12.2020
1333 Drizzle 16 1017 100 8000 4.6 270 20:39 10.12.2020
1334 Drizzle 16 1017 100 6000 3.6 280 19:37 10.12.2020
1335 Mist 16 1017 100 4000 4.1 270 18:53 10.12.2020
1336 Mist 16 1017 100 2500 5.7 260 17:50 10.12.2020
1337 Mist 16 1017 93 2000 6.2 260 16:25 10.12.2020
1338 Mist 16 1017 100 2000 5.1 270 15:26 10.12.2020
1339 Rain 16 1018 100 3000 5.1 250 14:50 10.12.2020
1340 Mist 16 1018 100 3000 5.1 250 14:26 10.12.2020
1341 Drizzle 16 1019 100 9000 5.1 280 12:40 10.12.2020
1342 Clouds 16 1019 100 10000 4.1 280 11:33 10.12.2020
1343 Mist 16 1019 100 4000 5.1 260 08:51 10.12.2020
1344 Mist 16 1018 100 4000 6.7 260 07:45 10.12.2020
1345 Clouds 16 1019 93 7000 7.7 260 06:41 10.12.2020
1346 Rain 15 1021 93 7000 4.6 240 02:53 10.12.2020
1347 Clouds 15 1021 100 10000 3.6 230 01:58 10.12.2020
1348 Drizzle 15 1023 100 10000 3.6 250 23:50 09.12.2020
1349 Clouds 14 1022 93 10000 2.6 280 20:59 09.12.2020
1350 Clouds 13 1022 93 10000 2.1 280 20:28 09.12.2020
1351 Clouds 14 1022 87 10000 2.1 300 19:21 09.12.2020
1352 Clouds 15 1021 87 10000 4.1 310 17:43 09.12.2020
1353 Clouds 16 1021 87 10000 3.1 300 16:41 09.12.2020
1354 Clouds 16 1021 87 10000 3.1 290 16:20 09.12.2020
1355 Clouds 16 1021 87 10000 3.1 290 16:20 09.12.2020
1356 Clouds 16 1021 100 10000 4.1 300 15:18 09.12.2020
1357 Clouds 15 1021 100 6000 2.6 330 14:27 09.12.2020
1358 Mist 15 1021 100 3500 2.1 80 13:58 09.12.2020
1359 Mist 15 1022 100 3000 2.6 60 13:19 09.12.2020
1360 Fog 15 1022 100 3000 2.1 100 12:44 09.12.2020
1361 Drizzle 14 1022 100 6000 1 0 11:49 09.12.2020
1362 Mist 13 1022 100 3500 1.5 220 10:39 09.12.2020
1363 Drizzle 12 1022 93 5000 2.1 210 08:49 09.12.2020
1364 Clouds 11 1021 87 10000 1 0 07:43 09.12.2020
1365 Clouds 11 1022 87 10000 2.6 250 05:48 09.12.2020
1366 Clouds 11 1022 87 10000 2.1 250 03:26 09.12.2020
1367 Clouds 11 1022 87 10000 1.5 290 01:49 09.12.2020
1368 Clear 12 1022 76 10000 1 290 23:43 08.12.2020
1369 Clear 12 1022 76 10000 2.1 280 22:52 08.12.2020
1370 Clouds 13 1021 76 10000 2.1 330 20:54 08.12.2020
1371 Clouds 13 1021 71 10000 3.6 310 19:33 08.12.2020
1372 Clouds 13 1020 71 10000 2.6 310 18:58 08.12.2020
1373 Clouds 13 1020 76 10000 3.6 290 17:33 08.12.2020
1374 Clouds 15 1019 71 10000 5.7 320 15:44 08.12.2020
1375 Clouds 15 1020 76 10000 4.6 320 14:18 08.12.2020
1376 Clouds 15 1020 76 10000 5.7 300 13:24 08.12.2020
1377 Clouds 14 1020 87 10000 3.6 300 12:26 08.12.2020
1378 Clouds 14 1020 82 10000 4.1 310 11:42 08.12.2020
1379 Clouds 14 1019 93 3500 3.6 320 10:45 08.12.2020
1380 Clouds 14 1018 87 10000 4.1 290 09:50 08.12.2020
1381 Clouds 15 1017 82 10000 4.1 290 07:59 08.12.2020
1382 Clouds 15 1017 87 10000 4.6 280 06:36 08.12.2020
1383 Clouds 15 1017 87 10000 5.1 260 03:29 08.12.2020
1384 Clouds 15 1018 82 10000 4.1 260 00:46 08.12.2020
1385 Clouds 15 1018 82 10000 6.7 270 23:51 07.12.2020
1386 Clouds 14 1018 82 10000 4.1 270 22:37 07.12.2020
1387 Clouds 15 1018 82 10000 4.1 280 21:51 07.12.2020
1388 Clouds 15 1017 76 10000 3.6 270 19:52 07.12.2020
1389 Clouds 15 1017 82 10000 4.1 290 18:40 07.12.2020
1390 Clouds 15 1017 77 10000 4.6 280 17:26 07.12.2020
1391 Clouds 15 1017 72 10000 6.2 300 16:54 07.12.2020
1392 Clouds 15 1017 82 10000 5.7 290 15:26 07.12.2020
1393 Clouds 15 1017 72 10000 5.1 300 14:48 07.12.2020
1394 Clouds 15 1017 77 10000 4.6 280 13:54 07.12.2020
1395 Clouds 15 1017 77 10000 4.1 290 13:21 07.12.2020
1396 Clouds 15 1017 76 10000 4.1 270 11:44 07.12.2020
1397 Clouds 14 1017 76 10000 4.1 280 11:19 07.12.2020
1398 Clouds 13 1016 82 10000 3.1 260 09:42 07.12.2020
1399 Clouds 13 1016 87 10000 3.6 290 08:26 07.12.2020
1400 Clouds 14 1015 82 10000 4.6 300 06:36 07.12.2020
1401 Clouds 14 1015 93 10000 4.6 300 04:48 07.12.2020
1402 Clouds 13 1016 100 10000 3.6 250 01:55 07.12.2020
1403 Clouds 13 1016 93 10000 3.1 240 00:27 07.12.2020
1404 Clouds 13 1016 93 10000 3.1 240 22:25 06.12.2020
1405 Clouds 12 1016 100 10000 2.6 240 20:58 06.12.2020
1406 Clouds 12 1016 100 10000 3.6 230 20:34 06.12.2020
1407 Clouds 12 1016 100 10000 2.6 240 19:55 06.12.2020
1408 Clouds 13 1016 100 10000 2.1 90 18:33 06.12.2020
1409 Clouds 13 1016 93 10000 1.5 250 16:56 06.12.2020
1410 Clouds 13 1016 93 9000 3.1 280 15:21 06.12.2020
1411 Clouds 13 1017 82 10000 2.6 280 13:49 06.12.2020
1412 Clouds 12 1017 87 10000 2.6 270 12:52 06.12.2020
1413 Clouds 12 1017 87 10000 2.1 260 11:59 06.12.2020
1414 Clouds 12 1017 87 10000 2.1 310 11:34 06.12.2020
1415 Clouds 11 1017 93 10000 1 0 10:47 06.12.2020
1416 Clouds 9 1017 93 10000 1.5 300 09:59 06.12.2020
1417 Clouds 9 1016 93 10000 3.1 310 08:30 06.12.2020
1418 Clouds 9 1016 93 10000 1.5 250 06:47 06.12.2020
1419 Clouds 9 1016 87 10000 1.5 290 01:50 06.12.2020
1420 Clouds 9 1016 87 10000 2.6 300 00:42 06.12.2020
1421 Clouds 10 1016 87 10000 2.6 300 00:23 06.12.2020
1422 Clouds 9 1015 87 10000 3.1 270 22:47 05.12.2020
1423 Clouds 10 1015 87 10000 3.1 270 22:20 05.12.2020
1424 Rain 9 1015 87 10000 2.6 350 21:50 05.12.2020
1425 Clouds 9 1015 87 10000 1.5 290 21:26 05.12.2020
1426 Clouds 10 1014 87 10000 3.1 320 19:48 05.12.2020
1427 Clouds 11 1013 81 10000 4.1 320 18:41 05.12.2020
1428 Clouds 11 1013 76 10000 3.1 300 17:34 05.12.2020
1429 Clouds 12 1012 66 10000 3.6 300 16:33 05.12.2020
1430 Clouds 12 1013 71 10000 6.2 320 15:57 05.12.2020
1431 Clouds 12 1012 71 10000 4.1 350 14:28 05.12.2020
1432 Clouds 11 1013 76 10000 6.2 330 12:24 05.12.2020
1433 Clouds 10 1012 81 10000 4.1 330 11:47 05.12.2020
1434 Clouds 8 1011 87 10000 3.1 300 10:31 05.12.2020
1435 Clouds 6 1009 87 10000 3.6 290 07:49 05.12.2020
1436 Clouds 6 1009 93 10000 3.1 290 07:25 05.12.2020
1437 Rain 6 1008 93 10000 2.6 290 04:44 05.12.2020
1438 Rain 7 1006 93 10000 5.1 360 23:56 04.12.2020
1439 Clouds 7 1005 93 10000 4.6 330 22:32 04.12.2020
1440 Rain 8 1005 93 8000 6.2 340 20:26 04.12.2020
1441 Rain 9 1003 75 10000 5.7 300 18:53 04.12.2020
1442 Clouds 8 1004 81 10000 7.7 310 18:20 04.12.2020
1443 Clouds 9 1004 76 10000 7.7 300 17:40 04.12.2020
1444 Clouds 10 1004 81 10000 7.2 300 15:50 04.12.2020
1445 Clouds 10 1005 87 10000 7.2 330 13:57 04.12.2020
1446 Rain 11 1005 81 6000 6.7 310 13:29 04.12.2020
1447 Clouds 11 1005 87 10000 4.6 310 12:54 04.12.2020
1448 Clouds 12 1006 81 6000 4.6 300 10:42 04.12.2020
1449 Clouds 12 1006 81 6000 4.6 300 10:23 04.12.2020
1450 Clouds 13 1005 81 10000 6.2 300 07:29 04.12.2020
1451 Clouds 13 1006 87 10000 4.6 300 06:39 04.12.2020
1452 Clouds 13 1008 93 6000 7.2 300 04:38 04.12.2020
1453 Clouds 14 1012 82 10000 5.1 290 23:49 03.12.2020
1454 Clouds 14 1012 87 10000 5.1 280 22:45 03.12.2020
1455 Clouds 14 1012 76 10000 4.1 250 20:59 03.12.2020
1456 Clouds 14 1013 81 10000 3.1 230 19:38 03.12.2020
1457 Clouds 13 1013 81 10000 3.1 230 19:19 03.12.2020
1458 Clouds 14 1013 71 10000 3.6 300 18:39 03.12.2020
1459 Clouds 15 1013 58 10000 5.7 330 17:20 03.12.2020
1460 Clear 15 1014 47 10000 4.1 310 15:59 03.12.2020
1461 Clear 15 1014 44 10000 4.6 340 15:31 03.12.2020
1462 Clear 15 1015 54 10000 1 0 14:48 03.12.2020
1463 Clear 14 1015 54 10000 2.6 100 13:50 03.12.2020
1464 Clear 13 1017 54 10000 3.6 20 12:33 03.12.2020
1465 Clear 12 1017 62 10000 3.6 10 11:55 03.12.2020
1466 Clear 10 1017 66 10000 3.6 50 10:36 03.12.2020
1467 Clear 9 1016 70 10000 2.1 330 08:38 03.12.2020
1468 Clear 11 1017 57 10000 5.1 40 03:42 03.12.2020
1469 Clear 12 1017 62 10000 5.7 40 01:41 03.12.2020
1470 Clear 13 1017 66 10000 5.7 40 23:51 02.12.2020
1471 Clear 13 1017 81 10000 2.1 360 22:41 02.12.2020
1472 Clear 13 1016 81 10000 2.6 330 21:43 02.12.2020
1473 Clear 13 1016 82 10000 3.1 320 20:49 02.12.2020
1474 Clear 13 1016 82 10000 3.1 330 20:31 02.12.2020
1475 Clear 14 1015 87 10000 3.6 330 19:40 02.12.2020
1476 Clouds 16 1015 82 10000 2.6 60 17:49 02.12.2020
1477 Clouds 17 1015 82 10000 2.6 60 17:30 02.12.2020
1478 Clouds 17 1015 77 10000 2.1 80 15:43 02.12.2020
1479 Clouds 17 1017 72 10000 3.1 330 13:41 02.12.2020
1480 Clouds 15 1018 87 10000 1.5 40 11:33 02.12.2020
1481 Clouds 13 1018 87 10000 3.6 330 10:25 02.12.2020
1482 Clear 9 1017 71 10000 3.6 340 07:48 02.12.2020
1483 Clear 14 1020 71 10000 2.6 320 23:40 01.12.2020
1484 Clear 15 1020 77 10000 2.6 320 22:20 01.12.2020
1485 Clear 16 1020 76 10000 0.89 334 19:43 01.12.2020
1486 Clear 17 1020 82 10000 2.6 40 18:56 01.12.2020
1487 Clear 19 1020 68 10000 2.6 80 16:48 01.12.2020
1488 Clear 18 1021 68 10000 2.6 0 14:53 01.12.2020
1489 Clear 16 1023 82 10000 4.6 60 12:48 01.12.2020
1490 Clear 15 1023 82 10000 3.6 60 11:41 01.12.2020
1491 Clear 14 1023 87 10000 4.6 50 10:54 01.12.2020
1492 Clear 13 1023 87 10000 4.1 50 10:31 01.12.2020
1493 Clear 12 1022 93 10000 2.6 40 07:47 01.12.2020
1494 Clear 12 1022 93 10000 3.1 50 06:25 01.12.2020
1495 Clear 14 1021 93 10000 2.6 60 01:36 01.12.2020
1496 Clear 14 1021 93 10000 3.6 50 00:50 01.12.2020
1497 Clouds 14 1021 93 10000 2.1 80 23:20 30.11.2020
1498 Clouds 14 1020 93 10000 2.1 70 22:42 30.11.2020
1499 Clouds 14 1020 93 10000 2.1 70 22:22 30.11.2020
1500 Clouds 15 1020 93 10000 2.1 120 20:34 30.11.2020
1501 Clouds 15 1019 82 10000 2.6 130 19:41 30.11.2020
1502 Clouds 16 1018 82 10000 2.6 70 18:21 30.11.2020
1503 Clouds 16 1018 82 10000 3.6 90 17:46 30.11.2020
1504 Clouds 16 1017 82 10000 4.6 90 16:53 30.11.2020
1505 Clouds 16 1017 82 10000 5.1 110 15:45 30.11.2020
1506 Clouds 16 1018 87 10000 3.6 90 13:55 30.11.2020
1507 Clouds 16 1018 87 10000 4.1 70 13:22 30.11.2020
1508 Clouds 15 1018 93 10000 4.6 70 12:26 30.11.2020
1509 Clouds 14 1018 93 10000 5.1 70 11:56 30.11.2020
1510 Clouds 12 1017 100 10000 5.1 70 10:25 30.11.2020
1511 Clouds 12 1017 100 10000 4.6 70 09:33 30.11.2020
1512 Clouds 10 1016 100 10000 2.1 40 01:29 30.11.2020
1513 Clouds 10 1015 100 10000 2.1 60 23:28 29.11.2020
1514 Clouds 11 1014 100 10000 2.1 0 21:45 29.11.2020
1515 Clouds 11 1014 100 10000 2.1 0 21:26 29.11.2020
1516 Clouds 10 1013 100 10000 1 0 19:20 29.11.2020
1517 Clouds 12 1012 93 10000 1.5 90 17:43 29.11.2020
1518 Rain 13 1011 87 10000 3.1 120 14:49 29.11.2020
1519 Rain 14 1012 82 10000 4.1 120 12:46 29.11.2020
1520 Clouds 13 1012 93 10000 4.1 120 11:37 29.11.2020
1521 Clouds 11 1010 100 10000 2.1 110 08:55 29.11.2020
1522 Clouds 11 1010 100 10000 2.6 120 08:36 29.11.2020
1523 Clouds 13 1008 87 10000 2.1 210 03:30 29.11.2020
1524 Clouds 13 1007 93 10000 4.08 227 23:18 28.11.2020
1525 Clouds 13 1007 93 10000 4.08 227 22:50 28.11.2020
1526 Clouds 13 1005 100 10000 2.1 220 20:27 28.11.2020
1527 Clouds 13 1005 93 10000 2.6 260 19:29 28.11.2020
1528 Clouds 13 1005 93 10000 3.6 230 18:58 28.11.2020
1529 Clouds 13 1004 93 10000 3.6 230 18:22 28.11.2020
1530 Clouds 13 1004 87 2000 6.2 270 17:33 28.11.2020
1531 Clouds 14 1003 93 2200 6.7 170 15:56 28.11.2020
1532 Rain 16 1005 72 10000 6.7 180 13:58 28.11.2020
1533 Clouds 16 1007 93 10000 2.6 150 11:29 28.11.2020
1534 Clouds 11 1007 100 10000 2.74 169 09:37 28.11.2020
1535 Clear 11 1007 93 10000 2.1 310 03:49 28.11.2020
1536 Clear 12 1007 87 10000 2.6 300 02:22 28.11.2020
1537 Clear 13 1008 87 10000 4.1 310 23:23 27.11.2020
1538 Clear 14 1008 87 10000 3.6 310 22:54 27.11.2020
1539 Clouds 14 1008 82 10000 4.6 310 20:55 27.11.2020
1540 Clouds 14 1007 82 10000 5.7 340 20:28 27.11.2020
1541 Clouds 14 1007 82 10000 4.1 330 19:22 27.11.2020
1542 Clouds 16 1007 67 10000 3.6 330 16:59 27.11.2020
1543 Clouds 16 1007 67 10000 6.2 330 14:45 27.11.2020
1544 Clouds 14 1009 76 10000 2.1 310 13:21 27.11.2020
1545 Clouds 14 1009 76 10000 2.1 310 12:47 27.11.2020
1546 Clouds 13 1009 81 10000 3.1 330 11:34 27.11.2020
1547 Clouds 11 1009 87 10000 4.1 340 10:49 27.11.2020
1548 Clouds 10 1009 93 10000 3.6 330 09:53 27.11.2020
1549 Clouds 10 1008 93 10000 3.6 50 05:47 27.11.2020
1550 Clouds 12 1007 88 10000 0.89 84 22:27 26.11.2020
1551 Clouds 12 1006 81 10000 4.1 80 21:56 26.11.2020
1552 Clouds 12 1006 81 10000 4.6 90 20:50 26.11.2020
1553 Clouds 14 1004 71 10000 5.7 110 18:41 26.11.2020
1554 Clouds 14 1004 76 10000 5.7 110 17:50 26.11.2020
1555 Clouds 15 1003 76 10000 7.2 120 14:49 26.11.2020
1556 Clouds 14 1004 87 10000 5.1 110 13:20 26.11.2020
1557 Clouds 14 1004 93 10000 5.1 100 12:42 26.11.2020
1558 Clouds 12 1004 100 10000 5.1 110 11:35 26.11.2020
1559 Clouds 11 1004 100 10000 4.1 120 10:27 26.11.2020
1560 Rain 10 1004 100 8000 4.6 120 09:41 26.11.2020
1561 Rain 10 1004 100 8000 4.6 120 09:21 26.11.2020
1562 Rain 11 1003 100 10000 5.1 120 08:38 26.11.2020
1563 Clouds 11 1004 93 10000 1.5 110 02:19 26.11.2020
1564 Clouds 11 1006 93 10000 2.6 350 22:32 25.11.2020
1565 Rain 12 1006 93 10000 2.1 140 20:42 25.11.2020
1566 Clouds 13 1007 93 10000 1.5 160 19:44 25.11.2020
1567 Clouds 14 1007 82 10000 2.6 90 18:27 25.11.2020
1568 Clouds 15 1007 76 10000 2.6 350 16:34 25.11.2020
1569 Clouds 15 1008 76 10000 2.1 350 15:36 25.11.2020
1570 Clouds 14 1009 87 10000 5.1 330 13:56 25.11.2020
1571 Clouds 13 1009 93 10000 6.2 330 13:37 25.11.2020
1572 Rain 12 1011 100 10000 5.1 320 11:44 25.11.2020
1573 Rain 12 1011 100 10000 2.6 290 11:18 25.11.2020
1574 Clouds 13 1011 100 10000 0.5 0 09:18 25.11.2020
1575 Rain 13 1011 100 10000 1 30 08:41 25.11.2020
1576 Clouds 15 1013 93 8000 3.1 240 03:59 25.11.2020
1577 Clouds 16 1015 100 10000 6.2 220 01:52 25.11.2020
1578 Clouds 16 1016 93 10000 4.6 200 00:23 25.11.2020
1579 Rain 16 1017 93 10000 4.1 180 23:37 24.11.2020
1580 Rain 16 1017 93 10000 4.1 180 23:37 24.11.2020
1581 Clouds 16 1017 93 10000 4.1 180 22:58 24.11.2020
1582 Clouds 16 1018 87 10000 3.6 180 21:51 24.11.2020
1583 Clear 16 1018 87 10000 4.6 200 21:29 24.11.2020
1584 Clouds 16 1019 87 10000 4.1 210 20:40 24.11.2020
1585 Clouds 16 1019 72 10000 3.1 210 18:40 24.11.2020
1586 Clouds 17 1019 72 10000 4.1 230 17:30 24.11.2020
1587 Clouds 17 1020 72 10000 6.2 220 16:45 24.11.2020
1588 Clouds 17 1020 72 10000 6.2 220 16:27 24.11.2020
1589 Clouds 17 1020 72 10000 4.6 230 15:54 24.11.2020
1590 Clouds 17 1021 72 10000 3.6 180 15:18 24.11.2020
1591 Clouds 17 1021 77 10000 2.1 90 14:33 24.11.2020
1592 Clouds 15 1023 100 9000 1.5 40 12:50 24.11.2020
1593 Fog 14 1023 100 3000 1.5 60 12:22 24.11.2020
1594 Fog 12 1023 100 100 1.5 80 11:39 24.11.2020
1595 Fog 11 1024 100 100 1.5 100 10:41 24.11.2020
1596 Fog 11 1024 100 100 1.5 100 10:22 24.11.2020
1597 Fog 10 1023 100 9000 1 0 09:35 24.11.2020
1598 Fog 9 1023 100 200 1 0 07:58 24.11.2020
1599 Clear 12 1023 93 10000 0.81 103 04:21 24.11.2020
1600 Clear 14 1025 82 10000 1 290 22:35 23.11.2020
1601 Clear 15 1025 82 10000 1 0 21:37 23.11.2020
1602 Clear 14 1025 82 10000 1 320 20:54 23.11.2020
1603 Clear 14 1025 82 10000 1 310 20:27 23.11.2020
1604 Clouds 15 1025 82 10000 0.5 360 19:32 23.11.2020
1605 Clouds 18 1024 59 10000 1.5 100 17:27 23.11.2020
1606 Clouds 18 1024 67 10000 2.6 100 16:37 23.11.2020
1607 Clouds 17 1026 77 10000 2.1 0 14:49 23.11.2020
1608 Clear 16 1027 87 10000 2.6 70 13:43 23.11.2020
1609 Clear 15 1027 87 10000 2.6 60 12:38 23.11.2020
1610 Clear 15 1027 93 10000 2.6 80 11:50 23.11.2020
1611 Clouds 14 1027 93 10000 2.6 80 11:30 23.11.2020
1612 Fog 13 1027 93 10000 1.5 10 09:46 23.11.2020
1613 Fog 10 1026 100 10000 1 10 08:49 23.11.2020
1614 Clear 10 1026 100 10000 1.5 70 07:40 23.11.2020
1615 Clear 13 1026 93 10000 2.1 10 02:39 23.11.2020
1616 Clear 15 1027 77 10000 3.1 320 23:43 22.11.2020
1617 Clear 16 1026 77 10000 3.1 320 22:22 22.11.2020
1618 Clear 15 1026 72 10000 3.6 320 21:24 22.11.2020
1619 Clear 16 1026 72 10000 3.1 330 20:19 22.11.2020
1620 Clear 17 1025 72 10000 2.1 360 18:59 22.11.2020
1621 Clear 18 1025 68 10000 2.1 60 17:59 22.11.2020
1622 Clear 19 1025 63 10000 3.6 50 16:25 22.11.2020
1623 Clear 18 1026 72 10000 3.1 50 14:58 22.11.2020
1624 Clear 17 1027 67 10000 2.6 50 13:23 22.11.2020
1625 Clear 16 1027 67 10000 3.1 70 12:42 22.11.2020
1626 Clear 14 1028 71 10000 4.1 60 11:39 22.11.2020
1627 Clear 14 1027 76 10000 4.1 60 10:50 22.11.2020
1628 Clear 13 1027 71 10000 4.1 50 10:32 22.11.2020
1629 Clear 13 1025 71 10000 2.6 50 04:33 22.11.2020
1630 Clear 14 1025 71 10000 2.1 40 23:56 21.11.2020
1631 Clear 16 1025 62 10000 2.6 40 22:41 21.11.2020
1632 Clear 16 1024 59 10000 2.6 50 21:31 21.11.2020
1633 Clear 16 1024 67 10000 1.5 30 20:49 21.11.2020
1634 Clear 16 1024 62 10000 2.1 50 20:20 21.11.2020
1635 Clear 17 1024 62 10000 2.1 40 19:42 21.11.2020
1636 Clear 18 1023 55 10000 2.1 50 18:54 21.11.2020
1637 Clear 19 1023 52 10000 2.6 50 17:30 21.11.2020
1638 Clear 20 1023 48 10000 2.6 60 16:44 21.11.2020
1639 Clear 19 1023 45 10000 3.6 80 15:41 21.11.2020
1640 Clear 19 1023 45 10000 3.6 80 15:20 21.11.2020
1641 Clear 18 1024 51 10000 4.1 70 14:42 21.11.2020
1642 Clear 16 1025 58 10000 5.7 60 12:44 21.11.2020
1643 Clear 16 1025 58 10000 5.7 60 12:22 21.11.2020
1644 Clear 15 1025 58 10000 6.2 60 11:49 21.11.2020
1645 Clear 15 1025 58 10000 5.7 60 10:28 21.11.2020
1646 Clear 14 1024 62 10000 3.6 50 08:52 21.11.2020
1647 Clear 13 1024 62 10000 3.1 50 08:34 21.11.2020
1648 Clear 14 1024 58 10000 4.6 50 05:42 21.11.2020
1649 Clear 15 1024 58 10000 4.1 50 02:52 21.11.2020
1650 Clear 17 1025 63 10000 4.1 50 00:22 21.11.2020
1651 Clear 17 1025 59 10000 4.6 50 22:59 20.11.2020
1652 Clear 18 1025 63 10000 4.1 30 21:45 20.11.2020
1653 Clear 18 1025 63 10000 4.1 30 21:22 20.11.2020
1654 Clear 19 1025 55 10000 5.1 30 19:55 20.11.2020
1655 Clear 19 1025 63 10000 3.1 360 19:28 20.11.2020
1656 Clear 21 1025 64 10000 4.1 30 18:27 20.11.2020
1657 Clear 22 1025 53 10000 5.1 40 17:31 20.11.2020
1658 Clear 22 1025 56 10000 4.6 50 16:47 20.11.2020
1659 Clear 22 1025 56 10000 5.7 50 15:59 20.11.2020
1660 Clear 22 1025 60 10000 5.1 40 15:39 20.11.2020
1661 Clear 21 1027 64 10000 5.7 50 13:57 20.11.2020
1662 Clear 21 1028 63 10000 6.2 60 13:20 20.11.2020
1663 Clear 20 1028 63 10000 6.2 60 12:50 20.11.2020
1664 Clear 19 1028 68 10000 6.2 40 11:55 20.11.2020
1665 Clear 18 1028 72 10000 6.7 50 11:26 20.11.2020
1666 Clear 17 1027 77 10000 4.1 50 09:52 20.11.2020
1667 Clear 16 1027 77 10000 4.1 40 08:30 20.11.2020
1668 Clear 17 1027 72 10000 4.1 40 07:49 20.11.2020
1669 Clear 16 1028 77 10000 3.1 20 05:19 20.11.2020
1670 Clear 21 1030 56 10000 3.1 330 00:21 20.11.2020
1671 Clear 21 1030 60 10000 2.1 330 22:30 19.11.2020
1672 Clear 21 1030 60 10000 2.6 350 21:53 19.11.2020
1673 Clear 21 1030 60 10000 2.6 360 20:57 19.11.2020
1674 Clear 22 1029 49 10000 4.1 40 20:20 19.11.2020
1675 Clear 22 1029 56 10000 3.1 350 19:27 19.11.2020
1676 Clear 22 1029 60 10000 3.6 350 18:54 19.11.2020
1677 Clear 24 1028 44 10000 4.1 40 17:35 19.11.2020
1678 Clear 24 1028 50 10000 5.1 40 16:33 19.11.2020
1679 Clear 24 1029 50 10000 5.7 50 15:31 19.11.2020
1680 Clear 22 1029 56 10000 7.2 50 13:55 19.11.2020
1681 Clear 22 1029 64 10000 7.2 60 13:36 19.11.2020
1682 Clear 21 1029 68 10000 6.7 60 12:54 19.11.2020
1683 Clear 21 1029 64 10000 6.2 60 12:33 19.11.2020
1684 Clear 20 1029 68 10000 6.2 50 11:41 19.11.2020
1685 Clear 20 1029 68 10000 6.2 50 11:22 19.11.2020
1686 Clear 18 1028 77 10000 5.1 50 10:31 19.11.2020
1687 Clear 18 1028 77 10000 5.7 50 09:48 19.11.2020
1688 Clear 18 1028 77 10000 4.6 50 09:28 19.11.2020
1689 Clear 17 1027 82 10000 5.1 30 08:37 19.11.2020
1690 Clear 17 1027 82 10000 3.6 40 07:36 19.11.2020
1691 Rain 18 1026 88 10000 3.6 40 01:48 19.11.2020
1692 Clear 18 1026 82 10000 3.1 60 00:33 19.11.2020
1693 Clear 19 1026 82 10000 3.6 30 23:32 18.11.2020
1694 Clear 19 1025 88 10000 3.6 50 22:59 18.11.2020
1695 Rain 19 1025 88 10000 3.6 30 22:29 18.11.2020
1696 Rain 19 1025 82 10000 2.6 50 21:43 18.11.2020
1697 Clear 18 1025 82 10000 2.6 50 21:25 18.11.2020
1698 Clear 18 1025 88 10000 2.6 360 20:37 18.11.2020
1699 Clear 19 1024 88 10000 1.5 20 19:42 18.11.2020
1700 Clear 19 1024 88 10000 1.5 20 19:22 18.11.2020
1701 Clear 19 1024 88 10000 1.5 40 18:40 18.11.2020
1702 Clear 19 1024 88 10000 2.1 30 17:44 18.11.2020
1703 Clear 19 1024 82 10000 2.6 70 16:35 18.11.2020
1704 Clear 19 1024 82 10000 3.1 60 15:59 18.11.2020
1705 Clouds 18 1025 88 10000 2.6 100 14:41 18.11.2020
1706 Clouds 18 1025 88 10000 2.6 90 13:55 18.11.2020
1707 Clouds 18 1025 82 10000 2.1 70 13:22 18.11.2020
1708 Fog 17 1026 93 10000 2.6 60 12:43 18.11.2020
1709 Fog 17 1025 93 10000 3.1 70 11:51 18.11.2020
1710 Clouds 16 1026 100 7000 3.6 60 10:56 18.11.2020
1711 Mist 15 1025 100 1200 3.6 60 10:27 18.11.2020
1712 Clouds 14 1024 100 8000 3.6 60 08:40 18.11.2020
1713 Clouds 15 1024 100 6000 2.1 60 06:48 18.11.2020
1714 Clouds 16 1024 100 9000 1 0 03:48 18.11.2020
1715 Clouds 17 1025 100 10000 2.6 200 00:20 18.11.2020
1716 Clouds 17 1025 93 10000 3.1 200 23:24 17.11.2020
1717 Clouds 17 1025 93 10000 1 0 22:44 17.11.2020
1718 Clouds 17 1025 93 10000 1 0 22:25 17.11.2020
1719 Clouds 17 1025 93 10000 1 0 21:46 17.11.2020
1720 Clear 17 1024 93 10000 3.68 195 21:18 17.11.2020
1721 Clear 17 1024 88 10000 2.1 190 20:42 17.11.2020
1722 Clear 17 1024 88 10000 2.1 190 20:22 17.11.2020
1723 Clouds 18 1024 82 10000 2.6 170 18:56 17.11.2020
1724 Clouds 18 1024 93 10000 1.5 90 18:22 17.11.2020
1725 Clouds 19 1024 88 10000 2.6 90 17:27 17.11.2020
1726 Clear 19 1024 82 10000 2.6 130 16:30 17.11.2020
1727 Clouds 18 1024 88 10000 2.6 130 15:53 17.11.2020
1728 Clouds 18 1024 93 10000 2.6 120 15:34 17.11.2020
1729 Clouds 17 1024 100 10000 2.6 100 14:57 17.11.2020
1730 Clouds 17 1024 100 9000 2.6 90 14:29 17.11.2020
1731 Fog 16 1025 100 6000 1.5 90 13:42 17.11.2020
1732 Fog 16 1025 100 6000 1.5 90 13:20 17.11.2020
1733 Fog 15 1025 100 150 2.6 80 12:41 17.11.2020
1734 Fog 15 1025 100 150 2.1 80 11:44 17.11.2020
1735 Fog 14 1025 100 150 2.6 80 10:56 17.11.2020
1736 Fog 14 1025 100 200 2.6 60 10:33 17.11.2020
1737 Fog 13 1025 100 500 2.6 80 09:51 17.11.2020
1738 Mist 13 1025 100 2000 2.6 60 09:29 17.11.2020
1739 Mist 13 1025 100 2000 2.6 60 09:29 17.11.2020
1740 Mist 13 1024 100 5000 2.1 0 08:24 17.11.2020
1741 Mist 13 1024 100 5000 2.1 50 07:49 17.11.2020
1742 Mist 13 1024 100 3500 2.1 40 06:54 17.11.2020
1743 Fog 14 1024 100 800 1 40 04:20 17.11.2020
1744 Mist 14 1024 100 5000 2.1 60 02:54 17.11.2020
1745 Clouds 13 1025 100 10000 1.5 50 01:25 17.11.2020
1746 Clouds 13 1025 100 10000 1.5 50 01:25 17.11.2020
1747 Clouds 14 1025 100 10000 1.5 20 00:56 17.11.2020
1748 Clear 15 1025 100 10000 1.5 350 23:50 16.11.2020
1749 Clear 14 1025 100 10000 0.5 0 23:29 16.11.2020
1750 Clear 15 1025 93 10000 1.98 87 22:48 16.11.2020
1751 Clear 15 1025 93 10000 0.5 0 22:21 16.11.2020
1752 Clear 16 1024 93 10000 1 0 21:47 16.11.2020
1753 Clear 16 1024 93 10000 1 0 21:25 16.11.2020
1754 Clear 16 1024 87 10000 1 0 20:50 16.11.2020
1755 Clear 16 1024 93 10000 1.5 260 20:24 16.11.2020
1756 Clear 17 1024 88 10000 1.5 210 19:38 16.11.2020
1757 Clouds 17 1024 88 10000 2.1 230 19:19 16.11.2020
1758 Clouds 18 1024 88 10000 2.1 210 18:41 16.11.2020
1759 Clouds 18 1024 82 10000 1.5 140 17:51 16.11.2020
1760 Clouds 19 1024 82 10000 1.5 140 17:22 16.11.2020
1761 Clouds 19 1024 77 10000 1.5 170 16:54 16.11.2020
1762 Clouds 19 1024 82 10000 1.5 170 16:29 16.11.2020
1763 Clouds 19 1024 82 10000 2.1 120 15:57 16.11.2020
1764 Clouds 19 1024 88 10000 2.1 160 15:37 16.11.2020
1765 Clouds 18 1024 88 10000 2.1 160 15:19 16.11.2020
1766 Clouds 19 1025 82 10000 2.1 100 14:39 16.11.2020
1767 Clouds 18 1025 82 10000 2.1 100 13:33 16.11.2020
1768 Fog 18 1026 93 10000 1.5 100 12:34 16.11.2020
1769 Fog 18 1025 93 10000 1.5 100 11:54 16.11.2020
1770 Fog 17 1025 100 10000 2.1 80 11:36 16.11.2020
1771 Fog 16 1025 100 10000 2.1 80 11:18 16.11.2020
1772 Fog 16 1025 100 2500 1 0 10:39 16.11.2020
1773 Fog 16 1025 100 2500 1 0 10:20 16.11.2020
1774 Fog 15 1024 100 10000 0.5 0 09:41 16.11.2020
1775 Clouds 15 1024 100 10000 2.1 10 08:53 16.11.2020
1776 Clouds 15 1023 100 10000 2.6 40 08:34 16.11.2020
1777 Clouds 15 1023 100 10000 2.1 310 07:43 16.11.2020
1778 Mist 15 1023 100 5000 2.6 310 06:47 16.11.2020
1779 Clouds 16 1023 100 6000 3.1 330 05:53 16.11.2020
1780 Fog 16 1023 100 6000 2.1 180 04:36 16.11.2020
1781 Clouds 17 1023 93 10000 1.07 5 01:48 16.11.2020
1782 Clouds 17 1023 93 10000 0.61 333 01:27 16.11.2020
1783 Clouds 17 1023 100 10000 5.1 310 23:49 15.11.2020
1784 Clouds 17 1022 100 9000 4.6 310 23:21 15.11.2020
1785 Clouds 17 1022 100 9000 4.6 310 23:21 15.11.2020
1786 Clouds 17 1021 93 10000 3.1 290 22:40 15.11.2020
1787 Clouds 18 1021 93 10000 3.1 290 22:18 15.11.2020
1788 Clouds 17 1021 93 10000 3.6 310 21:43 15.11.2020
1789 Clouds 18 1021 93 10000 3.6 310 21:24 15.11.2020
1790 Clouds 18 1021 93 10000 2.6 280 20:41 15.11.2020
1791 Clouds 18 1021 100 10000 3.1 280 20:18 15.11.2020
1792 Clouds 18 1020 93 10000 2.6 260 19:48 15.11.2020
1793 Clouds 18 1020 93 10000 2.6 260 19:22 15.11.2020
1794 Clouds 19 1020 100 10000 3.1 250 18:56 15.11.2020
1795 Clouds 19 1020 93 10000 3.6 230 18:38 15.11.2020
1796 Clouds 19 1020 93 10000 3.1 210 18:19 15.11.2020
1797 Clouds 20 1020 88 10000 3.1 210 17:44 15.11.2020
1798 Clouds 20 1020 88 10000 3.1 210 17:23 15.11.2020
1799 Clouds 20 1019 88 10000 3.6 240 16:45 15.11.2020
1800 Clouds 20 1019 88 10000 4.6 220 16:20 15.11.2020
1801 Clouds 20 1019 88 10000 4.6 220 15:50 15.11.2020
1802 Clouds 20 1019 88 10000 4.6 240 15:26 15.11.2020
1803 Clouds 20 1019 88 10000 5.7 220 14:58 15.11.2020
1804 Clouds 20 1019 83 10000 4.6 220 14:30 15.11.2020
1805 Clouds 20 1020 83 10000 4.6 210 13:56 15.11.2020
1806 Clouds 19 1020 88 10000 3.1 0 13:36 15.11.2020
1807 Clouds 20 1020 93 10000 1 0 12:51 15.11.2020
1808 Clouds 19 1020 100 9000 1 0 12:24 15.11.2020
1809 Clouds 18 1020 100 9000 1.5 80 11:46 15.11.2020
1810 Clouds 18 1020 100 9000 1.5 80 11:21 15.11.2020
1811 Clear 18 1020 100 10000 1.5 40 10:54 15.11.2020
1812 Mist 17 1020 100 3500 1.5 20 10:32 15.11.2020
1813 Fog 17 1020 100 350 1.5 360 09:59 15.11.2020
1814 Fog 17 1020 100 350 0.5 0 09:40 15.11.2020
1815 Fog 16 1019 100 350 1 340 09:19 15.11.2020
1816 Fog 16 1019 100 350 1 340 08:50 15.11.2020
1817 Fog 16 1019 100 200 1 0 07:48 15.11.2020
1818 Fog 16 1019 100 200 1.5 70 06:55 15.11.2020
1819 Fog 17 1019 100 400 1 70 04:58 15.11.2020
1820 Clouds 17 1019 93 10000 2.1 190 02:43 15.11.2020
1821 Clouds 18 1019 93 10000 4.6 200 00:45 15.11.2020
1822 Clouds 18 1019 93 10000 4.6 200 00:26 15.11.2020
1823 Clouds 17 1019 93 10000 4.6 200 23:34 14.11.2020
1824 Clouds 18 1019 100 10000 4.6 200 22:46 14.11.2020
1825 Clouds 18 1019 100 10000 4.6 200 22:28 14.11.2020
1826 Clouds 18 1019 100 10000 5.1 210 21:41 14.11.2020
1827 Clouds 18 1019 100 10000 5.1 210 21:22 14.11.2020
1828 Clouds 18 1019 100 10000 5.7 200 20:50 14.11.2020
1829 Clouds 18 1019 100 10000 5.7 210 20:26 14.11.2020
1830 Clouds 18 1019 100 10000 4.6 210 19:46 14.11.2020
1831 Clouds 18 1019 100 10000 4.6 210 19:28 14.11.2020
1832 Clouds 18 1019 100 10000 4.6 210 18:43 14.11.2020
1833 Clouds 18 1019 100 10000 4.6 210 18:23 14.11.2020
1834 Clouds 18 1019 100 10000 5.1 210 17:49 14.11.2020
1835 Clouds 18 1019 100 10000 5.1 210 17:49 14.11.2020
1836 Clouds 19 1019 93 10000 4.1 220 17:31 14.11.2020
1837 Clouds 19 1018 93 10000 4.1 230 16:57 14.11.2020
1838 Clouds 19 1018 93 9000 4.6 230 16:36 14.11.2020
1839 Clouds 19 1018 100 7000 5.1 220 16:18 14.11.2020
1840 Clouds 19 1018 100 7000 5.1 220 15:50 14.11.2020
1841 Clouds 19 1018 93 7000 4.6 240 15:21 14.11.2020
1842 Clouds 19 1019 93 10000 3.6 230 14:38 14.11.2020
1843 Clouds 19 1019 93 10000 3.6 230 14:20 14.11.2020
1844 Clouds 19 1019 100 6000 3.1 210 13:40 14.11.2020
1845 Clouds 19 1019 100 4500 4.1 220 13:22 14.11.2020
1846 Clouds 19 1019 88 10000 3.6 220 12:45 14.11.2020
1847 Rain 19 1019 88 10000 3.6 220 12:27 14.11.2020
1848 Clouds 18 1019 100 8000 3.1 190 11:41 14.11.2020
1849 Clouds 18 1019 100 8000 3.1 190 11:22 14.11.2020
1850 Mist 17 1018 100 3000 2.6 170 10:42 14.11.2020
1851 Mist 17 1018 100 3000 2.6 170 10:23 14.11.2020
1852 Mist 16 1018 100 2000 1.5 160 09:46 14.11.2020
1853 Mist 16 1018 100 2000 1.5 160 09:28 14.11.2020
1854 Mist 16 1017 100 2000 1.5 120 08:49 14.11.2020
1855 Mist 16 1017 100 2000 1.5 120 08:27 14.11.2020
1856 Mist 16 1017 100 1500 2.1 100 07:44 14.11.2020
1857 Mist 16 1017 100 1500 2.1 100 07:25 14.11.2020
1858 Clouds 16 1017 100 6000 1 0 06:31 14.11.2020
1859 Clouds 16 1017 100 7000 2.1 160 05:29 14.11.2020
1860 Clouds 16 1017 100 10000 3.6 160 03:53 14.11.2020
1861 Clouds 16 1018 93 10000 0.5 0 00:56 14.11.2020
1862 Clouds 16 1018 93 10000 0.5 0 23:47 13.11.2020
1863 Clouds 16 1018 93 10000 1.5 90 23:25 13.11.2020
1864 Clouds 16 1018 93 10000 2.1 70 22:46 13.11.2020
1865 Clouds 16 1018 93 10000 2.1 70 22:26 13.11.2020
1866 Clouds 17 1018 87 10000 2.1 0 21:55 13.11.2020
1867 Clouds 17 1018 87 10000 2.1 60 21:37 13.11.2020
1868 Clouds 17 1018 87 10000 2.1 60 21:19 13.11.2020
1869 Clouds 17 1018 87 10000 1.5 90 20:41 13.11.2020
1870 Clouds 17 1018 87 10000 1.5 90 20:21 13.11.2020
1871 Clouds 17 1018 87 10000 2.6 60 19:46 13.11.2020
1872 Clouds 17 1018 87 10000 2.6 60 19:23 13.11.2020
1873 Clouds 17 1017 88 10000 2.1 60 18:54 13.11.2020
1874 Clouds 18 1017 88 10000 2.6 70 18:21 13.11.2020
1875 Clouds 18 1017 88 10000 2.1 70 17:41 13.11.2020
1876 Clouds 18 1017 82 10000 2.6 80 17:18 13.11.2020
1877 Clouds 18 1017 82 10000 2.6 80 16:48 13.11.2020
1878 Clouds 18 1017 82 10000 2.1 100 16:23 13.11.2020
1879 Clouds 18 1017 82 10000 2.1 0 15:47 13.11.2020
1880 Clouds 18 1017 82 10000 2.1 0 15:27 13.11.2020
1881 Clouds 18 1018 87 10000 1.5 40 14:45 13.11.2020
1882 Clouds 17 1018 87 10000 1.5 40 14:22 13.11.2020
1883 Clouds 17 1018 93 10000 1.5 70 13:47 13.11.2020
1884 Clear 17 1018 87 10000 2.1 60 13:23 13.11.2020
1885 Clouds 17 1019 93 10000 3.1 90 12:46 13.11.2020
1886 Clouds 15 1019 93 10000 3.1 90 12:24 13.11.2020
1887 Clouds 15 1019 93 10000 3.6 80 11:48 13.11.2020
1888 Rain 15 1019 87 10000 3.1 80 11:27 13.11.2020
1889 Rain 15 1019 87 10000 3.6 60 10:55 13.11.2020
1890 Rain 15 1019 87 10000 2.6 60 10:35 13.11.2020
1891 Clouds 14 1019 93 10000 2.6 70 09:56 13.11.2020
1892 Clouds 14 1019 93 10000 2.6 50 09:38 13.11.2020
1893 Rain 14 1019 93 10000 2.6 50 09:19 13.11.2020
1894 Rain 14 1019 93 10000 2.6 50 09:19 13.11.2020
1895 Rain 14 1019 93 10000 2.6 50 09:19 13.11.2020
1896 Rain 14 1018 93 10000 3.1 60 08:36 13.11.2020
1897 Clouds 14 1018 93 10000 3.1 70 07:58 13.11.2020
1898 Rain 14 1018 93 10000 2.6 80 07:40 13.11.2020
1899 Clouds 14 1018 93 10000 2.6 80 07:21 13.11.2020
1900 Rain 14 1018 93 10000 3.1 70 06:48 13.11.2020
1901 Clear 14 1017 93 10000 2.6 50 05:43 13.11.2020
1902 Clear 14 1017 93 10000 2.6 50 05:43 13.11.2020
1903 Clear 14 1017 93 10000 2.6 50 05:23 13.11.2020
1904 Clouds 16 1018 82 10000 1.5 20 01:45 13.11.2020
1905 Clouds 16 1018 82 10000 1 0 00:51 13.11.2020
1906 Clouds 16 1018 82 10000 1 0 00:32 13.11.2020
1907 Clouds 16 1018 82 10000 1.5 340 23:38 12.11.2020
1908 Clouds 16 1018 82 10000 1.5 340 23:19 12.11.2020
1909 Clouds 16 1018 82 10000 1.5 340 23:19 12.11.2020
1910 Clouds 16 1018 82 10000 0.5 0 22:50 12.11.2020
1911 Clouds 16 1018 82 10000 0.5 350 22:32 12.11.2020
1912 Clear 17 1018 82 10000 1.27 54 21:56 12.11.2020
1913 Clear 16 1018 82 10000 0.5 0 21:36 12.11.2020
1914 Clear 16 1018 77 10000 1.68 50 21:18 12.11.2020
1915 Clear 16 1018 82 10000 0.5 280 20:39 12.11.2020
1916 Clear 16 1018 82 10000 0.5 280 20:21 12.11.2020
1917 Clear 17 1018 77 10000 1.5 220 19:47 12.11.2020
1918 Clear 17 1018 77 10000 0.5 0 19:29 12.11.2020
1919 Clear 19 1017 59 10000 1.5 150 18:52 12.11.2020
1920 Clouds 19 1017 60 10000 2.1 120 18:24 12.11.2020
1921 Clouds 20 1017 60 10000 2.6 90 17:55 12.11.2020
1922 Clouds 20 1017 60 10000 2.6 100 17:30 12.11.2020
1923 Clouds 20 1017 64 10000 2.1 130 16:57 12.11.2020
1924 Clouds 20 1017 64 10000 2.1 100 16:39 12.11.2020
1925 Clouds 20 1017 64 10000 2.1 100 16:21 12.11.2020
1926 Clouds 20 1018 64 10000 3.1 60 15:42 12.11.2020
1927 Clouds 20 1018 64 10000 3.1 60 15:23 12.11.2020
1928 Clear 20 1018 68 10000 2.1 50 14:46 12.11.2020
1929 Clear 19 1018 68 10000 2.1 50 14:26 12.11.2020
1930 Clear 19 1019 72 10000 2.6 70 13:55 12.11.2020
1931 Clear 19 1020 77 10000 3.1 70 13:37 12.11.2020
1932 Clear 18 1020 77 10000 3.1 70 13:18 12.11.2020
1933 Clear 18 1020 82 10000 3.6 80 12:42 12.11.2020
1934 Clear 17 1021 82 10000 4.1 80 12:20 12.11.2020
1935 Clear 16 1021 87 10000 4.1 70 11:47 12.11.2020
1936 Clear 17 1021 87 10000 4.1 70 11:28 12.11.2020
1937 Clear 16 1021 93 10000 3.1 60 10:43 12.11.2020
1938 Clear 16 1021 93 10000 3.1 60 10:43 12.11.2020
1939 Clear 15 1021 93 10000 3.1 60 10:24 12.11.2020
1940 Clear 14 1021 93 10000 3.1 60 09:48 12.11.2020
1941 Clear 14 1021 93 10000 3.1 60 09:23 12.11.2020
1942 Clear 14 1020 93 10000 3.1 60 08:57 12.11.2020
1943 Clear 14 1020 100 10000 2.6 50 08:39 12.11.2020
1944 Clear 14 1020 100 10000 2.6 50 08:19 12.11.2020
1945 Clear 14 1020 100 10000 2.6 50 07:48 12.11.2020
1946 Clear 14 1020 100 10000 2.6 60 07:22 12.11.2020
1947 Clear 15 1020 87 10000 2.1 60 06:49 12.11.2020
1948 Clear 15 1020 87 10000 2.1 60 06:49 12.11.2020
1949 Clear 15 1020 93 10000 2.1 40 05:31 12.11.2020
1950 Clear 15 1021 87 10000 2.1 10 03:22 12.11.2020
1951 Clear 14 1022 87 10000 2.1 20 02:41 12.11.2020
1952 Clear 15 1022 87 10000 1.5 340 23:59 11.11.2020
1953 Clear 15 1022 87 10000 1 0 23:25 11.11.2020
1954 Clear 16 1023 87 10000 2.1 350 22:59 11.11.2020
1955 Clear 16 1022 82 10000 2.6 330 22:39 11.11.2020
1956 Clear 16 1022 82 10000 2.6 330 22:21 11.11.2020
1957 Clear 16 1022 82 10000 1.5 0 21:43 11.11.2020
1958 Clear 16 1022 82 10000 1.5 0 21:25 11.11.2020
1959 Clear 16 1022 82 10000 2.1 350 20:59 11.11.2020
1960 Rain 16 1022 82 10000 2.1 330 20:40 11.11.2020
1961 Rain 16 1022 82 10000 2.1 330 20:21 11.11.2020
1962 Clear 16 1022 82 10000 1.5 350 19:49 11.11.2020
1963 Clear 16 1022 82 10000 1.5 350 19:49 11.11.2020
1964 Clear 17 1021 82 10000 1 0 19:31 11.11.2020
1965 Clear 17 1021 82 10000 1.5 110 18:54 11.11.2020
1966 Clear 17 1021 77 10000 1.5 60 18:35 11.11.2020
1967 Clouds 18 1021 72 10000 1 0 17:43 11.11.2020
1968 Clouds 18 1021 72 10000 1 0 17:23 11.11.2020
1969 Clouds 19 1021 72 10000 0.5 0 16:56 11.11.2020
1970 Clouds 18 1021 77 10000 1 0 16:35 11.11.2020
1971 Clouds 18 1021 77 10000 2.6 0 15:53 11.11.2020
1972 Clouds 18 1022 77 10000 2.1 70 15:27 11.11.2020
1973 Clouds 18 1022 87 10000 2.6 60 15:00 11.11.2020
1974 Clouds 18 1022 82 10000 2.6 70 14:39 11.11.2020
1975 Clear 17 1023 82 10000 2.6 70 14:18 11.11.2020
1976 Clear 17 1023 77 10000 2.1 80 13:43 11.11.2020
1977 Clear 16 1023 93 10000 2.1 40 12:55 11.11.2020
1978 Clear 16 1023 93 10000 2.1 50 12:21 11.11.2020
1979 Clear 15 1024 93 10000 2.1 40 11:51 11.11.2020
1980 Clouds 15 1023 93 10000 2.6 50 11:33 11.11.2020
1981 Clouds 13 1023 100 10000 3.1 70 10:45 11.11.2020
1982 Clouds 13 1023 100 10000 3.1 70 10:27 11.11.2020
1983 Clouds 13 1023 100 10000 2.6 60 09:55 11.11.2020
1984 Clouds 12 1022 100 10000 2.1 20 09:37 11.11.2020
1985 Clouds 12 1022 100 10000 2.1 20 09:19 11.11.2020
1986 Clear 11 1022 100 10000 1.5 50 08:41 11.11.2020
1987 Clear 10 1022 100 10000 1.5 50 08:22 11.11.2020
1988 Clear 11 1022 100 10000 2.1 70 07:41 11.11.2020
1989 Clear 12 1023 100 10000 1.5 50 06:31 11.11.2020
1990 Clear 12 1023 100 10000 1.5 10 05:36 11.11.2020
1991 Clear 12 1024 93 10000 1.5 50 01:37 11.11.2020
1992 Clear 12 1025 93 10000 1.5 40 00:56 11.11.2020
1993 Clear 12 1025 93 10000 2.1 10 00:24 11.11.2020
1994 Clear 14 1025 82 10000 2.1 340 23:37 10.11.2020
1995 Clear 13 1025 82 10000 1.5 330 23:18 10.11.2020
1996 Clear 14 1025 87 10000 1 0 22:43 10.11.2020
1997 Clear 15 1025 87 10000 1 0 22:24 10.11.2020
1998 Clear 15 1025 87 10000 1 0 21:41 10.11.2020
1999 Clear 15 1025 87 10000 1 0 21:23 10.11.2020
2000 Clear 14 1025 93 10000 1.5 310 20:55 10.11.2020
2001 Clouds 14 1025 93 10000 1 330 20:37 10.11.2020
2002 Clouds 15 1024 93 10000 1.5 20 20:19 10.11.2020
2003 Clouds 15 1025 93 10000 1 0 19:42 10.11.2020
2004 Clouds 15 1025 93 10000 1 0 19:23 10.11.2020
2005 Clouds 16 1025 87 10000 1 50 18:43 10.11.2020
2006 Clouds 17 1025 87 10000 1 50 18:24 10.11.2020
2007 Clouds 17 1025 82 10000 1.5 60 17:57 10.11.2020
2008 Clouds 17 1025 82 10000 1.5 70 17:38 10.11.2020
2009 Clouds 17 1025 82 10000 2.6 60 17:20 10.11.2020
2010 Clouds 17 1025 87 10000 1.5 50 16:41 10.11.2020
2011 Clouds 16 1025 93 10000 2.1 50 16:22 10.11.2020
2012 Clouds 17 1025 93 10000 2.1 50 15:54 10.11.2020
2013 Fog 17 1025 100 10000 2.6 30 15:36 10.11.2020
2014 Fog 16 1026 100 10000 2.1 20 15:18 10.11.2020
2015 Mist 15 1026 100 1200 2.6 50 14:39 10.11.2020
2016 Fog 15 1026 100 500 2.6 50 14:18 10.11.2020
2017 Fog 15 1027 100 400 2.6 70 13:38 10.11.2020
2018 Fog 15 1027 100 600 2.1 70 13:20 10.11.2020
2019 Fog 14 1027 100 400 2.1 70 12:46 10.11.2020
2020 Fog 13 1027 100 400 2.1 70 12:25 10.11.2020
2021 Fog 13 1027 100 250 1.5 50 11:43 10.11.2020
2022 Fog 13 1027 100 250 1.5 50 11:43 10.11.2020
2023 Fog 13 1027 100 250 1.5 50 11:22 10.11.2020
2024 Fog 13 1027 100 150 1 0 10:57 10.11.2020
2025 Fog 13 1027 100 200 2.1 90 10:38 10.11.2020
2026 Fog 13 1027 100 200 2.1 90 10:20 10.11.2020
2027 Fog 13 1026 100 800 0.5 0 09:46 10.11.2020
2028 Fog 11 1026 100 300 2.1 60 09:25 10.11.2020
2029 Fog 11 1026 100 10000 1.5 70 08:55 10.11.2020
2030 Fog 11 1026 100 10000 1.96 46 08:27 10.11.2020
2031 Fog 11 1026 100 10000 1.96 46 07:45 10.11.2020
2032 Fog 11 1026 100 10000 1.85 46 07:24 10.11.2020
2033 Clouds 12 1026 93 10000 2.1 10 06:41 10.11.2020
2034 Clouds 12 1025 93 10000 0.5 0 05:49 10.11.2020
2035 Clear 12 1025 93 10000 2.6 320 04:59 10.11.2020
2036 Clear 13 1026 100 10000 2.1 310 02:37 10.11.2020
2037 Clear 14 1026 93 10000 2.1 320 01:31 10.11.2020
2038 Clear 14 1026 100 10000 1 0 00:22 10.11.2020
2039 Clear 14 1026 93 10000 1 0 23:36 09.11.2020
2040 Clear 15 1025 93 10000 1.5 320 22:49 09.11.2020
2041 Clear 15 1025 93 10000 1.5 320 22:25 09.11.2020
2042 Clear 15 1025 93 10000 2.6 320 21:59 09.11.2020
2043 Clear 15 1025 93 10000 1.5 310 21:38 09.11.2020
2044 Clear 15 1025 93 10000 2.1 310 21:19 09.11.2020
2045 Clear 16 1025 87 10000 2.6 310 20:39 09.11.2020
2046 Clear 16 1025 87 10000 2.6 310 20:20 09.11.2020
2047 Clouds 16 1024 87 10000 2.1 300 19:42 09.11.2020
2048 Clouds 17 1024 87 10000 2.1 300 19:22 09.11.2020
2049 Clouds 18 1024 72 10000 2.1 290 18:46 09.11.2020
2050 Clouds 18 1024 72 10000 2.1 290 18:46 09.11.2020
2051 Clouds 18 1024 72 10000 2.1 290 18:21 09.11.2020
2052 Clouds 18 1024 72 10000 2.6 290 17:58 09.11.2020
2053 Clouds 18 1023 77 10000 1 0 17:39 09.11.2020
2054 Clouds 18 1023 77 10000 2.21 301 17:21 09.11.2020
2055 Clouds 18 1023 88 10000 0.5 0 16:38 09.11.2020
2056 Clouds 18 1023 88 10000 1.5 80 16:19 09.11.2020
2057 Clouds 19 1023 88 10000 2.1 90 15:42 09.11.2020
2058 Clouds 18 1023 88 10000 2.1 90 15:24 09.11.2020
2059 Clouds 18 1023 88 10000 2.1 100 14:44 09.11.2020
2060 Clouds 18 1023 88 10000 2.1 100 14:26 09.11.2020
2061 Clouds 18 1023 93 10000 2.1 80 13:51 09.11.2020
2062 Clouds 18 1024 88 10000 2.1 110 13:21 09.11.2020
2063 Clouds 18 1024 88 10000 2.1 110 12:50 09.11.2020
2064 Fog 17 1024 93 10000 2.1 80 12:26 09.11.2020
2065 Fog 17 1024 93 10000 1.5 100 11:59 09.11.2020
2066 Fog 17 1023 88 10000 1 0 11:41 09.11.2020
2067 Fog 17 1023 88 10000 1 0 11:22 09.11.2020
2068 Fog 15 1023 100 10000 1 0 10:43 09.11.2020
2069 Fog 15 1023 100 10000 1 0 10:24 09.11.2020
2070 Fog 14 1022 100 10000 0.5 0 09:51 09.11.2020
2071 Fog 13 1022 100 10000 0.5 0 09:25 09.11.2020
2072 Fog 13 1021 100 10000 0.5 0 08:44 09.11.2020
2073 Fog 13 1021 100 10000 0.5 0 08:26 09.11.2020
2074 Clouds 14 1021 100 10000 1 0 07:41 09.11.2020
2075 Clouds 14 1021 100 10000 1 0 07:41 09.11.2020
2076 Clouds 14 1021 100 10000 1 0 07:21 09.11.2020
2077 Clouds 14 1021 100 10000 1 0 06:42 09.11.2020
2078 Clouds 14 1020 100 10000 1.77 208 03:49 09.11.2020
2079 Clouds 15 1020 100 10000 2.1 240 01:55 09.11.2020
2080 Clouds 15 1020 100 10000 2.1 240 01:37 09.11.2020
2081 Clouds 15 1020 100 10000 2.1 230 23:55 08.11.2020
2082 Clouds 15 1020 100 10000 2.1 230 23:37 08.11.2020
2083 Clouds 15 1020 100 10000 2.1 220 23:18 08.11.2020
2084 Clouds 15 1019 100 10000 2.6 220 22:41 08.11.2020
2085 Clouds 15 1019 100 10000 2.6 220 22:20 08.11.2020
2086 Clouds 16 1019 100 10000 1 230 21:42 08.11.2020
2087 Clouds 16 1019 100 10000 1 230 21:20 08.11.2020
2088 Clouds 16 1019 93 10000 1.5 240 20:55 08.11.2020
2089 Clouds 16 1019 93 10000 2.6 240 20:37 08.11.2020
2090 Clouds 16 1019 93 10000 2.1 240 20:19 08.11.2020
2091 Clouds 16 1018 88 10000 3.6 240 19:43 08.11.2020
2092 Rain 17 1018 93 10000 4.6 220 19:21 08.11.2020
2093 Rain 17 1018 93 10000 4.6 220 18:49 08.11.2020
2094 Clouds 17 1018 93 10000 5.1 220 18:22 08.11.2020
2095 Clouds 18 1018 88 10000 5.7 230 17:59 08.11.2020
2096 Clouds 18 1018 88 10000 5.7 220 17:41 08.11.2020
2097 Clouds 18 1018 88 10000 5.1 220 17:20 08.11.2020
2098 Clouds 18 1018 88 10000 5.1 220 16:57 08.11.2020
2099 Clouds 18 1018 88 10000 6.2 220 16:37 08.11.2020
2100 Clouds 18 1018 88 10000 6.2 230 16:18 08.11.2020
2101 Clouds 18 1018 82 10000 5.7 210 15:44 08.11.2020
2102 Clouds 18 1018 82 10000 5.7 210 15:25 08.11.2020
2103 Clouds 18 1018 93 10000 5.7 200 14:42 08.11.2020
2104 Clouds 18 1018 93 10000 5.7 200 14:23 08.11.2020
2105 Clouds 18 1018 88 10000 6.2 210 13:47 08.11.2020
2106 Clouds 18 1018 88 10000 6.2 210 13:24 08.11.2020
2107 Clouds 17 1019 93 10000 7.7 190 12:47 08.11.2020
2108 Clouds 17 1019 93 10000 6.7 200 12:29 08.11.2020
2109 Clouds 17 1019 100 10000 6.2 200 11:58 08.11.2020
2110 Rain 17 1019 93 6000 8.7 200 11:40 08.11.2020
2111 Rain 17 1019 93 6000 8.7 200 11:21 08.11.2020
2112 Rain 17 1018 93 10000 6.7 180 10:51 08.11.2020
2113 Rain 17 1018 93 10000 6.2 180 10:20 08.11.2020
2114 Clouds 17 1018 93 10000 6.7 180 09:59 08.11.2020
2115 Clouds 17 1018 93 10000 7.7 190 09:40 08.11.2020
2116 Clouds 16 1018 93 10000 8.7 180 09:18 08.11.2020
2117 Clouds 17 1017 93 10000 7.7 170 08:41 08.11.2020
2118 Rain 17 1017 93 10000 7.7 170 08:20 08.11.2020
2119 Rain 17 1017 93 10000 7.2 170 07:52 08.11.2020
2120 Clouds 17 1017 93 10000 7.2 170 07:29 08.11.2020
2121 Clouds 17 1018 93 10000 8.7 190 06:26 08.11.2020
2122 Clouds 17 1018 93 10000 7.2 180 05:53 08.11.2020
2123 Clouds 17 1018 100 10000 6.2 180 04:50 08.11.2020
2124 Clouds 16 1019 93 10000 5.1 170 01:55 08.11.2020
2125 Clouds 16 1019 100 10000 5.7 170 01:19 08.11.2020
2126 Clouds 16 1019 100 10000 6.7 170 00:30 08.11.2020
2127 Clouds 16 1019 100 10000 7.2 170 23:50 07.11.2020
2128 Clouds 16 1019 100 10000 5.7 170 23:31 07.11.2020
2129 Clouds 16 1019 100 10000 5.7 170 23:31 07.11.2020
2130 Clouds 17 1019 93 10000 6.7 180 22:48 07.11.2020
2131 Clouds 17 1019 93 10000 6.7 180 22:28 07.11.2020
2132 Clouds 17 1019 93 10000 6.2 170 21:58 07.11.2020
2133 Clouds 17 1019 93 10000 6.2 180 21:39 07.11.2020
2134 Clouds 17 1019 93 10000 6.2 180 21:19 07.11.2020
2135 Clouds 17 1018 93 10000 6.2 180 20:45 07.11.2020
2136 Clouds 17 1018 93 10000 6.2 180 20:26 07.11.2020
2137 Clouds 17 1018 93 10000 6.2 170 19:46 07.11.2020
2138 Rain 17 1018 93 10000 7.2 190 19:27 07.11.2020
2139 Rain 17 1018 93 10000 9.3 190 18:43 07.11.2020
2140 Rain 17 1018 93 10000 9.3 190 18:25 07.11.2020
2141 Clouds 17 1018 77 10000 7.7 180 17:48 07.11.2020
2142 Rain 17 1017 77 10000 8.2 190 17:29 07.11.2020
2143 Clouds 18 1017 77 10000 6.7 180 16:46 07.11.2020
2144 Clouds 18 1017 77 10000 6.7 180 16:26 07.11.2020
2145 Clouds 18 1017 77 10000 7.7 180 15:58 07.11.2020
2146 Clouds 17 1017 77 10000 7.2 200 15:40 07.11.2020
2147 Clouds 17 1017 77 10000 7.2 200 15:20 07.11.2020
2148 Clouds 17 1018 72 10000 8.2 200 14:42 07.11.2020
2149 Clouds 17 1018 72 10000 8.2 200 14:24 07.11.2020
2150 Clouds 18 1018 72 10000 9.3 200 13:52 07.11.2020
2151 Clouds 18 1018 72 10000 9.8 200 13:30 07.11.2020
2152 Clouds 18 1017 77 10000 8.2 210 12:44 07.11.2020
2153 Clouds 18 1017 77 10000 6.7 200 12:20 07.11.2020
2154 Clouds 18 1017 77 10000 6.7 210 11:41 07.11.2020
2155 Clouds 17 1016 88 10000 5.7 200 11:22 07.11.2020
2156 Clouds 17 1016 88 10000 3.6 200 10:45 07.11.2020
2157 Clouds 17 1016 88 10000 3.6 200 10:27 07.11.2020
2158 Clouds 16 1015 100 10000 4.75 210 09:53 07.11.2020
2159 Clouds 15 1015 93 10000 4.1 190 09:34 07.11.2020
2160 Clouds 15 1014 93 10000 3.1 180 08:53 07.11.2020
2161 Clouds 14 1014 100 10000 1 0 08:35 07.11.2020
2162 Clouds 15 1014 100 10000 1 0 07:51 07.11.2020
2163 Clouds 14 1013 100 10000 2.6 200 07:29 07.11.2020
2164 Clouds 14 1013 100 10000 2.1 170 06:47 07.11.2020
2165 Clouds 14 1012 100 10000 2.1 210 05:24 07.11.2020
2166 Clouds 14 1010 100 10000 0.5 0 03:24 07.11.2020
2167 Clouds 15 1010 100 10000 1.5 150 01:29 07.11.2020
2168 Clouds 15 1010 100 10000 1 20 00:59 07.11.2020
2169 Clouds 15 1010 100 10000 1 140 23:56 06.11.2020
2170 Clouds 15 1009 100 10000 1.5 120 23:24 06.11.2020
2171 Clouds 15 1009 100 10000 2.1 120 22:44 06.11.2020
2172 Rain 15 1009 100 10000 2.1 120 22:20 06.11.2020
2173 Clouds 15 1009 93 10000 2.6 160 21:47 06.11.2020
2174 Clouds 15 1009 93 10000 3.1 170 21:22 06.11.2020
2175 Clouds 15 1009 93 10000 3.6 160 20:59 06.11.2020
2176 Clouds 15 1008 93 10000 3.6 160 20:41 06.11.2020
2177 Clouds 15 1009 93 10000 2.6 150 20:19 06.11.2020
2178 Clouds 15 1008 100 7000 4.1 180 19:45 06.11.2020
2179 Clouds 15 1008 100 7000 4.1 180 19:26 06.11.2020
2180 Clouds 15 1008 93 10000 2.6 130 18:46 06.11.2020
2181 Clouds 15 1008 93 10000 2.6 130 18:24 06.11.2020
2182 Clouds 15 1008 93 10000 4.1 150 17:51 06.11.2020
2183 Clouds 16 1008 93 10000 3.6 140 17:31 06.11.2020
2184 Clouds 15 1008 93 10000 4.6 160 16:50 06.11.2020
2185 Clouds 15 1008 93 10000 5.1 150 16:32 06.11.2020
2186 Clouds 15 1008 93 10000 3.6 150 15:55 06.11.2020
2187 Clouds 15 1008 93 10000 4.1 150 15:33 06.11.2020
2188 Rain 15 1008 93 10000 2.6 130 14:54 06.11.2020
2189 Rain 15 1008 93 10000 2.6 140 14:28 06.11.2020
2190 Rain 15 1009 93 5000 3.1 180 13:49 06.11.2020
2191 Rain 15 1009 93 5000 3.1 180 13:26 06.11.2020
2192 Rain 15 1009 100 10000 2.1 50 12:55 06.11.2020
2193 Rain 15 1009 100 10000 3.1 90 12:36 06.11.2020
2194 Rain 15 1009 100 10000 4.1 90 12:18 06.11.2020
2195 Clouds 14 1009 100 10000 2.6 60 11:36 06.11.2020
2196 Clouds 13 1009 100 10000 2.6 90 10:52 06.11.2020
2197 Clouds 13 1008 100 10000 4.1 100 10:32 06.11.2020
2198 Clouds 13 1010 100 10000 3.6 150 09:50 06.11.2020
2199 Rain 13 1010 100 10000 3.6 150 09:28 06.11.2020
2200 Rain 13 1008 100 9000 4.6 200 08:58 06.11.2020
2201 Rain 14 1008 100 10000 6.2 220 08:40 06.11.2020
2202 Rain 14 1007 100 10000 2.1 110 08:18 06.11.2020
2203 Rain 15 1008 93 10000 2.6 150 07:40 06.11.2020
2204 Clouds 15 1008 100 10000 2.6 130 07:18 06.11.2020
2205 Clouds 15 1008 100 10000 3.1 110 06:40 06.11.2020
2206 Clouds 15 1009 87 10000 4.1 140 05:37 06.11.2020
2207 Clouds 15 1009 93 10000 4.1 120 01:59 06.11.2020
2208 Clouds 15 1009 93 10000 5.1 120 00:29 06.11.2020
2209 Clouds 15 1009 93 10000 5.1 130 23:51 05.11.2020
2210 Clouds 15 1009 93 10000 5.1 130 23:24 05.11.2020
2211 Clouds 14 1010 93 10000 5.1 130 22:45 05.11.2020
2212 Rain 14 1010 93 10000 5.1 130 22:26 05.11.2020
2213 Rain 14 1009 93 10000 4.6 120 21:57 05.11.2020
2214 Clouds 14 1009 100 10000 4.1 110 21:38 05.11.2020
2215 Clouds 14 1009 93 10000 4.1 120 21:18 05.11.2020
2216 Clouds 14 1009 93 10000 4.6 130 20:43 05.11.2020
2217 Clouds 14 1009 93 10000 4.6 130 20:22 05.11.2020
2218 Rain 16 1009 93 10000 3.6 120 19:44 05.11.2020
2219 Rain 16 1009 93 10000 3.6 120 19:26 05.11.2020
2220 Rain 17 1009 87 10000 3.6 90 18:57 05.11.2020
2221 Rain 17 1008 82 10000 3.6 90 18:38 05.11.2020
2222 Rain 17 1008 77 10000 5.7 110 18:20 05.11.2020
2223 Rain 17 1008 77 10000 5.1 100 17:43 05.11.2020
2224 Clouds 18 1008 77 10000 5.1 100 17:25 05.11.2020
2225 Clouds 18 1009 72 10000 5.1 90 16:46 05.11.2020
2226 Clouds 18 1009 72 10000 5.1 90 16:27 05.11.2020
2227 Clouds 18 1009 63 10000 4.1 120 15:51 05.11.2020
2228 Clouds 18 1009 63 10000 2.6 120 15:27 05.11.2020
2229 Clouds 17 1010 59 10000 5.1 150 14:55 05.11.2020
2230 Clouds 17 1010 59 10000 6.7 140 14:36 05.11.2020
2231 Clouds 17 1010 67 10000 5.7 140 14:18 05.11.2020
2232 Clouds 17 1010 77 10000 5.1 130 13:40 05.11.2020
2233 Clouds 16 1010 82 10000 5.1 130 12:56 05.11.2020
2234 Clouds 16 1010 87 10000 4.6 120 12:38 05.11.2020
2235 Clouds 16 1010 93 10000 5.1 90 12:19 05.11.2020
2236 Clouds 15 1010 93 10000 3.6 70 11:41 05.11.2020
2237 Clouds 15 1010 93 10000 3.6 70 11:22 05.11.2020
2238 Clouds 14 1010 100 10000 4.6 60 10:48 05.11.2020
2239 Clouds 14 1010 100 10000 4.6 60 10:26 05.11.2020
2240 Clouds 14 1010 100 10000 5.1 50 09:49 05.11.2020
2241 Clouds 14 1009 100 10000 4.6 50 09:24 05.11.2020
2242 Clouds 14 1009 100 10000 4.6 40 08:49 05.11.2020
2243 Clouds 14 1009 100 10000 4.6 50 08:31 05.11.2020
2244 Clouds 14 1009 100 10000 5.7 60 07:58 05.11.2020
2245 Clouds 14 1009 100 10000 5.1 70 07:28 05.11.2020
2246 Clouds 13 1009 93 10000 5.1 70 06:43 05.11.2020
2247 Rain 13 1009 93 10000 5.1 70 06:20 05.11.2020
2248 Clouds 13 1009 87 10000 4.1 50 03:27 05.11.2020
2249 Clouds 12 1010 76 10000 5.7 50 00:37 05.11.2020
2250 Clouds 13 1011 71 10000 6.7 50 00:18 05.11.2020
2251 Clouds 12 1010 71 10000 4.6 40 23:36 04.11.2020
2252 Clouds 12 1011 66 10000 4.1 30 23:18 04.11.2020
2253 Clouds 12 1011 66 10000 4.6 30 22:41 04.11.2020
2254 Clouds 12 1011 66 10000 4.6 30 22:21 04.11.2020
2255 Clouds 12 1011 66 10000 2.6 20 21:47 04.11.2020
2256 Clouds 12 1011 66 10000 3.6 10 21:27 04.11.2020
2257 Clouds 12 1012 66 10000 4.1 350 20:54 04.11.2020
2258 Clouds 12 1012 66 10000 4.1 350 20:35 04.11.2020
2259 Clouds 13 1012 66 10000 4.6 350 19:59 04.11.2020
2260 Clear 13 1012 62 10000 4.6 360 19:40 04.11.2020
2261 Clear 13 1012 62 10000 4.6 360 19:40 04.11.2020
2262 Clear 13 1012 62 10000 4.6 360 19:22 04.11.2020
2263 Clouds 13 1013 62 10000 5.1 350 18:41 04.11.2020
2264 Rain 13 1013 58 10000 6.2 350 18:22 04.11.2020
2265 Clouds 14 1014 58 10000 5.7 360 17:47 04.11.2020
2266 Clouds 14 1014 58 10000 5.7 360 17:27 04.11.2020
2267 Clear 14 1014 58 10000 6.7 350 16:46 04.11.2020
2268 Clear 14 1014 50 10000 5.7 10 16:27 04.11.2020
2269 Clear 14 1015 58 10000 6.7 340 15:59 04.11.2020
2270 Clear 14 1015 58 10000 7.7 340 15:40 04.11.2020
2271 Clear 14 1015 58 10000 7.7 340 15:20 04.11.2020
2272 Rain 13 1016 62 10000 6.7 350 14:44 04.11.2020
2273 Rain 13 1016 62 10000 6.7 350 14:24 04.11.2020
2274 Rain 13 1017 62 10000 6.7 340 13:51 04.11.2020
2275 Rain 13 1018 58 10000 8.2 340 13:22 04.11.2020
2276 Rain 13 1018 62 10000 6.7 330 12:58 04.11.2020
2277 Clear 13 1018 62 10000 9.3 340 12:40 04.11.2020
2278 Clear 13 1018 62 10000 9.3 340 12:22 04.11.2020
2279 Clear 13 1019 62 10000 6.7 340 11:45 04.11.2020
2280 Clear 13 1019 62 10000 6.7 340 11:22 04.11.2020
2281 Clear 13 1019 66 10000 7.7 330 10:49 04.11.2020
2282 Clear 13 1020 66 10000 7.7 330 10:24 04.11.2020
2283 Clear 12 1020 66 10000 7.7 330 09:56 04.11.2020
2284 Clear 12 1020 71 10000 6.7 330 09:28 04.11.2020
2285 Clouds 12 1020 71 10000 6.2 320 08:50 04.11.2020
2286 Clouds 12 1020 76 10000 7.7 330 08:24 04.11.2020
2287 Clouds 12 1020 81 10000 7.7 330 07:58 04.11.2020
2288 Clouds 12 1020 87 10000 7.7 330 07:37 04.11.2020
2289 Clouds 12 1020 87 10000 7.7 330 07:18 04.11.2020
2290 Clear 12 1021 81 10000 7.2 320 06:39 04.11.2020
2291 Clear 13 1021 81 10000 5.7 330 05:24 04.11.2020
2292 Clear 13 1023 81 10000 6.7 330 02:31 04.11.2020
2293 Clear 13 1024 76 10000 7.2 320 01:38 04.11.2020
2294 Clear 14 1025 76 10000 8.2 330 00:25 04.11.2020
2295 Clear 14 1025 82 10000 6.7 330 23:30 03.11.2020
2296 Clear 14 1025 82 10000 7.7 330 22:58 03.11.2020
2297 Clear 14 1025 76 10000 6.7 330 22:39 03.11.2020
2298 Clear 14 1025 76 10000 6.7 330 22:19 03.11.2020
2299 Clear 14 1025 76 10000 7.2 330 21:43 03.11.2020
2300 Clear 14 1025 76 10000 7.2 330 21:24 03.11.2020
2301 Clear 14 1025 76 10000 7.2 340 20:49 03.11.2020
2302 Clouds 14 1025 82 10000 6.7 330 20:27 03.11.2020
2303 Clouds 14 1025 82 10000 5.7 330 19:57 03.11.2020
2304 Clouds 14 1025 76 10000 6.2 330 19:38 03.11.2020
2305 Clouds 14 1025 76 10000 6.2 330 19:19 03.11.2020
2306 Clouds 15 1025 72 10000 8.7 340 18:41 03.11.2020
2307 Clouds 15 1025 72 10000 8.7 340 18:19 03.11.2020
2308 Clouds 16 1025 67 10000 8.2 350 17:47 03.11.2020
2309 Clouds 16 1025 67 10000 8.2 350 17:29 03.11.2020
2310 Clouds 17 1025 67 10000 8.7 350 16:52 03.11.2020
2311 Clouds 17 1025 63 10000 9.3 350 16:31 03.11.2020
2312 Clouds 17 1025 63 10000 8.7 360 15:59 03.11.2020
2313 Clouds 17 1026 59 10000 10.3 350 15:40 03.11.2020
2314 Clouds 17 1026 55 10000 9.8 360 15:20 03.11.2020
2315 Clouds 17 1026 59 10000 9.3 350 14:45 03.11.2020
2316 Clouds 17 1026 59 10000 9.3 350 14:27 03.11.2020
2317 Clouds 17 1027 55 10000 9.8 350 13:42 03.11.2020
2318 Clouds 17 1027 55 10000 9.8 350 13:22 03.11.2020
2319 Clouds 17 1027 59 10000 10.3 350 12:48 03.11.2020
2320 Clouds 17 1027 59 10000 9.8 350 12:27 03.11.2020
2321 Clouds 17 1027 59 10000 9.8 360 11:55 03.11.2020
2322 Clouds 17 1027 63 10000 8.2 350 11:36 03.11.2020
2323 Clouds 16 1027 72 10000 8.2 350 11:18 03.11.2020
2324 Clear 15 1027 67 10000 8.2 360 10:38 03.11.2020
2325 Clear 15 1027 67 10000 8.2 360 10:19 03.11.2020
2326 Clouds 15 1027 71 10000 7.7 360 09:47 03.11.2020
2327 Clouds 14 1026 71 10000 6.7 360 09:26 03.11.2020
2328 Clear 14 1026 67 10000 8.7 360 08:51 03.11.2020
2329 Clear 14 1026 71 10000 10.8 350 08:33 03.11.2020
2330 Clear 14 1026 67 10000 11.8 350 07:48 03.11.2020
2331 Clear 14 1026 71 10000 11.3 350 07:21 03.11.2020
2332 Clear 14 1025 71 10000 11.8 340 06:43 03.11.2020
2333 Clear 15 1026 67 10000 10.8 350 04:40 03.11.2020
2334 Clouds 16 1026 77 10000 6.7 350 00:46 03.11.2020
2335 Clouds 16 1026 77 10000 6.7 350 00:25 03.11.2020
2336 Clouds 16 1026 77 10000 8.2 350 23:47 02.11.2020
2337 Clouds 16 1026 77 10000 8.2 350 23:28 02.11.2020
2338 Clouds 17 1025 87 10000 6.2 360 22:45 02.11.2020
2339 Clouds 17 1025 87 10000 6.2 360 22:27 02.11.2020
2340 Clouds 17 1025 93 10000 6.7 340 21:58 02.11.2020
2341 Clouds 17 1025 93 10000 5.7 340 21:36 02.11.2020
2342 Clouds 17 1025 100 10000 6.7 330 21:18 02.11.2020
2343 Clouds 18 1024 93 10000 2.6 320 20:38 02.11.2020
2344 Clouds 19 1024 88 10000 2.6 300 20:19 02.11.2020
2345 Clouds 19 1024 88 10000 2.1 300 19:44 02.11.2020
2346 Clouds 19 1024 88 10000 2.1 300 19:26 02.11.2020
2347 Clouds 19 1024 88 10000 2.1 300 19:26 02.11.2020
2348 Clouds 19 1024 93 10000 2.6 290 18:43 02.11.2020
2349 Clouds 19 1024 93 10000 2.6 290 18:43 02.11.2020
2350 Rain 20 1024 93 10000 3.1 300 18:22 02.11.2020
2351 Rain 20 1024 93 10000 3.1 300 17:59 02.11.2020
2352 Clouds 20 1024 93 10000 3.6 320 17:40 02.11.2020
2353 Clouds 20 1024 82 10000 3.1 300 17:21 02.11.2020
2354 Clouds 20 1024 82 10000 3.1 300 16:48 02.11.2020
2355 Clouds 20 1023 82 10000 3.1 310 16:24 02.11.2020
2356 Clouds 20 1023 82 10000 2.6 300 15:55 02.11.2020
2357 Clouds 20 1023 82 10000 2.6 300 15:36 02.11.2020
2358 Clouds 20 1023 82 10000 2.6 310 15:18 02.11.2020
2359 Clouds 20 1024 77 10000 2.1 310 14:41 02.11.2020
2360 Clouds 20 1024 77 10000 2.1 310 14:19 02.11.2020
2361 Clouds 20 1024 77 10000 1.5 300 13:46 02.11.2020
2362 Clouds 20 1024 82 10000 2.1 320 13:21 02.11.2020
2363 Clouds 21 1025 82 10000 2.1 340 12:43 02.11.2020
2364 Clouds 21 1025 82 10000 2.1 340 12:21 02.11.2020
2365 Clouds 20 1024 82 10000 3.1 320 11:45 02.11.2020
2366 Clouds 20 1024 82 10000 3.1 320 11:20 02.11.2020
2367 Clouds 19 1024 88 10000 2.6 300 10:45 02.11.2020
2368 Clouds 19 1024 88 10000 2.6 300 10:24 02.11.2020
2369 Clouds 18 1024 82 10000 3.1 310 09:55 02.11.2020
2370 Clouds 18 1024 88 10000 3.1 300 09:26 02.11.2020
2371 Clouds 18 1023 88 10000 2.6 300 08:48 02.11.2020
2372 Clouds 17 1023 93 10000 2.1 290 08:29 02.11.2020
2373 Clouds 17 1023 100 10000 1 290 07:59 02.11.2020
2374 Clouds 17 1023 100 10000 1 280 07:32 02.11.2020
2375 Clouds 18 1023 93 10000 0.5 0 06:44 02.11.2020
2376 Clouds 18 1023 93 10000 1 0 04:59 02.11.2020
2377 Clouds 18 1024 93 10000 1.5 300 01:26 02.11.2020
2378 Clouds 18 1024 93 10000 1 310 00:37 02.11.2020
2379 Clouds 18 1024 93 10000 0.5 260 23:56 01.11.2020
2380 Clouds 18 1024 93 10000 1 0 23:37 01.11.2020
2381 Clouds 18 1024 93 10000 1 240 23:19 01.11.2020
2382 Clouds 18 1024 88 10000 1 280 22:41 01.11.2020
2383 Clouds 18 1024 88 10000 1.5 290 22:18 01.11.2020
2384 Clouds 18 1024 88 10000 1.5 290 21:41 01.11.2020
2385 Clouds 18 1024 88 10000 1.5 290 21:23 01.11.2020
2386 Clouds 18 1024 88 10000 1.5 310 20:46 01.11.2020
2387 Clouds 18 1024 88 10000 1.5 310 20:25 01.11.2020
2388 Clouds 18 1024 88 10000 2.1 250 19:46 01.11.2020
2389 Clouds 18 1024 88 10000 2.1 250 19:28 01.11.2020
2390 Clouds 18 1024 88 10000 2.1 260 18:58 01.11.2020
2391 Clouds 19 1024 82 10000 2.1 230 18:38 01.11.2020
2392 Clouds 19 1024 82 10000 2.1 230 18:19 01.11.2020
2393 Rain 19 1024 82 10000 2.6 230 17:45 01.11.2020
2394 Rain 19 1024 82 10000 2.6 230 17:27 01.11.2020
2395 Clouds 19 1024 82 10000 3.1 230 16:45 01.11.2020
2396 Clouds 20 1024 82 10000 3.1 230 16:27 01.11.2020
2397 Clouds 20 1024 77 10000 2.6 270 15:58 01.11.2020
2398 Rain 20 1025 73 10000 2.1 320 15:38 01.11.2020
2399 Clouds 20 1025 73 10000 2.1 320 15:19 01.11.2020
2400 Clouds 20 1025 77 10000 1.5 120 14:46 01.11.2020
2401 Clouds 20 1025 77 10000 1.5 120 14:22 01.11.2020
2402 Clouds 20 1026 77 10000 1.5 210 13:57 01.11.2020
2403 Clouds 20 1026 77 10000 1.5 280 13:39 01.11.2020
2404 Clouds 20 1026 77 10000 1.5 280 13:21 01.11.2020
2405 Clouds 20 1026 77 10000 1.5 0 12:42 01.11.2020
2406 Clouds 19 1027 88 10000 1 0 12:20 01.11.2020
2407 Clouds 19 1027 88 10000 1 0 11:48 01.11.2020
2408 Fog 18 1026 93 10000 1.5 90 11:18 01.11.2020
2409 Fog 18 1026 93 10000 1 0 10:42 01.11.2020
2410 Fog 18 1026 93 10000 1 0 10:24 01.11.2020
2411 Fog 17 1026 93 10000 0.93 55 09:50 01.11.2020
2412 Fog 17 1025 100 10000 0.5 0 09:27 01.11.2020
2413 Fog 17 1025 93 10000 0.5 0 08:44 01.11.2020
2414 Clouds 17 1025 93 10000 0.5 0 08:18 01.11.2020
2415 Clouds 17 1025 93 10000 0.51 290 07:21 01.11.2020
2416 Clouds 17 1026 93 10000 0.38 274 03:25 01.11.2020
2417 Clouds 17 1026 93 10000 1 0 01:42 01.11.2020
2418 Clouds 17 1027 100 10000 0.5 0 00:22 01.11.2020
2419 Clear 17 1027 87 10000 1 0 23:24 31.10.2020
2420 Clouds 17 1026 93 10000 1.06 328 22:45 31.10.2020
2421 Clouds 17 1026 93 10000 1.63 323 22:25 31.10.2020
2422 Clouds 17 1026 88 10000 1 0 21:47 31.10.2020
2423 Clouds 18 1026 88 10000 3.6 300 21:23 31.10.2020
2424 Clouds 18 1026 88 10000 3.6 300 20:59 31.10.2020
2425 Clouds 18 1026 88 10000 3.6 300 20:38 31.10.2020
2426 Clouds 18 1026 88 10000 4.6 300 20:18 31.10.2020
2427 Clouds 18 1025 82 10000 4.6 300 19:39 31.10.2020
2428 Clouds 18 1025 82 10000 4.6 300 19:19 31.10.2020
2429 Clouds 19 1025 77 10000 2.1 300 18:46 31.10.2020
2430 Clouds 20 1025 73 10000 4.1 310 17:58 31.10.2020
2431 Clouds 21 1025 69 10000 1 0 17:40 31.10.2020
2432 Clouds 22 1025 73 10000 2.1 0 17:19 31.10.2020
2433 Clouds 22 1024 68 10000 2.1 130 16:42 31.10.2020
2434 Clouds 21 1025 64 10000 2.1 140 16:20 31.10.2020
2435 Clouds 21 1025 68 10000 2.1 100 15:43 31.10.2020
2436 Clouds 21 1025 68 10000 2.1 100 15:23 31.10.2020
2437 Clouds 21 1026 73 10000 2.1 110 14:47 31.10.2020
2438 Clouds 21 1026 73 10000 2.1 110 14:28 31.10.2020
2439 Clouds 21 1026 73 10000 2.1 0 13:50 31.10.2020
2440 Clouds 21 1027 73 10000 2.1 0 13:26 31.10.2020
2441 Clouds 20 1027 77 10000 2.1 290 12:42 31.10.2020
2442 Clouds 19 1027 77 10000 1.5 0 11:48 31.10.2020
2443 Clouds 19 1027 77 10000 0.99 103 11:29 31.10.2020
2444 Clouds 19 1026 77 10000 1 0 10:58 31.10.2020
2445 Clouds 18 1026 88 10000 1.5 0 10:36 31.10.2020
2446 Clear 17 1026 87 10000 1.5 340 09:45 31.10.2020
2447 Clear 17 1026 87 10000 1.5 340 09:27 31.10.2020
2448 Clouds 16 1025 93 10000 2.1 100 08:40 31.10.2020
2449 Clear 15 1025 87 10000 2.1 100 07:59 31.10.2020
2450 Clear 15 1025 82 10000 2.6 330 07:27 31.10.2020
2451 Clear 16 1025 87 10000 0.5 0 06:42 31.10.2020
2452 Clear 15 1025 87 10000 0.5 0 06:20 31.10.2020
2453 Clear 15 1025 93 10000 1 0 03:46 31.10.2020
2454 Clear 17 1024 77 10000 1 0 01:30 31.10.2020
2455 Clear 17 1024 77 10000 1 0 01:30 31.10.2020
2456 Clear 18 1025 72 10000 3.6 310 00:47 31.10.2020
2457 Clear 18 1024 77 10000 3.1 320 23:53 30.10.2020
2458 Clear 19 1025 72 10000 4.1 310 23:26 30.10.2020
2459 Clear 19 1024 72 10000 4.1 310 22:53 30.10.2020
2460 Clear 19 1024 72 10000 3.6 320 22:27 30.10.2020
2461 Clear 19 1024 72 10000 3.6 310 21:59 30.10.2020
2462 Clear 19 1024 72 10000 2.1 310 21:40 30.10.2020
2463 Clear 19 1024 77 10000 2.6 330 21:21 30.10.2020
2464 Clear 19 1024 72 10000 2.1 330 20:43 30.10.2020
2465 Clear 19 1024 72 10000 2.1 330 20:24 30.10.2020
2466 Clear 20 1024 68 10000 2.6 310 19:52 30.10.2020
2467 Clear 20 1024 68 10000 2.6 320 19:21 30.10.2020
2468 Clear 21 1023 68 10000 2.6 280 18:52 30.10.2020
2469 Clear 22 1023 53 10000 1 0 18:34 30.10.2020
2470 Clear 23 1023 53 10000 1 0 17:57 30.10.2020
2471 Clouds 23 1023 56 10000 2.1 90 17:39 30.10.2020
2472 Clouds 23 1023 56 10000 2.1 90 17:20 30.10.2020
2473 Clouds 24 1023 56 10000 2.1 90 16:49 30.10.2020
2474 Clouds 23 1023 56 10000 2.1 80 16:24 30.10.2020
2475 Clouds 23 1023 60 10000 2.1 80 15:41 30.10.2020
2476 Clouds 23 1023 60 10000 2.1 80 15:20 30.10.2020
2477 Clear 23 1024 64 10000 2.1 70 14:46 30.10.2020
2478 Clear 22 1024 64 10000 2.1 70 14:28 30.10.2020
2479 Clear 22 1024 68 10000 3.1 70 13:57 30.10.2020
2480 Clear 21 1025 77 10000 2.6 70 13:39 30.10.2020
2481 Clear 21 1025 77 10000 3.1 70 13:19 30.10.2020
2482 Clear 20 1025 77 10000 2.6 60 12:40 30.10.2020
2483 Clear 19 1025 77 10000 2.6 60 12:21 30.10.2020
2484 Clear 18 1025 77 10000 3.6 50 11:43 30.10.2020
2485 Clear 18 1025 77 10000 3.6 50 11:20 30.10.2020
2486 Clear 17 1025 87 10000 2.6 60 10:47 30.10.2020
2487 Clear 16 1025 87 10000 2.6 60 10:23 30.10.2020
2488 Clear 16 1025 87 10000 3.1 50 09:46 30.10.2020
2489 Clear 15 1025 93 10000 2.6 50 09:24 30.10.2020
2490 Clear 14 1024 93 10000 1.5 40 08:55 30.10.2020
2491 Clear 13 1024 93 10000 2.1 360 08:31 30.10.2020
2492 Clear 12 1024 93 10000 1.5 340 07:51 30.10.2020
2493 Clear 12 1024 93 10000 1.5 360 07:33 30.10.2020
2494 Clear 12 1024 93 10000 1.5 60 06:47 30.10.2020
2495 Clear 12 1024 82 10000 2.1 60 05:22 30.10.2020
2496 Clear 14 1024 77 10000 3.6 310 02:30 30.10.2020
2497 Clear 15 1024 77 10000 3.6 310 00:46 30.10.2020
2498 Clear 16 1025 72 10000 3.6 310 23:54 29.10.2020
2499 Clear 16 1025 72 10000 3.1 310 23:36 29.10.2020
2500 Clear 16 1025 72 10000 3.1 310 23:18 29.10.2020
2501 Clear 16 1024 72 10000 3.1 310 22:42 29.10.2020
2502 Clear 16 1024 72 10000 3.1 310 22:23 29.10.2020
2503 Clear 16 1024 72 10000 3.6 310 21:40 29.10.2020
2504 Clear 16 1024 72 10000 3.6 310 21:20 29.10.2020
2505 Clear 16 1024 72 10000 3.6 320 20:42 29.10.2020
2506 Clear 17 1024 67 10000 3.1 320 20:20 29.10.2020
2507 Clear 17 1024 67 10000 3.1 320 19:43 29.10.2020
2508 Clear 17 1024 67 10000 3.1 320 19:22 29.10.2020
2509 Clear 18 1024 68 10000 3.6 320 18:56 29.10.2020
2510 Clear 19 1024 63 10000 3.6 330 18:37 29.10.2020
2511 Clear 19 1024 60 10000 2.6 340 18:18 29.10.2020
2512 Clouds 21 1024 56 10000 2.1 70 17:41 29.10.2020
2513 Clouds 20 1024 56 10000 2.1 90 17:21 29.10.2020
2514 Clouds 21 1024 56 10000 1.5 0 16:47 29.10.2020
2515 Clouds 21 1024 56 10000 1 0 16:21 29.10.2020
2516 Clouds 21 1024 56 10000 1 0 15:57 29.10.2020
2517 Clouds 21 1024 56 10000 2.1 0 15:38 29.10.2020
2518 Clouds 21 1025 52 10000 1 0 15:19 29.10.2020
2519 Clouds 20 1025 56 10000 1.5 80 14:45 29.10.2020
2520 Clouds 20 1025 56 10000 1.5 80 14:23 29.10.2020
2521 Clouds 20 1025 63 10000 2.6 100 13:48 29.10.2020
2522 Clouds 19 1026 63 10000 3.1 60 13:28 29.10.2020
2523 Clouds 19 1026 63 10000 3.1 70 12:57 29.10.2020
2524 Clear 19 1026 72 10000 3.1 50 12:39 29.10.2020
2525 Clear 18 1026 72 10000 2.6 60 12:18 29.10.2020
2526 Clear 17 1026 82 10000 3.1 70 11:42 29.10.2020
2527 Clear 17 1026 82 10000 3.1 70 11:24 29.10.2020
2528 Clear 16 1026 87 10000 2.6 70 10:37 29.10.2020
2529 Clear 16 1026 87 10000 2.6 70 10:19 29.10.2020
2530 Clear 15 1026 93 10000 2.6 60 09:50 29.10.2020
2531 Clouds 15 1025 100 10000 2.1 60 09:28 29.10.2020
2532 Clouds 14 1025 100 10000 2.1 70 08:55 29.10.2020
2533 Clouds 14 1025 93 10000 1.5 70 08:31 29.10.2020
2534 Clouds 15 1025 100 10000 0.5 60 07:53 29.10.2020
2535 Clouds 15 1025 93 10000 2.43 49 07:35 29.10.2020
2536 Clouds 15 1025 93 10000 1 0 06:55 29.10.2020
2537 Clouds 16 1024 87 10000 1 0 04:51 29.10.2020
2538 Clouds 16 1025 82 10000 1.5 360 02:51 29.10.2020
2539 Clouds 16 1014 74 10000 1.68 14 00:51 29.10.2020
2540 Clouds 17 1024 75 10000 1.34 28 00:30 29.10.2020
2541 Clouds 17 1024 74 10000 0.89 326 23:45 28.10.2020
2542 Clouds 17 1024 73 10000 0.89 353 23:21 28.10.2020
2543 Clouds 17 1024 72 10000 1.5 20 22:44 28.10.2020
2544 Clouds 17 1024 72 10000 1.5 20 22:26 28.10.2020
2545 Clouds 17 1024 72 10000 1.5 20 22:26 28.10.2020
2546 Clouds 17 1024 72 10000 1.5 20 21:58 28.10.2020
2547 Clouds 17 1024 72 10000 1.5 60 21:39 28.10.2020
2548 Clouds 18 1024 68 10000 2.6 20 21:18 28.10.2020
2549 Clouds 18 1024 72 10000 2.6 360 20:41 28.10.2020
2550 Clouds 18 1024 77 10000 3.6 330 20:20 28.10.2020
2551 Clouds 18 1024 77 10000 3.6 330 19:49 28.10.2020
2552 Clouds 18 1024 68 10000 3.1 350 19:28 28.10.2020
2553 Clouds 19 1023 77 10000 1 0 18:47 28.10.2020
2554 Clouds 19 1023 77 10000 1 0 18:21 28.10.2020
2555 Clouds 19 1023 77 10000 1.5 60 17:44 28.10.2020
2556 Clouds 20 1023 77 10000 1.5 60 17:25 28.10.2020
2557 Clouds 19 1023 77 9990 2.1 60 16:57 28.10.2020
2558 Clouds 20 1023 68 9990 2.1 80 16:38 28.10.2020
2559 Clouds 20 1023 68 10000 2.6 110 16:20 28.10.2020
2560 Clouds 19 1023 68 10000 2.1 0 15:37 28.10.2020
2561 Rain 20 1022 71 10000 0.89 185 15:18 28.10.2020
2562 Clouds 19 1024 77 10000 2.6 0 14:42 28.10.2020
2563 Clouds 19 1024 77 10000 2.6 0 14:22 28.10.2020
2564 Rain 18 1023 89 10000 1.34 82 12:42 28.10.2020
2565 Rain 18 1023 93 10000 0.45 109 12:22 28.10.2020
2566 Rain 18 1023 94 10000 0.89 106 11:56 28.10.2020
2567 Rain 18 1023 95 10000 1.34 108 11:36 28.10.2020
2568 Rain 17 1023 95 10000 0.89 104 11:18 28.10.2020
2569 Drizzle 17 1022 100 2000 1.5 270 10:44 28.10.2020
2570 Drizzle 17 1022 100 2000 1.5 270 10:26 28.10.2020
2571 Drizzle 17 1022 93 2500 3.1 220 09:43 28.10.2020
2572 Drizzle 17 1022 93 2500 3.1 220 09:23 28.10.2020
2573 Drizzle 16 1021 100 2500 4.1 210 08:50 28.10.2020
2574 Drizzle 16 1021 100 3000 4.1 210 08:29 28.10.2020
2575 Drizzle 17 1021 100 7000 5.1 220 07:52 28.10.2020
2576 Clouds 17 1021 100 10000 5.1 210 07:31 28.10.2020
2577 Rain 16 1020 100 8000 5.1 200 06:54 28.10.2020
2578 Drizzle 16 1020 100 9000 4.6 200 06:36 28.10.2020
2579 Clouds 16 1020 100 10000 4.6 200 05:22 28.10.2020
2580 Clouds 16 1020 93 10000 4.6 200 04:30 28.10.2020
2581 Clouds 16 1021 100 10000 3.6 210 02:26 28.10.2020
2582 Clouds 16 1021 93 10000 3.6 220 01:53 28.10.2020
2583 Clouds 16 1021 100 10000 4.1 210 00:31 28.10.2020
2584 Clouds 16 1022 100 10000 4.1 200 23:47 27.10.2020
2585 Clouds 16 1022 100 10000 4.1 200 23:21 27.10.2020
2586 Clouds 16 1021 100 10000 3.1 220 22:44 27.10.2020
2587 Clouds 16 1021 100 10000 3.1 210 22:19 27.10.2020
2588 Clouds 16 1021 100 10000 3.1 210 21:57 27.10.2020
2589 Clouds 16 1021 100 10000 3.1 210 21:37 27.10.2020
2590 Clouds 16 1021 100 10000 3.1 210 21:19 27.10.2020
2591 Clouds 16 1021 100 10000 3.1 210 20:50 27.10.2020
2592 Clouds 16 1021 93 10000 4.1 200 20:24 27.10.2020
2593 Clouds 16 1021 87 10000 3.6 220 19:57 27.10.2020
2594 Clouds 16 1021 87 10000 4.1 220 19:37 27.10.2020
2595 Clouds 16 1021 87 10000 4.1 220 19:18 27.10.2020
2596 Clouds 17 1021 77 10000 4.6 220 18:44 27.10.2020
2597 Clouds 17 1021 77 10000 4.6 220 18:24 27.10.2020
2598 Clouds 17 1021 77 10000 5.7 220 17:59 27.10.2020
2599 Clouds 17 1021 77 10000 5.1 220 17:40 27.10.2020
2600 Clouds 17 1021 77 10000 5.1 220 17:18 27.10.2020
2601 Clouds 18 1021 77 10000 5.7 220 16:42 27.10.2020
2602 Clouds 18 1021 77 10000 5.7 220 16:23 27.10.2020
2603 Clouds 18 1021 68 10000 5.1 220 15:42 27.10.2020
2604 Clouds 18 1021 68 10000 5.1 220 15:24 27.10.2020
2605 Clouds 18 1021 72 10000 5.7 210 14:50 27.10.2020
2606 Clouds 18 1022 68 10000 6.2 220 14:30 27.10.2020
2607 Clouds 18 1022 68 10000 5.7 220 13:58 27.10.2020
2608 Clouds 18 1022 68 10000 5.7 220 13:29 27.10.2020
2609 Clouds 18 1023 72 10000 5.1 220 12:46 27.10.2020
2610 Clouds 18 1023 72 10000 5.1 220 12:27 27.10.2020
2611 Clouds 17 1022 77 10000 5.1 210 11:59 27.10.2020
2612 Clouds 17 1022 72 10000 4.6 200 11:41 27.10.2020
2613 Clouds 17 1022 72 10000 4.6 200 11:21 27.10.2020
2614 Clouds 16 1023 87 10000 3.6 200 10:44 27.10.2020
2615 Clouds 15 1022 93 10000 2.1 180 10:21 27.10.2020
2616 Clouds 14 1022 93 10000 1 0 09:38 27.10.2020
2617 Clouds 14 1022 93 10000 1 0 09:20 27.10.2020
2618 Clouds 13 1022 93 10000 1 250 08:33 27.10.2020
2619 Clouds 12 1022 93 10000 0.5 230 07:57 27.10.2020
2620 Clouds 12 1022 100 10000 1 250 07:38 27.10.2020
2621 Clouds 12 1022 93 10000 1.5 240 07:19 27.10.2020
2622 Clouds 12 1022 93 10000 2.6 250 06:20 27.10.2020
2623 Clouds 11 1022 87 10000 2.6 260 05:46 27.10.2020
2624 Clouds 11 1022 87 10000 2.6 260 05:27 27.10.2020
2625 Clouds 13 1023 87 10000 2.6 240 03:20 27.10.2020
2626 Clouds 13 1023 82 10000 2.1 270 01:24 27.10.2020
2627 Clear 13 1024 81 10000 1.5 270 00:44 27.10.2020
2628 Clear 12 1024 81 10000 1.5 260 23:39 26.10.2020
2629 Clear 13 1024 81 10000 1 280 23:18 26.10.2020
2630 Clear 13 1024 81 10000 1 280 22:44 26.10.2020
2631 Clouds 14 1023 71 10000 2.1 320 22:19 26.10.2020
2632 Clouds 14 1023 71 10000 2.1 320 21:41 26.10.2020
2633 Clouds 14 1024 71 10000 1 300 21:19 26.10.2020
2634 Clouds 15 1023 67 10000 1.5 320 20:49 26.10.2020
2635 Clouds 14 1023 67 10000 2.1 310 20:27 26.10.2020
2636 Clouds 14 1023 67 10000 2.1 310 20:27 26.10.2020
2637 Clouds 15 1023 67 10000 2.1 310 19:58 26.10.2020
2638 Clear 15 1023 62 10000 3.1 300 19:40 26.10.2020
2639 Clear 15 1023 62 10000 3.1 300 19:20 26.10.2020
2640 Clouds 16 1023 51 10000 4.1 310 18:42 26.10.2020
2641 Clouds 16 1023 51 10000 4.1 310 18:22 26.10.2020
2642 Clouds 17 1023 51 10000 3.6 310 17:44 26.10.2020
2643 Clouds 17 1023 51 10000 3.6 310 17:24 26.10.2020
2644 Clouds 17 1023 51 10000 4.1 300 16:57 26.10.2020
2645 Clouds 18 1023 45 10000 5.7 340 16:38 26.10.2020
2646 Clouds 18 1022 48 10000 3.6 290 16:19 26.10.2020
2647 Clouds 18 1023 51 10000 5.1 330 15:39 26.10.2020
2648 Clouds 18 1023 52 10000 3.1 320 15:19 26.10.2020
2649 Clouds 18 1023 51 10000 3.1 310 14:46 26.10.2020
2650 Clouds 18 1023 51 10000 3.1 310 14:26 26.10.2020
2651 Clouds 17 1024 59 10000 4.1 330 13:43 26.10.2020
2652 Clouds 17 1024 59 10000 4.1 330 13:23 26.10.2020
2653 Clouds 17 1024 59 10000 4.1 10 12:48 26.10.2020
2654 Clouds 17 1024 59 10000 3.6 340 12:27 26.10.2020
2655 Clouds 17 1024 67 10000 4.1 350 11:56 26.10.2020
2656 Clouds 16 1024 67 10000 4.1 320 11:37 26.10.2020
2657 Clouds 16 1023 72 10000 2.1 290 11:19 26.10.2020
2658 Clouds 15 1023 76 10000 1 0 10:43 26.10.2020
2659 Clouds 15 1023 76 10000 1 0 10:25 26.10.2020
2660 Clouds 14 1022 82 10000 1.5 280 09:48 26.10.2020
2661 Clouds 14 1022 82 10000 1.5 280 09:48 26.10.2020
2662 Clouds 12 1022 81 10000 1.5 250 09:25 26.10.2020
2663 Clouds 12 1021 81 10000 2.6 300 08:31 26.10.2020
2664 Clouds 13 1021 81 10000 1.5 300 07:58 26.10.2020
2665 Clouds 13 1021 81 10000 1.5 300 07:38 26.10.2020
2666 Clouds 13 1020 81 10000 1.5 300 06:58 26.10.2020
2667 Clouds 14 1020 82 10000 1.5 280 04:48 26.10.2020
2668 Clouds 14 1019 76 10000 3.1 330 04:18 26.10.2020
2669 Clouds 14 1020 76 10000 2.1 280 03:20 26.10.2020
2670 Clouds 14 1020 76 10000 2.1 280 03:20 26.10.2020
2671 Clouds 14 1020 76 10000 2.1 280 03:20 26.10.2020
2672 Clouds 15 1019 82 10000 2.6 290 01:34 26.10.2020
2673 Clouds 15 1019 82 10000 1.5 280 00:33 26.10.2020
2674 Clouds 15 1019 93 10000 1 0 23:45 25.10.2020
2675 Clouds 15 1019 93 10000 1 0 23:22 25.10.2020
2676 Clouds 15 1019 87 10000 2.1 0 22:44 25.10.2020
2677 Clouds 15 1019 87 10000 2.1 0 22:25 25.10.2020
2678 Clouds 15 1019 87 10000 2.6 320 21:49 25.10.2020
2679 Clouds 15 1019 87 8000 2.6 310 21:29 25.10.2020
2680 Clouds 15 1018 82 10000 2.6 310 20:58 25.10.2020
2681 Clouds 16 1018 82 10000 2.6 230 20:39 25.10.2020
2682 Clouds 16 1017 82 10000 5.1 320 20:19 25.10.2020
2683 Clouds 16 1017 82 10000 5.1 320 19:49 25.10.2020
2684 Clouds 16 1017 82 10000 3.1 300 19:25 25.10.2020
2685 Rain 16 1017 87 10000 4.6 310 18:57 25.10.2020
2686 Clouds 17 1017 82 10000 4.1 260 18:39 25.10.2020
2687 Clouds 17 1017 82 10000 4.1 270 18:20 25.10.2020
2688 Clouds 18 1016 82 10000 4.1 270 17:40 25.10.2020
2689 Clouds 18 1016 82 10000 4.1 270 17:21 25.10.2020
2690 Clouds 18 1016 88 10000 5.1 270 16:59 25.10.2020
2691 Clouds 17 1016 93 10000 4.6 240 16:39 25.10.2020
2692 Clouds 17 1016 93 10000 4.6 240 16:20 25.10.2020
2693 Mist 16 1017 93 1500 3.6 270 15:47 25.10.2020
2694 Clouds 17 1017 93 10000 3.6 250 15:26 25.10.2020
2695 Rain 17 1017 88 10000 4.6 240 14:52 25.10.2020
2696 Clouds 17 1017 88 9000 3.6 260 14:29 25.10.2020
2697 Mist 17 1018 93 5000 3.1 270 13:44 25.10.2020
2698 Mist 17 1018 93 5000 3.1 270 13:24 25.10.2020
2699 Clouds 17 1018 93 6000 4.6 260 12:49 25.10.2020
2700 Rain 17 1018 93 2000 7.2 250 12:27 25.10.2020
2701 Clouds 18 1018 88 10000 7.7 220 11:59 25.10.2020
2702 Clouds 18 1018 82 10000 6.7 220 11:41 25.10.2020
2703 Clouds 18 1018 88 10000 5.7 220 11:19 25.10.2020
2704 Clouds 18 1018 88 10000 7.2 220 10:46 25.10.2020
2705 Clouds 18 1018 88 10000 7.2 220 10:25 25.10.2020
2706 Clouds 18 1018 88 10000 7.2 220 09:51 25.10.2020
2707 Clouds 17 1018 93 10000 6.2 220 09:21 25.10.2020
2708 Clouds 17 1018 93 10000 6.2 220 08:59 25.10.2020
2709 Clouds 17 1018 93 10000 5.7 220 08:40 25.10.2020
2710 Drizzle 17 1018 93 4000 7.2 210 08:22 25.10.2020
2711 Drizzle 17 1018 93 10000 7.7 220 07:43 25.10.2020
2712 Clouds 17 1019 93 10000 7.2 220 06:53 25.10.2020
2713 Clouds 17 1018 88 10000 4.6 220 06:27 25.10.2020
2714 Clouds 17 1020 88 10000 6.2 220 05:20 25.10.2020
2715 Clouds 17 1020 88 10000 6.2 220 04:50 25.10.2020
2716 Clouds 17 1022 93 10000 6.2 220 02:30 25.10.2020
2717 Clouds 17 1023 82 10000 6.7 220 00:54 25.10.2020
2718 Clouds 17 1023 82 10000 6.7 210 00:28 25.10.2020
2719 Clouds 17 1023 82 10000 1.5 160 23:55 24.10.2020
2720 Clouds 17 1023 77 10000 4.6 210 23:35 24.10.2020
2721 Clouds 17 1024 82 10000 5.1 210 22:59 24.10.2020
2722 Clouds 17 1024 82 10000 4.6 210 22:41 24.10.2020
2723 Clouds 17 1024 82 10000 4.6 210 22:22 24.10.2020
2724 Clouds 17 1024 87 10000 4.6 210 21:55 24.10.2020
2725 Clouds 17 1024 87 10000 4.6 210 21:36 24.10.2020
2726 Clouds 17 1024 82 10000 4.1 220 21:18 24.10.2020
2727 Clouds 17 1024 77 10000 5.1 210 20:42 24.10.2020
2728 Clouds 17 1024 82 10000 5.7 220 20:20 24.10.2020
2729 Clouds 17 1024 72 10000 5.7 210 19:42 24.10.2020
2730 Clouds 17 1024 72 10000 5.7 210 19:23 24.10.2020
2731 Clouds 17 1024 72 10000 5.7 210 18:51 24.10.2020
2732 Clouds 18 1024 72 10000 7.7 200 18:31 24.10.2020
2733 Clouds 18 1025 72 10000 6.7 210 17:54 24.10.2020
2734 Clouds 18 1025 72 10000 6.2 210 17:27 24.10.2020
2735 Clouds 18 1025 68 10000 7.2 210 16:57 24.10.2020
2736 Clouds 18 1025 68 10000 5.7 210 16:39 24.10.2020
2737 Clouds 18 1026 68 10000 5.7 210 15:59 24.10.2020
2738 Clouds 18 1026 72 10000 6.2 210 15:38 24.10.2020
2739 Clouds 18 1026 72 10000 6.2 210 15:19 24.10.2020
2740 Clouds 18 1027 72 10000 6.2 220 14:40 24.10.2020
2741 Clouds 18 1027 63 10000 5.1 220 14:22 24.10.2020
2742 Clouds 18 1027 72 10000 4.6 210 13:44 24.10.2020
2743 Clouds 18 1027 72 10000 4.6 210 13:20 24.10.2020
2744 Clouds 17 1027 77 10000 3.1 210 12:41 24.10.2020
2745 Clouds 16 1027 77 10000 3.1 210 12:20 24.10.2020
2746 Clouds 16 1027 77 10000 2.6 180 11:51 24.10.2020
2747 Clouds 16 1027 77 10000 1.5 160 11:24 24.10.2020
2748 Clear 14 1026 82 10000 0.5 0 10:48 24.10.2020
2749 Clear 14 1026 82 10000 0.5 0 10:29 24.10.2020
2750 Clear 12 1026 93 10000 1 0 09:50 24.10.2020
2751 Clear 11 1026 93 10000 0.5 290 09:27 24.10.2020
2752 Clear 11 1026 93 10000 0.5 290 09:27 24.10.2020
2753 Clear 12 1026 93 10000 1.62 144 08:58 24.10.2020
2754 Clear 11 1026 87 10000 1 0 08:19 24.10.2020
2755 Clear 11 1026 87 10000 1 240 07:53 24.10.2020
2756 Clear 11 1026 87 10000 0.5 0 07:22 24.10.2020
2757 Clear 11 1026 87 10000 0.5 0 06:52 24.10.2020
2758 Clear 12 1027 81 10000 1 0 05:47 24.10.2020
2759 Clear 13 1027 76 10000 1.5 200 02:28 24.10.2020
2760 Clear 14 1027 71 10000 2.1 310 01:19 24.10.2020
2761 Clear 14 1027 76 10000 2.6 300 00:40 24.10.2020
2762 Clear 14 1027 76 10000 2.6 300 00:21 24.10.2020
2763 Clear 15 1027 76 10000 2.6 310 23:47 23.10.2020
2764 Clear 15 1026 82 10000 3.6 310 23:23 23.10.2020
2765 Clear 15 1026 82 10000 3.6 310 22:56 23.10.2020
2766 Clear 15 1026 77 10000 3.6 310 22:37 23.10.2020
2767 Clear 15 1026 82 10000 3.1 300 22:18 23.10.2020
2768 Clear 15 1025 82 10000 3.6 310 21:42 23.10.2020
2769 Clear 15 1025 82 10000 3.6 310 21:24 23.10.2020
2770 Clouds 16 1025 72 10000 2.6 300 20:40 23.10.2020
2771 Clouds 16 1025 72 10000 2.6 300 20:22 23.10.2020
2772 Clouds 17 1025 67 10000 3.1 300 19:50 23.10.2020
2773 Clouds 17 1025 63 10000 3.1 300 19:32 23.10.2020
2774 Clouds 18 1025 63 10000 3.6 300 18:55 23.10.2020
2775 Clouds 18 1024 59 10000 3.6 300 18:31 23.10.2020
2776 Clouds 19 1024 59 10000 3.6 300 17:50 23.10.2020
2777 Clouds 19 1024 59 10000 4.6 310 17:26 23.10.2020
2778 Clouds 19 1024 55 10000 3.1 320 16:56 23.10.2020
2779 Clouds 19 1024 55 10000 3.1 320 16:37 23.10.2020
2780 Clouds 19 1024 55 10000 2.6 300 16:19 23.10.2020
2781 Clouds 19 1024 55 10000 3.1 310 15:42 23.10.2020
2782 Clouds 19 1024 55 10000 3.1 310 15:23 23.10.2020
2783 Clouds 18 1024 59 10000 2.6 310 14:53 23.10.2020
2784 Clouds 19 1024 63 10000 3.6 320 14:34 23.10.2020
2785 Clouds 18 1024 63 10000 2.6 330 13:56 23.10.2020
2786 Clouds 18 1024 63 10000 2.6 310 13:37 23.10.2020
2787 Clouds 17 1024 72 10000 3.1 320 13:19 23.10.2020
2788 Clouds 17 1024 72 10000 2.6 340 12:43 23.10.2020
2789 Clouds 17 1024 72 10000 2.6 340 12:24 23.10.2020
2790 Clouds 17 1023 82 10000 2.1 310 11:46 23.10.2020
2791 Clouds 16 1023 82 10000 2.1 310 11:21 23.10.2020
2792 Clouds 15 1022 93 10000 2.1 310 10:43 23.10.2020
2793 Clouds 15 1022 93 10000 2.1 310 10:25 23.10.2020
2794 Clouds 13 1021 93 10000 1 0 09:45 23.10.2020
2795 Clouds 13 1021 93 10000 1 0 09:26 23.10.2020
2796 Clouds 13 1021 93 10000 1.18 31 08:52 23.10.2020
2797 Clouds 13 1020 87 10000 1 0 08:32 23.10.2020
2798 Clouds 14 1020 87 10000 2.6 300 07:33 23.10.2020
2799 Clouds 14 1019 93 10000 1.5 310 06:59 23.10.2020
2800 Clouds 14 1019 93 10000 1 0 06:20 23.10.2020
2801 Clouds 14 1019 87 10000 1.5 280 05:34 23.10.2020
2802 Clouds 15 1018 93 10000 1.5 270 02:32 23.10.2020
2803 Thunderstorm 15 1018 93 10000 2.1 260 01:24 23.10.2020
2804 Clouds 15 1017 87 10000 2.6 240 00:42 23.10.2020
2805 Clouds 16 1017 87 10000 2.6 220 23:45 22.10.2020
2806 Clouds 16 1017 87 10000 2.6 220 23:24 22.10.2020
2807 Clouds 16 1016 87 10000 1.5 270 22:48 22.10.2020
2808 Clouds 16 1016 87 10000 1.5 270 22:27 22.10.2020
2809 Clouds 16 1016 82 10000 1.5 260 21:59 22.10.2020
2810 Clouds 16 1016 82 10000 2.1 230 21:41 22.10.2020
2811 Rain 16 1016 82 10000 2.1 230 21:21 22.10.2020
2812 Clouds 17 1014 72 10000 1.5 270 20:45 22.10.2020
2813 Clouds 17 1014 72 10000 1.5 270 20:26 22.10.2020
2814 Clouds 17 1014 77 10000 1.5 270 19:58 22.10.2020
2815 Clouds 17 1014 68 10000 4.1 240 19:39 22.10.2020
2816 Clouds 18 1014 63 10000 5.1 220 19:18 22.10.2020
2817 Clouds 18 1013 68 10000 5.1 220 18:42 22.10.2020
2818 Clouds 19 1012 68 10000 5.1 240 18:19 22.10.2020
2819 Clouds 19 1012 63 10000 6.7 210 17:45 22.10.2020
2820 Clouds 19 1012 63 10000 6.7 210 17:22 22.10.2020
2821 Clouds 19 1012 63 10000 6.7 210 16:46 22.10.2020
2822 Clouds 19 1012 63 10000 6.7 210 16:25 22.10.2020
2823 Clouds 18 1012 59 10000 5.7 210 15:56 22.10.2020
2824 Clouds 19 1012 59 10000 5.7 210 15:38 22.10.2020
2825 Clouds 19 1012 59 10000 5.7 210 15:19 22.10.2020
2826 Clouds 19 1013 72 10000 2.1 0 14:42 22.10.2020
2827 Clouds 19 1013 72 10000 2.1 0 14:23 22.10.2020
2828 Fog 18 1013 93 10000 2.6 70 13:45 22.10.2020
2829 Fog 18 1013 93 10000 2.6 70 13:23 22.10.2020
2830 Fog 18 1013 93 6000 1.5 0 12:47 22.10.2020
2831 Fog 18 1013 93 6000 1.5 0 12:23 22.10.2020
2832 Fog 16 1013 100 6000 1.5 200 11:48 22.10.2020
2833 Fog 16 1012 100 1200 0.5 0 11:20 22.10.2020
2834 Fog 14 1012 100 100 0.95 191 10:49 22.10.2020
2835 Fog 14 1012 100 100 0.97 165 10:27 22.10.2020
2836 Fog 13 1011 100 300 0.5 0 09:46 22.10.2020
2837 Fog 13 1011 100 300 0.5 0 09:26 22.10.2020
2838 Fog 13 1011 100 700 0.5 0 08:49 22.10.2020
2839 Fog 13 1010 100 1400 2.1 330 08:27 22.10.2020
2840 Mist 13 1010 100 150 1 300 07:51 22.10.2020
2841 Fog 13 1010 100 600 2.03 161 07:32 22.10.2020
2842 Fog 14 1010 100 6000 0.5 0 06:58 22.10.2020
2843 Clouds 13 1010 100 8000 2.37 188 06:26 22.10.2020
2844 Rain 14 1010 100 10000 0.5 0 05:40 22.10.2020
2845 Clouds 15 1010 100 10000 3.15 181 03:46 22.10.2020
2846 Rain 15 1010 93 10000 1 0 01:43 22.10.2020
2847 Clouds 16 1010 93 10000 2.1 160 00:26 22.10.2020
2848 Clouds 16 1010 93 10000 2.1 190 23:50 21.10.2020
2849 Clouds 16 1009 87 10000 2.6 160 23:31 21.10.2020
2850 Clouds 16 1009 87 10000 3.1 210 22:41 21.10.2020
2851 Clouds 16 1009 87 10000 2.1 200 22:19 21.10.2020
2852 Clouds 16 1009 87 10000 2.1 200 21:56 21.10.2020
2853 Clouds 16 1009 87 10000 3.1 210 21:37 21.10.2020
2854 Clouds 16 1009 87 10000 2.6 220 21:18 21.10.2020
2855 Clouds 16 1009 87 10000 2.6 220 20:47 21.10.2020
2856 Clouds 17 1008 82 10000 3.6 210 20:19 21.10.2020
2857 Clouds 18 1008 77 10000 4.6 210 19:45 21.10.2020
2858 Clouds 18 1008 77 10000 4.6 210 19:26 21.10.2020
2859 Clouds 18 1008 77 10000 4.6 210 19:26 21.10.2020
2860 Clouds 18 1008 72 10000 5.1 210 18:54 21.10.2020
2861 Clouds 19 1008 72 10000 5.1 220 18:33 21.10.2020
2862 Clouds 19 1008 77 10000 6.2 220 17:57 21.10.2020
2863 Clouds 19 1008 72 10000 6.2 220 17:39 21.10.2020
2864 Clouds 19 1008 82 10000 4.1 220 17:19 21.10.2020
2865 Clouds 18 1008 82 10000 4.1 210 16:40 21.10.2020
2866 Clouds 18 1008 88 10000 5.7 220 16:21 21.10.2020
2867 Clouds 17 1008 87 7000 7.2 230 15:49 21.10.2020
2868 Clouds 18 1008 72 10000 7.7 210 15:29 21.10.2020
2869 Clouds 19 1008 77 10000 7.7 200 14:58 21.10.2020
2870 Clouds 19 1008 77 10000 7.7 200 14:40 21.10.2020
2871 Clouds 19 1008 77 10000 7.7 210 14:22 21.10.2020
2872 Clouds 19 1008 82 10000 5.7 210 13:42 21.10.2020
2873 Clouds 18 1008 88 10000 5.7 210 13:23 21.10.2020
2874 Clouds 17 1008 88 10000 5.7 210 12:43 21.10.2020
2875 Clouds 17 1008 88 10000 5.1 210 12:23 21.10.2020
2876 Clouds 17 1008 88 3500 6.7 200 11:56 21.10.2020
2877 Rain 16 1008 88 3500 6.7 200 11:37 21.10.2020
2878 Clouds 16 1007 93 10000 4.6 190 11:18 21.10.2020
2879 Clouds 16 1007 93 10000 3.1 200 10:40 21.10.2020
2880 Clouds 16 1006 93 10000 3.6 210 10:21 21.10.2020
2881 Rain 15 1006 100 10000 3.86 206 09:49 21.10.2020
2882 Clouds 15 1005 93 10000 1.5 170 09:28 21.10.2020
2883 Clouds 15 1005 100 10000 3.55 225 08:42 21.10.2020
2884 Rain 16 1004 87 10000 3.6 180 08:24 21.10.2020
2885 Clouds 15 1005 100 10000 1 240 07:56 21.10.2020
2886 Clouds 16 1004 93 10000 2.1 220 07:24 21.10.2020
2887 Clouds 16 1004 93 10000 2.1 220 06:47 21.10.2020
2888 Clouds 15 1004 93 10000 2.6 210 06:25 21.10.2020
2889 Clouds 16 1003 93 10000 5.7 240 03:48 21.10.2020
2890 Clouds 16 1001 100 3000 7.7 200 00:49 21.10.2020
2891 Clouds 16 1000 93 10000 3.6 220 23:37 20.10.2020
2892 Clouds 16 999 87 10000 6.2 230 22:49 20.10.2020
2893 Rain 16 998 100 10000 7.2 200 22:25 20.10.2020
2894 Rain 16 998 100 10000 7.2 200 21:48 20.10.2020
2895 Clouds 17 998 93 10000 7.2 220 21:20 20.10.2020
2896 Rain 17 998 100 10000 8.2 230 20:44 20.10.2020
2897 Rain 17 998 100 10000 8.2 230 20:25 20.10.2020
2898 Clouds 17 997 100 10000 5.7 220 19:57 20.10.2020
2899 Clouds 17 997 100 10000 5.7 220 19:39 20.10.2020
2900 Rain 17 997 100 10000 5.7 220 19:21 20.10.2020
2901 Rain 17 997 100 10000 5.7 230 18:46 20.10.2020
2902 Rain 17 997 100 9000 4.6 240 18:26 20.10.2020
2903 Rain 17 997 100 7000 7.2 230 17:43 20.10.2020
2904 Rain 17 997 100 7000 8.7 220 17:24 20.10.2020
2905 Rain 18 996 100 10000 8.2 210 16:48 20.10.2020
2906 Rain 18 996 100 5000 11.8 200 16:27 20.10.2020
2907 Rain 18 996 100 5000 12.3 200 15:51 20.10.2020
2908 Rain 18 997 100 1500 3.1 120 15:33 20.10.2020
2909 Mist 17 998 100 2500 4.1 110 14:59 20.10.2020
2910 Rain 17 998 100 2500 4.1 110 14:39 20.10.2020
2911 Mist 17 999 100 4000 5.1 100 14:21 20.10.2020
2912 Rain 16 1000 100 8000 4.6 110 13:44 20.10.2020
2913 Rain 16 1000 100 8000 4.6 110 13:23 20.10.2020
2914 Clouds 16 1002 100 6000 6.2 120 12:56 20.10.2020
2915 Clouds 16 1002 100 6000 6.2 120 12:38 20.10.2020
2916 Mist 16 1003 100 3000 3.1 120 12:19 20.10.2020
2917 Rain 17 1004 100 3000 4.1 130 11:37 20.10.2020
2918 Rain 17 1004 100 4000 3.6 130 11:18 20.10.2020
2919 Rain 17 1006 100 6000 3.1 150 10:29 20.10.2020
2920 Rain 17 1006 100 6000 3.1 150 09:51 20.10.2020
2921 Rain 17 1006 100 8000 3.1 160 09:21 20.10.2020
2922 Rain 17 1006 100 10000 3.1 170 08:58 20.10.2020
2923 Rain 17 1006 100 10000 3.1 170 08:36 20.10.2020
2924 Rain 17 1007 100 10000 3.1 170 07:52 20.10.2020
2925 Rain 17 1007 100 10000 3.1 170 07:26 20.10.2020
2926 Rain 17 1008 100 10000 4.1 220 06:30 20.10.2020
2927 Rain 18 1008 100 10000 4.1 220 05:43 20.10.2020
2928 Rain 17 1008 100 8000 3.1 220 03:56 20.10.2020
2929 Clouds 17 1008 100 6000 2.6 230 02:19 20.10.2020
2930 Clouds 17 1009 100 10000 2.6 240 00:59 20.10.2020
2931 Clouds 17 1009 100 10000 2.6 240 00:41 20.10.2020
2932 Clouds 17 1008 100 10000 3.1 250 00:20 20.10.2020
2933 Clouds 17 1009 100 10000 2.1 230 23:47 19.10.2020
2934 Clouds 17 1009 100 10000 2.1 230 23:23 19.10.2020
2935 Mist 18 1009 100 5000 3.6 200 22:44 19.10.2020
2936 Clouds 18 1009 100 6000 3.6 220 22:22 19.10.2020
2937 Clouds 18 1009 100 6000 3.6 220 21:45 19.10.2020
2938 Rain 18 1009 100 8000 5.7 210 21:22 19.10.2020
2939 Rain 18 1008 100 3000 11.8 190 20:48 19.10.2020
2940 Drizzle 18 1008 100 8000 11.3 180 20:29 19.10.2020
2941 Rain 18 1008 100 8000 11.3 180 19:51 19.10.2020
2942 Clouds 18 1008 100 6000 10.3 170 19:24 19.10.2020
2943 Clouds 18 1008 100 6000 10.3 170 19:24 19.10.2020
2944 Rain 18 1008 100 4500 9.3 170 18:55 19.10.2020
2945 Rain 17 1008 100 7000 9.8 170 18:37 19.10.2020
2946 Rain 18 1008 100 7000 9.8 170 18:18 19.10.2020
2947 Rain 18 1009 100 10000 9.8 170 17:44 19.10.2020
2948 Rain 18 1009 100 6000 9.8 170 17:23 19.10.2020
2949 Rain 18 1009 100 2500 10.8 170 16:43 19.10.2020
2950 Rain 18 1010 100 3000 8.7 170 16:25 19.10.2020
2951 Rain 18 1009 94 10000 4.92 232 15:43 19.10.2020
2952 Rain 18 1010 93 9910 5.81 185 15:24 19.10.2020
2953 Rain 18 1010 93 9910 5.81 174 14:51 19.10.2020
2954 Rain 18 1010 91 10000 5.36 185 14:26 19.10.2020
2955 Rain 19 1011 86 10000 5.81 185 13:52 19.10.2020
2956 Rain 18 1011 83 10000 5.81 171 13:33 19.10.2020
2957 Rain 18 1011 83 10000 5.81 171 13:33 19.10.2020
2958 Rain 18 1011 81 10000 5.81 172 12:56 19.10.2020
2959 Rain 18 1011 80 10000 6.26 178 12:38 19.10.2020
2960 Clouds 18 1012 80 10000 4.47 181 12:19 19.10.2020
2961 Clouds 18 1012 100 10000 3.6 150 11:39 19.10.2020
2962 Clouds 17 1012 100 10000 3.6 150 11:18 19.10.2020
2963 Clouds 17 1012 100 10000 3.6 150 10:40 19.10.2020
2964 Clouds 17 1011 100 10000 3.6 150 10:20 19.10.2020
2965 Clouds 16 1011 93 10000 3.6 130 09:48 19.10.2020
2966 Clouds 16 1011 100 10000 2.6 110 09:19 19.10.2020
2967 Clouds 16 1012 93 10000 3.6 160 08:48 19.10.2020
2968 Clouds 16 1012 93 10000 3.6 160 08:23 19.10.2020
2969 Clouds 16 1012 100 10000 2.1 120 07:44 19.10.2020
2970 Clouds 16 1012 100 10000 2.1 120 07:19 19.10.2020
2971 Clouds 16 1013 93 10000 3.6 160 06:19 19.10.2020
2972 Clouds 16 1013 87 10000 1.5 150 04:29 19.10.2020
2973 Clouds 16 1014 82 10000 2.1 120 03:42 19.10.2020
2974 Clouds 17 1015 77 10000 3.6 170 00:59 19.10.2020
2975 Clouds 17 1015 82 10000 3.1 190 00:25 19.10.2020
2976 Clouds 17 1015 77 10000 1 210 23:48 18.10.2020
2977 Clouds 17 1015 77 10000 2.1 220 23:25 18.10.2020
2978 Clouds 17 1015 77 10000 2.1 210 22:53 18.10.2020
2979 Clouds 17 1015 72 10000 3.1 230 22:23 18.10.2020
2980 Clouds 17 1015 72 10000 3.1 230 21:56 18.10.2020
2981 Clouds 17 1015 68 10000 4.6 220 21:37 18.10.2020
2982 Clouds 18 1015 68 10000 4.6 230 21:18 18.10.2020
2983 Clouds 18 1015 55 10000 5.1 230 20:40 18.10.2020
2984 Clouds 18 1015 55 10000 5.1 230 20:21 18.10.2020
2985 Clouds 19 1014 59 10000 4.6 260 19:47 18.10.2020
2986 Clear 19 1014 59 10000 4.6 260 19:26 18.10.2020
2987 Clear 21 1015 36 10000 2.1 220 18:50 18.10.2020
2988 Clear 22 1015 36 10000 2.1 220 18:29 18.10.2020
2989 Clear 22 1015 35 10000 4.1 160 17:45 18.10.2020
2990 Clear 22 1015 35 10000 4.1 160 17:25 18.10.2020
2991 Clear 22 1015 35 10000 4.6 160 16:58 18.10.2020
2992 Clear 22 1016 38 10000 4.1 160 16:39 18.10.2020
2993 Clouds 22 1016 38 10000 4.1 160 16:21 18.10.2020
2994 Clouds 21 1017 56 10000 2.6 120 15:42 18.10.2020
2995 Clouds 21 1017 64 10000 2.6 100 15:19 18.10.2020
2996 Clouds 20 1017 64 10000 2.6 100 14:56 18.10.2020
2997 Clouds 19 1018 72 10000 2.6 90 14:30 18.10.2020
2998 Clouds 19 1018 82 10000 3.1 90 13:57 18.10.2020
2999 Clouds 18 1018 93 10000 2.6 70 13:38 18.10.2020
3000 Clouds 18 1018 93 10000 2.6 70 13:20 18.10.2020
3001 Fog 17 1019 100 9000 3.1 60 12:42 18.10.2020
3002 Fog 16 1019 100 9000 3.1 60 12:21 18.10.2020
3003 Fog 15 1019 100 100 2.6 40 11:42 18.10.2020
3004 Fog 14 1019 100 100 2.6 40 11:23 18.10.2020
3005 Fog 14 1018 100 100 3.1 70 10:44 18.10.2020
3006 Fog 13 1018 100 150 2.6 50 10:21 18.10.2020
3007 Fog 13 1018 100 150 2.6 50 09:57 18.10.2020
3008 Fog 13 1017 100 50 3.1 0 09:38 18.10.2020
3009 Fog 13 1017 100 50 3.1 0 09:19 18.10.2020
3010 Fog 14 1018 100 400 3.1 40 08:43 18.10.2020
3011 Fog 14 1018 100 400 3.1 40 08:22 18.10.2020
3012 Fog 14 1017 100 400 3.1 60 07:48 18.10.2020
3013 Mist 14 1017 100 4500 1 0 05:35 18.10.2020
3014 Clouds 15 1017 100 10000 1.46 90 03:33 18.10.2020
3015 Clouds 14 1018 100 10000 2.06 123 02:39 18.10.2020
3016 Clouds 15 1018 100 10000 1.5 210 01:25 18.10.2020
3017 Clouds 16 1018 93 10000 3.6 240 00:35 18.10.2020
3018 Clouds 16 1018 93 10000 3.6 250 23:58 17.10.2020
3019 Clouds 16 1018 93 10000 3.6 250 23:39 17.10.2020
3020 Clouds 16 1018 93 10000 3.6 250 23:20 17.10.2020
3021 Clouds 16 1017 87 10000 3.6 240 22:55 17.10.2020
3022 Clouds 16 1017 87 10000 4.6 250 22:22 17.10.2020
3023 Clouds 16 1017 87 10000 4.6 260 21:59 17.10.2020
3024 Clouds 16 1017 82 10000 4.1 260 21:40 17.10.2020
3025 Clouds 16 1017 82 10000 4.1 260 21:20 17.10.2020
3026 Clouds 17 1017 72 10000 4.6 240 20:44 17.10.2020
3027 Clouds 17 1017 72 10000 5.1 240 20:19 17.10.2020
3028 Clouds 17 1017 72 10000 6.2 240 19:43 17.10.2020
3029 Clouds 18 1017 68 10000 6.2 240 19:21 17.10.2020
3030 Clouds 18 1017 63 10000 5.1 230 18:45 17.10.2020
3031 Clouds 18 1017 63 10000 5.1 230 18:26 17.10.2020
3032 Clouds 19 1017 68 10000 5.7 230 17:50 17.10.2020
3033 Clouds 19 1017 63 10000 5.7 220 17:24 17.10.2020
3034 Clouds 19 1017 64 10000 4.6 220 16:58 17.10.2020
3035 Clouds 19 1017 64 10000 4.6 240 16:38 17.10.2020
3036 Clouds 19 1017 64 10000 4.6 240 16:18 17.10.2020
3037 Clouds 19 1017 60 10000 3.1 230 15:41 17.10.2020
3038 Clouds 19 1017 60 10000 3.1 230 15:21 17.10.2020
3039 Clouds 19 1017 64 10000 3.1 240 14:56 17.10.2020
3040 Clouds 19 1018 63 10000 2.6 80 14:37 17.10.2020
3041 Clouds 18 1018 59 10000 2.6 90 14:18 17.10.2020
3042 Clouds 18 1018 63 10000 3.1 80 13:42 17.10.2020
3043 Clouds 17 1018 72 10000 2.6 100 13:22 17.10.2020
3044 Clouds 17 1018 77 10000 2.6 100 12:41 17.10.2020
3045 Clouds 17 1018 77 10000 2.6 100 12:20 17.10.2020
3046 Clouds 16 1018 77 10000 1.5 110 11:58 17.10.2020
3047 Clouds 16 1018 87 10000 1.5 50 11:30 17.10.2020
3048 Clouds 14 1017 87 10000 0.5 0 10:47 17.10.2020
3049 Clouds 14 1017 87 10000 0.5 0 10:28 17.10.2020
3050 Clouds 14 1017 87 10000 0.5 0 10:28 17.10.2020
3051 Clouds 12 1017 87 10000 1.88 125 09:50 17.10.2020
3052 Clouds 12 1017 87 10000 1 270 09:31 17.10.2020
3053 Clouds 12 1017 93 10000 1 280 08:49 17.10.2020
3054 Clouds 12 1017 93 10000 0.67 116 08:23 17.10.2020
3055 Clouds 11 1017 87 10000 1 280 07:44 17.10.2020
3056 Clouds 11 1016 87 10000 1 270 06:51 17.10.2020
3057 Clouds 12 1017 87 10000 1 0 04:55 17.10.2020
3058 Clouds 14 1018 82 10000 1 0 02:30 17.10.2020
3059 Clouds 14 1018 76 10000 2.1 340 01:55 17.10.2020
3060 Clouds 14 1018 82 10000 4.6 320 00:38 17.10.2020
3061 Clear 15 1018 87 10000 4.6 310 23:45 16.10.2020
3062 Clear 15 1018 87 10000 6.2 310 23:21 16.10.2020
3063 Clear 15 1018 82 10000 5.1 310 22:44 16.10.2020
3064 Clear 15 1018 82 10000 5.1 310 22:24 16.10.2020
3065 Clear 15 1018 77 10000 5.7 310 21:50 16.10.2020
3066 Clouds 16 1018 77 10000 5.1 310 21:32 16.10.2020
3067 Clouds 16 1018 67 10000 5.1 310 20:58 16.10.2020
3068 Clouds 16 1018 67 10000 5.7 310 20:39 16.10.2020
3069 Clouds 17 1018 67 10000 5.7 310 20:19 16.10.2020
3070 Clouds 18 1017 55 10000 5.1 300 19:39 16.10.2020
3071 Clouds 18 1017 48 10000 4.6 310 19:21 16.10.2020
3072 Clouds 19 1017 45 10000 4.6 310 18:46 16.10.2020
3073 Clouds 19 1017 45 10000 4.6 310 18:27 16.10.2020
3074 Clouds 20 1017 43 10000 3.6 310 17:46 16.10.2020
3075 Clouds 20 1017 43 10000 3.6 310 17:27 16.10.2020
3076 Clouds 20 1017 43 10000 3.1 270 16:48 16.10.2020
3077 Clouds 20 1017 43 10000 2.1 0 16:30 16.10.2020
3078 Clouds 20 1018 49 10000 2.6 80 15:46 16.10.2020
3079 Clouds 20 1018 49 10000 2.6 80 15:24 16.10.2020
3080 Clouds 19 1019 52 10000 2.1 80 14:43 16.10.2020
3081 Clouds 18 1019 55 10000 2.6 110 14:20 16.10.2020
3082 Clouds 18 1019 55 10000 2.6 110 14:20 16.10.2020
3083 Clouds 18 1019 55 10000 2.6 110 13:57 16.10.2020
3084 Clouds 18 1019 55 10000 2.6 110 13:57 16.10.2020
3085 Clouds 18 1019 55 10000 2.6 70 13:38 16.10.2020
3086 Clouds 18 1019 55 10000 2.6 70 13:19 16.10.2020
3087 Clouds 17 1020 55 10000 3.1 50 12:45 16.10.2020
3088 Clouds 17 1020 55 10000 3.1 50 12:22 16.10.2020
3089 Clouds 16 1019 82 10000 1 0 11:43 16.10.2020
3090 Clear 16 1019 82 10000 1 0 11:24 16.10.2020
3091 Clear 15 1019 87 10000 1.5 90 10:52 16.10.2020
3092 Clouds 14 1019 93 10000 2.6 30 10:30 16.10.2020
3093 Clouds 14 1018 87 10000 1.5 10 09:59 16.10.2020
3094 Clouds 13 1018 93 10000 2.1 330 09:37 16.10.2020
3095 Clouds 13 1018 93 10000 2.1 330 09:37 16.10.2020
3096 Clear 13 1018 93 10000 2.1 340 09:19 16.10.2020
3097 Clear 13 1018 93 10000 2.6 350 08:38 16.10.2020
3098 Clear 13 1018 87 10000 3.1 340 07:55 16.10.2020
3099 Clear 13 1018 87 10000 3.6 350 07:32 16.10.2020
3100 Clear 13 1018 87 10000 4.6 330 06:44 16.10.2020
3101 Clear 13 1019 82 10000 4.6 330 04:38 16.10.2020
3102 Clear 14 1019 82 10000 5.1 330 03:49 16.10.2020
3103 Clouds 14 1020 82 10000 5.1 320 01:35 16.10.2020
3104 Clouds 14 1020 82 10000 5.1 320 00:33 16.10.2020
3105 Clear 14 1019 71 10000 6.2 330 23:42 15.10.2020
3106 Clear 14 1019 71 10000 6.2 330 23:20 15.10.2020
3107 Clear 14 1019 71 10000 6.2 330 22:52 15.10.2020
3108 Clear 14 1019 71 10000 6.2 330 22:31 15.10.2020
3109 Clear 15 1019 71 10000 7.2 340 21:58 15.10.2020
3110 Clear 15 1019 67 10000 6.2 340 21:39 15.10.2020
3111 Clear 15 1019 62 10000 5.7 350 21:20 15.10.2020
3112 Clouds 16 1019 59 10000 6.7 340 20:46 15.10.2020
3113 Clouds 16 1019 51 10000 7.2 340 20:22 15.10.2020
3114 Clouds 16 1019 51 10000 7.2 340 20:22 15.10.2020
3115 Clouds 16 1018 51 10000 8.2 350 19:46 15.10.2020
3116 Clouds 17 1018 51 10000 8.2 350 19:24 15.10.2020
3117 Clouds 17 1018 42 10000 8.7 350 18:58 15.10.2020
3118 Clouds 18 1018 42 10000 8.7 350 18:38 15.10.2020
3119 Clouds 18 1018 37 10000 7.2 340 18:19 15.10.2020
3120 Clouds 18 1018 32 10000 8.2 340 17:44 15.10.2020
3121 Clouds 19 1018 32 10000 8.2 340 17:23 15.10.2020
3122 Clouds 19 1019 37 10000 6.7 350 16:46 15.10.2020
3123 Clouds 19 1019 37 10000 6.7 350 16:25 15.10.2020
3124 Clouds 19 1019 39 10000 6.7 340 15:56 15.10.2020
3125 Clouds 19 1019 32 10000 6.7 360 15:37 15.10.2020
3126 Clouds 19 1019 37 10000 7.2 340 15:18 15.10.2020
3127 Clouds 19 1020 39 10000 6.2 350 14:38 15.10.2020
3128 Clouds 19 1020 39 10000 6.2 350 14:20 15.10.2020
3129 Clouds 18 1020 45 10000 6.2 360 13:41 15.10.2020
3130 Clouds 18 1020 45 10000 6.2 360 13:22 15.10.2020
3131 Clouds 17 1020 55 10000 6.7 360 12:49 15.10.2020
3132 Clouds 16 1020 55 10000 6.7 360 12:28 15.10.2020
3133 Clouds 16 1021 63 10000 5.7 340 11:49 15.10.2020
3134 Clouds 15 1020 72 10000 5.7 340 11:21 15.10.2020
3135 Clouds 15 1020 76 10000 5.1 330 10:51 15.10.2020
3136 Clouds 14 1020 82 10000 5.1 330 10:32 15.10.2020
3137 Clouds 13 1020 87 10000 4.6 340 09:41 15.10.2020
3138 Clouds 13 1020 87 10000 4.6 340 09:22 15.10.2020
3139 Clouds 13 1019 82 10000 4.1 340 08:59 15.10.2020
3140 Clouds 14 1019 82 10000 4.6 340 08:34 15.10.2020
3141 Clouds 14 1019 87 10000 6.2 340 07:56 15.10.2020
3142 Clouds 14 1019 87 10000 4.6 330 06:49 15.10.2020
3143 Clouds 14 1019 87 10000 6.2 320 05:32 15.10.2020
3144 Clouds 14 1020 87 10000 5.1 320 03:33 15.10.2020
3145 Clouds 14 1020 87 10000 4.6 320 01:41 15.10.2020
3146 Clouds 14 1020 87 10000 4.6 330 00:36 15.10.2020
3147 Clouds 15 1019 82 10000 5.7 330 00:18 15.10.2020
3148 Clouds 15 1019 82 10000 6.2 330 23:41 14.10.2020
3149 Clouds 15 1019 82 10000 6.2 330 23:20 14.10.2020
3150 Clouds 15 1019 76 10000 4.1 350 22:44 14.10.2020
3151 Clouds 15 1019 76 10000 4.1 350 22:26 14.10.2020
3152 Clouds 15 1019 71 10000 4.1 330 21:54 14.10.2020
3153 Clear 15 1019 71 10000 5.1 350 21:36 14.10.2020
3154 Clouds 15 1018 62 10000 6.2 340 21:18 14.10.2020
3155 Clouds 15 1018 62 10000 6.7 340 20:40 14.10.2020
3156 Clouds 16 1018 59 10000 5.1 340 20:19 14.10.2020
3157 Clouds 16 1018 55 10000 5.7 340 19:45 14.10.2020
3158 Clouds 17 1018 55 10000 5.7 340 19:23 14.10.2020
3159 Clouds 17 1018 48 10000 8.2 340 18:42 14.10.2020
3160 Clouds 18 1018 48 10000 8.2 340 18:24 14.10.2020
3161 Clouds 18 1018 48 10000 9.3 350 17:48 14.10.2020
3162 Clouds 19 1018 42 10000 10.3 350 17:21 14.10.2020
3163 Clouds 18 1018 42 10000 7.7 340 16:55 14.10.2020
3164 Clouds 19 1018 42 10000 8.2 340 16:36 14.10.2020
3165 Clouds 19 1018 45 10000 8.7 350 16:18 14.10.2020
3166 Clouds 19 1018 45 10000 7.7 340 15:44 14.10.2020
3167 Clouds 19 1018 45 10000 7.7 340 15:23 14.10.2020
3168 Clouds 19 1019 45 10000 7.7 340 14:44 14.10.2020
3169 Clouds 19 1019 45 10000 7.7 340 14:20 14.10.2020
3170 Clouds 18 1019 55 10000 7.2 350 13:43 14.10.2020
3171 Clouds 18 1019 59 10000 7.2 340 13:22 14.10.2020
3172 Clouds 18 1019 63 10000 6.2 360 12:41 14.10.2020
3173 Clouds 17 1019 63 10000 6.2 360 12:23 14.10.2020
3174 Clouds 16 1019 67 10000 6.7 340 11:59 14.10.2020
3175 Clouds 16 1019 72 10000 6.7 340 11:41 14.10.2020
3176 Clouds 16 1019 72 10000 5.7 350 11:21 14.10.2020
3177 Clouds 15 1018 76 10000 5.1 350 10:46 14.10.2020
3178 Clouds 15 1018 76 10000 5.1 350 10:25 14.10.2020
3179 Clouds 14 1018 82 10000 3.1 340 09:46 14.10.2020
3180 Clouds 14 1018 76 10000 3.1 360 08:57 14.10.2020
3181 Clear 14 1017 76 10000 4.1 350 08:38 14.10.2020
3182 Clouds 14 1017 76 10000 3.6 350 07:52 14.10.2020
3183 Clouds 15 1017 71 10000 4.1 340 07:22 14.10.2020
3184 Clouds 15 1017 71 10000 4.1 340 06:57 14.10.2020
3185 Clouds 15 1017 71 10000 5.7 330 06:37 14.10.2020
3186 Clouds 15 1017 76 10000 4.6 340 05:51 14.10.2020
3187 Clouds 16 1019 72 10000 3.1 340 02:28 14.10.2020
3188 Clouds 15 1018 67 10000 6.2 360 01:57 14.10.2020
3189 Clouds 16 1019 77 10000 7.7 340 00:37 14.10.2020
3190 Clouds 16 1019 72 10000 6.2 340 00:18 14.10.2020
3191 Clouds 16 1019 77 10000 6.7 340 23:24 13.10.2020
3192 Clouds 16 1019 77 10000 7.2 340 22:56 13.10.2020
3193 Clouds 16 1018 77 10000 6.7 340 22:37 13.10.2020
3194 Clouds 15 1018 77 10000 8.2 340 22:19 13.10.2020
3195 Clouds 16 1018 72 10000 7.2 340 21:38 13.10.2020
3196 Clouds 16 1018 67 10000 5.7 330 21:20 13.10.2020
3197 Clouds 16 1018 72 10000 7.2 340 21:20 13.10.2020
3198 Clouds 17 1018 72 10000 7.7 330 20:43 13.10.2020
3199 Clouds 17 1018 72 10000 7.7 330 20:25 13.10.2020
3200 Clouds 18 1018 68 10000 8.2 340 19:55 13.10.2020
3201 Clouds 18 1018 77 10000 8.2 340 19:37 13.10.2020
3202 Clouds 19 1018 77 10000 6.7 340 19:19 13.10.2020
3203 Clouds 19 1018 77 10000 6.7 340 18:48 13.10.2020
3204 Clouds 19 1018 82 10000 7.7 330 18:28 13.10.2020
3205 Clouds 20 1018 72 10000 7.2 340 17:59 13.10.2020
3206 Clouds 20 1018 68 10000 6.2 340 17:39 13.10.2020
3207 Clouds 21 1018 64 10000 7.2 350 17:19 13.10.2020
3208 Clouds 21 1019 64 10000 7.7 340 16:40 13.10.2020
3209 Clouds 21 1019 60 10000 7.7 340 16:19 13.10.2020
3210 Clouds 22 1019 56 10000 6.7 340 15:42 13.10.2020
3211 Clouds 22 1020 56 10000 5.7 340 15:22 13.10.2020
3212 Clouds 23 1020 56 10000 5.7 340 14:50 13.10.2020
3213 Clouds 22 1020 60 10000 6.2 340 14:27 13.10.2020
3214 Clouds 22 1020 56 10000 6.2 340 13:49 13.10.2020
3215 Clouds 22 1020 60 10000 5.1 340 13:23 13.10.2020
3216 Clouds 20 1021 68 10000 3.1 320 12:48 13.10.2020
3217 Clouds 20 1021 68 10000 3.1 320 12:28 13.10.2020
3218 Clouds 19 1021 72 10000 3.1 320 11:58 13.10.2020
3219 Clouds 18 1021 77 10000 4.1 350 11:39 13.10.2020
3220 Clouds 18 1021 82 10000 4.6 340 11:20 13.10.2020
3221 Clouds 17 1021 82 10000 4.6 340 10:54 13.10.2020
3222 Clouds 17 1020 87 10000 5.1 340 10:36 13.10.2020
3223 Clouds 16 1020 93 10000 5.1 330 10:18 13.10.2020
3224 Clouds 15 1020 93 10000 4.1 320 09:40 13.10.2020
3225 Clouds 15 1020 93 10000 4.1 320 09:20 13.10.2020
3226 Clouds 15 1020 100 10000 4.6 330 08:46 13.10.2020
3227 Clouds 15 1020 93 10000 3.1 320 08:27 13.10.2020
3228 Clouds 15 1020 93 10000 4.6 320 07:53 13.10.2020
3229 Clear 14 1020 93 10000 4.6 320 07:25 13.10.2020
3230 Clear 13 1020 93 10000 4.6 320 06:32 13.10.2020
3231 Clear 14 1021 82 10000 3.1 320 04:31 13.10.2020
3232 Clear 15 1021 82 10000 0.5 0 03:50 13.10.2020
3233 Clear 15 1022 63 10000 4.1 320 02:20 13.10.2020
3234 Clear 16 1023 55 10000 3.6 320 00:47 13.10.2020
3235 Clear 17 1023 48 10000 4.1 320 00:23 13.10.2020
3236 Clear 17 1023 48 10000 5.1 320 23:43 12.10.2020
3237 Clear 17 1023 48 10000 5.1 320 23:24 12.10.2020
3238 Clear 17 1023 48 10000 6.7 330 22:44 12.10.2020
3239 Clear 17 1023 48 10000 6.7 330 22:25 12.10.2020
3240 Clear 17 1023 51 10000 5.1 330 21:46 12.10.2020
3241 Clear 17 1023 51 10000 5.1 330 21:24 12.10.2020
3242 Clear 18 1022 45 10000 4.6 330 20:46 12.10.2020
3243 Clear 19 1022 42 10000 6.2 330 20:27 12.10.2020
3244 Clear 20 1022 37 10000 5.1 330 19:59 12.10.2020
3245 Clear 21 1022 33 10000 5.7 340 19:41 12.10.2020
3246 Clear 21 1022 33 10000 5.7 340 19:20 12.10.2020
3247 Clear 22 1022 31 10000 3.6 10 18:47 12.10.2020
3248 Clear 23 1022 23 10000 4.1 40 18:22 12.10.2020
3249 Clear 23 1022 23 10000 4.1 50 17:45 12.10.2020
3250 Clear 24 1022 23 10000 4.1 50 17:21 12.10.2020
3251 Clear 23 1023 25 10000 5.1 70 16:44 12.10.2020
3252 Clear 23 1023 25 10000 5.1 70 16:26 12.10.2020
3253 Clear 23 1023 26 10000 4.6 60 15:59 12.10.2020
3254 Clear 23 1024 26 10000 5.1 70 15:40 12.10.2020
3255 Clear 22 1024 30 10000 5.1 60 15:18 12.10.2020
3256 Clear 22 1024 30 10000 5.1 60 14:47 12.10.2020
3257 Clear 22 1025 32 10000 4.6 60 14:20 12.10.2020
3258 Clear 20 1025 37 10000 5.7 50 13:24 12.10.2020
3259 Clear 19 1025 39 10000 5.7 50 12:58 12.10.2020
3260 Clear 18 1025 42 10000 5.7 50 12:39 12.10.2020
3261 Clear 18 1025 42 10000 5.7 60 12:18 12.10.2020
3262 Clear 17 1025 44 10000 5.1 60 11:39 12.10.2020
3263 Clear 17 1025 44 10000 5.1 50 11:18 12.10.2020
3264 Clear 17 1025 47 10000 6.2 40 10:44 12.10.2020
3265 Clear 16 1025 47 10000 6.2 40 10:22 12.10.2020
3266 Clear 16 1024 44 10000 5.7 50 09:52 12.10.2020
3267 Clear 16 1024 44 10000 5.7 50 09:31 12.10.2020
3268 Clear 16 1024 41 10000 7.2 50 08:36 12.10.2020
3269 Clear 17 1024 41 10000 6.7 50 07:57 12.10.2020
3270 Clear 17 1024 39 10000 6.7 50 07:32 12.10.2020
3271 Clear 17 1023 36 10000 8.7 40 06:29 12.10.2020
3272 Clear 19 1023 34 10000 6.7 30 03:56 12.10.2020
3273 Clear 18 1023 55 10000 4.1 350 00:48 12.10.2020
3274 Clear 18 1023 55 10000 4.6 350 23:49 11.10.2020
3275 Clear 18 1023 55 10000 4.6 350 23:26 11.10.2020
3276 Clear 18 1023 55 10000 5.1 330 22:53 11.10.2020
3277 Clear 18 1023 59 10000 5.7 330 22:32 11.10.2020
3278 Clear 18 1022 55 10000 5.7 330 21:41 11.10.2020
3279 Clear 19 1022 55 10000 5.7 330 21:20 11.10.2020
3280 Clear 19 1022 52 10000 7.2 330 20:51 11.10.2020
3281 Clear 20 1022 49 10000 5.1 330 20:23 11.10.2020
3282 Clear 21 1021 46 10000 6.2 330 19:59 11.10.2020
3283 Clear 21 1021 43 10000 5.7 330 19:41 11.10.2020
3284 Clear 22 1021 43 10000 5.7 330 19:21 11.10.2020
3285 Clear 24 1021 24 10000 6.7 60 18:40 11.10.2020
3286 Clear 25 1021 26 10000 6.2 60 18:21 11.10.2020
3287 Clear 25 1021 26 10000 7.2 50 17:44 11.10.2020
3288 Clear 25 1021 26 10000 7.2 50 17:22 11.10.2020
3289 Clear 25 1021 26 10000 5.7 50 16:48 11.10.2020
3290 Clear 26 1022 29 10000 6.2 30 16:29 11.10.2020
3291 Clear 25 1022 29 10000 6.7 30 15:55 11.10.2020
3292 Clear 25 1022 31 10000 8.2 40 15:34 11.10.2020
3293 Clear 24 1023 31 10000 7.7 40 14:55 11.10.2020
3294 Clear 23 1023 33 10000 8.7 40 14:37 11.10.2020
3295 Clear 23 1023 35 10000 8.2 50 14:18 11.10.2020
3296 Clear 23 1023 37 10000 7.7 60 13:43 11.10.2020
3297 Clear 23 1023 37 10000 7.7 60 13:22 11.10.2020
3298 Clear 21 1023 40 10000 8.2 50 12:46 11.10.2020
3299 Clear 21 1023 40 10000 8.2 50 12:22 11.10.2020
3300 Clear 21 1023 40 10000 7.7 40 11:47 11.10.2020
3301 Clear 20 1023 40 10000 8.2 40 11:25 11.10.2020
3302 Clear 19 1023 42 10000 7.7 40 10:52 11.10.2020
3303 Clear 18 1022 42 10000 7.2 30 10:29 11.10.2020
3304 Clear 18 1022 48 10000 5.7 20 09:58 11.10.2020
3305 Clear 17 1022 63 10000 4.6 360 09:39 11.10.2020
3306 Clear 16 1022 63 10000 4.6 360 09:21 11.10.2020
3307 Clear 16 1022 67 10000 3.1 360 08:48 11.10.2020
3308 Clear 16 1022 72 10000 1 0 07:51 11.10.2020
3309 Clear 16 1021 72 10000 2.1 330 07:24 11.10.2020
3310 Clear 18 1021 63 10000 4.1 320 04:54 11.10.2020
3311 Clear 19 1021 68 10000 5.1 330 02:40 11.10.2020
3312 Clear 19 1021 68 10000 5.7 340 02:21 11.10.2020
3313 Clear 19 1022 68 10000 6.2 330 00:46 11.10.2020
3314 Clear 19 1022 68 10000 6.2 330 00:24 11.10.2020
3315 Clear 19 1021 68 10000 6.2 330 23:31 10.10.2020
3316 Clear 19 1021 68 10000 7.2 330 22:52 10.10.2020
3317 Clear 19 1021 68 10000 6.2 330 22:23 10.10.2020
3318 Clear 19 1021 68 10000 6.2 330 21:59 10.10.2020
3319 Clear 19 1021 68 10000 5.7 320 21:41 10.10.2020
3320 Clear 19 1021 68 10000 5.7 320 21:21 10.10.2020
3321 Clear 19 1021 64 10000 5.7 330 20:50 10.10.2020
3322 Clear 20 1021 68 10000 6.7 330 20:29 10.10.2020
3323 Clear 21 1020 53 10000 5.7 320 19:45 10.10.2020
3324 Clear 21 1020 53 10000 5.7 320 19:24 10.10.2020
3325 Clear 23 1020 44 10000 7.2 340 18:55 10.10.2020
3326 Clear 23 1020 47 10000 7.7 340 18:35 10.10.2020
3327 Clear 24 1020 53 10000 5.7 320 17:57 10.10.2020
3328 Clear 24 1020 53 10000 5.1 310 17:32 10.10.2020
3329 Clear 25 1021 47 10000 4.6 310 17:00 10.10.2020
3330 Clear 24 1021 47 10000 5.7 340 16:41 10.10.2020
3331 Clear 24 1021 47 10000 5.7 340 16:23 10.10.2020
3332 Clear 24 1021 50 10000 4.6 350 15:39 10.10.2020
3333 Clear 24 1021 50 10000 4.6 350 15:21 10.10.2020
3334 Clear 24 1022 50 10000 4.6 340 14:51 10.10.2020
3335 Clear 23 1022 53 10000 3.6 330 14:31 10.10.2020
3336 Clear 23 1022 53 10000 2.6 30 13:55 10.10.2020
3337 Clear 22 1023 60 10000 2.6 40 13:36 10.10.2020
3338 Clear 21 1023 64 10000 2.1 80 13:18 10.10.2020
3339 Clear 21 1023 64 10000 3.1 350 12:45 10.10.2020
3340 Clear 21 1023 64 10000 3.1 350 12:45 10.10.2020
3341 Clear 20 1023 64 10000 3.1 350 12:25 10.10.2020
3342 Clouds 19 1023 82 10000 4.1 340 11:42 10.10.2020
3343 Clouds 18 1023 82 10000 4.1 340 11:23 10.10.2020
3344 Clouds 18 1022 82 10000 5.1 340 10:46 10.10.2020
3345 Clouds 17 1022 88 10000 4.1 330 10:27 10.10.2020
3346 Clouds 17 1022 82 10000 3.6 340 09:52 10.10.2020
3347 Clouds 16 1022 87 10000 3.1 350 09:27 10.10.2020
3348 Clouds 17 1022 93 10000 5.7 330 08:57 10.10.2020
3349 Clouds 17 1022 87 10000 4.6 330 08:27 10.10.2020
3350 Clouds 16 1022 87 10000 6.2 330 07:50 10.10.2020
3351 Clouds 16 1022 87 10000 6.2 330 07:30 10.10.2020
3352 Clouds 16 1022 82 10000 4.1 340 03:44 10.10.2020
3353 Clouds 17 1022 87 10000 5.7 330 01:59 10.10.2020
3354 Clouds 17 1023 88 10000 8.7 330 00:28 10.10.2020
3355 Clouds 18 1022 82 10000 6.2 310 23:56 09.10.2020
3356 Clouds 18 1022 82 10000 6.2 330 23:38 09.10.2020
3357 Clouds 18 1022 82 10000 6.7 310 23:19 09.10.2020
3358 Clouds 18 1022 82 10000 5.1 320 22:29 09.10.2020
3359 Clouds 18 1022 82 10000 6.7 330 21:57 09.10.2020
3360 Clouds 19 1022 72 10000 6.7 330 21:38 09.10.2020
3361 Clouds 19 1022 72 10000 6.7 330 21:18 09.10.2020
3362 Clouds 19 1022 68 10000 5.1 330 20:47 09.10.2020
3363 Clouds 20 1022 68 10000 5.1 330 20:22 09.10.2020
3364 Clouds 21 1021 60 10000 6.7 340 19:42 09.10.2020
3365 Clouds 22 1021 60 10000 6.7 340 19:20 09.10.2020
3366 Clouds 22 1021 60 10000 6.7 330 18:58 09.10.2020
3367 Clouds 22 1022 56 10000 6.7 350 18:37 09.10.2020
3368 Clouds 23 1022 56 10000 6.7 340 18:18 09.10.2020
3369 Clouds 23 1022 53 10000 6.7 340 17:24 09.10.2020
3370 Clouds 24 1022 50 10000 6.7 340 17:00 09.10.2020
3371 Clouds 25 1022 44 10000 5.1 320 16:40 09.10.2020
3372 Clouds 24 1022 44 10000 6.2 340 16:22 09.10.2020
3373 Clouds 24 1022 47 10000 6.2 340 15:44 09.10.2020
3374 Clouds 24 1022 47 10000 6.2 340 15:24 09.10.2020
3375 Clouds 23 1023 49 10000 5.1 340 14:38 09.10.2020
3376 Clouds 22 1023 53 10000 5.7 340 13:52 09.10.2020
3377 Clouds 22 1023 53 10000 4.6 340 13:33 09.10.2020
3378 Clouds 21 1023 56 10000 5.1 340 12:57 09.10.2020
3379 Clouds 20 1023 60 10000 4.1 330 12:39 09.10.2020
3380 Clouds 19 1023 68 10000 4.1 350 12:19 09.10.2020
3381 Clouds 19 1023 72 10000 4.6 330 11:45 09.10.2020
3382 Clouds 18 1023 72 10000 4.6 330 11:23 09.10.2020
3383 Clouds 18 1023 72 10000 4.6 340 10:57 09.10.2020
3384 Clouds 17 1023 77 10000 3.6 360 10:32 09.10.2020
3385 Clouds 16 1022 82 10000 3.1 360 09:54 09.10.2020
3386 Clouds 16 1022 82 10000 5.1 350 09:22 09.10.2020
3387 Clouds 16 1022 82 10000 3.1 340 08:52 09.10.2020
3388 Clouds 16 1022 87 10000 3.6 340 08:27 09.10.2020
3389 Clouds 16 1022 82 10000 4.1 330 07:52 09.10.2020
3390 Clouds 16 1021 82 10000 3.1 340 07:21 09.10.2020
3391 Clouds 16 1021 87 10000 3.1 320 06:44 09.10.2020
3392 Clouds 16 1021 87 10000 3.1 320 06:23 09.10.2020
3393 Clouds 16 1022 82 10000 2.6 330 04:19 09.10.2020
3394 Clouds 17 1022 77 10000 4.1 330 01:21 09.10.2020
3395 Clouds 17 1022 77 10000 4.1 330 00:49 09.10.2020
3396 Clouds 17 1022 82 10000 5.1 310 00:25 09.10.2020
3397 Clouds 18 1022 82 10000 5.7 310 23:43 08.10.2020
3398 Clouds 18 1022 82 10000 5.7 310 23:22 08.10.2020
3399 Clouds 18 1022 82 10000 6.2 310 22:41 08.10.2020
3400 Clouds 18 1022 82 10000 6.2 310 22:22 08.10.2020
3401 Clouds 18 1021 77 10000 5.7 310 21:55 08.10.2020
3402 Clouds 19 1021 77 10000 4.6 310 21:30 08.10.2020
3403 Clear 19 1021 72 10000 5.1 320 20:58 08.10.2020
3404 Clear 20 1021 68 10000 4.6 310 20:39 08.10.2020
3405 Clouds 20 1021 68 10000 4.6 310 20:21 08.10.2020
3406 Clouds 21 1021 64 10000 5.7 330 19:49 08.10.2020
3407 Clouds 22 1020 64 10000 5.1 330 19:28 08.10.2020
3408 Clouds 23 1020 57 10000 4.6 330 18:49 08.10.2020
3409 Clouds 24 1020 57 10000 5.1 340 18:22 08.10.2020
3410 Clouds 24 1020 50 10000 4.1 320 17:57 08.10.2020
3411 Clouds 24 1020 47 10000 4.1 330 17:23 08.10.2020
3412 Clouds 24 1020 54 10000 3.1 310 16:57 08.10.2020
3413 Clouds 24 1020 54 10000 3.6 350 16:38 08.10.2020
3414 Clouds 24 1020 54 10000 3.6 350 16:20 08.10.2020
3415 Clouds 25 1021 54 10000 1.5 0 15:43 08.10.2020
3416 Clouds 24 1021 54 10000 1.5 0 15:20 08.10.2020
3417 Clouds 23 1021 60 10000 2.6 100 14:40 08.10.2020
3418 Clouds 23 1022 60 10000 1.5 140 14:18 08.10.2020
3419 Clouds 22 1022 68 10000 2.1 0 13:46 08.10.2020
3420 Clouds 22 1022 68 10000 2.1 0 13:23 08.10.2020
3421 Clouds 22 1022 68 10000 2.6 100 12:58 08.10.2020
3422 Clouds 21 1022 73 10000 2.1 70 12:39 08.10.2020
3423 Clouds 21 1022 68 10000 2.1 40 12:19 08.10.2020
3424 Clouds 19 1021 77 10000 2.1 60 11:44 08.10.2020
3425 Clouds 20 1021 77 10000 2.1 60 11:25 08.10.2020
3426 Clouds 18 1021 88 10000 1.5 350 10:47 08.10.2020
3427 Clouds 18 1021 88 10000 1.5 350 10:28 08.10.2020
3428 Clouds 16 1021 93 10000 2.08 16 09:50 08.10.2020
3429 Clouds 17 1020 87 10000 1.5 30 09:32 08.10.2020
3430 Clouds 17 1021 87 10000 1.5 340 08:47 08.10.2020
3431 Clouds 17 1020 87 10000 2.6 330 08:24 08.10.2020
3432 Clouds 17 1020 93 10000 2.1 340 07:55 08.10.2020
3433 Clouds 17 1020 88 10000 3.1 330 07:35 08.10.2020
3434 Clouds 17 1020 88 10000 3.1 330 06:57 08.10.2020
3435 Clouds 17 1021 88 10000 4.6 330 05:22 08.10.2020
3436 Clouds 18 1021 88 10000 3.6 320 04:30 08.10.2020
3437 Clouds 19 1021 82 10000 2.1 340 02:29 08.10.2020
3438 Clouds 19 1021 77 10000 4.1 320 00:32 08.10.2020
3439 Clouds 19 1021 82 10000 4.6 310 23:39 07.10.2020
3440 Clouds 20 1021 77 10000 4.6 320 23:20 07.10.2020
3441 Clouds 20 1021 77 10000 5.1 320 22:45 07.10.2020
3442 Clouds 20 1021 77 10000 5.1 320 22:27 07.10.2020
3443 Clouds 21 1021 77 10000 5.1 310 21:52 07.10.2020
3444 Clouds 21 1021 73 10000 4.6 310 21:29 07.10.2020
3445 Clouds 22 1021 68 10000 3.6 320 20:57 07.10.2020
3446 Clouds 22 1021 64 10000 4.1 330 20:39 07.10.2020
3447 Clouds 24 1021 57 10000 3.6 330 20:20 07.10.2020
3448 Clouds 26 1020 39 10000 2.1 60 19:46 07.10.2020
3449 Clouds 26 1020 39 10000 2.6 60 19:20 07.10.2020
3450 Clouds 26 1020 39 10000 3.1 100 18:44 07.10.2020
3451 Clear 26 1020 39 10000 3.1 100 18:21 07.10.2020
3452 Clear 26 1020 39 10000 3.6 100 17:59 07.10.2020
3453 Clear 26 1021 42 10000 3.6 80 17:40 07.10.2020
3454 Clear 27 1021 42 10000 3.6 80 17:22 07.10.2020
3455 Clear 26 1021 44 10000 3.6 70 16:46 07.10.2020
3456 Clear 25 1022 47 10000 4.6 80 16:20 07.10.2020
3457 Clear 24 1023 50 10000 5.1 60 15:41 07.10.2020
3458 Clear 23 1023 56 10000 5.1 40 15:20 07.10.2020
3459 Clear 23 1023 56 10000 5.1 40 14:50 07.10.2020
3460 Clear 23 1024 60 10000 4.1 60 14:31 07.10.2020
3461 Clear 22 1024 60 10000 5.1 50 13:55 07.10.2020
3462 Clouds 22 1024 60 10000 4.6 50 13:37 07.10.2020
3463 Clouds 21 1024 64 10000 3.6 80 13:18 07.10.2020
3464 Clouds 21 1024 64 10000 3.6 80 13:18 07.10.2020
3465 Clouds 21 1024 64 10000 5.1 50 12:45 07.10.2020
3466 Clouds 20 1024 64 10000 5.1 50 12:22 07.10.2020
3467 Clouds 19 1024 77 10000 3.6 360 11:45 07.10.2020
3468 Clear 18 1024 77 10000 3.6 360 11:25 07.10.2020
3469 Clear 17 1024 87 10000 3.1 340 10:40 07.10.2020
3470 Clear 16 1024 87 10000 3.1 340 09:59 07.10.2020
3471 Clear 16 1023 87 10000 4.1 350 09:33 07.10.2020
3472 Clear 16 1023 87 10000 4.1 340 08:53 07.10.2020
3473 Clear 16 1023 87 10000 4.6 350 08:30 07.10.2020
3474 Clear 16 1023 87 10000 4.6 350 08:30 07.10.2020
3475 Clear 16 1023 87 10000 4.1 340 07:42 07.10.2020
3476 Clouds 16 1023 87 10000 4.1 340 06:51 07.10.2020
3477 Clouds 17 1023 87 10000 5.1 340 05:39 07.10.2020
3478 Clouds 17 1024 87 10000 5.7 330 05:18 07.10.2020
3479 Clouds 17 1024 88 10000 4.6 330 02:25 07.10.2020
3480 Clouds 18 1025 93 10000 3.1 330 00:56 07.10.2020
3481 Clouds 18 1024 88 10000 3.6 340 23:54 06.10.2020
3482 Clouds 18 1024 93 10000 3.6 320 23:24 06.10.2020
3483 Clouds 18 1024 93 10000 3.6 320 23:24 06.10.2020
3484 Clouds 18 1024 88 10000 3.6 300 22:49 06.10.2020
3485 Clouds 19 1024 82 10000 3.1 300 22:29 06.10.2020
3486 Clouds 19 1024 88 10000 3.6 330 21:57 06.10.2020
3487 Clouds 19 1024 88 10000 3.6 330 21:57 06.10.2020
3488 Clouds 19 1024 88 10000 3.6 310 21:39 06.10.2020
3489 Clouds 19 1024 88 10000 3.6 310 21:20 06.10.2020
3490 Clouds 20 1024 82 10000 6.7 330 20:43 06.10.2020
3491 Clouds 20 1023 73 10000 6.2 330 20:18 06.10.2020
3492 Clouds 21 1023 73 10000 6.7 320 19:44 06.10.2020
3493 Clouds 23 1023 64 10000 6.2 330 19:19 06.10.2020
3494 Clouds 24 1023 54 10000 6.2 360 18:46 06.10.2020
3495 Clouds 25 1023 54 10000 6.2 360 18:23 06.10.2020
3496 Clouds 25 1023 50 10000 6.7 330 17:48 06.10.2020
3497 Clouds 25 1023 50 10000 6.7 10 17:24 06.10.2020
3498 Clouds 26 1024 47 10000 6.7 350 16:57 06.10.2020
3499 Clouds 26 1024 50 10000 6.2 10 16:37 06.10.2020
3500 Clouds 25 1024 54 10000 3.1 80 16:19 06.10.2020
3501 Clouds 25 1024 57 10000 3.1 90 15:42 06.10.2020
3502 Clouds 25 1024 57 10000 3.1 90 15:24 06.10.2020
3503 Clouds 24 1025 73 10000 2.6 130 14:41 06.10.2020
3504 Clouds 23 1025 73 10000 3.6 100 14:19 06.10.2020
3505 Clouds 23 1025 73 10000 3.6 100 13:51 06.10.2020
3506 Clouds 22 1026 73 10000 3.1 40 13:31 06.10.2020
3507 Clouds 21 1026 73 10000 4.1 360 12:51 06.10.2020
3508 Clouds 21 1026 77 10000 4.6 10 12:30 06.10.2020
3509 Clouds 20 1026 88 10000 3.1 330 11:49 06.10.2020
3510 Clouds 20 1025 88 10000 4.6 350 11:27 06.10.2020
3511 Clouds 19 1025 88 10000 4.1 360 10:49 06.10.2020
3512 Clouds 18 1025 93 10000 3.6 360 10:31 06.10.2020
3513 Clouds 18 1024 93 10000 3.6 340 09:57 06.10.2020
3514 Clouds 18 1024 93 10000 5.1 340 09:37 06.10.2020
3515 Clouds 18 1024 100 10000 4.1 340 09:18 06.10.2020
3516 Clouds 18 1024 93 10000 2.6 310 08:36 06.10.2020
3517 Clouds 18 1024 93 10000 2.1 320 07:48 06.10.2020
3518 Clouds 18 1023 93 10000 1.5 300 07:30 06.10.2020
3519 Clouds 18 1023 93 10000 1 300 06:47 06.10.2020
3520 Clouds 18 1024 93 10000 1.5 10 04:47 06.10.2020
3521 Clouds 18 1023 93 10000 2.1 260 01:43 06.10.2020
3522 Clouds 18 1023 100 10000 2.1 280 00:41 06.10.2020
3523 Clouds 18 1023 100 10000 2.1 280 00:23 06.10.2020
3524 Clouds 18 1023 93 10000 2.6 270 23:43 05.10.2020
3525 Clouds 18 1023 93 10000 2.6 270 23:24 05.10.2020
3526 Clouds 18 1023 88 10000 2.6 260 22:42 05.10.2020
3527 Clouds 18 1023 88 10000 2.6 260 22:19 05.10.2020
3528 Clouds 18 1022 82 10000 2.6 290 21:44 05.10.2020
3529 Clouds 18 1022 82 10000 2.6 290 21:20 05.10.2020
3530 Clouds 19 1022 72 10000 3.6 300 20:47 05.10.2020
3531 Clouds 19 1022 72 10000 3.6 300 20:24 05.10.2020
3532 Clouds 20 1022 64 10000 3.6 280 19:48 05.10.2020
3533 Clouds 21 1022 64 10000 3.6 280 19:28 05.10.2020
3534 Clouds 21 1022 64 10000 3.1 290 18:49 05.10.2020
3535 Clouds 21 1022 64 10000 3.6 310 18:31 05.10.2020
3536 Clouds 21 1022 60 10000 4.1 320 17:58 05.10.2020
3537 Clouds 21 1022 64 10000 3.6 280 17:38 05.10.2020
3538 Clouds 21 1022 60 10000 4.6 320 17:20 05.10.2020
3539 Clouds 21 1022 60 10000 4.1 290 16:41 05.10.2020
3540 Clouds 21 1022 60 10000 4.1 290 16:23 05.10.2020
3541 Clouds 21 1022 56 10000 4.1 330 15:42 05.10.2020
3542 Clouds 21 1022 56 10000 4.1 330 15:20 05.10.2020
3543 Clouds 21 1022 60 10000 3.6 310 14:44 05.10.2020
3544 Clouds 21 1022 60 10000 3.6 310 14:24 05.10.2020
3545 Clouds 20 1022 60 10000 3.1 300 13:52 05.10.2020
3546 Clouds 20 1022 64 10000 3.1 350 13:33 05.10.2020
3547 Clouds 19 1022 68 10000 2.6 300 12:52 05.10.2020
3548 Clouds 19 1022 72 10000 2.6 320 12:34 05.10.2020
3549 Clouds 18 1022 82 10000 2.6 300 11:59 05.10.2020
3550 Clouds 17 1022 82 10000 2.6 280 11:41 05.10.2020
3551 Clouds 17 1021 87 10000 2.1 310 11:20 05.10.2020
3552 Clouds 16 1021 87 10000 1.5 310 10:43 05.10.2020
3553 Clouds 16 1021 87 10000 1.5 310 10:24 05.10.2020
3554 Clouds 16 1020 87 10000 1.5 290 09:54 05.10.2020
3555 Clouds 15 1020 93 10000 2.1 270 09:28 05.10.2020
3556 Clouds 15 1020 93 10000 1.5 260 08:44 05.10.2020
3557 Clouds 15 1020 93 10000 1.5 260 08:25 05.10.2020
3558 Clouds 15 1020 93 10000 1.5 250 07:48 05.10.2020
3559 Clouds 16 1019 87 10000 1.5 290 06:40 05.10.2020
3560 Clouds 16 1019 87 10000 1.5 250 04:28 05.10.2020
3561 Clouds 16 1019 82 10000 1.5 290 01:51 05.10.2020
3562 Clouds 16 1018 77 10000 0.5 0 23:57 04.10.2020
3563 Clouds 16 1018 77 10000 1 0 23:38 04.10.2020
3564 Clouds 17 1018 77 10000 2.6 340 22:49 04.10.2020
3565 Clouds 17 1018 72 10000 3.1 350 22:25 04.10.2020
3566 Clouds 16 1017 72 10000 3.1 350 21:59 04.10.2020
3567 Clouds 17 1017 72 10000 3.1 340 21:40 04.10.2020
3568 Clouds 17 1017 72 10000 3.1 340 21:19 04.10.2020
3569 Clouds 17 1017 63 10000 5.1 330 20:42 04.10.2020
3570 Clouds 17 1017 63 10000 5.1 330 20:22 04.10.2020
3571 Clouds 18 1017 55 10000 5.7 330 19:56 04.10.2020
3572 Clouds 18 1016 48 10000 6.2 330 19:37 04.10.2020
3573 Clouds 19 1016 55 10000 6.7 330 19:18 04.10.2020
3574 Clouds 19 1016 59 10000 6.7 320 18:42 04.10.2020
3575 Clouds 19 1016 52 10000 7.7 330 18:21 04.10.2020
3576 Clouds 20 1016 56 10000 7.2 330 17:39 04.10.2020
3577 Clouds 20 1016 56 10000 7.2 330 17:21 04.10.2020
3578 Clouds 20 1015 56 10000 6.2 330 16:43 04.10.2020
3579 Clouds 20 1015 56 10000 6.2 330 16:23 04.10.2020
3580 Clouds 20 1016 52 10000 6.2 340 15:59 04.10.2020
3581 Clouds 20 1016 49 10000 5.7 360 15:41 04.10.2020
3582 Clouds 20 1016 49 10000 6.7 350 15:18 04.10.2020
3583 Clouds 20 1016 49 10000 6.7 350 14:48 04.10.2020
3584 Clouds 20 1016 49 10000 7.2 340 14:27 04.10.2020
3585 Clouds 20 1016 59 10000 6.7 350 13:46 04.10.2020
3586 Clouds 20 1016 59 10000 6.7 350 13:22 04.10.2020
3587 Clouds 19 1015 59 10000 6.7 350 12:56 04.10.2020
3588 Clouds 19 1015 72 10000 6.7 340 12:37 04.10.2020
3589 Clouds 19 1015 72 10000 6.7 340 12:19 04.10.2020
3590 Clouds 17 1015 82 10000 4.6 360 11:41 04.10.2020
3591 Clouds 17 1015 82 10000 4.6 360 11:23 04.10.2020
3592 Clouds 16 1014 93 10000 4.6 340 10:48 04.10.2020
3593 Clouds 16 1014 93 10000 4.6 340 10:30 04.10.2020
3594 Mist 16 1013 93 4000 4.1 210 09:45 04.10.2020
3595 Mist 16 1013 93 4000 4.1 210 09:25 04.10.2020
3596 Drizzle 16 1013 93 4000 3.6 250 08:54 04.10.2020
3597 Clouds 16 1012 87 10000 3.1 240 08:27 04.10.2020
3598 Clouds 16 1012 93 10000 2.6 230 07:52 04.10.2020
3599 Clouds 16 1012 93 10000 4.1 220 07:32 04.10.2020
3600 Clouds 16 1013 93 10000 3.1 230 06:49 04.10.2020
3601 Clouds 16 1013 93 10000 3.6 240 06:29 04.10.2020
3602 Clouds 16 1013 93 10000 3.6 240 05:52 04.10.2020
3603 Clouds 16 1014 77 10000 2.6 220 02:39 04.10.2020
3604 Clear 16 1015 72 10000 2.6 270 00:55 04.10.2020
3605 Clouds 16 1015 82 10000 2.1 250 00:21 04.10.2020
3606 Clear 16 1015 82 10000 2.1 240 23:28 03.10.2020
3607 Clouds 16 1015 77 10000 1.5 230 22:58 03.10.2020
3608 Clouds 16 1015 72 10000 2.1 240 22:40 03.10.2020
3609 Clouds 16 1014 72 10000 1.5 280 22:20 03.10.2020
3610 Clouds 16 1014 72 10000 2.6 280 21:46 03.10.2020
3611 Clouds 17 1014 72 10000 2.6 280 21:26 03.10.2020
3612 Clouds 17 1014 63 10000 3.1 290 20:47 03.10.2020
3613 Clouds 17 1014 63 10000 3.6 280 20:28 03.10.2020
3614 Clouds 18 1014 59 10000 3.6 300 19:59 03.10.2020
3615 Clouds 18 1014 59 10000 4.6 300 19:39 03.10.2020
3616 Clouds 18 1014 59 10000 4.6 300 19:19 03.10.2020
3617 Clouds 19 1014 59 10000 4.6 330 18:47 03.10.2020
3618 Clouds 19 1014 55 10000 5.1 310 18:24 03.10.2020
3619 Clouds 19 1014 55 10000 5.7 310 17:47 03.10.2020
3620 Clouds 19 1014 49 10000 5.1 290 17:28 03.10.2020
3621 Clouds 20 1014 45 10000 4.6 290 16:55 03.10.2020
3622 Clouds 20 1014 52 10000 3.6 300 16:37 03.10.2020
3623 Clouds 20 1014 49 10000 4.1 300 16:18 03.10.2020
3624 Clouds 19 1015 55 10000 3.6 310 15:41 03.10.2020
3625 Clouds 19 1015 52 10000 5.1 340 15:20 03.10.2020
3626 Clouds 19 1015 52 10000 5.1 340 14:55 03.10.2020
3627 Clouds 19 1014 52 10000 4.6 320 14:37 03.10.2020
3628 Clouds 19 1014 52 10000 4.6 320 14:18 03.10.2020
3629 Clouds 19 1015 52 10000 3.6 310 13:42 03.10.2020
3630 Clouds 18 1015 59 10000 3.1 290 13:21 03.10.2020
3631 Clouds 18 1015 59 10000 3.6 310 12:42 03.10.2020
3632 Clouds 18 1015 59 10000 3.6 310 12:21 03.10.2020
3633 Clouds 18 1014 63 10000 3.1 300 11:51 03.10.2020
3634 Clouds 17 1014 67 10000 3.1 300 11:23 03.10.2020
3635 Clouds 17 1014 72 10000 1.5 290 10:55 03.10.2020
3636 Clouds 16 1014 77 10000 2.1 270 10:37 03.10.2020
3637 Clouds 15 1013 82 10000 2.1 270 10:18 03.10.2020
3638 Clouds 14 1013 87 10000 2.6 270 09:40 03.10.2020
3639 Clouds 14 1013 87 10000 2.6 270 09:19 03.10.2020
3640 Clouds 14 1012 76 10000 1.5 310 08:44 03.10.2020
3641 Clouds 14 1012 76 10000 1.5 310 08:25 03.10.2020
3642 Clouds 14 1012 76 10000 2.1 300 07:41 03.10.2020
3643 Clouds 14 1012 71 10000 2.1 290 07:21 03.10.2020
3644 Clouds 14 1012 71 10000 1.5 290 06:20 03.10.2020
3645 Clouds 15 1012 82 10000 2.6 270 05:40 03.10.2020
3646 Clouds 15 1012 82 10000 2.1 280 03:47 03.10.2020
3647 Clouds 15 1012 72 10000 3.1 310 03:21 03.10.2020
3648 Clouds 16 1012 72 10000 2.1 310 00:37 03.10.2020
3649 Clouds 16 1012 72 10000 2.1 310 00:18 03.10.2020
3650 Clouds 16 1011 67 10000 1.5 290 23:41 02.10.2020
3651 Clouds 16 1011 67 10000 1.5 300 23:19 02.10.2020
3652 Clouds 16 1011 67 10000 1.5 340 22:45 02.10.2020
3653 Clouds 16 1011 67 10000 1.5 340 22:22 02.10.2020
3654 Clouds 16 1010 67 10000 3.1 340 21:49 02.10.2020
3655 Clouds 16 1010 59 10000 4.6 330 21:27 02.10.2020
3656 Clouds 16 1010 63 10000 4.6 330 20:56 02.10.2020
3657 Clouds 17 1009 63 10000 4.1 330 20:32 02.10.2020
3658 Clouds 17 1009 63 10000 6.7 330 19:56 02.10.2020
3659 Clouds 17 1009 59 10000 7.7 340 19:38 02.10.2020
3660 Clouds 18 1009 59 10000 9.3 340 19:18 02.10.2020
3661 Clouds 18 1009 59 10000 8.2 330 18:42 02.10.2020
3662 Clouds 18 1009 59 10000 8.2 330 18:23 02.10.2020
3663 Clouds 18 1008 59 10000 8.7 330 17:47 02.10.2020
3664 Clouds 18 1008 59 10000 8.7 330 17:29 02.10.2020
3665 Clouds 18 1008 59 10000 10.3 330 16:54 02.10.2020
3666 Clouds 18 1008 63 10000 7.7 320 16:28 02.10.2020
3667 Clouds 19 1008 68 10000 8.2 310 15:52 02.10.2020
3668 Clouds 19 1008 68 10000 7.7 320 15:33 02.10.2020
3669 Clouds 18 1008 72 10000 6.2 310 14:47 02.10.2020
3670 Clouds 18 1008 88 10000 5.7 330 14:26 02.10.2020
3671 Clouds 19 1008 77 10000 7.7 320 13:57 02.10.2020
3672 Clouds 19 1008 77 10000 6.7 310 13:38 02.10.2020
3673 Clouds 19 1007 82 10000 6.7 310 13:18 02.10.2020
3674 Clouds 19 1007 88 10000 5.1 300 12:41 02.10.2020
3675 Clouds 18 1007 88 10000 5.1 300 12:21 02.10.2020
3676 Clouds 19 1007 93 10000 6.7 300 11:45 02.10.2020
3677 Clouds 19 1007 93 10000 6.7 300 11:22 02.10.2020
3678 Clouds 18 1007 100 3500 6.7 280 10:47 02.10.2020
3679 Clouds 19 1007 93 7000 6.2 280 10:27 02.10.2020
3680 Clouds 19 1007 93 7000 6.2 270 09:41 02.10.2020
3681 Clouds 19 1007 88 10000 6.7 260 09:22 02.10.2020
3682 Clouds 19 1007 88 10000 6.7 260 08:47 02.10.2020
3683 Clouds 19 1008 88 10000 5.1 280 08:29 02.10.2020
3684 Clouds 19 1008 93 10000 4.6 280 07:50 02.10.2020
3685 Clouds 19 1008 93 10000 5.7 270 07:20 02.10.2020
3686 Clouds 19 1009 88 10000 6.7 260 05:40 02.10.2020
3687 Clouds 18 1013 82 10000 5.7 260 02:24 02.10.2020
3688 Clouds 18 1014 82 10000 4.1 240 00:49 02.10.2020
3689 Clouds 18 1015 82 10000 3.6 250 00:21 02.10.2020
3690 Clouds 18 1015 82 10000 3.6 250 23:57 01.10.2020
3691 Clouds 18 1015 82 10000 3.6 240 23:38 01.10.2020
3692 Clouds 18 1015 82 10000 3.6 240 23:20 01.10.2020
3693 Clouds 18 1015 82 10000 2.1 270 22:40 01.10.2020
3694 Clouds 18 1015 82 10000 2.1 270 22:20 01.10.2020
3695 Clouds 18 1015 77 10000 3.6 300 21:42 01.10.2020
3696 Clouds 18 1015 77 10000 3.6 300 21:21 01.10.2020
3697 Clouds 18 1016 72 10000 4.6 300 20:57 01.10.2020
3698 Clouds 19 1016 68 10000 4.6 300 20:37 01.10.2020
3699 Clouds 19 1016 68 10000 4.6 300 20:18 01.10.2020
3700 Clouds 20 1015 60 10000 3.6 290 19:42 01.10.2020
3701 Clouds 20 1016 60 10000 5.7 310 19:22 01.10.2020
3702 Clouds 20 1015 56 10000 4.1 280 18:41 01.10.2020
3703 Clouds 21 1015 56 10000 4.1 320 18:21 01.10.2020
3704 Clouds 21 1016 56 10000 4.1 320 17:41 01.10.2020
3705 Clouds 21 1016 56 10000 4.1 320 17:23 01.10.2020
3706 Clouds 21 1016 60 10000 4.6 310 16:42 01.10.2020
3707 Clouds 21 1016 60 10000 4.6 310 16:20 01.10.2020
3708 Clouds 21 1016 53 10000 5.1 340 15:53 01.10.2020
3709 Clouds 22 1017 56 10000 5.1 310 15:22 01.10.2020
3710 Clouds 22 1017 56 10000 5.1 310 14:46 01.10.2020
3711 Clouds 21 1017 60 10000 5.1 300 14:27 01.10.2020
3712 Clouds 21 1017 60 10000 4.1 310 13:42 01.10.2020
3713 Clouds 21 1017 64 10000 3.6 310 13:18 01.10.2020
3714 Clouds 21 1017 72 10000 4.1 320 12:39 01.10.2020
3715 Clouds 20 1017 82 10000 3.6 320 12:20 01.10.2020
3716 Clouds 19 1017 93 10000 4.1 340 11:38 01.10.2020
3717 Clouds 19 1017 82 10000 3.1 330 11:19 01.10.2020
3718 Clouds 19 1017 82 10000 3.1 330 10:46 01.10.2020
3719 Clouds 19 1017 88 10000 2.6 310 10:23 01.10.2020
3720 Clouds 17 1016 93 10000 1.5 300 09:45 01.10.2020
3721 Clouds 17 1016 93 10000 1.5 300 09:26 01.10.2020
3722 Clouds 17 1016 88 10000 2.1 320 08:53 01.10.2020
3723 Clouds 18 1016 88 10000 1 0 08:33 01.10.2020
3724 Clouds 17 1016 82 10000 2.6 220 07:56 01.10.2020
3725 Clouds 17 1016 82 10000 1 0 07:26 01.10.2020
3726 Clouds 16 1016 77 10000 1.5 240 06:40 01.10.2020
3727 Clouds 17 1018 82 10000 1 0 03:38 01.10.2020
3728 Clouds 17 1018 72 10000 3.1 330 00:37 01.10.2020
3729 Clouds 17 1018 77 10000 3.1 340 23:39 30.09.2020
3730 Clouds 17 1018 77 10000 4.1 340 22:46 30.09.2020
3731 Clouds 17 1018 77 10000 4.1 340 22:25 30.09.2020
3732 Clouds 17 1018 77 10000 4.1 340 22:25 30.09.2020
3733 Clouds 17 1018 72 10000 2.6 320 21:57 30.09.2020
3734 Clouds 17 1018 72 10000 3.6 320 21:37 30.09.2020
3735 Clouds 17 1017 72 10000 4.6 330 21:18 30.09.2020
3736 Clouds 18 1017 72 10000 5.1 320 20:43 30.09.2020
3737 Clouds 18 1017 72 10000 5.1 320 20:24 30.09.2020
3738 Clouds 19 1017 68 10000 7.2 320 19:42 30.09.2020
3739 Clouds 19 1017 68 10000 7.2 320 19:21 30.09.2020
3740 Clouds 19 1017 68 10000 5.7 320 18:54 30.09.2020
3741 Clouds 20 1017 68 10000 7.2 320 18:23 30.09.2020
3742 Clouds 21 1017 64 10000 7.2 330 17:49 30.09.2020
3743 Clouds 21 1017 60 10000 6.7 330 17:27 30.09.2020
3744 Clouds 22 1017 64 10000 6.7 320 16:57 30.09.2020
3745 Clouds 22 1017 56 10000 5.1 320 16:38 30.09.2020
3746 Clouds 22 1017 60 10000 5.1 310 16:18 30.09.2020
3747 Clouds 22 1017 64 10000 5.1 320 15:41 30.09.2020
3748 Clouds 23 1018 56 10000 5.7 320 15:18 30.09.2020
3749 Clouds 22 1018 60 10000 5.1 340 14:41 30.09.2020
3750 Clouds 22 1018 64 10000 5.1 330 14:20 30.09.2020
3751 Clouds 21 1018 77 10000 4.6 320 13:49 30.09.2020
3752 Clouds 21 1018 77 10000 4.6 320 13:30 30.09.2020
3753 Clouds 20 1018 77 10000 4.1 310 12:43 30.09.2020
3754 Clouds 20 1018 77 10000 4.1 310 12:25 30.09.2020
3755 Clouds 19 1018 77 10000 5.7 330 11:45 30.09.2020
3756 Clouds 19 1018 77 10000 5.7 330 11:25 30.09.2020
3757 Clouds 18 1018 88 10000 5.1 330 10:52 30.09.2020
3758 Clouds 18 1018 82 10000 5.7 330 10:34 30.09.2020
3759 Clouds 17 1018 88 10000 5.1 330 09:58 30.09.2020
3760 Clouds 17 1017 93 10000 5.1 330 09:39 30.09.2020
3761 Clouds 17 1017 93 10000 5.1 330 09:21 30.09.2020
3762 Clear 17 1017 87 10000 4.1 330 08:41 30.09.2020
3763 Clouds 17 1017 87 10000 4.1 320 07:50 30.09.2020
3764 Clouds 17 1016 82 10000 3.6 340 07:29 30.09.2020
3765 Clouds 17 1016 82 10000 3.6 340 06:33 30.09.2020
3766 Clouds 17 1016 77 10000 3.1 330 05:45 30.09.2020
3767 Clouds 17 1017 77 10000 2.6 330 04:29 30.09.2020
3768 Clouds 17 1017 72 10000 3.1 330 03:26 30.09.2020
3769 Clouds 18 1017 72 10000 6.2 330 00:32 30.09.2020
3770 Clouds 19 1017 72 10000 5.7 320 23:53 29.09.2020
3771 Clouds 19 1017 68 10000 6.2 320 23:33 29.09.2020
3772 Clouds 19 1016 63 10000 6.7 310 22:57 29.09.2020
3773 Clouds 19 1016 68 10000 6.2 320 22:39 29.09.2020
3774 Clouds 20 1016 64 10000 6.2 310 22:20 29.09.2020
3775 Clouds 21 1016 64 10000 6.7 310 21:40 29.09.2020
3776 Clouds 21 1016 64 10000 6.7 310 21:22 29.09.2020
3777 Clouds 21 1016 64 10000 6.2 310 20:55 29.09.2020
3778 Clouds 22 1016 56 10000 5.7 310 20:37 29.09.2020
3779 Clouds 23 1015 50 10000 5.7 310 20:19 29.09.2020
3780 Clouds 24 1015 47 10000 5.1 310 19:39 29.09.2020
3781 Clouds 25 1015 53 10000 5.1 320 18:59 29.09.2020
3782 Clouds 25 1015 47 10000 5.7 330 18:41 29.09.2020
3783 Clouds 26 1015 44 10000 5.1 320 18:18 29.09.2020
3784 Clouds 27 1015 47 10000 3.1 290 17:44 29.09.2020
3785 Clouds 27 1015 47 10000 3.1 290 17:22 29.09.2020
3786 Clouds 27 1015 34 10000 3.1 80 16:41 29.09.2020
3787 Clouds 27 1015 34 10000 3.1 80 16:22 29.09.2020
3788 Clouds 26 1016 39 10000 2.6 0 15:48 29.09.2020
3789 Clouds 26 1016 42 10000 2.6 50 15:28 29.09.2020
3790 Clouds 26 1017 47 10000 2.1 0 14:43 29.09.2020
3791 Clear 25 1017 47 10000 2.1 0 14:22 29.09.2020
3792 Clear 24 1017 50 10000 2.1 90 13:58 29.09.2020
3793 Clear 23 1017 53 10000 2.6 60 13:28 29.09.2020
3794 Clear 22 1017 60 10000 2.1 70 12:55 29.09.2020
3795 Clear 22 1017 60 10000 2.1 60 12:33 29.09.2020
3796 Clear 20 1017 60 10000 2.6 10 11:59 29.09.2020
3797 Clear 21 1017 64 10000 2.1 10 11:34 29.09.2020
3798 Clear 19 1017 68 10000 3.1 330 10:55 29.09.2020
3799 Clouds 18 1017 72 10000 4.1 320 10:37 29.09.2020
3800 Clouds 17 1016 72 10000 3.6 320 09:49 29.09.2020
3801 Clouds 17 1016 77 10000 4.1 330 09:30 29.09.2020
3802 Clouds 16 1016 77 10000 4.1 320 08:57 29.09.2020
3803 Clear 16 1016 77 10000 4.1 320 08:38 29.09.2020
3804 Clouds 16 1016 77 10000 4.6 310 07:58 29.09.2020
3805 Clouds 17 1016 77 10000 4.6 320 07:40 29.09.2020
3806 Clouds 17 1016 77 10000 4.6 320 05:56 29.09.2020
3807 Clouds 17 1016 77 10000 4.6 310 05:30 29.09.2020
3808 Clouds 17 1016 77 10000 3.6 310 02:49 29.09.2020
3809 Clouds 17 1016 77 10000 4.1 320 02:19 29.09.2020
3810 Clouds 17 1016 68 10000 2.1 310 02:19 29.09.2020
3811 Clouds 18 1016 59 10000 4.6 320 23:47 28.09.2020
3812 Clouds 19 1016 59 10000 4.6 320 23:28 28.09.2020
3813 Clouds 19 1016 55 10000 5.7 310 22:45 28.09.2020
3814 Clouds 19 1016 55 10000 5.7 310 22:23 28.09.2020
3815 Clouds 19 1016 59 10000 6.2 310 21:59 28.09.2020
3816 Rain 19 1016 63 10000 6.2 310 21:40 28.09.2020
3817 Clouds 19 1016 63 10000 6.2 310 21:22 28.09.2020
3818 Clouds 19 1016 68 10000 6.2 310 20:56 28.09.2020
3819 Clouds 19 1016 68 10000 6.7 310 20:37 28.09.2020
3820 Clouds 19 1016 64 10000 6.7 310 20:18 28.09.2020
3821 Clouds 21 1015 60 10000 5.1 310 19:38 28.09.2020
3822 Clouds 22 1015 56 10000 5.7 310 19:19 28.09.2020
3823 Clouds 22 1015 56 10000 5.7 310 18:46 28.09.2020
3824 Clouds 23 1015 60 10000 4.6 300 18:28 28.09.2020
3825 Clouds 23 1015 57 10000 4.6 320 17:47 28.09.2020
3826 Clouds 25 1015 36 10000 1.5 0 17:28 28.09.2020
3827 Clouds 25 1015 47 10000 2.6 310 16:55 28.09.2020
3828 Clouds 25 1015 47 10000 2.6 310 16:55 28.09.2020
3829 Clouds 25 1016 41 10000 2.1 0 16:37 28.09.2020
3830 Clouds 25 1016 44 10000 2.6 70 16:18 28.09.2020
3831 Clouds 25 1016 44 10000 2.6 70 16:18 28.09.2020
3832 Clouds 25 1016 50 10000 2.6 90 15:37 28.09.2020
3833 Clouds 24 1017 57 10000 2.6 80 15:18 28.09.2020
3834 Clouds 24 1017 57 10000 2.6 80 14:41 28.09.2020
3835 Clouds 23 1017 57 10000 2.6 80 14:23 28.09.2020
3836 Clouds 23 1017 60 10000 2.1 90 13:52 28.09.2020
3837 Clouds 22 1017 60 10000 2.1 0 13:26 28.09.2020
3838 Clouds 21 1017 68 10000 2.6 70 12:44 28.09.2020
3839 Clouds 20 1017 68 10000 2.6 70 12:26 28.09.2020
3840 Clouds 19 1017 77 10000 3.1 350 11:46 28.09.2020
3841 Clouds 19 1017 77 10000 3.1 350 11:28 28.09.2020
3842 Clouds 18 1017 77 10000 4.1 330 10:58 28.09.2020
3843 Clouds 17 1017 87 10000 3.6 320 10:39 28.09.2020
3844 Clouds 17 1017 87 10000 3.6 320 10:20 28.09.2020
3845 Clouds 16 1016 93 10000 4.1 320 09:33 28.09.2020
3846 Clouds 15 1016 93 10000 2.6 320 08:50 28.09.2020
3847 Clouds 16 1016 93 10000 2.6 310 08:32 28.09.2020
3848 Clouds 16 1016 93 10000 2.6 310 08:32 28.09.2020
3849 Clear 16 1016 93 10000 2.1 330 07:56 28.09.2020
3850 Clear 16 1016 93 10000 3.1 320 07:36 28.09.2020
3851 Clear 16 1016 93 10000 3.1 310 06:27 28.09.2020
3852 Clouds 16 1017 87 10000 5.7 330 03:31 28.09.2020
3853 Clouds 17 1017 87 10000 7.2 330 01:19 28.09.2020
3854 Clouds 17 1017 82 10000 3.6 350 00:35 28.09.2020
3855 Clouds 17 1017 82 10000 5.1 320 23:43 27.09.2020
3856 Clouds 17 1017 82 10000 5.1 320 23:25 27.09.2020
3857 Clouds 17 1017 77 10000 8.7 330 22:48 27.09.2020
3858 Clouds 18 1017 77 10000 8.7 330 22:29 27.09.2020
3859 Clouds 18 1016 72 10000 7.7 340 21:45 27.09.2020
3860 Clouds 18 1016 72 10000 7.7 340 21:25 27.09.2020
3861 Clouds 19 1016 63 10000 4.6 330 20:55 27.09.2020
3862 Clouds 19 1016 60 10000 2.6 330 20:28 27.09.2020
3863 Clouds 20 1016 60 10000 6.7 340 19:51 27.09.2020
3864 Clouds 21 1016 60 10000 6.7 340 19:21 27.09.2020
3865 Clouds 21 1016 60 10000 6.7 340 18:59 27.09.2020
3866 Clouds 21 1016 60 10000 9.8 340 18:41 27.09.2020
3867 Clouds 21 1016 60 10000 9.8 340 18:19 27.09.2020
3868 Clouds 22 1016 53 10000 9.8 350 17:41 27.09.2020
3869 Clouds 22 1016 53 10000 9.8 350 17:22 27.09.2020
3870 Clouds 22 1016 46 10000 8.7 350 16:53 27.09.2020
3871 Clouds 23 1017 53 10000 10.3 340 16:30 27.09.2020
3872 Clouds 23 1017 53 10000 8.7 360 15:47 27.09.2020
3873 Clouds 22 1017 53 10000 8.7 360 15:28 27.09.2020
3874 Clouds 22 1018 56 10000 7.7 360 14:55 27.09.2020
3875 Clouds 22 1018 56 10000 7.7 340 14:36 27.09.2020
3876 Clouds 22 1018 64 10000 7.2 340 14:18 27.09.2020
3877 Clouds 21 1018 64 10000 7.2 340 13:43 27.09.2020
3878 Clouds 21 1018 64 10000 7.2 340 13:19 27.09.2020
3879 Clouds 20 1019 68 10000 6.7 340 12:41 27.09.2020
3880 Clouds 20 1019 68 10000 6.7 340 12:23 27.09.2020
3881 Clouds 20 1019 77 10000 5.7 340 11:47 27.09.2020
3882 Clouds 20 1019 77 10000 5.7 340 11:47 27.09.2020
3883 Clouds 19 1019 82 10000 6.2 360 11:23 27.09.2020
3884 Clouds 19 1018 82 10000 7.7 340 10:42 27.09.2020
3885 Clouds 18 1018 82 10000 7.7 340 10:23 27.09.2020
3886 Clouds 17 1018 88 10000 4.1 350 09:45 27.09.2020
3887 Clouds 18 1018 88 10000 4.1 350 09:27 27.09.2020
3888 Clouds 17 1018 88 10000 4.6 360 08:50 27.09.2020
3889 Clouds 18 1018 88 10000 6.2 350 08:31 27.09.2020
3890 Clouds 18 1018 93 10000 5.1 330 07:46 27.09.2020
3891 Clouds 19 1018 93 10000 5.7 330 06:50 27.09.2020
3892 Clouds 19 1019 93 8000 6.2 340 06:32 27.09.2020
3893 Clouds 18 1020 93 10000 3.6 320 03:30 27.09.2020
3894 Drizzle 18 1021 82 10000 5.1 330 01:50 27.09.2020
3895 Clouds 18 1021 82 10000 4.6 340 01:20 27.09.2020
3896 Clouds 18 1022 82 10000 4.1 330 00:54 27.09.2020
3897 Clouds 18 1022 82 10000 5.1 350 23:50 26.09.2020
3898 Clouds 18 1022 77 10000 5.7 340 23:27 26.09.2020
3899 Clouds 18 1022 82 10000 4.1 340 22:44 26.09.2020
3900 Clouds 18 1022 82 10000 4.1 340 22:25 26.09.2020
3901 Clouds 18 1022 77 10000 3.6 350 21:56 26.09.2020
3902 Clouds 18 1022 72 10000 5.1 340 21:37 26.09.2020
3903 Clouds 18 1022 68 10000 4.6 340 21:19 26.09.2020
3904 Clouds 19 1022 68 10000 5.7 330 20:42 26.09.2020
3905 Clouds 19 1022 68 10000 5.7 330 20:24 26.09.2020
3906 Clouds 19 1022 68 10000 6.2 340 19:58 26.09.2020
3907 Clouds 19 1022 64 10000 7.2 330 19:39 26.09.2020
3908 Clouds 20 1022 64 10000 8.2 350 19:19 26.09.2020
3909 Clouds 20 1022 60 10000 8.7 340 18:45 26.09.2020
3910 Clouds 21 1022 60 10000 8.7 340 18:22 26.09.2020
3911 Clouds 22 1023 53 10000 8.2 350 17:37 26.09.2020
3912 Clouds 22 1023 53 10000 9.8 350 16:59 26.09.2020
3913 Clouds 22 1023 53 10000 8.7 350 16:40 26.09.2020
3914 Clouds 22 1023 53 10000 8.7 350 16:21 26.09.2020
3915 Clouds 21 1024 52 10000 9.3 340 15:49 26.09.2020
3916 Clouds 21 1024 56 10000 7.2 340 15:21 26.09.2020
3917 Clouds 21 1024 52 10000 9.3 340 15:21 26.09.2020
3918 Clouds 21 1024 56 10000 7.2 340 14:48 26.09.2020
3919 Clouds 21 1025 56 10000 7.2 350 14:19 26.09.2020
3920 Clouds 21 1025 52 10000 8.2 20 13:49 26.09.2020
3921 Clouds 20 1025 56 10000 8.7 350 13:27 26.09.2020
3922 Clouds 20 1025 59 10000 7.7 340 12:51 26.09.2020
3923 Clouds 19 1025 59 10000 5.7 330 12:23 26.09.2020
3924 Clouds 18 1025 59 10000 7.2 360 11:54 26.09.2020
3925 Clouds 18 1025 55 10000 7.7 340 11:25 26.09.2020
3926 Clear 17 1025 59 10000 5.7 360 10:55 26.09.2020
3927 Clear 17 1025 63 10000 5.1 10 10:36 26.09.2020
3928 Clear 16 1024 67 10000 3.6 30 10:18 26.09.2020
3929 Clear 16 1024 67 10000 5.1 10 09:44 26.09.2020
3930 Clear 15 1024 67 10000 5.1 10 09:20 26.09.2020
3931 Clear 15 1024 76 10000 3.6 10 08:48 26.09.2020
3932 Clear 15 1025 72 10000 6.2 350 07:41 26.09.2020
3933 Clear 16 1025 77 10000 6.7 360 05:30 26.09.2020
3934 Clouds 16 1026 72 10000 10.8 350 02:19 26.09.2020
3935 Clouds 16 1027 72 10000 6.2 340 01:18 26.09.2020
3936 Clouds 16 1027 72 10000 3.6 340 00:21 26.09.2020
3937 Clouds 17 1027 72 10000 6.2 350 23:36 25.09.2020
3938 Clouds 17 1027 67 10000 7.2 360 23:18 25.09.2020
3939 Clouds 17 1026 63 10000 8.2 360 22:42 25.09.2020
3940 Clouds 17 1027 72 10000 6.7 360 22:23 25.09.2020
3941 Clouds 17 1026 67 10000 5.7 360 21:49 25.09.2020
3942 Clouds 18 1026 63 10000 7.2 360 21:25 25.09.2020
3943 Clouds 18 1026 55 10000 9.8 360 20:40 25.09.2020
3944 Clouds 19 1026 55 10000 9.3 350 20:18 25.09.2020
3945 Clouds 20 1026 52 10000 10.3 350 19:29 25.09.2020
3946 Clouds 20 1026 52 10000 9.3 340 18:53 25.09.2020
3947 Clouds 21 1026 52 10000 9.3 350 18:24 25.09.2020
3948 Clouds 21 1026 46 10000 9.8 350 17:45 25.09.2020
3949 Clouds 22 1026 46 10000 9.8 350 17:23 25.09.2020
3950 Clouds 21 1026 43 10000 9.8 350 16:59 25.09.2020
3951 Clouds 22 1026 46 10000 8.2 360 16:31 25.09.2020
3952 Clouds 21 1027 46 10000 8.2 360 15:39 25.09.2020
3953 Clouds 22 1027 46 10000 8.2 360 15:20 25.09.2020
3954 Clouds 21 1027 49 10000 8.2 350 14:24 25.09.2020
3955 Clouds 21 1027 52 10000 7.2 360 13:57 25.09.2020
3956 Clouds 21 1027 49 10000 7.7 340 13:25 25.09.2020
3957 Clouds 20 1027 52 10000 6.7 360 12:53 25.09.2020
3958 Clouds 20 1027 63 10000 5.7 360 12:32 25.09.2020
3959 Clouds 19 1026 68 10000 6.7 350 11:49 25.09.2020
3960 Clouds 19 1026 68 10000 6.7 350 11:19 25.09.2020
3961 Clouds 18 1026 77 10000 3.1 350 10:40 25.09.2020
3962 Clouds 18 1025 77 10000 2.1 360 10:18 25.09.2020
3963 Clouds 17 1025 82 10000 3.1 340 09:45 25.09.2020
3964 Clouds 17 1024 77 10000 3.6 340 09:19 25.09.2020
3965 Clouds 17 1024 77 10000 3.6 340 08:38 25.09.2020
3966 Clouds 17 1024 82 10000 3.1 340 07:59 25.09.2020
3967 Clouds 17 1024 82 10000 1.5 330 07:24 25.09.2020
3968 Clouds 17 1024 82 10000 1.5 310 04:36 25.09.2020
3969 Clouds 17 1023 82 10000 3.1 330 02:55 25.09.2020
3970 Clouds 18 1022 72 10000 2.6 360 00:32 25.09.2020
3971 Clouds 18 1022 77 10000 3.1 10 23:30 24.09.2020
3972 Clouds 18 1022 72 10000 5.1 360 22:58 24.09.2020
3973 Clouds 19 1022 72 10000 4.1 360 22:22 24.09.2020
3974 Clouds 19 1021 68 10000 5.1 340 21:56 24.09.2020
3975 Clouds 19 1021 72 10000 5.1 350 21:36 24.09.2020
3976 Clouds 19 1021 72 10000 5.1 350 21:18 24.09.2020
3977 Clouds 20 1020 68 10000 6.2 350 20:42 24.09.2020
3978 Clouds 20 1020 68 10000 6.2 350 20:23 24.09.2020
3979 Clouds 22 1020 64 10000 5.1 350 19:32 24.09.2020
3980 Clouds 22 1019 68 10000 5.7 330 18:56 24.09.2020
3981 Clouds 22 1019 68 10000 5.1 330 18:24 24.09.2020
3982 Clouds 23 1019 60 10000 4.6 340 17:59 24.09.2020
3983 Clouds 23 1019 56 10000 4.1 330 17:37 24.09.2020
3984 Clouds 23 1019 60 10000 3.1 330 16:42 24.09.2020
3985 Clouds 23 1019 60 10000 3.1 330 16:21 24.09.2020
3986 Clouds 22 1019 64 10000 2.6 340 15:21 24.09.2020
3987 Clouds 22 1019 64 10000 2.6 340 14:54 24.09.2020
3988 Clouds 23 1019 68 10000 3.1 330 14:36 24.09.2020
3989 Clouds 22 1018 77 10000 3.1 350 13:46 24.09.2020
3990 Clouds 22 1018 77 10000 3.1 350 13:21 24.09.2020
3991 Clouds 22 1018 77 10000 2.1 340 12:48 24.09.2020
3992 Clouds 21 1018 77 10000 1.5 350 12:28 24.09.2020
3993 Clouds 21 1017 83 10000 2.1 30 11:43 24.09.2020
3994 Clouds 21 1017 88 10000 1.5 70 11:19 24.09.2020
3995 Clouds 20 1017 88 10000 1 0 10:44 24.09.2020
3996 Clouds 20 1017 88 10000 1 0 10:24 24.09.2020
3997 Clouds 20 1016 88 10000 0.5 0 09:36 24.09.2020
3998 Clouds 20 1016 93 10000 1.5 360 09:18 24.09.2020
3999 Clouds 20 1016 93 10000 1.5 360 08:38 24.09.2020
4000 Clouds 20 1016 93 10000 0.5 0 07:44 24.09.2020
4001 Clouds 20 1016 93 10000 1 0 06:36 24.09.2020
4002 Clouds 20 1016 94 10000 1.5 250 02:33 24.09.2020
4003 Clouds 20 1016 94 10000 2.6 230 00:23 24.09.2020
4004 Clouds 21 1016 88 10000 2.6 230 23:51 23.09.2020
4005 Clouds 21 1016 88 10000 2.6 230 23:22 23.09.2020
4006 Clouds 21 1016 88 10000 2.6 230 22:51 23.09.2020
4007 Clouds 21 1016 94 10000 2.1 230 22:30 23.09.2020
4008 Clouds 21 1015 88 10000 2.1 240 21:54 23.09.2020
4009 Clouds 21 1015 88 10000 4.6 220 21:30 23.09.2020
4010 Rain 21 1015 83 10000 3.6 200 20:55 23.09.2020
4011 Clouds 21 1015 78 10000 4.1 230 20:35 23.09.2020
4012 Clouds 22 1015 78 10000 4.6 240 19:51 23.09.2020
4013 Clouds 22 1015 78 10000 4.6 240 19:51 23.09.2020
4014 Clouds 22 1015 73 10000 4.1 230 19:23 23.09.2020
4015 Clouds 23 1014 73 10000 4.1 230 18:37 23.09.2020
4016 Clouds 23 1014 64 10000 4.1 240 17:53 23.09.2020
4017 Clouds 23 1015 73 10000 4.6 250 17:34 23.09.2020
4018 Clouds 23 1014 78 10000 5.1 230 16:46 23.09.2020
4019 Clouds 22 1014 73 10000 6.7 240 16:28 23.09.2020
4020 Clouds 23 1015 83 10000 5.7 220 15:45 23.09.2020
4021 Rain 23 1015 78 10000 5.7 210 15:22 23.09.2020
4022 Clouds 23 1015 73 10000 5.1 220 14:40 23.09.2020
4023 Clouds 23 1015 73 10000 5.1 230 13:46 23.09.2020
4024 Clouds 23 1015 73 10000 5.1 230 13:27 23.09.2020
4025 Clouds 22 1015 78 10000 4.6 210 12:57 23.09.2020
4026 Rain 22 1015 88 10000 3.1 220 12:25 23.09.2020
4027 Clouds 21 1015 88 10000 3.1 240 11:49 23.09.2020
4028 Clouds 21 1015 88 10000 3.6 230 11:25 23.09.2020
4029 Clouds 20 1014 94 10000 3.1 250 10:46 23.09.2020
4030 Clouds 20 1014 94 10000 3.6 250 10:25 23.09.2020
4031 Clouds 19 1014 100 10000 4.1 230 09:44 23.09.2020
4032 Clouds 19 1014 100 10000 3.1 240 09:19 23.09.2020
4033 Clouds 20 1013 94 10000 2.6 230 08:20 23.09.2020
4034 Clouds 20 1013 94 10000 2.6 230 07:51 23.09.2020
4035 Clouds 20 1014 94 10000 4.1 210 05:55 23.09.2020
4036 Clouds 20 1014 94 10000 3.1 220 04:43 23.09.2020
4037 Rain 20 1015 94 10000 3.1 240 01:32 23.09.2020
4038 Rain 20 1016 94 10000 4.1 240 00:36 23.09.2020
4039 Rain 20 1016 94 10000 4.1 230 23:35 22.09.2020
4040 Clouds 20 1015 94 10000 4.6 220 22:49 22.09.2020
4041 Clouds 20 1015 94 10000 4.6 220 22:27 22.09.2020
4042 Rain 20 1015 88 10000 4.1 240 21:44 22.09.2020
4043 Rain 20 1015 88 10000 4.1 240 21:25 22.09.2020
4044 Rain 21 1015 83 10000 4.6 240 20:49 22.09.2020
4045 Clouds 21 1015 83 10000 4.6 240 20:27 22.09.2020
4046 Clouds 21 1015 83 10000 4.1 240 19:53 22.09.2020
4047 Rain 21 1015 83 10000 5.7 240 19:35 22.09.2020
4048 Clouds 21 1015 83 10000 6.2 230 18:58 22.09.2020
4049 Rain 21 1016 78 10000 6.7 230 18:35 22.09.2020
4050 Clouds 21 1016 78 10000 6.7 230 17:37 22.09.2020
4051 Clouds 22 1016 73 10000 6.7 210 16:56 22.09.2020
4052 Clouds 22 1016 64 10000 5.7 230 16:28 22.09.2020
4053 Clouds 23 1016 64 10000 4.1 210 15:47 22.09.2020
4054 Clouds 23 1016 64 10000 4.1 210 15:29 22.09.2020
4055 Clouds 23 1017 69 10000 4.6 230 14:39 22.09.2020
4056 Clouds 23 1017 69 10000 3.6 220 13:57 22.09.2020
4057 Clouds 23 1017 69 10000 2.1 160 13:27 22.09.2020
4058 Clouds 22 1018 73 10000 2.1 0 12:54 22.09.2020
4059 Clouds 22 1018 69 10000 1.5 0 12:33 22.09.2020
4060 Clouds 21 1017 78 10000 1.5 210 11:53 22.09.2020
4061 Clouds 21 1017 88 10000 1.5 250 11:23 22.09.2020
4062 Clouds 20 1017 93 10000 2.1 290 10:54 22.09.2020
4063 Clouds 20 1017 94 10000 0.61 154 10:27 22.09.2020
4064 Clouds 19 1017 100 10000 0.61 154 09:42 22.09.2020
4065 Clouds 19 1017 100 10000 1 0 08:56 22.09.2020
4066 Clouds 19 1017 100 10000 1.5 260 08:31 22.09.2020
4067 Clouds 19 1017 100 10000 1 0 07:54 22.09.2020
4068 Clouds 19 1017 100 10000 1 230 07:36 22.09.2020
4069 Clouds 19 1017 100 10000 1 0 06:56 22.09.2020
4070 Clouds 19 1017 100 10000 3.1 260 05:18 22.09.2020
4071 Clouds 19 1017 93 10000 2.1 270 04:37 22.09.2020
4072 Clouds 19 1019 88 10000 1.25 316 01:37 22.09.2020
4073 Clouds 20 1019 82 10000 1.99 330 00:56 22.09.2020
4074 Clouds 20 1019 72 10000 1.5 310 23:30 21.09.2020
4075 Clouds 20 1019 64 10000 2.6 300 22:47 21.09.2020
4076 Clouds 20 1019 64 10000 2.6 300 22:25 21.09.2020
4077 Clouds 21 1019 60 10000 3.6 310 21:44 21.09.2020
4078 Clouds 21 1019 60 10000 3.6 310 21:23 21.09.2020
4079 Clouds 21 1018 56 10000 3.1 300 20:51 21.09.2020
4080 Clouds 22 1018 53 10000 3.6 270 20:32 21.09.2020
4081 Clouds 23 1018 50 10000 2.6 290 19:58 21.09.2020
4082 Clouds 23 1018 50 10000 4.1 310 19:39 21.09.2020
4083 Clouds 24 1018 50 10000 4.1 310 19:19 21.09.2020
4084 Clouds 24 1018 47 10000 4.6 310 18:41 21.09.2020
4085 Clouds 24 1018 47 10000 4.6 310 18:19 21.09.2020
4086 Clouds 24 1019 57 10000 5.1 210 17:31 21.09.2020
4087 Clouds 25 1019 47 10000 2.1 0 16:33 21.09.2020
4088 Clouds 25 1019 50 10000 2.6 140 15:50 21.09.2020
4089 Clouds 25 1020 47 10000 3.1 140 15:26 21.09.2020
4090 Clouds 24 1020 56 10000 3.6 100 14:45 21.09.2020
4091 Clouds 24 1020 56 10000 3.6 100 14:23 21.09.2020
4092 Clouds 22 1020 56 10000 4.6 80 13:23 21.09.2020
4093 Clouds 23 1020 56 10000 3.6 80 12:49 21.09.2020
4094 Clouds 22 1020 56 10000 3.6 70 12:23 21.09.2020
4095 Clouds 22 1020 60 10000 2.1 70 11:50 21.09.2020
4096 Clouds 20 1020 82 10000 1.5 70 11:20 21.09.2020
4097 Clouds 20 1020 82 10000 1.5 70 10:46 21.09.2020
4098 Clouds 19 1020 100 10000 1.35 45 10:21 21.09.2020
4099 Clouds 18 1020 100 10000 0.5 0 09:38 21.09.2020
4100 Clouds 18 1019 100 10000 0.5 0 08:55 21.09.2020
4101 Clouds 18 1019 100 10000 1.11 26 07:51 21.09.2020
4102 Clouds 18 1019 100 10000 0.5 0 07:33 21.09.2020
4103 Clouds 18 1019 100 10000 1 0 06:42 21.09.2020
4104 Clouds 19 1020 100 10000 1.5 20 03:30 21.09.2020
4105 Clouds 19 1020 88 10000 3.1 350 00:50 21.09.2020
4106 Clouds 19 1020 88 10000 3.6 300 23:44 20.09.2020
4107 Clouds 20 1020 77 10000 3.6 300 22:38 20.09.2020
4108 Clouds 20 1019 72 10000 3.1 300 22:20 20.09.2020
4109 Clouds 21 1019 68 10000 2.6 300 21:41 20.09.2020
4110 Clouds 21 1019 73 10000 3.6 300 21:19 20.09.2020
4111 Clouds 22 1019 68 10000 3.6 290 20:23 20.09.2020
4112 Clouds 23 1019 60 10000 3.6 310 19:49 20.09.2020
4113 Clouds 23 1019 60 10000 3.6 310 19:26 20.09.2020
4114 Clouds 23 1019 53 10000 4.1 310 18:48 20.09.2020
4115 Clouds 23 1018 57 10000 4.1 280 18:25 20.09.2020
4116 Clouds 24 1018 60 10000 4.1 230 17:58 20.09.2020
4117 Clouds 24 1019 60 10000 4.1 240 17:34 20.09.2020
4118 Clouds 24 1019 60 10000 2.6 170 16:52 20.09.2020
4119 Clouds 24 1019 60 10000 1.5 220 16:24 20.09.2020
4120 Clouds 23 1020 69 10000 2.6 250 15:23 20.09.2020
4121 Clouds 23 1020 64 10000 2.1 290 14:42 20.09.2020
4122 Clouds 23 1020 64 10000 3.1 260 14:18 20.09.2020
4123 Clouds 22 1020 73 10000 2.1 0 13:21 20.09.2020
4124 Clouds 22 1020 73 10000 1.5 280 12:44 20.09.2020
4125 Clouds 22 1020 73 10000 1.5 280 12:23 20.09.2020
4126 Clouds 21 1019 83 10000 1 0 11:36 20.09.2020
4127 Clouds 21 1019 88 10000 2.1 230 11:18 20.09.2020
4128 Clouds 20 1019 88 10000 2.1 230 10:49 20.09.2020
4129 Clouds 19 1019 88 10000 1 0 10:25 20.09.2020
4130 Clouds 19 1019 93 10000 2.1 250 09:48 20.09.2020
4131 Clouds 19 1018 100 10000 2.6 230 08:31 20.09.2020
4132 Clouds 19 1018 93 10000 2.1 250 07:29 20.09.2020
4133 Clouds 20 1018 94 10000 5.1 230 02:18 20.09.2020
4134 Clouds 20 1018 88 10000 4.1 230 00:34 20.09.2020
4135 Clouds 20 1018 94 10000 4.6 220 23:37 19.09.2020
4136 Clouds 20 1018 94 10000 4.1 220 22:57 19.09.2020
4137 Clouds 20 1018 94 10000 4.1 220 22:30 19.09.2020
4138 Clouds 20 1017 88 10000 5.1 220 21:47 19.09.2020
4139 Clouds 20 1017 88 10000 5.1 220 21:27 19.09.2020
4140 Clouds 20 1017 83 10000 6.2 230 20:48 19.09.2020
4141 Clouds 21 1017 83 10000 5.7 240 19:47 19.09.2020
4142 Clouds 21 1017 83 10000 5.7 240 19:18 19.09.2020
4143 Rain 21 1016 83 10000 7.7 220 18:25 19.09.2020
4144 Clouds 22 1016 69 10000 8.7 220 17:45 19.09.2020
4145 Clouds 22 1016 69 10000 8.7 220 17:25 19.09.2020
4146 Clouds 22 1017 78 10000 8.2 220 16:45 19.09.2020
4147 Clouds 22 1017 78 10000 8.2 220 16:21 19.09.2020
4148 Clouds 22 1017 73 10000 8.2 210 15:41 19.09.2020
4149 Clouds 21 1017 73 10000 6.2 220 13:28 19.09.2020
4150 Clouds 21 1017 77 10000 6.2 210 12:25 19.09.2020
4151 Clouds 20 1017 88 10000 4.6 210 11:32 19.09.2020
4152 Clouds 19 1016 93 10000 4.1 200 10:27 19.09.2020
4153 Clouds 18 1016 100 10000 2.6 220 09:51 19.09.2020
4154 Clouds 18 1015 100 10000 2.1 210 09:28 19.09.2020
4155 Clouds 18 1015 100 10000 2.1 200 08:46 19.09.2020
4156 Clouds 18 1014 93 10000 2.1 220 07:45 19.09.2020
4157 Clouds 18 1014 93 10000 2.1 220 06:53 19.09.2020
4158 Clouds 18 1014 93 10000 3.6 240 05:51 19.09.2020
4159 Clouds 19 1014 93 10000 3.6 230 04:20 19.09.2020
4160 Clouds 19 1012 93 10000 5.7 230 00:50 19.09.2020
4161 Clouds 19 1011 93 10000 6.7 240 23:24 18.09.2020
4162 Clouds 19 1011 88 10000 6.7 240 22:59 18.09.2020
4163 Clouds 19 1010 88 10000 7.7 240 22:28 18.09.2020
4164 Clouds 20 1009 82 10000 8.2 230 21:43 18.09.2020
4165 Clouds 20 1009 82 10000 8.2 230 21:23 18.09.2020
4166 Clouds 20 1008 88 6000 7.7 240 20:42 18.09.2020
4167 Rain 20 1006 94 6000 8.7 220 19:42 18.09.2020
4168 Rain 20 1006 94 6000 8.7 220 19:21 18.09.2020
4169 Rain 20 1006 88 10000 10.3 220 18:32 18.09.2020
4170 Clouds 20 1005 94 9000 12.9 220 17:27 18.09.2020
4171 Clouds 21 1004 88 10000 13.9 200 16:41 18.09.2020
4172 Clouds 21 1004 88 10000 13.9 200 16:22 18.09.2020
4173 Clouds 21 1004 88 8000 12.9 190 15:43 18.09.2020
4174 Clouds 21 1004 88 8000 12.9 190 15:25 18.09.2020
4175 Rain 21 1005 83 10000 9.8 170 13:57 18.09.2020
4176 Clouds 21 1005 94 10000 8.7 180 13:24 18.09.2020
4177 Clouds 20 1005 93 6000 6.2 140 12:38 18.09.2020
4178 Clouds 19 1005 93 10000 7.2 140 11:23 18.09.2020
4179 Rain 19 1005 88 7000 6.2 130 10:41 18.09.2020
4180 Rain 19 1005 88 7000 6.2 130 10:20 18.09.2020
4181 Rain 19 1006 93 10000 5.7 120 09:25 18.09.2020
4182 Rain 18 1006 93 10000 4.6 120 08:40 18.09.2020
4183 Rain 18 1007 100 10000 4.6 130 07:36 18.09.2020
4184 Rain 18 1007 82 10000 5.1 110 06:27 18.09.2020
4185 Clouds 19 1009 82 10000 3.1 130 02:22 18.09.2020
4186 Clouds 19 1009 88 10000 4.1 140 01:39 18.09.2020
4187 Clouds 19 1010 88 10000 2.6 150 23:52 17.09.2020
4188 Clouds 19 1010 82 10000 2.1 160 22:53 17.09.2020
4189 Clouds 19 1010 82 10000 1.5 210 22:33 17.09.2020
4190 Clouds 19 1010 82 10000 3.6 210 21:53 17.09.2020
4191 Clouds 19 1010 77 10000 3.6 220 21:26 17.09.2020
4192 Clouds 20 1010 60 10000 4.1 220 20:40 17.09.2020
4193 Clouds 21 1009 56 10000 5.1 230 19:52 17.09.2020
4194 Clouds 21 1009 56 10000 5.1 230 18:58 17.09.2020
4195 Clouds 21 1009 49 10000 5.1 240 18:31 17.09.2020
4196 Clouds 21 1010 56 10000 6.2 220 17:48 17.09.2020
4197 Clouds 22 1010 60 10000 6.2 230 17:22 17.09.2020
4198 Clouds 22 1010 68 10000 6.2 230 16:22 17.09.2020
4199 Clouds 21 1010 73 10000 7.7 220 15:43 17.09.2020
4200 Clouds 21 1010 78 10000 8.2 190 14:47 17.09.2020
4201 Clouds 22 1010 78 10000 8.2 190 14:25 17.09.2020
4202 Clouds 21 1010 78 10000 7.7 150 13:52 17.09.2020
4203 Clouds 21 1010 83 10000 5.7 150 13:22 17.09.2020
4204 Clouds 19 1010 100 10000 3.1 110 12:27 17.09.2020
4205 Clouds 18 1011 100 7000 3.6 90 11:37 17.09.2020
4206 Mist 18 1011 100 2500 5.7 60 10:48 17.09.2020
4207 Mist 18 1011 100 2500 5.7 60 10:29 17.09.2020
4208 Rain 18 1011 93 7000 5.7 60 09:51 17.09.2020
4209 Clouds 18 1011 93 10000 3.1 70 09:22 17.09.2020
4210 Clouds 19 1011 93 10000 1.5 50 08:40 17.09.2020
4211 Clouds 19 1011 93 10000 1.5 50 08:22 17.09.2020
4212 Rain 19 1011 93 10000 0.5 0 07:26 17.09.2020
4213 Rain 19 1011 88 10000 2.6 150 06:48 17.09.2020
4214 Clouds 19 1012 100 10000 2.1 120 05:22 17.09.2020
4215 Clouds 20 1014 93 10000 1 0 01:47 17.09.2020
4216 Clouds 20 1013 93 10000 1.5 80 01:28 17.09.2020
4217 Clouds 20 1013 93 10000 1.5 80 01:28 17.09.2020
4218 Clouds 20 1014 88 10000 2.1 240 00:34 17.09.2020
4219 Clouds 20 1015 88 10000 3.1 240 23:32 16.09.2020
4220 Clouds 20 1015 88 10000 3.1 240 22:44 16.09.2020
4221 Clouds 20 1015 88 10000 3.6 250 22:20 16.09.2020
4222 Clouds 21 1014 77 10000 4.1 240 21:33 16.09.2020
4223 Clouds 21 1015 83 10000 5.7 230 20:46 16.09.2020
4224 Clouds 21 1015 73 10000 5.1 210 20:27 16.09.2020
4225 Clouds 22 1015 64 10000 5.1 220 19:43 16.09.2020
4226 Clouds 24 1015 57 10000 6.2 210 17:26 16.09.2020
4227 Clouds 24 1016 57 10000 4.6 200 16:39 16.09.2020
4228 Clouds 24 1016 57 10000 3.1 160 15:53 16.09.2020
4229 Clouds 24 1016 57 10000 2.6 180 15:24 16.09.2020
4230 Clouds 23 1016 60 10000 3.1 0 14:48 16.09.2020
4231 Clouds 23 1017 69 10000 3.1 160 14:19 16.09.2020
4232 Clouds 21 1017 78 10000 4.1 130 12:56 16.09.2020
4233 Clouds 20 1018 82 10000 3.6 140 11:48 16.09.2020
4234 Clouds 20 1018 88 10000 3.1 130 10:46 16.09.2020
4235 Clouds 19 1018 93 10000 1.5 150 09:55 16.09.2020
4236 Clouds 19 1018 100 10000 2.1 130 09:33 16.09.2020
4237 Clouds 19 1018 93 7000 2.1 140 08:58 16.09.2020
4238 Clouds 19 1017 93 10000 2.6 70 07:53 16.09.2020
4239 Clouds 19 1018 100 10000 2.1 110 06:23 16.09.2020
4240 Clouds 20 1020 88 10000 4.1 230 00:27 16.09.2020
4241 Clouds 20 1020 88 10000 3.6 230 23:40 15.09.2020
4242 Clouds 20 1020 88 10000 4.6 240 22:52 15.09.2020
4243 Clouds 20 1020 88 10000 5.1 250 22:26 15.09.2020
4244 Clouds 21 1019 77 10000 4.6 240 21:42 15.09.2020
4245 Clouds 21 1019 68 10000 4.6 230 20:55 15.09.2020
4246 Clouds 22 1019 64 10000 5.1 220 20:23 15.09.2020
4247 Clouds 22 1019 69 10000 4.6 220 19:59 15.09.2020
4248 Clouds 23 1019 60 10000 4.6 240 19:25 15.09.2020
4249 Clouds 24 1020 53 10000 5.1 210 17:49 15.09.2020
4250 Clouds 23 1020 53 10000 5.1 240 16:55 15.09.2020
4251 Clouds 24 1020 50 10000 4.1 0 16:34 15.09.2020
4252 Clouds 23 1021 53 10000 4.6 200 15:31 15.09.2020
4253 Clouds 24 1021 61 10000 3.6 230 14:53 15.09.2020
4254 Clouds 23 1021 60 10000 4.1 190 13:38 15.09.2020
4255 Clouds 21 1021 78 10000 4.1 200 11:40 15.09.2020
4256 Clouds 20 1021 94 10000 1.5 140 09:23 15.09.2020
4257 Clouds 20 1020 93 10000 1.5 260 08:50 15.09.2020
4258 Clouds 20 1020 93 10000 2.1 210 08:23 15.09.2020
4259 Clouds 20 1020 88 10000 1.51 174 07:21 15.09.2020
4260 Clouds 20 1020 88 10000 3.1 230 03:33 15.09.2020
4261 Clouds 21 1019 88 10000 3.6 240 23:30 14.09.2020
4262 Clouds 21 1019 83 10000 4.6 240 22:28 14.09.2020
4263 Clouds 22 1019 73 10000 5.1 230 20:45 14.09.2020
4264 Clouds 23 1018 73 10000 5.7 230 19:49 14.09.2020
4265 Clouds 24 1018 61 10000 6.7 220 18:29 14.09.2020
4266 Clouds 24 1019 57 10000 7.2 210 16:23 14.09.2020
4267 Clouds 23 1019 60 10000 6.2 220 15:53 14.09.2020
4268 Clouds 24 1020 53 10000 4.6 210 14:24 14.09.2020
4269 Clouds 23 1020 50 10000 3.6 240 13:47 14.09.2020
4270 Clouds 21 1020 73 10000 1.5 0 11:30 14.09.2020
4271 Clouds 20 1020 88 10000 2.1 240 10:50 14.09.2020
4272 Clouds 18 1019 93 10000 2.1 250 08:44 14.09.2020
4273 Clouds 21 1019 77 10000 2.1 250 00:27 14.09.2020
4274 Clouds 21 1018 78 10000 3.6 270 21:53 13.09.2020
4275 Clouds 23 1017 69 10000 5.7 240 19:47 13.09.2020
4276 Clouds 25 1017 61 10000 7.7 210 16:34 13.09.2020
4277 Clouds 27 1017 51 10000 4.6 130 12:45 13.09.2020
4278 Clouds 24 1017 64 10000 2.1 70 10:39 13.09.2020
4279 Clouds 22 1016 72 10000 2.6 60 10:19 13.09.2020
4280 Clouds 22 1015 49 10000 1 0 06:56 13.09.2020
4281 Clouds 22 1016 41 10000 3.6 240 03:54 13.09.2020
4282 Clouds 26 1015 34 10000 4.1 280 21:20 12.09.2020
4283 Clouds 28 1014 38 10000 3.6 260 19:44 12.09.2020
4284 Clouds 29 1014 24 10000 2.6 230 18:25 12.09.2020
4285 Clouds 30 1014 24 10000 2.1 120 17:49 12.09.2020
4286 Clouds 32 1014 29 10000 1.5 0 16:57 12.09.2020
4287 Clouds 28 1014 33 10000 2.6 80 15:47 12.09.2020
4288 Clouds 28 1015 37 10000 2.6 80 14:34 12.09.2020
4289 Clouds 25 1015 69 10000 2.6 70 12:34 12.09.2020
4290 Clouds 22 1014 60 10000 2.1 60 10:22 12.09.2020
4291 Clouds 20 1013 49 10000 0.48 13 05:24 12.09.2020
4292 Clouds 21 1013 46 10000 1 0 04:58 12.09.2020
4293 Clouds 23 1013 43 10000 3.6 320 22:51 11.09.2020
4294 Clouds 25 1012 41 10000 4.1 310 21:39 11.09.2020
4295 Clouds 27 1012 34 10000 3.6 300 20:43 11.09.2020
4296 Clouds 28 1011 39 10000 3.58 309 19:21 11.09.2020
4297 Clear 31 1012 33 10000 3.13 263 17:44 11.09.2020
4298 Clear 29 1013 33 10000 2.6 80 16:21 11.09.2020
4299 Clouds 26 1014 47 10000 2.1 110 13:38 11.09.2020
4300 Clouds 22 1014 44 10000 1 0 10:51 11.09.2020
4301 Clouds 20 1013 52 10000 0.5 0 08:38 11.09.2020
4302 Clouds 20 1013 43 10000 1.5 300 07:31 11.09.2020
4303 Clouds 24 1015 41 10000 5.7 310 21:29 10.09.2020
4304 Clouds 28 1015 28 10000 3.6 310 19:32 10.09.2020
4305 Clouds 30 1016 27 10000 4.6 230 17:21 10.09.2020
4306 Clouds 30 1017 29 10000 3.1 220 15:54 10.09.2020
4307 Clouds 25 1018 66 10000 0.89 72 12:56 10.09.2020
4308 Clouds 22 1019 57 10000 1 0 11:32 10.09.2020
4309 Clouds 19 1018 59 10000 1 0 08:49 10.09.2020
4310 Clouds 20 1018 60 10000 2.1 300 07:45 10.09.2020
4311 Clouds 21 1019 53 10000 1.34 301 23:23 09.09.2020
4312 Clouds 24 1018 54 10000 2.68 294 20:51 09.09.2020
4313 Clouds 26 1020 57 10000 6.2 230 17:25 09.09.2020
4314 Clouds 26 1020 57 10000 6.2 230 16:45 09.09.2020
4315 Clouds 23 1020 65 10000 6.2 240 14:36 09.09.2020
4316 Clouds 20 1020 88 10000 3.6 190 10:35 09.09.2020
4317 Clouds 20 1019 72 10000 2.1 0 09:52 09.09.2020
4318 Clouds 19 1019 77 10000 1 0 08:22 09.09.2020
4319 Clouds 18 1018 88 10000 1 0 06:30 09.09.2020
4320 Clouds 20 1018 68 10000 0.5 0 04:41 09.09.2020
4321 Clouds 19 1018 68 10000 0.5 0 04:41 09.09.2020
4322 Clouds 25 1017 29 10000 4.6 320 23:36 08.09.2020
4323 Clouds 25 1017 29 10000 4.6 320 23:36 08.09.2020
4324 Clouds 25 1017 29 10000 4.6 320 23:36 08.09.2020
4325 Clouds 27 1017 28 10000 4.1 310 21:51 08.09.2020
4326 Clouds 27 1017 26 10000 4.6 300 21:33 08.09.2020
4327 Clouds 28 1016 23 10000 3.6 290 20:48 08.09.2020
4328 Clear 31 1016 19 10000 5.1 190 18:19 08.09.2020
4329 Clear 30 1017 23 10000 5.7 40 14:54 08.09.2020
4330 Clear 25 1018 27 10000 7.2 50 11:40 08.09.2020
4331 Clear 24 1017 29 10000 6.7 40 10:54 08.09.2020
4332 Clear 23 1017 28 10000 5.7 40 09:43 08.09.2020
4333 Clear 23 1017 30 10000 4.6 40 09:23 08.09.2020
4334 Clear 22 1016 31 10000 4.1 30 07:39 08.09.2020
4335 Clouds 25 1016 38 10000 5.1 330 23:50 07.09.2020
4336 Clouds 26 1015 39 10000 6.2 320 22:37 07.09.2020
4337 Clear 31 1015 18 10000 4.1 320 19:56 07.09.2020
4338 Clear 33 1015 26 10000 2.6 160 16:31 07.09.2020
4339 Clear 29 1016 33 10000 2.6 80 13:32 07.09.2020
4340 Clear 27 1017 42 10000 2.6 60 12:22 07.09.2020
4341 Clear 26 1016 60 10000 3.1 60 11:50 07.09.2020
4342 Clear 24 1016 73 10000 2.6 60 11:21 07.09.2020
4343 Clear 23 1016 73 10000 1.5 40 10:26 07.09.2020
4344 Clear 23 1015 41 10000 1.5 0 03:30 07.09.2020
4345 Clear 27 1014 37 10000 4.6 310 21:54 06.09.2020
4346 Clear 27 1013 37 10000 5.7 310 21:33 06.09.2020
4347 Clear 28 1014 33 10000 4.6 300 20:35 06.09.2020
4348 Clear 29 1014 27 10000 6.2 230 19:18 06.09.2020
4349 Clear 29 1014 27 10000 3.6 210 15:55 06.09.2020
4350 Clear 28 1015 35 10000 3.1 70 14:25 06.09.2020
4351 Clear 27 1015 39 10000 3.1 60 13:42 06.09.2020
4352 Clear 25 1015 53 10000 2.1 60 11:37 06.09.2020
4353 Clear 20 1014 77 10000 1.5 110 08:58 06.09.2020
4354 Clear 23 1015 33 10000 4.6 320 00:34 06.09.2020
4355 Clear 24 1015 38 10000 5.1 320 22:38 05.09.2020
4356 Clear 28 1014 48 10000 3.1 260 18:21 05.09.2020
4357 Clear 29 1017 40 10000 2.1 120 15:20 05.09.2020
4358 Clear 26 1018 45 10000 2.6 90 13:53 05.09.2020
4359 Clear 24 1019 47 10000 1.5 10 12:42 05.09.2020
4360 Clear 22 1018 60 10000 3.1 340 11:42 05.09.2020
4361 Clouds 20 1019 68 10000 4.1 330 10:38 05.09.2020
4362 Clouds 18 1018 77 10000 5.1 320 09:27 05.09.2020
4363 Clear 19 1018 77 10000 5.7 320 07:37 05.09.2020
4364 Clear 21 1020 64 10000 6.2 330 23:56 04.09.2020
4365 Clear 28 1018 32 10000 6.2 320 19:56 04.09.2020
4366 Clear 30 1018 29 10000 7.2 320 19:26 04.09.2020
4367 Clear 33 1018 19 10000 1.5 0 17:56 04.09.2020
4368 Clear 32 1020 25 10000 3.6 90 15:37 04.09.2020
4369 Clear 30 1020 28 10000 3.1 80 14:46 04.09.2020
4370 Clear 22 1020 60 10000 2.1 50 10:56 04.09.2020
4371 Clear 22 1019 31 10000 4.1 320 07:55 04.09.2020
4372 Clear 22 1018 29 10000 2.6 310 05:57 04.09.2020
4373 Clear 26 1018 30 10000 7.2 330 22:50 03.09.2020
4374 Clear 27 1017 30 10000 6.2 320 21:48 03.09.2020
4375 Clear 29 1017 28 10000 5.7 320 20:58 03.09.2020
4376 Clear 29 1017 28 10000 5.1 310 20:26 03.09.2020
4377 Clear 33 1017 21 10000 3.6 280 18:24 03.09.2020
4378 Clear 33 1018 14 10000 2.6 140 16:34 03.09.2020
4379 Clear 31 1018 19 10000 2.1 80 15:19 03.09.2020
4380 Clear 26 1019 39 10000 3.6 70 12:28 03.09.2020
4381 Clear 22 1018 46 10000 3.6 70 10:50 03.09.2020
4382 Clear 20 1016 35 10000 1.5 330 08:40 03.09.2020
4383 Clear 22 1016 40 10000 3.6 310 00:20 03.09.2020
4384 Clear 26 1015 41 10000 5.1 320 21:42 02.09.2020
4385 Clear 27 1015 35 10000 4.1 300 20:28 02.09.2020
4386 Clear 29 1014 29 10000 1.5 0 17:59 02.09.2020
4387 Clear 29 1015 30 10000 2.6 0 15:56 02.09.2020
4388 Clear 23 1015 53 10000 5.1 50 12:26 02.09.2020
4389 Clouds 18 1013 88 10000 2.6 10 08:54 02.09.2020
4390 Clouds 18 1013 88 10000 7.2 330 07:43 02.09.2020
4391 Clouds 18 1015 77 10000 4.1 360 00:23 02.09.2020
4392 Clouds 19 1015 63 10000 8.7 340 22:26 01.09.2020
4393 Clouds 22 1014 56 10000 7.7 320 19:52 01.09.2020
4394 Clouds 24 1014 53 10000 8.2 330 18:48 01.09.2020
4395 Clouds 24 1014 44 10000 6.2 320 18:19 01.09.2020
4396 Clouds 26 1014 47 10000 9.3 360 16:40 01.09.2020
4397 Clouds 26 1014 44 10000 7.7 350 15:57 01.09.2020
4398 Clouds 24 1015 50 10000 8.2 340 14:30 01.09.2020
4399 Clouds 20 1015 60 10000 2.6 0 11:21 01.09.2020
4400 Clouds 18 1015 63 10000 5.7 320 09:46 01.09.2020
4401 Clouds 18 1015 59 10000 6.2 330 08:41 01.09.2020
4402 Clouds 22 1016 30 10000 5.1 320 23:39 31.08.2020
4403 Clouds 24 1015 23 10000 4.6 320 21:45 31.08.2020
4404 Clear 29 1015 18 10000 4.6 330 18:27 31.08.2020
4405 Clear 30 1016 25 10000 3.6 60 17:18 31.08.2020
4406 Clear 29 1017 23 10000 2.6 0 15:35 31.08.2020
4407 Clouds 23 1018 27 10000 4.1 80 12:29 31.08.2020
4408 Clouds 18 1017 42 10000 3.6 30 09:40 31.08.2020
4409 Clouds 16 1016 62 10000 1 0 06:58 31.08.2020
4410 Clouds 18 1016 52 10000 4.1 350 02:30 31.08.2020
4411 Clear 19 1016 48 10000 6.7 330 23:21 30.08.2020
4412 Clear 19 1015 52 10000 8.7 330 21:51 30.08.2020
4413 Clear 23 1014 40 10000 7.2 320 19:24 30.08.2020
4414 Clear 23 1014 33 10000 7.7 340 18:43 30.08.2020
4415 Clear 24 1014 33 10000 7.2 330 17:34 30.08.2020
4416 Clear 25 1015 31 10000 3.1 0 15:25 30.08.2020
4417 Clear 24 1015 31 10000 3.1 0 14:53 30.08.2020
4418 Clear 23 1015 35 10000 4.1 360 13:22 30.08.2020
4419 Clear 20 1015 49 10000 5.7 330 11:40 30.08.2020
4420 Clear 17 1015 63 10000 3.6 310 10:21 30.08.2020
4421 Clear 16 1014 63 10000 3.6 320 08:59 30.08.2020
4422 Clouds 18 1015 68 10000 8.7 330 00:28 30.08.2020
4423 Clouds 18 1013 72 10000 11.3 340 22:36 29.08.2020
4424 Clouds 20 1013 56 10000 10.3 340 20:27 29.08.2020
4425 Clouds 22 1013 49 10000 10.8 340 18:49 29.08.2020
4426 Clouds 22 1013 49 10000 9.3 340 17:54 29.08.2020
4427 Clear 23 1013 38 10000 9.3 340 16:50 29.08.2020
4428 Clouds 23 1013 38 10000 9.3 340 15:56 29.08.2020
4429 Clouds 23 1013 38 10000 9.3 340 15:56 29.08.2020
4430 Clouds 21 1014 52 10000 10.3 360 12:32 29.08.2020
4431 Clouds 17 1013 82 10000 3.6 360 08:59 29.08.2020
4432 Clouds 17 1013 82 10000 3.1 360 08:18 29.08.2020
4433 Clouds 19 1014 68 10000 6.2 340 22:44 28.08.2020
4434 Clouds 20 1014 60 10000 8.2 340 21:32 28.08.2020
4435 Clouds 22 1014 49 10000 9.3 330 19:22 28.08.2020
4436 Clouds 23 1014 43 10000 8.7 340 18:45 28.08.2020
4437 Clouds 23 1014 53 10000 8.2 330 17:32 28.08.2020
4438 Clouds 24 1014 47 10000 7.7 340 16:24 28.08.2020
4439 Clouds 24 1016 53 10000 8.2 350 14:46 28.08.2020
4440 Clouds 24 1016 53 10000 8.2 350 14:25 28.08.2020
4441 Clouds 23 1016 60 10000 6.7 320 13:51 28.08.2020
4442 Drizzle 22 1016 94 9000 5.7 340 11:32 28.08.2020
4443 Clouds 22 1015 88 10000 2.6 330 09:29 28.08.2020
4444 Clouds 21 1015 88 10000 4.1 340 08:38 28.08.2020
4445 Clouds 21 1016 83 10000 5.1 360 05:40 28.08.2020
4446 Clouds 22 1018 83 10000 5.1 350 00:49 28.08.2020
4447 Clouds 22 1019 78 10000 4.6 350 23:39 27.08.2020
4448 Clouds 22 1018 78 10000 9.8 330 21:24 27.08.2020
4449 Clouds 23 1018 69 10000 8.7 320 20:31 27.08.2020
4450 Clouds 24 1018 69 10000 8.7 330 19:45 27.08.2020
4451 Clouds 25 1018 65 10000 8.7 330 17:48 27.08.2020
4452 Clouds 26 1018 65 10000 9.3 330 17:18 27.08.2020
4453 Clouds 28 1018 58 10000 8.7 330 16:22 27.08.2020
4454 Clouds 27 1020 61 10000 7.2 340 13:55 27.08.2020
4455 Clouds 23 1020 78 10000 5.1 340 11:41 27.08.2020
4456 Clouds 21 1020 88 10000 6.2 340 10:34 27.08.2020
4457 Clouds 20 1020 94 10000 5.1 10 09:26 27.08.2020
4458 Clouds 20 1019 94 10000 4.1 340 06:47 27.08.2020
4459 Clouds 21 1020 88 10000 7.2 330 02:41 27.08.2020
4460 Clear 23 1019 69 10000 5.1 330 22:45 26.08.2020
4461 Clear 25 1018 65 10000 4.1 320 22:20 26.08.2020
4462 Clouds 28 1018 51 10000 3.6 310 19:59 26.08.2020
4463 Clouds 28 1018 51 10000 6.7 320 19:25 26.08.2020
4464 Clouds 31 1018 43 10000 6.2 330 17:22 26.08.2020
4465 Clear 31 1019 38 10000 3.1 320 14:58 26.08.2020
4466 Clear 28 1019 48 10000 4.6 350 13:23 26.08.2020
4467 Clouds 20 1018 82 10000 4.6 330 09:29 26.08.2020
4468 Clouds 20 1017 82 10000 4.6 330 07:19 26.08.2020
4469 Clouds 22 1017 78 10000 4.6 340 22:42 25.08.2020
4470 Clouds 24 1016 69 10000 3.6 320 21:30 25.08.2020
4471 Clouds 24 1016 61 10000 4.6 330 20:53 25.08.2020
4472 Clouds 26 1016 54 10000 4.1 310 20:24 25.08.2020
4473 Clouds 27 1016 47 10000 5.7 300 19:46 25.08.2020
4474 Clear 28 1015 33 10000 6.7 330 18:43 25.08.2020
4475 Clear 30 1015 33 10000 4.6 320 17:32 25.08.2020
4476 Clear 31 1016 27 10000 4.1 310 16:23 25.08.2020
4477 Clear 30 1016 25 10000 4.1 340 14:44 25.08.2020
4478 Clear 28 1016 35 10000 3.1 300 13:42 25.08.2020
4479 Clear 26 1016 44 10000 2.6 310 12:21 25.08.2020
4480 Clear 22 1016 53 10000 3.6 340 10:57 25.08.2020
4481 Clouds 19 1014 72 10000 3.6 320 07:54 25.08.2020
4482 Clouds 19 1014 72 10000 4.1 310 07:27 25.08.2020
4483 Clouds 20 1014 64 10000 4.1 320 06:54 25.08.2020
4484 Clouds 20 1014 64 10000 4.1 310 06:21 25.08.2020
4485 Clouds 20 1014 64 10000 2.6 310 05:44 25.08.2020
4486 Clouds 20 1014 64 10000 2.6 310 05:20 25.08.2020
4487 Clouds 20 1015 72 10000 1 0 03:45 25.08.2020
4488 Clouds 20 1015 72 10000 1 0 03:27 25.08.2020
4489 Clouds 21 1015 72 10000 3.6 340 02:44 25.08.2020
4490 Clouds 24 1014 60 10000 6.7 300 22:42 24.08.2020
4491 Clouds 24 1013 64 10000 7.2 310 21:50 24.08.2020
4492 Clouds 28 1013 42 10000 5.7 310 20:38 24.08.2020
4493 Clouds 29 1013 40 10000 5.7 310 19:51 24.08.2020
4494 Clouds 32 1013 31 10000 6.2 340 17:56 24.08.2020
4495 Clear 31 1014 36 10000 4.6 310 17:33 24.08.2020
4496 Clear 31 1014 41 10000 3.1 0 16:33 24.08.2020
4497 Clear 32 1015 27 10000 2.6 100 15:24 24.08.2020
4498 Clear 30 1015 38 10000 2.1 0 14:31 24.08.2020
4499 Clear 27 1016 40 10000 2.1 0 13:28 24.08.2020
4500 Clear 26 1016 61 10000 2.1 40 12:20 24.08.2020
4501 Clear 26 1016 61 10000 2.1 40 12:20 24.08.2020
4502 Clear 25 1016 65 10000 2.1 310 11:53 24.08.2020
4503 Clear 24 1016 69 10000 3.1 340 11:32 24.08.2020
4504 Clouds 21 1016 78 10000 4.1 340 10:34 24.08.2020
4505 Clouds 19 1016 82 10000 4.1 310 08:53 24.08.2020
4506 Clouds 19 1016 88 10000 4.6 320 07:52 24.08.2020
4507 Clouds 20 1019 82 10000 8.2 330 00:41 24.08.2020
4508 Clouds 21 1019 82 10000 7.7 330 00:23 24.08.2020
4509 Clouds 21 1019 82 10000 7.7 330 23:43 23.08.2020
4510 Clear 22 1018 64 10000 8.2 320 22:21 23.08.2020
4511 Clear 25 1018 50 10000 8.2 320 19:56 23.08.2020
4512 Clear 26 1019 42 10000 8.2 320 18:48 23.08.2020
4513 Clear 26 1019 39 10000 6.7 310 17:53 23.08.2020
4514 Clear 27 1019 39 10000 6.7 310 17:53 23.08.2020
4515 Clear 28 1020 39 10000 6.2 330 16:47 23.08.2020
4516 Clear 28 1021 32 10000 6.2 340 15:36 23.08.2020
4517 Clear 27 1021 26 10000 7.7 350 14:50 23.08.2020
4518 Clear 26 1022 39 10000 8.2 330 13:20 23.08.2020
4519 Clear 23 1022 53 10000 5.7 350 11:20 23.08.2020
4520 Clouds 21 1022 72 10000 6.7 350 10:37 23.08.2020
4521 Clear 18 1021 82 10000 6.2 330 08:36 23.08.2020
4522 Clear 18 1021 82 10000 2.1 310 06:39 23.08.2020
4523 Clear 19 1023 77 10000 8.2 340 00:46 23.08.2020
4524 Clear 20 1023 77 10000 8.7 340 00:26 23.08.2020
4525 Clear 20 1023 77 10000 7.7 330 23:51 22.08.2020
4526 Clear 20 1022 68 10000 8.7 330 22:53 22.08.2020
4527 Clear 24 1021 41 10000 5.7 320 20:44 22.08.2020
4528 Clear 26 1021 36 10000 6.7 330 19:35 22.08.2020
4529 Clear 28 1022 23 10000 7.7 330 17:46 22.08.2020
4530 Clear 28 1022 23 10000 7.7 330 17:27 22.08.2020
4531 Clear 27 1023 42 10000 5.1 330 15:47 22.08.2020
4532 Clear 25 1024 47 10000 4.6 320 13:40 22.08.2020
4533 Clouds 23 1023 60 10000 6.7 350 11:50 22.08.2020
4534 Clear 21 1023 72 10000 4.6 350 10:29 22.08.2020
4535 Clear 19 1023 77 10000 4.6 340 09:51 22.08.2020
4536 Clouds 18 1022 88 10000 5.7 330 07:39 22.08.2020
4537 Clouds 20 1021 82 10000 5.1 320 01:33 22.08.2020
4538 Clouds 22 1019 60 10000 5.1 320 21:43 21.08.2020
4539 Clouds 23 1019 64 10000 5.7 320 20:51 21.08.2020
4540 Clouds 26 1018 41 10000 4.1 310 17:41 21.08.2020
4541 Clouds 25 1018 50 10000 1.5 0 14:48 21.08.2020
4542 Clouds 24 1018 56 10000 3.1 310 13:55 21.08.2020
4543 Clouds 22 1016 68 10000 3.1 350 11:47 21.08.2020
4544 Clouds 21 1016 77 10000 2.6 330 11:21 21.08.2020
4545 Clouds 20 1014 82 10000 1.5 340 07:49 21.08.2020
4546 Clouds 20 1012 94 10000 3.1 300 00:20 21.08.2020
4547 Rain 20 1012 100 10000 3.1 300 23:18 20.08.2020
4548 Rain 21 1010 100 6000 7.2 220 20:42 20.08.2020
4549 Drizzle 22 1010 100 6000 7.2 210 18:47 20.08.2020
4550 Rain 22 1010 94 9000 7.2 210 17:58 20.08.2020
4551 Clouds 23 1010 94 10000 5.7 200 15:18 20.08.2020
4552 Clouds 21 1010 94 10000 5.7 200 14:53 20.08.2020
4553 Drizzle 22 1009 94 1500 5.7 210 12:19 20.08.2020
4554 Clouds 21 1009 100 6000 5.7 200 11:38 20.08.2020
4555 Fog 21 1009 100 500 5.1 210 10:22 20.08.2020
4556 Drizzle 21 1009 100 1400 4.6 210 08:51 20.08.2020
4557 Drizzle 21 1008 100 9000 4.6 220 07:45 20.08.2020
4558 Clouds 21 1009 100 9000 4.6 220 04:54 20.08.2020
4559 Clouds 21 1009 100 9000 4.6 220 04:31 20.08.2020
4560 Clouds 21 1010 88 10000 5.1 230 00:44 20.08.2020
4561 Clouds 21 1010 88 10000 4.6 230 00:18 20.08.2020
4562 Clouds 22 1010 83 10000 5.7 240 21:18 19.08.2020
4563 Clouds 23 1010 78 10000 6.7 210 19:58 19.08.2020
4564 Clouds 24 1011 65 10000 6.2 230 17:55 19.08.2020
4565 Clouds 24 1011 65 10000 6.2 230 17:33 19.08.2020
4566 Clouds 25 1012 61 10000 5.1 230 15:39 19.08.2020
4567 Clouds 24 1012 61 10000 5.1 220 13:56 19.08.2020
4568 Clouds 23 1012 64 10000 4.6 230 12:59 19.08.2020
4569 Clouds 21 1012 73 10000 2.6 200 10:42 19.08.2020
4570 Clouds 21 1012 73 10000 2.6 200 10:23 19.08.2020
4571 Clouds 21 1012 77 10000 1 0 09:43 19.08.2020
4572 Clouds 20 1013 88 10000 1.5 280 06:54 19.08.2020
4573 Clouds 22 1015 73 10000 3.1 280 22:20 18.08.2020
4574 Clouds 22 1015 73 10000 3.1 280 21:48 18.08.2020
4575 Clouds 24 1015 64 10000 4.1 270 20:59 18.08.2020
4576 Clouds 24 1015 57 10000 4.1 270 20:41 18.08.2020
4577 Clouds 24 1015 57 10000 4.1 270 20:23 18.08.2020
4578 Clear 26 1015 42 10000 4.6 260 18:21 18.08.2020
4579 Clouds 27 1015 45 10000 3.6 0 17:42 18.08.2020
4580 Clouds 27 1016 51 10000 5.7 230 15:59 18.08.2020
4581 Clouds 26 1017 54 10000 1.5 0 14:38 18.08.2020
4582 Clouds 24 1017 69 10000 2.6 270 13:22 18.08.2020
4583 Clouds 23 1017 78 10000 2.6 280 12:32 18.08.2020
4584 Clouds 22 1017 88 10000 1.5 290 10:34 18.08.2020
4585 Clouds 21 1016 94 10000 2.1 230 08:20 18.08.2020
4586 Clouds 21 1016 83 10000 2.1 250 07:41 18.08.2020
4587 Clouds 21 1018 88 10000 1.5 270 02:33 18.08.2020
4588 Clouds 22 1018 83 10000 2.6 310 23:47 17.08.2020
4589 Clouds 22 1018 83 10000 3.1 310 23:24 17.08.2020
4590 Clouds 22 1017 78 10000 4.1 280 21:49 17.08.2020
4591 Clouds 24 1017 65 10000 4.6 270 20:42 17.08.2020
4592 Clouds 24 1017 65 10000 4.6 270 19:51 17.08.2020
4593 Clouds 25 1017 57 10000 5.1 270 17:38 17.08.2020
4594 Clouds 25 1017 65 10000 6.2 230 15:39 17.08.2020
4595 Clouds 25 1017 65 10000 5.1 210 14:58 17.08.2020
4596 Clouds 24 1018 65 10000 3.1 0 13:54 17.08.2020
4597 Clouds 23 1018 64 10000 3.1 270 12:25 17.08.2020
4598 Clouds 23 1018 73 10000 3.6 260 11:41 17.08.2020
4599 Clouds 22 1018 73 10000 3.6 260 11:21 17.08.2020
4600 Clouds 21 1018 83 10000 2.6 250 10:20 17.08.2020
4601 Clouds 19 1017 93 10000 1 230 07:59 17.08.2020
4602 Clouds 20 1017 88 10000 1.5 290 06:47 17.08.2020
4603 Clouds 21 1018 88 10000 3.6 240 00:19 17.08.2020
4604 Rain 21 1018 78 10000 3.6 270 22:19 16.08.2020
4605 Clouds 22 1018 69 10000 4.1 290 20:53 16.08.2020
4606 Clear 23 1017 62 10000 5.81 301 18:38 16.08.2020
4607 Clear 23 1017 64 10000 4.92 297 17:57 16.08.2020
4608 Clear 23 1018 57 10000 4.92 314 16:34 16.08.2020
4609 Clear 23 1018 54 10000 4.92 301 15:45 16.08.2020
4610 Clear 23 1018 55 10000 4.92 286 15:18 16.08.2020
4611 Clear 23 1018 61 10000 0.45 326 12:51 16.08.2020
4612 Clear 22 1019 63 10000 4.47 321 12:28 16.08.2020
4613 Clear 21 1018 70 10000 0.89 303 11:25 16.08.2020
4614 Clear 20 1018 76 10000 2.24 308 10:51 16.08.2020
4615 Clear 20 1018 83 10000 1.34 312 10:18 16.08.2020
4616 Clouds 18 1018 88 10000 1 290 08:32 16.08.2020
4617 Clouds 17 1018 93 10000 1 300 07:21 16.08.2020
4618 Clouds 18 1018 88 10000 1.5 310 05:43 16.08.2020
4619 Clouds 20 1018 77 10000 3.1 310 22:49 15.08.2020
4620 Clouds 22 1018 60 10000 5.7 300 20:39 15.08.2020
4621 Clouds 22 1017 56 10000 5.7 290 20:21 15.08.2020
4622 Clouds 23 1017 50 10000 5.7 300 19:19 15.08.2020
4623 Clouds 23 1018 50 10000 4.6 290 16:49 15.08.2020
4624 Clouds 24 1018 50 10000 3.6 290 16:20 15.08.2020
4625 Clouds 23 1018 50 10000 3.6 290 16:20 15.08.2020
4626 Clouds 23 1018 50 10000 3.6 290 16:20 15.08.2020
4627 Clouds 24 1018 50 10000 3.6 290 16:20 15.08.2020
4628 Clouds 24 1018 50 10000 3.6 290 16:20 15.08.2020
4629 Clouds 23 1018 50 10000 3.6 290 16:20 15.08.2020
4630 Clouds 24 1018 50 10000 3.6 290 16:20 15.08.2020
4631 Clouds 24 1018 50 10000 3.6 290 16:20 15.08.2020
4632 Clouds 24 1018 50 10000 3.6 290 16:20 15.08.2020
4633 Clouds 23 1018 56 10000 4.6 310 14:51 15.08.2020
4634 Clouds 22 1019 68 10000 4.1 270 13:28 15.08.2020
4635 Clouds 22 1018 64 10000 4.1 310 12:31 15.08.2020
4636 Clouds 21 1018 64 10000 4.1 300 11:31 15.08.2020
4637 Clouds 20 1018 72 10000 3.1 300 10:57 15.08.2020
4638 Clouds 20 1018 72 10000 3.1 300 10:39 15.08.2020
4639 Clouds 19 1017 82 10000 2.1 280 09:34 15.08.2020
4640 Clouds 19 1017 82 10000 2.6 300 08:55 15.08.2020
4641 Clouds 18 1017 88 10000 3.1 300 08:20 15.08.2020
4642 Clouds 19 1018 88 10000 2.1 300 01:59 15.08.2020
4643 Clouds 19 1018 77 10000 3.6 310 23:52 14.08.2020
4644 Clouds 20 1017 72 10000 4.1 320 22:45 14.08.2020
4645 Clouds 22 1017 53 10000 5.7 310 20:38 14.08.2020
4646 Clouds 24 1016 44 10000 6.2 320 18:53 14.08.2020
4647 Clouds 25 1017 41 10000 6.2 320 16:32 14.08.2020
4648 Clouds 24 1017 50 10000 6.7 340 14:53 14.08.2020
4649 Clouds 24 1017 56 10000 6.2 310 13:58 14.08.2020
4650 Clouds 23 1017 56 10000 5.1 320 13:27 14.08.2020
4651 Clouds 20 1017 72 10000 5.1 320 11:28 14.08.2020
4652 Clouds 18 1017 88 10000 4.6 330 08:54 14.08.2020
4653 Clouds 17 1017 88 10000 2.1 330 06:29 14.08.2020
4654 Clouds 19 1019 82 10000 3.6 320 00:49 14.08.2020
4655 Clouds 19 1019 82 10000 5.1 330 00:27 14.08.2020
4656 Clouds 20 1018 68 10000 4.1 320 22:52 13.08.2020
4657 Clear 21 1018 60 10000 5.7 330 21:47 13.08.2020
4658 Clear 22 1017 56 10000 7.2 340 21:18 13.08.2020
4659 Clear 23 1017 50 10000 6.2 320 20:19 13.08.2020
4660 Clear 25 1017 47 10000 6.7 310 18:30 13.08.2020
4661 Clear 25 1017 44 10000 6.7 330 17:23 13.08.2020
4662 Clear 26 1018 44 10000 5.7 340 14:51 13.08.2020
4663 Clouds 24 1018 56 10000 6.7 350 12:56 13.08.2020
4664 Clouds 22 1018 64 10000 7.2 350 12:29 13.08.2020
4665 Clouds 20 1018 77 10000 4.1 350 10:30 13.08.2020
4666 Clouds 18 1017 88 10000 5.7 350 08:28 13.08.2020
4667 Clouds 18 1017 88 10000 7.7 340 07:36 13.08.2020
4668 Clouds 19 1016 82 10000 5.7 330 23:37 12.08.2020
4669 Clouds 19 1016 82 10000 6.2 330 22:39 12.08.2020
4670 Clouds 20 1016 77 10000 5.7 330 21:59 12.08.2020
4671 Clouds 20 1016 77 10000 6.7 320 21:29 12.08.2020
4672 Clouds 21 1016 83 10000 5.7 320 20:55 12.08.2020
4673 Clouds 21 1016 83 10000 5.7 320 20:36 12.08.2020
4674 Clouds 22 1016 83 10000 5.7 310 20:18 12.08.2020
4675 Clouds 22 1016 69 10000 4.6 300 18:27 12.08.2020
4676 Clouds 23 1016 73 10000 5.7 310 17:31 12.08.2020
4677 Clouds 22 1016 78 10000 6.2 270 15:22 12.08.2020
4678 Clouds 22 1016 73 10000 4.6 270 14:51 12.08.2020
4679 Clouds 21 1016 83 10000 3.6 300 13:31 12.08.2020
4680 Clouds 20 1016 94 10000 3.1 310 12:28 12.08.2020
4681 Drizzle 19 1015 100 8000 1.5 250 10:52 12.08.2020
4682 Drizzle 19 1015 93 8000 3.1 250 09:39 12.08.2020
4683 Drizzle 19 1014 93 9000 2.6 290 01:56 12.08.2020
4684 Drizzle 20 1014 82 10000 3.6 320 22:52 11.08.2020
4685 Clouds 20 1013 88 10000 3.6 300 22:21 11.08.2020
4686 Clouds 20 1013 88 10000 3.6 300 21:40 11.08.2020
4687 Drizzle 20 1013 88 10000 4.1 290 21:19 11.08.2020
4688 Clouds 21 1012 73 10000 4.1 290 19:32 11.08.2020
4689 Clouds 21 1012 73 10000 5.1 290 18:37 11.08.2020
4690 Clouds 23 1012 69 10000 4.1 290 17:26 11.08.2020
4691 Clouds 24 1013 64 10000 4.6 300 16:26 11.08.2020
4692 Clouds 23 1013 64 10000 4.1 320 15:22 11.08.2020
4693 Clouds 23 1013 64 10000 4.1 320 14:43 11.08.2020
4694 Clouds 22 1012 64 10000 3.1 320 12:55 11.08.2020
4695 Clouds 22 1012 64 10000 3.1 320 12:32 11.08.2020
4696 Clouds 21 1012 77 10000 3.1 310 11:40 11.08.2020
4697 Clouds 20 1012 77 10000 3.1 320 10:42 11.08.2020
4698 Clouds 19 1012 88 10000 2.1 330 08:55 11.08.2020
4699 Clouds 19 1011 82 10000 2.6 290 07:23 11.08.2020
4700 Clouds 19 1011 82 10000 4.1 320 05:48 11.08.2020
4701 Clouds 19 1012 82 10000 4.1 320 03:19 11.08.2020
4702 Clouds 19 1012 82 10000 5.1 320 02:45 11.08.2020
4703 Clouds 19 1012 82 10000 3.6 310 02:20 11.08.2020
4704 Clouds 20 1012 82 10000 4.6 330 00:34 11.08.2020
4705 Clouds 20 1012 77 10000 6.7 340 23:28 10.08.2020
4706 Clouds 21 1011 73 10000 5.7 320 21:27 10.08.2020
4707 Clouds 21 1011 64 10000 6.2 310 20:53 10.08.2020
4708 Clouds 23 1011 60 10000 6.2 310 19:40 10.08.2020
4709 Clouds 24 1011 60 10000 6.2 310 19:19 10.08.2020
4710 Clouds 24 1011 57 10000 5.7 320 18:43 10.08.2020
4711 Clouds 25 1013 50 10000 4.6 350 15:55 10.08.2020
4712 Clouds 24 1013 64 10000 5.7 340 14:54 10.08.2020
4713 Clouds 21 1014 77 10000 5.1 330 12:48 10.08.2020
4714 Clouds 20 1014 82 10000 4.6 340 11:27 10.08.2020
4715 Clouds 19 1014 82 10000 5.7 340 10:35 10.08.2020
4716 Clouds 19 1014 77 10000 4.1 330 09:42 10.08.2020
4717 Clouds 19 1013 77 10000 5.1 340 08:18 10.08.2020
4718 Clouds 20 1015 77 10000 5.7 330 22:38 09.08.2020
4719 Clouds 21 1015 64 10000 6.2 320 21:20 09.08.2020
4720 Clouds 23 1015 57 10000 6.7 320 19:45 09.08.2020
4721 Clouds 24 1015 53 10000 6.2 320 19:26 09.08.2020
4722 Clouds 25 1015 50 10000 6.7 340 18:20 09.08.2020
4723 Clouds 25 1016 53 10000 5.7 320 17:39 09.08.2020
4724 Clear 25 1016 53 10000 6.2 330 17:19 09.08.2020
4725 Clouds 24 1016 53 10000 5.1 310 15:23 09.08.2020
4726 Clouds 24 1017 53 10000 6.2 340 14:33 09.08.2020
4727 Clouds 23 1017 64 10000 6.7 330 13:29 09.08.2020
4728 Clouds 23 1017 68 10000 6.2 320 12:51 09.08.2020
4729 Clouds 22 1017 68 10000 5.1 330 11:43 09.08.2020
4730 Clouds 20 1017 77 10000 4.6 320 10:29 09.08.2020
4731 Clouds 19 1017 82 10000 5.7 330 08:57 09.08.2020
4732 Clouds 19 1017 82 10000 5.7 320 08:26 09.08.2020
4733 Clouds 19 1017 88 10000 4.6 330 01:56 09.08.2020
4734 Clouds 19 1017 82 10000 8.2 310 23:19 08.08.2020
4735 Clouds 25 1017 57 10000 5.1 310 19:37 08.08.2020
4736 Clear 26 1018 51 10000 5.7 340 18:26 08.08.2020
4737 Clear 28 1018 48 10000 4.6 350 17:46 08.08.2020
4738 Clear 27 1018 48 10000 3.6 310 16:23 08.08.2020
4739 Clear 27 1018 48 10000 4.6 320 15:40 08.08.2020
4740 Clouds 26 1019 45 10000 4.6 360 14:47 08.08.2020
4741 Clouds 26 1019 54 10000 5.1 350 14:22 08.08.2020
4742 Clouds 23 1019 69 10000 3.6 320 12:24 08.08.2020
4743 Clouds 21 1019 82 10000 4.1 320 10:47 08.08.2020
4744 Clouds 19 1018 88 10000 4.6 330 07:41 08.08.2020
4745 Clouds 19 1018 88 10000 5.7 320 05:50 08.08.2020
4746 Clouds 20 1019 88 10000 5.1 330 02:24 08.08.2020
4747 Clear 22 1017 69 10000 7.2 320 22:21 07.08.2020
4748 Clear 23 1016 61 10000 7.2 320 21:21 07.08.2020
4749 Clear 24 1016 61 10000 5.1 310 20:42 07.08.2020
4750 Clouds 28 1016 51 10000 5.1 310 18:32 07.08.2020
4751 Clouds 29 1016 45 10000 2.6 100 16:54 07.08.2020
4752 Clouds 28 1017 54 10000 3.1 0 14:52 07.08.2020
4753 Clouds 26 1017 57 10000 3.1 80 13:28 07.08.2020
4754 Clouds 24 1017 60 10000 4.1 360 12:24 07.08.2020
4755 Clouds 21 1017 82 10000 5.1 330 10:18 07.08.2020
4756 Clouds 19 1016 88 10000 4.6 320 09:25 07.08.2020
4757 Clear 20 1015 82 10000 4.6 320 06:32 07.08.2020
4758 Clear 21 1015 73 10000 4.1 330 01:42 07.08.2020
4759 Clear 21 1015 73 10000 4.1 330 01:42 07.08.2020
4760 Clear 21 1014 73 10000 5.7 330 00:35 07.08.2020
4761 Clear 22 1013 69 10000 3.6 340 22:48 06.08.2020
4762 Clear 25 1012 57 10000 6.2 310 21:30 06.08.2020
4763 Clear 26 1012 54 10000 5.7 300 20:33 06.08.2020
4764 Clear 28 1012 45 10000 5.1 300 19:43 06.08.2020
4765 Clear 31 1011 38 10000 4.6 300 18:52 06.08.2020
4766 Clear 31 1011 31 10000 4.6 270 18:23 06.08.2020
4767 Clear 32 1011 31 10000 4.1 280 17:34 06.08.2020
4768 Clear 32 1012 35 10000 1.5 0 15:51 06.08.2020
4769 Clear 30 1012 45 10000 3.6 100 14:54 06.08.2020
4770 Clear 28 1012 42 10000 2.1 340 13:55 06.08.2020
4771 Clear 27 1012 47 10000 3.1 340 13:28 06.08.2020
4772 Clear 24 1012 60 10000 4.1 330 11:38 06.08.2020
4773 Clear 22 1012 73 10000 4.6 310 10:54 06.08.2020
4774 Clouds 19 1011 82 10000 4.6 330 09:30 06.08.2020
4775 Clouds 19 1011 82 10000 4.6 330 08:48 06.08.2020
4776 Clear 20 1011 77 10000 4.6 320 08:23 06.08.2020
4777 Clear 21 1011 56 10000 3.6 320 02:26 06.08.2020
4778 Clear 23 1011 53 10000 5.7 330 23:54 05.08.2020
4779 Clear 23 1011 43 10000 5.7 340 23:21 05.08.2020
4780 Clear 23 1010 36 10000 7.2 310 22:52 05.08.2020
4781 Clear 24 1010 38 10000 7.2 310 22:18 05.08.2020
4782 Clear 26 1010 39 10000 6.7 320 20:47 05.08.2020
4783 Clear 28 1010 40 10000 6.7 320 19:57 05.08.2020
4784 Clear 28 1010 40 10000 6.7 320 19:33 05.08.2020
4785 Clear 30 1010 40 10000 6.7 330 17:48 05.08.2020
4786 Clear 30 1011 33 10000 4.1 300 16:48 05.08.2020
4787 Clear 31 1011 33 10000 4.1 300 16:48 05.08.2020
4788 Clear 31 1011 35 10000 4.1 320 15:45 05.08.2020
4789 Clear 30 1011 38 10000 3.6 340 15:22 05.08.2020
4790 Clear 29 1012 42 10000 3.6 330 14:41 05.08.2020
4791 Clear 26 1012 51 10000 3.6 330 13:39 05.08.2020
4792 Clear 25 1012 57 10000 4.1 340 13:18 05.08.2020
4793 Clouds 22 1012 73 10000 5.1 330 11:48 05.08.2020
4794 Clouds 21 1012 73 10000 4.6 320 10:54 05.08.2020
4795 Clouds 20 1012 77 10000 4.6 320 10:21 05.08.2020
4796 Clouds 20 1012 77 10000 4.6 320 10:21 05.08.2020
4797 Clouds 20 1012 77 10000 4.6 320 10:21 05.08.2020
4798 Clouds 20 1012 77 10000 4.6 320 10:21 05.08.2020
4799 Clouds 19 1012 82 10000 5.1 320 09:28 05.08.2020
4800 Clouds 18 1011 88 10000 5.7 320 07:41 05.08.2020
4801 Clear 19 1012 77 10000 5.7 320 04:48 05.08.2020
4802 Clear 20 1013 68 10000 6.7 320 01:24 05.08.2020
4803 Clear 21 1013 64 10000 7.2 320 23:56 04.08.2020
4804 Clear 21 1013 64 10000 7.2 320 23:33 04.08.2020
4805 Clear 21 1012 60 10000 7.2 330 22:52 04.08.2020
4806 Clear 23 1012 60 10000 7.7 320 22:27 04.08.2020
4807 Clear 23 1012 57 10000 7.7 320 21:45 04.08.2020
4808 Clouds 26 1012 45 10000 7.2 320 19:42 04.08.2020
4809 Clouds 27 1012 42 10000 7.7 310 18:58 04.08.2020
4810 Clouds 28 1013 42 10000 6.7 320 17:40 04.08.2020
4811 Clouds 29 1013 40 10000 5.1 300 16:57 04.08.2020
4812 Clouds 29 1014 42 10000 5.1 310 15:57 04.08.2020
4813 Clouds 28 1014 45 10000 4.6 310 15:29 04.08.2020
4814 Clouds 26 1014 54 10000 5.7 330 14:18 04.08.2020
4815 Clouds 23 1015 64 10000 6.2 330 12:43 04.08.2020
4816 Clouds 21 1015 68 10000 8.7 340 11:33 04.08.2020
4817 Clouds 20 1015 77 10000 5.7 320 10:53 04.08.2020
4818 Clouds 20 1015 77 10000 5.7 320 10:34 04.08.2020
4819 Clouds 19 1015 88 10000 5.1 320 09:21 04.08.2020
4820 Clouds 18 1014 88 10000 4.1 310 06:57 04.08.2020
4821 Clouds 19 1017 82 10000 8.7 340 00:24 04.08.2020
4822 Clouds 19 1016 82 10000 12.3 330 22:47 03.08.2020
4823 Clouds 20 1016 73 10000 8.2 330 21:55 03.08.2020
4824 Clouds 21 1016 73 10000 8.7 340 21:27 03.08.2020
4825 Clouds 21 1016 73 10000 8.7 340 20:52 03.08.2020
4826 Clouds 23 1017 64 10000 9.8 330 19:47 03.08.2020
4827 Clouds 24 1016 69 10000 9.3 340 18:57 03.08.2020
4828 Clouds 24 1017 64 10000 9.3 330 18:31 03.08.2020
4829 Clouds 25 1017 61 10000 8.7 330 17:46 03.08.2020
4830 Clouds 26 1018 61 10000 10.3 340 16:35 03.08.2020
4831 Clouds 25 1018 64 10000 10.8 340 15:29 03.08.2020
4832 Clouds 24 1019 64 10000 9.8 340 14:27 03.08.2020
4833 Clouds 23 1019 64 10000 7.2 350 13:26 03.08.2020
4834 Clouds 22 1019 68 10000 11.8 330 12:32 03.08.2020
4835 Clouds 22 1019 68 10000 11.3 350 11:31 03.08.2020
4836 Clouds 19 1019 77 10000 5.7 360 09:38 03.08.2020
4837 Clouds 19 1019 77 10000 3.6 20 09:19 03.08.2020
4838 Clouds 18 1020 77 10000 5.7 350 02:26 03.08.2020
4839 Clouds 18 1020 72 10000 6.2 340 01:55 03.08.2020
4840 Clouds 19 1020 77 10000 5.7 350 00:54 03.08.2020
4841 Clouds 18 1020 77 10000 5.7 350 00:33 03.08.2020
4842 Clouds 20 1018 64 10000 9.3 320 21:44 02.08.2020
4843 Clouds 20 1018 64 10000 10.8 320 21:20 02.08.2020
4844 Clouds 21 1018 60 10000 10.3 330 20:36 02.08.2020
4845 Clouds 23 1018 56 10000 7.7 320 19:55 02.08.2020
4846 Clouds 23 1018 53 10000 8.7 320 19:23 02.08.2020
4847 Clouds 24 1018 47 10000 9.3 330 18:46 02.08.2020
4848 Clouds 24 1019 50 10000 8.7 320 17:51 02.08.2020
4849 Clouds 25 1019 53 10000 8.2 320 16:30 02.08.2020
4850 Clouds 24 1019 53 10000 7.2 310 15:00 02.08.2020
4851 Clouds 24 1019 57 10000 7.2 330 14:34 02.08.2020
4852 Clouds 23 1019 60 10000 7.2 330 13:53 02.08.2020
4853 Clouds 22 1019 60 10000 8.2 320 13:20 02.08.2020
4854 Clouds 22 1020 73 10000 7.2 320 12:44 02.08.2020
4855 Clouds 20 1020 72 10000 6.2 320 11:29 02.08.2020
4856 Clouds 20 1020 77 10000 5.1 330 10:49 02.08.2020
4857 Clouds 19 1020 82 10000 6.2 340 09:47 02.08.2020
4858 Clouds 18 1019 82 10000 4.1 0 08:51 02.08.2020
4859 Clouds 18 1019 82 10000 3.6 350 08:23 02.08.2020
4860 Clouds 18 1019 82 10000 3.6 0 06:44 02.08.2020
4861 Clouds 19 1020 82 10000 5.7 330 02:48 02.08.2020
4862 Clouds 19 1021 82 10000 6.2 330 00:58 02.08.2020
4863 Clouds 19 1020 72 10000 7.2 330 00:18 02.08.2020
4864 Clouds 20 1020 60 10000 6.7 340 22:43 01.08.2020
4865 Clear 25 1019 41 10000 7.2 330 20:30 01.08.2020
4866 Clear 26 1019 42 10000 8.2 330 19:42 01.08.2020
4867 Clear 26 1019 44 10000 7.2 320 19:22 01.08.2020
4868 Clear 27 1019 47 10000 8.2 340 18:36 01.08.2020
4869 Clear 27 1019 48 10000 8.7 340 17:40 01.08.2020
4870 Clear 27 1020 51 10000 8.7 350 16:28 01.08.2020
4871 Clear 27 1020 51 10000 7.2 340 15:41 01.08.2020
4872 Clear 27 1020 48 10000 7.2 350 15:21 01.08.2020
4873 Clouds 27 1020 51 10000 6.7 340 13:59 01.08.2020
4874 Clouds 24 1020 73 10000 5.1 330 12:30 01.08.2020
4875 Clouds 22 1020 78 10000 6.2 320 11:20 01.08.2020
4876 Clouds 20 1019 88 10000 5.1 320 09:52 01.08.2020
4877 Clouds 20 1019 93 10000 2.1 360 05:52 01.08.2020
4878 Clouds 20 1019 88 10000 6.2 320 03:18 01.08.2020
4879 Clouds 19 1018 82 10000 7.2 320 01:50 01.08.2020
4880 Clear 20 1018 77 10000 5.1 340 01:30 01.08.2020
4881 Clear 21 1017 56 10000 6.7 320 23:31 31.07.2020
4882 Clear 24 1016 41 10000 6.7 320 21:24 31.07.2020
4883 Clear 26 1016 36 10000 6.7 310 20:42 31.07.2020
4884 Clear 26 1016 39 10000 6.7 310 20:22 31.07.2020
4885 Clear 27 1016 32 10000 7.2 330 19:33 31.07.2020
4886 Clear 30 1016 29 10000 4.1 340 17:50 31.07.2020
4887 Clear 29 1016 33 10000 4.1 0 16:42 31.07.2020
4888 Clear 29 1016 33 10000 4.1 0 16:42 31.07.2020
4889 Clear 29 1016 37 10000 3.1 340 15:47 31.07.2020
4890 Clear 28 1016 39 10000 2.6 320 14:43 31.07.2020
4891 Clear 25 1016 47 10000 3.6 340 13:38 31.07.2020
4892 Clear 24 1016 57 10000 2.1 0 12:40 31.07.2020
4893 Clear 22 1016 68 10000 2.6 320 11:39 31.07.2020
4894 Clear 21 1016 72 10000 2.1 310 11:18 31.07.2020
4895 Clear 19 1016 82 10000 3.1 320 10:25 31.07.2020
4896 Clouds 18 1016 88 10000 4.1 320 09:36 31.07.2020
4897 Clouds 17 1015 82 10000 3.6 310 08:54 31.07.2020
4898 Clear 17 1015 82 10000 3.1 300 07:43 31.07.2020
4899 Clear 17 1014 88 10000 4.6 310 05:22 31.07.2020
4900 Clear 18 1015 82 10000 4.1 310 02:37 31.07.2020
4901 Clouds 19 1015 88 10000 7.2 310 00:57 31.07.2020
4902 Clouds 19 1014 88 10000 7.2 310 00:26 31.07.2020
4903 Clouds 20 1013 73 10000 6.2 310 22:55 30.07.2020
4904 Clouds 20 1013 73 10000 6.2 310 22:37 30.07.2020
4905 Clear 25 1012 44 10000 4.1 320 21:19 30.07.2020
4906 Clear 26 1012 37 10000 4.6 330 20:58 30.07.2020
4907 Clear 27 1012 37 10000 4.6 250 19:57 30.07.2020
4908 Clear 28 1013 42 10000 4.1 260 19:24 30.07.2020
4909 Clear 29 1013 31 10000 4.6 230 17:59 30.07.2020
4910 Clear 28 1013 31 10000 4.6 220 17:20 30.07.2020
4911 Clear 28 1013 37 10000 4.6 210 16:42 30.07.2020
4912 Clear 28 1013 40 10000 4.6 210 16:23 30.07.2020
4913 Clear 28 1013 42 10000 4.1 200 15:39 30.07.2020
4914 Clear 26 1014 57 10000 3.1 90 14:59 30.07.2020
4915 Clear 26 1014 57 10000 3.1 90 14:40 30.07.2020
4916 Clear 25 1014 61 10000 2.6 120 14:22 30.07.2020
4917 Clear 24 1014 69 10000 3.6 100 13:44 30.07.2020
4918 Clear 24 1014 69 10000 2.6 90 13:19 30.07.2020
4919 Clear 23 1013 73 10000 2.1 110 12:40 30.07.2020
4920 Clouds 20 1013 73 10000 2.1 80 11:44 30.07.2020
4921 Fog 19 1013 88 10000 2.6 340 10:28 30.07.2020
4922 Fog 18 1013 88 10000 2.1 340 09:48 30.07.2020
4923 Clouds 18 1012 88 10000 1.5 300 09:19 30.07.2020
4924 Fog 18 1012 93 10000 0.79 113 08:46 30.07.2020
4925 Clear 18 1012 88 10000 0.71 108 07:42 30.07.2020
4926 Clear 19 1012 88 10000 4.6 320 02:31 30.07.2020
4927 Clear 20 1012 82 10000 4.6 330 01:25 30.07.2020
4928 Clouds 21 1011 77 10000 5.1 310 23:22 29.07.2020
4929 Clouds 21 1011 73 10000 5.7 300 22:41 29.07.2020
4930 Clear 24 1011 61 10000 4.6 300 21:52 29.07.2020
4931 Clear 25 1011 57 10000 4.6 310 21:34 29.07.2020
4932 Clear 26 1011 37 10000 4.1 310 20:46 29.07.2020
4933 Clear 28 1011 35 10000 4.1 310 20:21 29.07.2020
4934 Clear 29 1011 38 10000 3.1 270 19:41 29.07.2020
4935 Clear 30 1011 33 10000 3.1 270 19:23 29.07.2020
4936 Clear 30 1012 38 10000 4.1 340 18:44 29.07.2020
4937 Clear 31 1012 38 10000 2.6 300 18:20 29.07.2020
4938 Clear 31 1012 38 10000 2.6 300 18:20 29.07.2020
4939 Clear 30 1012 40 10000 2.6 0 17:32 29.07.2020
4940 Clear 29 1013 48 10000 3.1 130 16:41 29.07.2020
4941 Clouds 28 1013 51 10000 1.5 0 15:48 29.07.2020
4942 Clouds 28 1014 57 10000 3.6 120 15:22 29.07.2020
4943 Clouds 27 1014 57 10000 1.5 0 14:41 29.07.2020
4944 Clouds 25 1014 61 10000 2.6 0 14:18 29.07.2020
4945 Clouds 24 1014 64 10000 2.1 0 13:23 29.07.2020
4946 Clouds 24 1014 64 10000 2.1 0 13:23 29.07.2020
4947 Clouds 22 1014 69 10000 3.1 360 12:38 29.07.2020
4948 Clouds 22 1014 73 10000 3.1 340 12:19 29.07.2020
4949 Clouds 21 1014 77 10000 4.1 350 11:39 29.07.2020
4950 Clouds 20 1014 88 10000 4.6 320 10:58 29.07.2020
4951 Clouds 19 1014 93 10000 4.6 330 10:24 29.07.2020
4952 Clouds 18 1014 93 10000 3.6 330 09:23 29.07.2020
4953 Clouds 17 1014 93 10000 4.1 330 08:21 29.07.2020
4954 Clouds 18 1014 93 10000 5.1 310 07:25 29.07.2020
4955 Clouds 18 1014 88 10000 5.7 310 04:47 29.07.2020
4956 Clouds 19 1016 88 10000 5.1 340 01:29 29.07.2020
4957 Clouds 19 1016 82 10000 6.7 330 00:29 29.07.2020
4958 Clouds 19 1015 82 10000 8.2 320 22:42 28.07.2020
4959 Clouds 19 1015 77 10000 7.7 320 22:18 28.07.2020
4960 Clouds 20 1015 73 10000 8.2 310 21:33 28.07.2020
4961 Clouds 22 1015 60 10000 6.7 300 20:54 28.07.2020
4962 Clouds 23 1015 57 10000 7.7 310 20:30 28.07.2020
4963 Clear 24 1015 53 10000 7.2 310 19:56 28.07.2020
4964 Clear 24 1015 57 10000 7.2 320 19:24 28.07.2020
4965 Clear 25 1016 54 10000 7.2 310 18:56 28.07.2020
4966 Clear 26 1016 51 10000 7.7 330 18:31 28.07.2020
4967 Clear 26 1016 51 10000 7.2 330 17:52 28.07.2020
4968 Clear 27 1016 51 10000 5.7 320 17:20 28.07.2020
4969 Clouds 27 1016 54 10000 6.7 350 16:26 28.07.2020
4970 Clouds 27 1016 54 10000 6.7 350 16:26 28.07.2020
4971 Clouds 26 1017 57 10000 7.2 350 15:29 28.07.2020
4972 Clouds 26 1017 57 10000 6.7 350 14:51 28.07.2020
4973 Clouds 26 1017 57 10000 6.7 350 14:31 28.07.2020
4974 Clouds 25 1017 61 10000 5.7 330 13:40 28.07.2020
4975 Clouds 23 1017 78 10000 6.7 350 12:42 28.07.2020
4976 Clouds 23 1017 78 10000 5.1 330 12:21 28.07.2020
4977 Clouds 22 1017 83 10000 5.1 330 11:54 28.07.2020
4978 Drizzle 21 1017 88 10000 5.7 340 10:59 28.07.2020
4979 Drizzle 21 1017 88 10000 5.7 340 10:40 28.07.2020
4980 Clouds 21 1017 88 10000 5.1 340 10:19 28.07.2020
4981 Clouds 21 1017 94 10000 6.2 340 09:37 28.07.2020
4982 Clouds 21 1017 88 10000 5.7 330 09:18 28.07.2020
4983 Clouds 20 1017 94 10000 5.1 330 08:37 28.07.2020
4984 Clouds 20 1017 94 10000 4.6 340 07:50 28.07.2020
4985 Clouds 21 1017 94 10000 5.1 330 06:53 28.07.2020
4986 Clouds 20 1018 88 10000 3.1 320 02:20 28.07.2020
4987 Clouds 20 1018 88 10000 3.1 320 02:20 28.07.2020
4988 Clouds 20 1018 88 10000 3.1 320 02:20 28.07.2020
4989 Clouds 20 1018 88 10000 4.6 340 01:50 28.07.2020
4990 Clouds 20 1018 88 10000 5.7 340 00:53 28.07.2020
4991 Clouds 20 1017 88 10000 7.7 330 23:47 27.07.2020
4992 Clouds 21 1017 83 10000 6.7 330 23:25 27.07.2020
4993 Clouds 21 1017 83 10000 6.7 330 22:40 27.07.2020
4994 Clouds 21 1016 83 10000 7.7 330 22:18 27.07.2020
4995 Clouds 21 1016 78 10000 7.2 320 21:43 27.07.2020
4996 Clouds 22 1016 73 10000 8.7 330 20:52 27.07.2020
4997 Clouds 23 1016 69 10000 8.7 320 20:26 27.07.2020
4998 Clouds 24 1016 65 10000 10.3 330 19:58 27.07.2020
4999 Clouds 25 1016 65 10000 10.3 330 19:34 27.07.2020
5000 Clouds 25 1016 65 10000 9.8 330 18:47 27.07.2020
5001 Clouds 26 1016 57 10000 7.2 320 17:50 27.07.2020
5002 Clouds 26 1016 57 10000 7.2 320 17:32 27.07.2020
5003 Clouds 26 1016 57 10000 7.7 330 16:59 27.07.2020
5004 Clouds 26 1016 57 10000 6.2 320 16:22 27.07.2020
5005 Clouds 25 1016 61 10000 7.7 330 15:48 27.07.2020
5006 Clouds 25 1016 61 10000 7.7 330 15:30 27.07.2020
5007 Clouds 25 1016 61 10000 6.7 340 14:47 27.07.2020
5008 Clouds 24 1016 61 10000 6.7 340 14:29 27.07.2020
5009 Clouds 24 1016 64 10000 7.2 340 13:41 27.07.2020
5010 Clouds 23 1016 64 10000 7.2 330 13:21 27.07.2020
5011 Clouds 22 1016 64 10000 6.7 330 12:43 27.07.2020
5012 Clouds 22 1016 68 10000 7.7 330 12:24 27.07.2020
5013 Clouds 22 1015 68 10000 4.6 320 11:25 27.07.2020
5014 Clouds 21 1015 73 10000 5.1 340 10:59 27.07.2020
5015 Clouds 20 1015 72 10000 3.6 330 09:58 27.07.2020
5016 Clouds 20 1015 72 10000 3.6 330 09:38 27.07.2020
5017 Clouds 20 1015 72 10000 3.1 360 09:18 27.07.2020
5018 Clouds 19 1014 68 10000 4.1 350 08:41 27.07.2020
5019 Clear 19 1014 68 10000 3.6 20 07:57 27.07.2020
5020 Clear 19 1014 68 10000 3.6 20 07:37 27.07.2020
5021 Clear 20 1014 63 10000 7.7 340 06:36 27.07.2020
5022 Clouds 19 1014 72 10000 3.6 340 02:56 27.07.2020
5023 Clouds 20 1014 72 10000 7.2 320 02:18 27.07.2020
5024 Clouds 20 1013 77 10000 8.2 320 23:54 26.07.2020
5025 Clouds 20 1013 73 10000 7.7 320 23:27 26.07.2020
5026 Clouds 21 1013 68 10000 7.2 310 22:47 26.07.2020
5027 Clouds 21 1013 73 10000 7.7 320 22:27 26.07.2020
5028 Clouds 22 1013 69 10000 7.7 320 21:53 26.07.2020
5029 Clouds 24 1013 61 10000 7.2 320 21:22 26.07.2020
5030 Clouds 25 1012 61 10000 7.2 320 20:52 26.07.2020
5031 Clouds 25 1012 61 10000 7.2 320 20:32 26.07.2020
5032 Clear 28 1013 51 10000 6.7 320 19:47 26.07.2020
5033 Clear 29 1013 48 10000 6.7 330 19:27 26.07.2020
5034 Clear 29 1013 45 10000 6.7 340 18:56 26.07.2020
5035 Clear 29 1013 48 10000 7.7 340 18:37 26.07.2020
5036 Clear 29 1013 48 10000 7.7 340 18:18 26.07.2020
5037 Clear 28 1013 45 10000 7.7 330 17:40 26.07.2020
5038 Clear 29 1014 42 10000 6.7 350 17:19 26.07.2020
5039 Clear 29 1014 42 10000 6.7 340 16:42 26.07.2020
5040 Clear 29 1014 45 10000 6.2 340 16:23 26.07.2020
5041 Clear 28 1014 42 10000 6.7 340 15:42 26.07.2020
5042 Clear 28 1015 45 10000 6.2 340 15:23 26.07.2020
5043 Clear 27 1015 45 10000 6.2 350 14:38 26.07.2020
5044 Clear 27 1015 51 10000 6.2 350 14:20 26.07.2020
5045 Clouds 26 1015 51 10000 6.7 350 13:44 26.07.2020
5046 Clouds 24 1015 57 10000 6.2 340 12:46 26.07.2020
5047 Clouds 23 1015 69 10000 5.7 330 12:28 26.07.2020
5048 Clouds 23 1015 73 10000 6.2 330 11:57 26.07.2020
5049 Clouds 22 1015 73 10000 6.2 330 11:35 26.07.2020
5050 Clouds 21 1015 82 10000 5.1 330 10:55 26.07.2020
5051 Clouds 21 1015 82 10000 5.1 330 10:32 26.07.2020
5052 Clouds 20 1015 82 10000 5.1 330 09:45 26.07.2020
5053 Clouds 19 1015 82 10000 4.1 330 09:26 26.07.2020
5054 Clouds 19 1015 88 10000 3.6 340 08:29 26.07.2020
5055 Clouds 18 1015 88 10000 5.1 320 07:20 26.07.2020
5056 Clouds 19 1015 82 10000 8.2 340 03:55 26.07.2020
5057 Clouds 19 1015 82 10000 7.2 340 03:23 26.07.2020
5058 Clouds 20 1016 82 10000 8.2 340 00:51 26.07.2020
5059 Clouds 20 1015 72 10000 9.3 350 23:51 25.07.2020
5060 Clouds 20 1015 77 10000 9.8 340 23:24 25.07.2020
5061 Clouds 20 1015 64 10000 10.8 330 22:24 25.07.2020
5062 Clouds 21 1014 64 10000 10.8 330 21:39 25.07.2020
5063 Clouds 22 1014 60 10000 10.3 330 21:19 25.07.2020
5064 Clouds 23 1014 53 10000 8.2 330 20:42 25.07.2020
5065 Clear 27 1014 39 10000 7.7 320 19:57 25.07.2020
5066 Clear 27 1014 35 10000 8.7 330 19:29 25.07.2020
5067 Clear 28 1014 37 10000 7.7 320 18:56 25.07.2020
5068 Clear 28 1014 37 10000 7.7 320 18:33 25.07.2020
5069 Clear 27 1015 37 10000 8.2 320 17:57 25.07.2020
5070 Clear 28 1015 37 10000 8.2 320 17:39 25.07.2020
5071 Clear 28 1015 39 10000 8.7 330 17:20 25.07.2020
5072 Clear 28 1015 39 10000 7.7 330 16:50 25.07.2020
5073 Clouds 28 1015 39 10000 9.8 340 16:26 25.07.2020
5074 Clouds 28 1015 42 10000 7.2 330 15:46 25.07.2020
5075 Clear 27 1015 42 10000 6.7 330 15:21 25.07.2020
5076 Clear 27 1015 44 10000 7.7 350 14:44 25.07.2020
5077 Clear 27 1015 47 10000 8.7 340 14:25 25.07.2020
5078 Clear 26 1015 54 10000 8.2 340 13:41 25.07.2020
5079 Clear 25 1015 50 10000 8.2 340 13:21 25.07.2020
5080 Clear 25 1015 57 10000 8.2 340 12:56 25.07.2020
5081 Clear 24 1015 57 10000 8.2 330 12:21 25.07.2020
5082 Clear 23 1015 60 10000 9.3 340 11:43 25.07.2020
5083 Clear 23 1015 60 10000 9.3 340 11:22 25.07.2020
5084 Clouds 22 1015 73 10000 7.2 340 10:44 25.07.2020
5085 Clouds 21 1015 73 10000 7.2 340 10:25 25.07.2020
5086 Clouds 20 1015 77 10000 9.8 340 09:52 25.07.2020
5087 Clouds 20 1014 72 10000 9.8 340 09:27 25.07.2020
5088 Clouds 19 1014 77 10000 9.8 330 08:57 25.07.2020
5089 Clouds 19 1014 77 10000 9.3 330 08:25 25.07.2020
5090 Clouds 19 1014 77 10000 8.2 330 07:53 25.07.2020
5091 Clouds 19 1014 77 10000 8.2 330 07:33 25.07.2020
5092 Clouds 19 1014 82 10000 9.3 330 06:37 25.07.2020
5093 Clouds 19 1015 77 10000 5.1 350 03:23 25.07.2020
5094 Clouds 19 1016 77 10000 4.1 330 02:34 25.07.2020
5095 Clouds 19 1016 77 10000 2.6 10 01:38 25.07.2020
5096 Clouds 19 1016 77 10000 4.6 340 01:18 25.07.2020
5097 Clouds 19 1016 77 10000 4.1 340 00:45 25.07.2020
5098 Clouds 19 1016 82 10000 6.7 330 00:22 25.07.2020
5099 Clouds 19 1016 77 10000 7.7 330 23:49 24.07.2020
5100 Clouds 19 1015 77 10000 7.7 320 23:30 24.07.2020
5101 Clouds 19 1015 72 10000 8.2 320 22:57 24.07.2020
5102 Clouds 19 1015 72 10000 8.2 320 22:39 24.07.2020
5103 Clouds 20 1015 68 10000 8.2 320 22:20 24.07.2020
5104 Clouds 21 1015 60 10000 8.2 320 21:43 24.07.2020
5105 Clouds 21 1015 56 10000 7.7 320 21:24 24.07.2020
5106 Clouds 23 1015 50 10000 7.7 310 20:43 24.07.2020
5107 Clouds 23 1015 44 10000 8.2 320 20:23 24.07.2020
5108 Clear 24 1015 41 10000 7.2 320 19:44 24.07.2020
5109 Clear 25 1015 41 10000 7.2 310 19:24 24.07.2020
5110 Clear 26 1016 39 10000 8.2 310 18:37 24.07.2020
5111 Clear 26 1016 39 10000 8.2 320 17:54 24.07.2020
5112 Clear 27 1016 32 10000 9.3 330 17:20 24.07.2020
5113 Clear 27 1016 34 10000 7.2 320 16:53 24.07.2020
5114 Clear 27 1016 34 10000 7.2 320 16:30 24.07.2020
5115 Clear 27 1016 34 10000 7.2 330 15:59 24.07.2020
5116 Clear 27 1016 34 10000 7.2 330 15:41 24.07.2020
5117 Clear 27 1016 36 10000 8.2 340 15:19 24.07.2020
5118 Clear 26 1017 36 10000 7.7 330 14:42 24.07.2020
5119 Clear 26 1017 44 10000 6.2 330 13:55 24.07.2020
5120 Clear 25 1017 44 10000 6.2 330 13:36 24.07.2020
5121 Clear 25 1017 47 10000 7.7 330 13:18 24.07.2020
5122 Clouds 24 1016 50 10000 8.2 340 12:30 24.07.2020
5123 Clouds 23 1017 56 10000 8.2 330 11:59 24.07.2020
5124 Clouds 22 1017 64 10000 7.7 330 11:22 24.07.2020
5125 Clouds 21 1017 64 10000 6.2 320 10:58 24.07.2020
5126 Clouds 21 1017 64 10000 6.2 320 10:40 24.07.2020
5127 Clouds 20 1017 64 10000 8.2 330 10:18 24.07.2020
5128 Clouds 19 1016 68 10000 7.2 330 09:40 24.07.2020
5129 Clouds 19 1016 72 10000 7.2 340 09:21 24.07.2020
5130 Clouds 19 1016 72 10000 6.2 340 08:54 24.07.2020
5131 Clouds 18 1016 82 10000 7.7 350 08:35 24.07.2020
5132 Clear 18 1016 77 10000 7.2 340 07:43 24.07.2020
5133 Clear 18 1016 77 10000 3.6 330 07:23 24.07.2020
5134 Clear 18 1016 72 10000 7.7 340 06:49 24.07.2020
5135 Clear 18 1016 77 10000 9.8 330 05:54 24.07.2020
5136 Clear 18 1016 77 10000 9.8 330 05:31 24.07.2020
5137 Clear 19 1016 77 10000 7.7 330 04:24 24.07.2020
5138 Clear 19 1018 77 10000 4.6 340 01:46 24.07.2020
5139 Clear 19 1018 77 10000 4.6 340 01:46 24.07.2020
5140 Clear 20 1018 72 10000 4.1 330 00:44 24.07.2020
5141 Clear 20 1017 77 10000 6.2 330 00:22 24.07.2020
5142 Clouds 20 1017 77 10000 4.6 320 23:42 23.07.2020
5143 Clouds 20 1017 73 10000 6.2 340 23:21 23.07.2020
5144 Clouds 21 1017 77 10000 7.2 330 22:43 23.07.2020
5145 Clear 21 1016 69 10000 7.2 330 22:21 23.07.2020
5146 Clouds 24 1016 53 10000 7.2 330 21:55 23.07.2020
5147 Clouds 24 1016 53 10000 7.2 330 21:36 23.07.2020
5148 Clouds 26 1016 47 10000 6.2 330 21:18 23.07.2020
5149 Clear 26 1016 42 10000 5.1 310 20:42 23.07.2020
5150 Clear 26 1016 34 10000 6.7 330 20:20 23.07.2020
5151 Clear 27 1016 32 10000 6.2 330 19:58 23.07.2020
5152 Clear 27 1016 32 10000 6.2 330 19:37 23.07.2020
5153 Clear 29 1016 29 10000 5.7 320 19:19 23.07.2020
5154 Clear 30 1016 33 10000 5.1 320 18:42 23.07.2020
5155 Clear 30 1016 38 10000 4.6 300 18:22 23.07.2020
5156 Clear 30 1017 38 10000 5.1 310 17:54 23.07.2020
5157 Clear 30 1017 40 10000 5.1 320 17:26 23.07.2020
5158 Clear 30 1017 35 10000 5.1 330 16:59 23.07.2020
5159 Clear 30 1017 35 10000 5.1 330 16:40 23.07.2020
5160 Clear 30 1017 31 10000 4.6 330 16:19 23.07.2020
5161 Clear 30 1017 43 10000 3.1 210 15:39 23.07.2020
5162 Clear 29 1017 43 10000 2.6 190 15:19 23.07.2020
5163 Clear 28 1017 45 10000 3.1 140 14:40 23.07.2020
5164 Clear 26 1018 51 10000 2.6 130 14:20 23.07.2020
5165 Clear 25 1018 57 10000 2.6 120 13:58 23.07.2020
5166 Clear 25 1018 57 10000 2.6 120 13:40 23.07.2020
5167 Clear 25 1018 61 10000 2.6 0 13:21 23.07.2020
5168 Clear 25 1018 61 10000 2.1 110 12:43 23.07.2020
5169 Clear 23 1018 61 10000 2.1 40 12:22 23.07.2020
5170 Clear 22 1018 69 10000 1.5 350 11:43 23.07.2020
5171 Clear 21 1018 73 10000 2.6 340 11:24 23.07.2020
5172 Clouds 20 1018 77 10000 2.6 350 10:58 23.07.2020
5173 Clouds 20 1018 77 10000 2.6 350 10:39 23.07.2020
5174 Clouds 19 1018 82 10000 3.1 340 10:19 23.07.2020
5175 Clouds 19 1017 88 10000 4.1 330 09:47 23.07.2020
5176 Clouds 18 1017 93 10000 4.6 320 09:28 23.07.2020
5177 Clouds 18 1017 93 10000 3.6 310 08:52 23.07.2020
5178 Clouds 18 1017 93 10000 3.6 310 08:32 23.07.2020
5179 Clear 18 1017 88 10000 2.1 300 07:54 23.07.2020
5180 Clear 18 1017 88 10000 1.5 0 07:28 23.07.2020
5181 Clear 19 1017 82 10000 3.6 310 06:37 23.07.2020
5182 Clear 19 1017 77 10000 4.1 310 06:18 23.07.2020
5183 Clear 19 1017 77 10000 4.1 320 05:38 23.07.2020
5184 Clear 19 1017 72 10000 3.6 310 04:38 23.07.2020
5185 Clear 19 1018 77 10000 3.6 310 03:44 23.07.2020
5186 Clear 20 1018 64 10000 4.1 330 02:29 23.07.2020
5187 Clear 22 1018 57 10000 1 0 00:29 23.07.2020
5188 Clear 23 1017 57 10000 1 0 23:56 22.07.2020
5189 Clear 23 1017 57 10000 1 0 23:37 22.07.2020
5190 Clear 24 1017 64 10000 1.5 0 23:18 22.07.2020
5191 Clear 23 1017 60 10000 5.7 310 22:39 22.07.2020
5192 Clear 25 1017 57 10000 5.1 310 22:20 22.07.2020
5193 Clear 26 1017 54 10000 5.1 300 21:44 22.07.2020
5194 Clear 27 1017 45 10000 5.7 310 21:20 22.07.2020
5195 Clear 27 1017 45 10000 6.2 330 20:59 22.07.2020
5196 Clear 28 1017 45 10000 6.2 330 20:38 22.07.2020
5197 Clear 29 1017 39 10000 5.7 340 20:20 22.07.2020
5198 Clear 29 1017 39 10000 5.7 340 20:20 22.07.2020
5199 Clear 29 1017 39 10000 5.7 330 19:59 22.07.2020
5200 Clear 29 1017 39 10000 5.7 330 19:40 22.07.2020
5201 Clear 29 1017 35 10000 5.7 330 19:20 22.07.2020
5202 Clear 29 1017 35 10000 5.7 330 18:45 22.07.2020
5203 Clear 30 1017 33 10000 5.7 330 18:25 22.07.2020
5204 Clear 30 1017 35 10000 4.1 270 17:44 22.07.2020
5205 Clouds 31 1017 38 10000 3.1 290 17:25 22.07.2020
5206 Clouds 31 1017 43 10000 4.1 260 16:56 22.07.2020
5207 Clouds 30 1017 43 10000 4.1 260 16:38 22.07.2020
5208 Clouds 29 1017 43 10000 4.6 240 16:19 22.07.2020
5209 Clouds 29 1018 45 10000 6.2 230 15:56 22.07.2020
5210 Clouds 28 1018 45 10000 6.2 230 15:37 22.07.2020
5211 Clouds 28 1018 45 10000 6.2 230 15:37 22.07.2020
5212 Clear 29 1018 40 10000 5.7 220 15:19 22.07.2020
5213 Clear 29 1018 40 10000 3.1 0 14:40 22.07.2020
5214 Clear 29 1018 48 10000 3.1 110 14:19 22.07.2020
5215 Clear 28 1018 58 10000 3.6 110 13:43 22.07.2020
5216 Clear 27 1018 58 10000 2.6 90 13:25 22.07.2020
5217 Clear 27 1018 58 10000 2.6 90 12:57 22.07.2020
5218 Clear 27 1018 58 10000 2.6 90 12:38 22.07.2020
5219 Clear 25 1018 65 10000 2.1 80 12:19 22.07.2020
5220 Clear 25 1018 69 10000 1 0 11:55 22.07.2020
5221 Clear 25 1018 69 10000 1 0 11:36 22.07.2020
5222 Clear 24 1018 69 10000 1 0 11:18 22.07.2020
5223 Clear 24 1018 69 10000 1 0 11:18 22.07.2020
5224 Clear 23 1017 83 10000 2.1 80 10:39 22.07.2020
5225 Clear 22 1017 73 10000 1.5 90 10:21 22.07.2020
5226 Clear 22 1017 64 10000 1 0 09:43 22.07.2020
5227 Clear 21 1016 73 10000 0.87 29 09:22 22.07.2020
5228 Clear 21 1016 73 10000 0.87 29 08:47 22.07.2020
5229 Clear 21 1016 72 10000 0.68 8 08:25 22.07.2020
5230 Clear 21 1016 68 10000 1.5 180 07:42 22.07.2020
5231 Clear 20 1016 68 10000 1 0 07:19 22.07.2020
5232 Clear 21 1016 68 10000 1 0 06:24 22.07.2020
5233 Clear 21 1016 64 10000 0.5 0 05:55 22.07.2020
5234 Clear 21 1016 64 10000 0.5 0 05:34 22.07.2020
5235 Clear 22 1016 64 10000 3.1 320 04:26 22.07.2020
5236 Clear 22 1016 69 10000 2.1 300 02:53 22.07.2020
5237 Clear 23 1016 64 10000 2.1 0 01:53 22.07.2020
5238 Clear 24 1015 60 10000 1.5 330 00:49 22.07.2020
5239 Clear 24 1015 57 10000 1 0 23:58 21.07.2020
5240 Clear 25 1015 57 10000 1 0 23:39 21.07.2020
5241 Clouds 26 1014 50 10000 1 0 23:20 21.07.2020
5242 Clouds 26 1014 50 10000 1.5 290 22:57 21.07.2020
5243 Clouds 26 1014 50 10000 1.5 290 22:38 21.07.2020
5244 Clouds 27 1014 50 10000 1.5 40 22:19 21.07.2020
5245 Rain 27 1014 42 10000 2.1 90 21:56 21.07.2020
5246 Rain 27 1014 42 10000 2.1 90 21:38 21.07.2020
5247 Clouds 28 1014 44 10000 4.6 110 21:20 21.07.2020
5248 Clouds 28 1014 58 10000 8.7 70 20:44 21.07.2020
5249 Rain 27 1012 61 10000 6.2 300 20:26 21.07.2020
5250 Rain 28 1012 61 10000 6.2 300 19:47 21.07.2020
5251 Thunderstorm 28 1013 61 10000 6.2 300 19:23 21.07.2020
5252 Clouds 29 1014 45 10000 4.1 310 18:56 21.07.2020
5253 Clouds 30 1013 43 10000 3.6 70 18:38 21.07.2020
5254 Clouds 30 1013 43 10000 3.6 70 18:19 21.07.2020
5255 Clouds 31 1013 38 10000 5.7 70 17:40 21.07.2020
5256 Clouds 32 1013 34 10000 3.1 120 17:21 21.07.2020
5257 Clouds 32 1013 36 10000 2.6 0 16:44 21.07.2020
5258 Clouds 32 1013 36 10000 2.6 0 16:23 21.07.2020
5259 Clouds 32 1013 38 10000 3.1 110 15:56 21.07.2020
5260 Clouds 31 1013 38 10000 3.1 110 15:38 21.07.2020
5261 Clouds 31 1013 38 10000 4.1 110 15:19 21.07.2020
5262 Clouds 31 1013 43 10000 4.6 50 14:40 21.07.2020
5263 Clouds 31 1013 40 10000 4.1 90 14:19 21.07.2020
5264 Clouds 31 1013 40 10000 4.1 80 13:58 21.07.2020
5265 Clouds 31 1013 40 10000 4.1 80 13:37 21.07.2020
5266 Clouds 30 1013 40 10000 4.1 70 13:18 21.07.2020
5267 Clouds 30 1013 42 10000 5.7 50 12:42 21.07.2020
5268 Clouds 28 1012 45 10000 4.1 50 12:21 21.07.2020
5269 Clouds 27 1012 51 10000 4.6 30 11:57 21.07.2020
5270 Clouds 28 1012 51 10000 4.6 30 11:38 21.07.2020
5271 Clouds 28 1012 51 10000 4.6 30 11:38 21.07.2020
5272 Rain 26 1013 61 10000 3.1 340 11:19 21.07.2020
5273 Rain 25 1013 57 10000 1.5 70 10:44 21.07.2020
5274 Clouds 25 1012 57 10000 1 0 10:22 21.07.2020
5275 Clouds 24 1012 60 10000 2.1 40 09:47 21.07.2020
5276 Clouds 24 1012 60 10000 1.5 80 09:25 21.07.2020
5277 Clouds 23 1012 69 10000 1.5 30 08:57 21.07.2020
5278 Clouds 23 1012 69 10000 1.5 30 08:39 21.07.2020
5279 Thunderstorm 23 1012 57 10000 2.1 170 08:20 21.07.2020
5280 Thunderstorm 24 1012 50 10000 2.6 0 07:45 21.07.2020
5281 Thunderstorm 25 1011 36 10000 5.7 340 07:25 21.07.2020
5282 Thunderstorm 26 1011 36 10000 5.7 340 06:51 21.07.2020
5283 Clouds 26 1010 50 10000 5.1 310 05:33 21.07.2020
5284 Thunderstorm 26 1012 32 10000 5.1 300 04:24 21.07.2020
5285 Thunderstorm 26 1013 44 10000 7.2 350 02:40 21.07.2020
5286 Clouds 26 1011 39 10000 5.1 330 01:33 21.07.2020
5287 Clouds 26 1011 39 10000 5.1 330 00:43 21.07.2020
5288 Rain 26 1012 37 10000 4.6 330 00:25 21.07.2020
5289 Rain 27 1011 37 10000 6.7 350 23:57 20.07.2020
5290 Rain 27 1011 37 10000 6.7 350 23:37 20.07.2020
5291 Clouds 28 1011 39 10000 6.2 340 23:19 20.07.2020
5292 Clouds 29 1012 30 10000 5.7 330 22:40 20.07.2020
5293 Clouds 30 1011 25 10000 5.1 330 22:21 20.07.2020
5294 Clouds 31 1012 22 10000 4.1 330 21:58 20.07.2020
5295 Clouds 31 1012 22 10000 4.1 330 21:40 20.07.2020
5296 Clouds 32 1011 26 10000 5.7 340 21:20 20.07.2020
5297 Clouds 34 1011 26 10000 5.7 340 20:44 20.07.2020
5298 Clouds 34 1011 24 10000 5.7 340 20:21 20.07.2020
5299 Clouds 34 1011 23 10000 6.2 360 19:55 20.07.2020
5300 Clouds 33 1011 23 10000 6.2 360 19:37 20.07.2020
5301 Clouds 34 1011 26 10000 6.2 350 19:18 20.07.2020
5302 Clouds 33 1011 26 10000 5.1 20 18:42 20.07.2020
5303 Clouds 33 1012 23 10000 3.6 360 18:22 20.07.2020
5304 Clouds 33 1013 26 10000 4.1 330 17:45 20.07.2020
5305 Clouds 32 1012 40 10000 3.1 50 17:25 20.07.2020
5306 Clouds 32 1013 43 10000 3.1 80 16:58 20.07.2020
5307 Clouds 32 1013 43 10000 3.1 80 16:39 20.07.2020
5308 Clouds 30 1013 45 10000 3.1 70 16:18 20.07.2020
5309 Clouds 29 1013 54 10000 3.6 70 15:42 20.07.2020
5310 Clouds 28 1013 48 10000 4.1 40 15:19 20.07.2020
5311 Clouds 29 1013 54 10000 3.1 40 14:45 20.07.2020
5312 Clouds 26 1014 61 10000 2.6 60 14:20 20.07.2020
5313 Clouds 25 1014 64 10000 4.1 70 13:58 20.07.2020
5314 Clouds 25 1014 64 10000 4.1 70 13:40 20.07.2020
5315 Clouds 25 1014 64 10000 4.6 70 13:20 20.07.2020
5316 Clouds 24 1014 64 10000 3.1 60 12:57 20.07.2020
5317 Clouds 24 1014 64 10000 3.1 60 12:38 20.07.2020
5318 Clouds 24 1014 73 10000 3.1 70 12:19 20.07.2020
5319 Clouds 23 1014 60 10000 2.6 320 11:57 20.07.2020
5320 Clouds 22 1014 60 10000 2.6 320 11:39 20.07.2020
5321 Clouds 22 1015 64 10000 3.6 200 11:20 20.07.2020
5322 Clouds 20 1015 73 10000 1.5 0 10:42 20.07.2020
5323 Clouds 20 1014 77 10000 3.1 60 10:24 20.07.2020
5324 Clouds 20 1013 77 10000 2.1 360 09:55 20.07.2020
5325 Clouds 20 1013 77 10000 2.1 360 09:37 20.07.2020
5326 Clouds 19 1013 82 10000 2.1 20 09:19 20.07.2020
5327 Clouds 18 1013 88 10000 4.6 340 08:41 20.07.2020
5328 Clouds 18 1014 82 10000 2.6 270 08:22 20.07.2020
5329 Clouds 18 1013 93 10000 2.6 260 07:42 20.07.2020
5330 Clouds 18 1014 82 10000 3.6 240 07:21 20.07.2020
5331 Rain 18 1013 88 10000 3.1 360 06:41 20.07.2020
5332 Clouds 18 1013 82 10000 2.6 340 04:33 20.07.2020
5333 Clouds 19 1014 82 10000 5.1 320 02:45 20.07.2020
5334 Clouds 19 1014 82 10000 4.1 310 00:56 20.07.2020
5335 Clear 19 1014 82 10000 5.1 310 23:59 19.07.2020
5336 Clear 20 1014 82 10000 5.1 310 23:41 19.07.2020
5337 Clear 20 1014 77 10000 5.7 310 23:23 19.07.2020
5338 Clear 20 1014 77 10000 5.7 310 22:56 19.07.2020
5339 Clear 20 1014 77 10000 5.7 310 22:37 19.07.2020
5340 Clear 21 1014 68 10000 5.1 310 22:18 19.07.2020
5341 Clear 23 1013 64 10000 4.6 330 21:42 19.07.2020
5342 Clear 23 1014 60 10000 4.6 330 21:23 19.07.2020
5343 Clear 23 1014 60 10000 4.6 330 21:23 19.07.2020
5344 Clear 24 1014 57 10000 4.6 320 20:59 19.07.2020
5345 Clear 24 1014 57 10000 4.6 320 20:41 19.07.2020
5346 Clear 25 1014 54 10000 5.1 330 20:18 19.07.2020
5347 Clear 25 1014 54 10000 5.1 330 19:57 19.07.2020
5348 Clear 25 1014 54 10000 5.1 330 19:37 19.07.2020
5349 Clear 27 1014 42 10000 4.1 250 19:18 19.07.2020
5350 Clear 27 1014 40 10000 3.1 270 18:41 19.07.2020
5351 Clear 28 1014 42 10000 4.6 200 18:23 19.07.2020
5352 Clear 28 1015 45 10000 4.1 190 17:49 19.07.2020
5353 Clear 27 1015 48 10000 3.6 210 17:29 19.07.2020
5354 Clear 27 1015 48 10000 3.1 0 16:58 19.07.2020
5355 Clear 27 1015 48 10000 3.1 0 16:39 19.07.2020
5356 Clear 27 1015 51 10000 3.1 180 16:20 19.07.2020
5357 Clear 26 1015 54 10000 3.1 120 15:49 19.07.2020
5358 Clear 25 1015 57 10000 3.1 130 15:31 19.07.2020
5359 Clear 24 1015 64 10000 3.1 90 14:48 19.07.2020
5360 Clear 24 1016 64 10000 3.1 100 14:27 19.07.2020
5361 Clouds 24 1016 64 10000 1.5 230 13:59 19.07.2020
5362 Clouds 23 1016 64 10000 1.5 230 13:40 19.07.2020
5363 Clouds 23 1016 64 10000 1.5 230 13:22 19.07.2020
5364 Clouds 21 1016 68 10000 1 0 12:48 19.07.2020
5365 Clouds 20 1016 73 10000 1.5 0 12:25 19.07.2020
5366 Clouds 20 1016 82 10000 1.5 280 11:55 19.07.2020
5367 Clouds 20 1016 82 10000 1.5 280 11:36 19.07.2020
5368 Clouds 19 1016 82 10000 1 0 11:18 19.07.2020
5369 Clouds 18 1015 82 9000 1.5 350 10:41 19.07.2020
5370 Clouds 18 1015 93 9000 2.6 340 10:21 19.07.2020
5371 Clouds 17 1015 88 9000 2.6 310 09:45 19.07.2020
5372 Clouds 17 1015 93 10000 2.6 310 09:22 19.07.2020
5373 Clouds 17 1015 93 10000 2.1 320 08:48 19.07.2020
5374 Clouds 17 1014 93 9000 3.1 330 08:27 19.07.2020
5375 Clouds 17 1014 93 10000 3.6 330 07:54 19.07.2020
5376 Clouds 17 1014 93 10000 3.1 320 07:28 19.07.2020
5377 Clouds 17 1014 93 10000 2.6 320 06:49 19.07.2020
5378 Clouds 17 1014 93 10000 2.1 230 06:22 19.07.2020
5379 Clouds 17 1014 88 10000 3.1 320 05:51 19.07.2020
5380 Clouds 17 1015 88 10000 2.1 310 04:49 19.07.2020
5381 Clouds 18 1015 88 10000 2.6 330 02:47 19.07.2020
5382 Clouds 18 1015 88 10000 2.1 310 02:24 19.07.2020
5383 Clouds 18 1016 88 10000 3.6 310 01:45 19.07.2020
5384 Clouds 19 1015 82 10000 4.6 300 00:59 19.07.2020
5385 Clouds 19 1015 73 10000 2.6 310 00:23 19.07.2020
5386 Clouds 19 1014 93 10000 4.6 230 00:23 19.07.2020
5387 Clouds 20 1015 60 10000 2.6 320 23:58 18.07.2020
5388 Clouds 20 1015 60 10000 2.6 320 23:39 18.07.2020
5389 Clouds 20 1014 93 10000 5.7 240 23:21 18.07.2020
5390 Clouds 21 1014 50 10000 2.6 290 22:43 18.07.2020
5391 Clouds 23 1014 57 10000 4.1 250 22:19 18.07.2020
5392 Clear 24 1014 50 10000 3.1 260 21:52 18.07.2020
5393 Clear 24 1013 54 10000 4.6 230 21:29 18.07.2020
5394 Clear 25 1013 42 10000 4.6 250 20:59 18.07.2020
5395 Clear 26 1013 42 10000 4.6 250 20:41 18.07.2020
5396 Clear 27 1013 40 10000 4.1 240 20:20 18.07.2020
5397 Clear 27 1013 40 10000 4.1 240 19:48 18.07.2020
5398 Clear 28 1013 33 10000 5.1 240 19:30 18.07.2020
5399 Clear 27 1013 33 10000 5.1 240 18:48 18.07.2020
5400 Clear 28 1013 48 10000 6.7 230 18:23 18.07.2020
5401 Clear 28 1013 37 10000 7.2 230 17:58 18.07.2020
5402 Clear 28 1013 37 10000 7.2 230 17:39 18.07.2020
5403 Clear 29 1013 35 10000 6.2 230 17:19 18.07.2020
5404 Clear 29 1013 35 10000 6.7 230 16:42 18.07.2020
5405 Clear 29 1013 33 10000 5.7 230 16:22 18.07.2020
5406 Clear 29 1013 33 10000 5.7 230 15:58 18.07.2020
5407 Clear 28 1013 33 10000 5.7 230 15:39 18.07.2020
5408 Clear 28 1014 33 10000 4.6 230 15:20 18.07.2020
5409 Clear 27 1014 33 10000 5.1 190 14:41 18.07.2020
5410 Clear 30 1014 38 10000 4.1 140 14:22 18.07.2020
5411 Clear 30 1014 38 10000 2.6 0 13:56 18.07.2020
5412 Clear 30 1014 38 10000 2.6 0 13:36 18.07.2020
5413 Clear 30 1014 40 10000 2.1 170 13:18 18.07.2020
5414 Clear 28 1014 51 10000 3.1 120 12:42 18.07.2020
5415 Clear 27 1013 54 10000 2.1 110 12:20 18.07.2020
5416 Clear 27 1013 48 10000 1.5 70 11:58 18.07.2020
5417 Clear 27 1013 48 10000 1.5 70 11:40 18.07.2020
5418 Clear 24 1013 54 10000 1.5 70 11:19 18.07.2020
5419 Clear 27 1013 57 10000 1.5 80 10:47 18.07.2020
5420 Clear 24 1013 50 10000 1.5 40 10:27 18.07.2020
5421 Clear 24 1013 50 10000 2.1 340 09:56 18.07.2020
5422 Clear 24 1013 50 10000 2.1 340 09:37 18.07.2020
5423 Clear 23 1012 56 10000 1.07 28 09:19 18.07.2020
5424 Clear 22 1012 53 10000 0.5 0 08:44 18.07.2020
5425 Clear 22 1012 60 10000 1.05 352 08:24 18.07.2020
5426 Clear 21 1012 60 10000 1.05 352 07:44 18.07.2020
5427 Clear 22 1012 56 10000 1 0 07:23 18.07.2020
5428 Clear 22 1012 56 10000 1 0 06:52 18.07.2020
5429 Clear 22 1012 56 10000 1 0 06:52 18.07.2020
5430 Clear 23 1012 41 10000 0.5 0 05:27 18.07.2020
5431 Clear 22 1013 47 10000 1 0 04:29 18.07.2020
5432 Clear 23 1013 47 10000 4.1 300 02:39 18.07.2020
5433 Clear 23 1014 50 10000 2.6 340 01:27 18.07.2020
5434 Clear 23 1013 44 10000 3.1 330 00:42 18.07.2020
5435 Clear 25 1013 47 10000 3.6 330 00:22 18.07.2020
5436 Clear 25 1013 42 10000 3.1 350 23:40 17.07.2020
5437 Clear 26 1012 39 10000 5.1 310 23:20 17.07.2020
5438 Clear 27 1012 35 10000 4.6 310 22:59 17.07.2020
5439 Clear 27 1012 35 10000 4.6 310 22:39 17.07.2020
5440 Clear 29 1012 29 10000 4.6 300 22:18 17.07.2020
5441 Clear 30 1012 25 10000 4.6 300 21:42 17.07.2020
5442 Clear 31 1012 26 10000 3.6 290 21:23 17.07.2020
5443 Clear 32 1012 26 10000 4.1 290 20:58 17.07.2020
5444 Clear 32 1012 26 10000 4.1 290 20:39 17.07.2020
5445 Clear 32 1012 24 10000 4.6 290 20:21 17.07.2020
5446 Clear 33 1012 23 10000 4.6 310 19:44 17.07.2020
5447 Clear 33 1012 21 10000 4.1 310 19:26 17.07.2020
5448 Clear 34 1012 18 10000 4.1 300 18:56 17.07.2020
5449 Clear 35 1012 18 10000 4.1 300 18:38 17.07.2020
5450 Clear 35 1013 20 10000 4.6 280 18:20 17.07.2020
5451 Clear 34 1013 22 10000 5.1 260 17:42 17.07.2020
5452 Clear 34 1013 23 10000 5.1 230 17:24 17.07.2020
5453 Clear 34 1013 26 10000 6.2 230 16:44 17.07.2020
5454 Clear 33 1013 26 10000 5.1 230 16:20 17.07.2020
5455 Clear 33 1013 26 10000 5.1 230 16:20 17.07.2020
5456 Clear 33 1013 26 10000 5.1 230 16:20 17.07.2020
5457 Clear 33 1013 24 10000 5.1 230 15:44 17.07.2020
5458 Clear 34 1013 22 10000 2.6 80 15:22 17.07.2020
5459 Clear 34 1013 24 10000 2.1 0 14:57 17.07.2020
5460 Clear 34 1013 24 10000 2.1 0 14:37 17.07.2020
5461 Clear 33 1013 24 10000 2.1 0 14:19 17.07.2020
5462 Clear 32 1013 26 10000 1.5 110 13:40 17.07.2020
5463 Clear 32 1014 27 10000 2.1 0 13:20 17.07.2020
5464 Clear 32 1014 27 10000 2.1 0 12:57 17.07.2020
5465 Clear 31 1013 27 10000 2.6 60 12:38 17.07.2020
5466 Clear 31 1013 27 10000 2.6 60 12:20 17.07.2020
5467 Clear 30 1013 33 10000 1.5 0 11:45 17.07.2020
5468 Clear 30 1014 35 10000 2.1 80 11:22 17.07.2020
5469 Clear 29 1014 45 10000 1.5 90 10:59 17.07.2020
5470 Clear 28 1014 45 10000 1.5 90 10:40 17.07.2020
5471 Clear 28 1014 45 10000 1.5 90 10:40 17.07.2020
5472 Clear 27 1013 45 10000 1 0 10:22 17.07.2020
5473 Clear 27 1013 45 10000 1 0 10:22 17.07.2020
5474 Clear 26 1013 47 10000 1 30 09:57 17.07.2020
5475 Clear 26 1013 47 10000 1 30 09:57 17.07.2020
5476 Clear 27 1013 47 10000 1 30 09:38 17.07.2020
5477 Clear 25 1013 50 10000 1 0 09:19 17.07.2020
5478 Clear 25 1012 36 10000 2.1 60 08:44 17.07.2020
5479 Clear 25 1012 34 10000 2.1 30 08:25 17.07.2020
5480 Clear 25 1012 28 10000 3.1 310 07:50 17.07.2020
5481 Clear 25 1012 28 10000 3.6 310 07:26 17.07.2020
5482 Clear 25 1012 26 10000 3.1 310 06:54 17.07.2020
5483 Clear 25 1012 26 10000 4.1 320 06:20 17.07.2020
5484 Clear 27 1013 25 10000 3.1 310 04:59 17.07.2020
5485 Clear 28 1013 26 10000 2.1 50 02:55 17.07.2020
5486 Clear 30 1014 23 10000 5.1 340 01:47 17.07.2020
5487 Clear 30 1013 28 10000 5.7 320 00:51 17.07.2020
5488 Clear 30 1013 28 10000 5.1 320 00:23 17.07.2020
5489 Clear 30 1013 23 10000 5.7 330 23:55 16.07.2020
5490 Clear 30 1013 23 10000 5.7 330 23:37 16.07.2020
5491 Clear 31 1013 22 10000 5.7 330 23:18 16.07.2020
5492 Clear 31 1013 21 10000 6.7 330 22:44 16.07.2020
5493 Clear 32 1013 21 10000 6.2 330 22:23 16.07.2020
5494 Clear 33 1013 20 10000 6.7 340 21:56 16.07.2020
5495 Clear 33 1013 20 10000 6.7 340 21:37 16.07.2020
5496 Clear 34 1013 20 10000 7.2 330 21:19 16.07.2020
5497 Clear 35 1013 18 10000 5.7 320 20:57 16.07.2020
5498 Clear 35 1013 18 10000 5.7 320 20:39 16.07.2020
5499 Clear 35 1013 18 10000 5.1 310 20:20 16.07.2020
5500 Clear 36 1013 18 10000 6.2 320 19:48 16.07.2020
5501 Clear 35 1013 18 10000 7.2 340 19:29 16.07.2020
5502 Clear 35 1013 18 10000 6.2 340 18:57 16.07.2020
5503 Clear 35 1013 18 10000 6.2 340 18:57 16.07.2020
5504 Clear 35 1013 18 10000 6.2 340 18:38 16.07.2020
5505 Clear 36 1013 19 10000 4.6 260 18:19 16.07.2020
5506 Clear 37 1013 17 10000 2.6 0 17:39 16.07.2020
5507 Clear 37 1014 18 10000 3.1 70 17:19 16.07.2020
5508 Clear 37 1014 18 10000 2.6 90 16:58 16.07.2020
5509 Clear 37 1014 18 10000 2.6 90 16:39 16.07.2020
5510 Clear 37 1014 20 10000 2.6 70 16:21 16.07.2020
5511 Clear 36 1014 22 10000 2.1 0 15:45 16.07.2020
5512 Clear 35 1015 22 10000 1.5 0 15:27 16.07.2020
5513 Clear 35 1015 21 10000 1.5 0 14:58 16.07.2020
5514 Clear 35 1015 21 10000 1.5 0 14:37 16.07.2020
5515 Clear 33 1015 23 10000 2.1 0 14:19 16.07.2020
5516 Clear 33 1015 23 10000 2.6 80 13:58 16.07.2020
5517 Clear 33 1015 23 10000 2.6 80 13:36 16.07.2020
5518 Clear 32 1015 25 10000 3.6 70 13:18 16.07.2020
5519 Clear 31 1015 27 10000 4.1 60 12:41 16.07.2020
5520 Clear 30 1015 25 10000 4.6 60 12:19 16.07.2020
5521 Clear 30 1015 27 10000 4.6 50 11:56 16.07.2020
5522 Clear 30 1015 27 10000 4.6 50 11:56 16.07.2020
5523 Clear 30 1015 27 10000 4.6 50 11:36 16.07.2020
5524 Clear 29 1015 30 10000 4.6 50 11:18 16.07.2020
5525 Clear 28 1015 34 10000 4.1 60 10:42 16.07.2020
5526 Clear 27 1014 44 10000 2.6 50 10:21 16.07.2020
5527 Clear 27 1014 44 10000 3.1 60 09:57 16.07.2020
5528 Clear 27 1014 44 10000 3.1 60 09:39 16.07.2020
5529 Clear 27 1014 44 10000 3.1 60 09:39 16.07.2020
5530 Clear 26 1014 28 10000 3.1 60 09:18 16.07.2020
5531 Clear 25 1014 28 10000 3.1 10 08:41 16.07.2020
5532 Clear 25 1013 24 10000 3.6 20 08:23 16.07.2020
5533 Clear 25 1013 28 10000 3.6 20 07:48 16.07.2020
5534 Clear 25 1013 28 10000 3.1 10 07:26 16.07.2020
5535 Clear 25 1013 28 10000 3.1 10 06:55 16.07.2020
5536 Clear 26 1013 28 10000 3.1 360 06:37 16.07.2020
5537 Clear 26 1013 28 10000 3.1 360 06:18 16.07.2020
5538 Clear 26 1013 30 10000 3.6 350 05:30 16.07.2020
5539 Clear 26 1013 32 10000 3.1 350 04:18 16.07.2020
5540 Clear 26 1013 34 10000 3.1 350 03:37 16.07.2020
5541 Clear 27 1014 32 10000 3.6 340 03:18 16.07.2020
5542 Clear 28 1014 30 10000 4.1 330 02:26 16.07.2020
5543 Clear 28 1014 30 10000 4.1 330 01:49 16.07.2020
5544 Clear 28 1013 30 10000 5.1 340 00:59 16.07.2020
5545 Clear 28 1013 30 10000 5.1 330 00:37 16.07.2020
5546 Clear 28 1013 30 10000 5.1 320 23:57 15.07.2020
5547 Clear 28 1013 30 10000 5.1 320 23:39 15.07.2020
5548 Clear 29 1012 30 10000 5.1 320 23:21 15.07.2020
5549 Clear 29 1012 30 10000 6.2 320 22:58 15.07.2020
5550 Clear 29 1012 30 10000 6.2 320 22:38 15.07.2020
5551 Clear 29 1012 30 10000 5.7 320 22:18 15.07.2020
5552 Clear 30 1012 29 10000 5.7 320 21:55 15.07.2020
5553 Clear 30 1012 29 10000 5.7 320 21:37 15.07.2020
5554 Clear 31 1012 27 10000 6.2 320 21:18 15.07.2020
5555 Clear 32 1012 31 10000 5.1 300 20:55 15.07.2020
5556 Clear 32 1012 31 10000 5.1 300 20:36 15.07.2020
5557 Clear 32 1012 29 10000 4.6 270 20:18 15.07.2020
5558 Clear 32 1012 29 10000 4.6 270 19:54 15.07.2020
5559 Clear 32 1013 31 10000 6.7 240 19:36 15.07.2020
5560 Clear 32 1013 31 10000 6.7 240 19:18 15.07.2020
5561 Clear 31 1013 33 10000 6.7 230 18:41 15.07.2020
5562 Clear 30 1013 31 10000 6.2 230 18:22 15.07.2020
5563 Clear 30 1013 31 10000 5.1 200 17:57 15.07.2020
5564 Clear 31 1013 31 10000 5.1 200 17:38 15.07.2020
5565 Clear 32 1013 30 10000 2.6 0 17:20 15.07.2020
5566 Clear 32 1013 28 10000 2.1 0 16:57 15.07.2020
5567 Clear 32 1013 28 10000 2.1 0 16:38 15.07.2020
5568 Clear 32 1014 29 10000 2.6 0 16:20 15.07.2020
5569 Clear 32 1014 31 10000 2.6 120 15:42 15.07.2020
5570 Clear 31 1014 35 10000 2.6 110 15:23 15.07.2020
5571 Clear 31 1014 37 10000 3.6 0 14:56 15.07.2020
5572 Clear 31 1014 37 10000 3.6 0 14:38 15.07.2020
5573 Clear 29 1014 39 10000 3.1 70 14:19 15.07.2020
5574 Clear 28 1014 45 10000 3.6 50 13:43 15.07.2020
5575 Clear 28 1014 47 10000 3.6 80 13:24 15.07.2020
5576 Clear 27 1014 50 10000 4.6 40 12:57 15.07.2020
5577 Clear 27 1014 50 10000 4.6 40 12:38 15.07.2020
5578 Clear 25 1014 57 10000 5.1 60 12:20 15.07.2020
5579 Clear 25 1013 53 10000 5.7 60 11:47 15.07.2020
5580 Clear 24 1013 60 10000 4.6 60 11:22 15.07.2020
5581 Clear 22 1013 68 10000 3.1 50 10:59 15.07.2020
5582 Clear 22 1013 68 10000 3.1 50 10:41 15.07.2020
5583 Clear 21 1013 77 10000 3.1 70 10:22 15.07.2020
5584 Clear 20 1012 72 10000 2.6 30 09:55 15.07.2020
5585 Clear 20 1012 72 10000 2.6 30 09:36 15.07.2020
5586 Clear 19 1012 82 10000 2.1 10 09:18 15.07.2020
5587 Clear 18 1012 77 10000 4.6 340 08:42 15.07.2020
5588 Clear 18 1012 77 10000 4.1 330 08:24 15.07.2020
5589 Clear 18 1012 77 10000 4.1 330 07:43 15.07.2020
5590 Clear 18 1011 77 10000 4.6 330 07:25 15.07.2020
5591 Clear 19 1011 77 10000 5.7 330 06:42 15.07.2020
5592 Clear 18 1011 77 10000 7.7 320 05:55 15.07.2020
5593 Clear 18 1012 77 10000 7.7 320 05:26 15.07.2020
5594 Clear 18 1012 82 10000 6.7 320 04:29 15.07.2020
5595 Clear 19 1012 82 10000 6.2 300 03:25 15.07.2020
5596 Clear 19 1013 77 10000 8.2 340 01:53 15.07.2020
5597 Clear 19 1013 77 10000 8.2 340 01:25 15.07.2020
5598 Clear 19 1013 72 10000 6.7 340 00:49 15.07.2020
5599 Clear 19 1013 72 10000 4.6 330 00:27 15.07.2020
5600 Clouds 19 1013 72 10000 6.7 330 23:46 14.07.2020
5601 Clouds 19 1013 68 10000 2.6 0 23:27 14.07.2020
5602 Clouds 20 1013 68 10000 6.2 340 22:41 14.07.2020
5603 Clouds 20 1013 64 10000 5.7 320 22:21 14.07.2020
5604 Clouds 20 1013 64 10000 5.7 320 22:21 14.07.2020
5605 Clouds 21 1013 60 10000 7.7 320 21:57 14.07.2020
5606 Clouds 21 1013 60 10000 7.7 320 21:39 14.07.2020
5607 Clear 21 1013 49 10000 8.7 320 21:21 14.07.2020
5608 Clear 23 1012 47 10000 7.7 310 20:59 14.07.2020
5609 Clear 24 1012 47 10000 7.7 310 20:41 14.07.2020
5610 Clear 24 1012 44 10000 8.7 320 20:20 14.07.2020
5611 Clear 25 1012 44 10000 8.7 320 19:41 14.07.2020
5612 Clear 26 1013 39 10000 6.7 320 19:22 14.07.2020
5613 Clear 26 1013 34 10000 6.7 320 18:59 14.07.2020
5614 Clear 26 1013 34 10000 6.7 320 18:41 14.07.2020
5615 Clear 28 1013 37 10000 8.7 320 18:19 14.07.2020
5616 Clear 27 1014 37 10000 7.7 310 17:56 14.07.2020
5617 Clear 27 1014 37 10000 7.7 310 17:37 14.07.2020
5618 Clear 28 1014 39 10000 6.2 320 17:19 14.07.2020
5619 Clear 28 1014 42 10000 7.7 320 16:44 14.07.2020
5620 Clear 27 1014 42 10000 8.2 330 16:26 14.07.2020
5621 Clear 28 1014 40 10000 7.7 320 15:59 14.07.2020
5622 Clear 28 1014 40 10000 7.7 320 15:39 14.07.2020
5623 Clear 28 1015 42 10000 6.7 320 15:21 14.07.2020
5624 Clear 28 1015 40 10000 7.2 330 14:45 14.07.2020
5625 Clouds 29 1015 42 10000 6.2 330 14:27 14.07.2020
5626 Clouds 28 1015 45 10000 5.7 320 13:56 14.07.2020
5627 Clear 28 1015 45 10000 5.7 320 13:37 14.07.2020
5628 Clear 28 1015 45 10000 5.7 320 13:37 14.07.2020
5629 Clear 28 1015 48 10000 5.1 340 13:19 14.07.2020
5630 Clear 28 1015 48 10000 5.1 340 12:40 14.07.2020
5631 Clear 26 1015 54 10000 3.1 0 12:21 14.07.2020
5632 Clear 26 1015 53 10000 6.7 310 11:55 14.07.2020
5633 Clear 26 1015 53 10000 6.7 310 11:55 14.07.2020
5634 Clear 25 1015 53 10000 6.7 310 11:37 14.07.2020
5635 Clear 24 1015 57 10000 5.7 320 11:18 14.07.2020
5636 Clear 24 1015 60 10000 6.7 310 10:42 14.07.2020
5637 Clear 23 1015 56 10000 5.7 330 10:24 14.07.2020
5638 Clear 22 1015 60 10000 4.6 330 09:42 14.07.2020
5639 Clouds 21 1015 68 10000 6.7 310 09:23 14.07.2020
5640 Clouds 22 1015 68 10000 6.2 310 08:59 14.07.2020
5641 Clouds 21 1015 68 10000 6.2 310 08:40 14.07.2020
5642 Clear 21 1015 68 10000 6.2 310 08:22 14.07.2020
5643 Clear 21 1015 68 10000 6.2 310 07:55 14.07.2020
5644 Clear 21 1015 68 10000 6.2 310 07:36 14.07.2020
5645 Clear 21 1015 77 10000 7.2 310 07:18 14.07.2020
5646 Clear 21 1015 77 10000 6.7 310 06:27 14.07.2020
5647 Clear 22 1015 68 10000 5.7 320 05:55 14.07.2020
5648 Clear 23 1015 60 10000 3.6 330 04:54 14.07.2020
5649 Clear 23 1015 60 10000 3.6 330 04:34 14.07.2020
5650 Clear 23 1016 64 10000 3.6 320 03:33 14.07.2020
5651 Clear 24 1017 53 10000 5.1 360 02:31 14.07.2020
5652 Clear 25 1017 53 10000 6.2 350 01:45 14.07.2020
5653 Clear 25 1016 57 10000 6.2 340 01:24 14.07.2020
5654 Clear 25 1016 57 10000 7.7 330 00:46 14.07.2020
5655 Clear 25 1016 57 10000 5.7 310 00:27 14.07.2020
5656 Clear 25 1016 57 10000 6.2 320 23:40 13.07.2020
5657 Clear 25 1016 57 10000 6.7 320 23:20 13.07.2020
5658 Clear 26 1016 54 10000 7.2 320 22:59 13.07.2020
5659 Clear 26 1016 54 10000 7.2 320 22:40 13.07.2020
5660 Clear 26 1016 48 10000 7.7 330 22:20 13.07.2020
5661 Clear 28 1016 45 10000 5.7 310 21:56 13.07.2020
5662 Clear 28 1016 45 10000 5.7 310 21:38 13.07.2020
5663 Clear 28 1016 42 10000 8.7 330 21:19 13.07.2020
5664 Clear 30 1016 38 10000 9.8 330 20:57 13.07.2020
5665 Clear 30 1016 38 10000 9.8 330 20:38 13.07.2020
5666 Clear 30 1016 38 10000 6.7 310 20:19 13.07.2020
5667 Clear 31 1016 38 10000 6.2 310 19:43 13.07.2020
5668 Clear 32 1016 36 10000 6.7 310 19:25 13.07.2020
5669 Clear 33 1016 34 10000 5.7 300 18:59 13.07.2020
5670 Clear 33 1016 34 10000 5.7 300 18:40 13.07.2020
5671 Clear 33 1016 30 10000 5.7 310 18:21 13.07.2020
5672 Clear 34 1016 26 10000 5.1 310 17:56 13.07.2020
5673 Clear 34 1016 26 10000 5.1 310 17:56 13.07.2020
5674 Clear 35 1016 26 10000 5.1 310 17:37 13.07.2020
5675 Clear 34 1016 26 10000 4.1 300 17:19 13.07.2020
5676 Clear 35 1016 28 10000 3.6 320 16:55 13.07.2020
5677 Clear 35 1016 28 10000 3.6 320 16:36 13.07.2020
5678 Clear 35 1017 30 10000 2.6 280 16:18 13.07.2020
5679 Clear 34 1017 30 10000 2.6 170 15:55 13.07.2020
5680 Clear 34 1017 30 10000 2.6 170 15:37 13.07.2020
5681 Clear 34 1017 30 10000 2.1 0 15:18 13.07.2020
5682 Clear 33 1018 32 10000 3.1 80 14:55 13.07.2020
5683 Clear 33 1018 32 10000 3.1 80 14:36 13.07.2020
5684 Clear 33 1018 33 10000 3.6 90 14:18 13.07.2020
5685 Clear 32 1018 33 10000 3.6 90 13:41 13.07.2020
5686 Clear 30 1018 36 10000 3.6 70 13:21 13.07.2020
5687 Clear 30 1018 36 10000 3.6 70 12:54 13.07.2020
5688 Clear 28 1018 45 10000 2.1 0 12:36 13.07.2020
5689 Clear 29 1018 45 10000 2.1 0 12:18 13.07.2020
5690 Clear 28 1018 54 10000 1 0 11:40 13.07.2020
5691 Clear 27 1018 65 10000 1 0 11:22 13.07.2020
5692 Clear 26 1018 65 10000 1.5 100 10:43 13.07.2020
5693 Clear 24 1017 73 10000 1 0 10:20 13.07.2020
5694 Clear 25 1017 73 10000 2.1 60 09:54 13.07.2020
5695 Clear 24 1017 73 10000 2.1 60 09:36 13.07.2020
5696 Clear 22 1017 73 10000 1.5 30 09:18 13.07.2020
5697 Clear 22 1017 56 10000 2.6 340 08:42 13.07.2020
5698 Clear 22 1016 56 10000 1.5 20 08:21 13.07.2020
5699 Clear 21 1016 56 10000 2.6 360 07:22 13.07.2020
5700 Clear 22 1016 53 10000 2.6 310 06:53 13.07.2020
5701 Clear 22 1016 44 10000 4.1 320 06:33 13.07.2020
5702 Clear 22 1016 41 10000 3.6 330 05:30 13.07.2020
5703 Clear 23 1017 56 10000 2.1 330 02:46 13.07.2020
5704 Clear 23 1017 60 10000 2.6 350 01:43 13.07.2020
5705 Clear 23 1017 60 10000 3.6 340 01:21 13.07.2020
5706 Clear 24 1017 60 10000 3.6 340 00:44 13.07.2020
5707 Clear 24 1017 60 10000 5.1 310 00:22 13.07.2020
5708 Clear 24 1016 60 10000 5.1 320 23:43 12.07.2020
5709 Clear 25 1016 57 10000 5.7 320 23:23 12.07.2020
5710 Clear 25 1015 57 10000 6.2 310 22:57 12.07.2020
5711 Clear 25 1015 57 10000 6.2 310 22:37 12.07.2020
5712 Clear 26 1015 54 10000 5.7 310 22:19 12.07.2020
5713 Clear 27 1015 51 10000 4.6 310 21:57 12.07.2020
5714 Clear 27 1015 51 10000 4.6 310 21:39 12.07.2020
5715 Clear 28 1015 51 10000 3.6 310 21:19 12.07.2020
5716 Clear 28 1015 51 10000 3.6 310 21:19 12.07.2020
5717 Clear 28 1015 45 10000 4.1 320 20:57 12.07.2020
5718 Clear 28 1015 45 10000 4.1 320 20:57 12.07.2020
5719 Clear 28 1015 45 10000 4.1 320 20:38 12.07.2020
5720 Clear 29 1015 43 10000 4.6 330 20:19 12.07.2020
5721 Clear 29 1015 43 10000 4.6 330 19:40 12.07.2020
5722 Clear 29 1015 43 10000 5.1 340 19:22 12.07.2020
5723 Clear 29 1015 35 10000 5.7 240 18:58 12.07.2020
5724 Clear 30 1015 35 10000 5.7 240 18:39 12.07.2020
5725 Clear 31 1015 29 10000 5.1 210 18:18 12.07.2020
5726 Clear 30 1015 29 10000 4.6 230 17:39 12.07.2020
5727 Clear 30 1015 31 10000 4.6 220 17:21 12.07.2020
5728 Clear 29 1015 29 10000 4.6 230 16:56 12.07.2020
5729 Clear 29 1015 29 10000 4.6 230 16:38 12.07.2020
5730 Clear 29 1015 29 10000 4.1 0 16:18 12.07.2020
5731 Clear 29 1015 33 10000 3.1 0 15:41 12.07.2020
5732 Clear 29 1016 35 10000 2.6 0 15:21 12.07.2020
5733 Clear 28 1016 42 10000 2.1 160 14:42 12.07.2020
5734 Clear 27 1016 48 10000 2.1 0 14:23 12.07.2020
5735 Clear 26 1016 54 10000 2.1 90 13:41 12.07.2020
5736 Clear 25 1016 54 10000 2.1 110 13:22 12.07.2020
5737 Clear 24 1015 61 10000 1.5 0 12:58 12.07.2020
5738 Clear 24 1015 61 10000 1.5 0 12:40 12.07.2020
5739 Clear 24 1016 64 10000 2.1 100 12:19 12.07.2020
5740 Clear 23 1015 69 10000 1.5 60 11:57 12.07.2020
5741 Clear 23 1015 69 10000 1.5 60 11:39 12.07.2020
5742 Clear 22 1015 73 10000 1.5 0 11:18 12.07.2020
5743 Clouds 21 1015 77 10000 2.1 60 10:41 12.07.2020
5744 Clear 20 1015 77 10000 1.5 50 10:20 12.07.2020
5745 Clear 19 1015 82 10000 2.6 350 09:43 12.07.2020
5746 Clouds 19 1014 88 10000 3.1 310 09:22 12.07.2020
5747 Clouds 18 1014 88 10000 3.1 320 08:58 12.07.2020
5748 Clouds 18 1014 88 10000 3.1 320 08:39 12.07.2020
5749 Clouds 18 1014 88 10000 3.6 330 08:21 12.07.2020
5750 Clouds 18 1014 88 10000 3.6 330 07:50 12.07.2020
5751 Clouds 18 1013 88 10000 4.1 320 07:31 12.07.2020
5752 Clouds 18 1013 88 10000 4.1 320 06:57 12.07.2020
5753 Clouds 18 1013 88 10000 4.1 320 06:38 12.07.2020
5754 Clouds 18 1013 88 10000 4.6 310 06:19 12.07.2020
5755 Clouds 19 1012 72 10000 3.6 320 04:59 12.07.2020
5756 Clouds 19 1013 72 10000 2.1 300 04:29 12.07.2020
5757 Clouds 20 1013 64 10000 1.5 0 03:46 12.07.2020
5758 Clouds 21 1013 64 10000 3.6 310 03:28 12.07.2020
5759 Clouds 20 1013 64 10000 4.1 300 02:27 12.07.2020
5760 Clouds 20 1013 72 10000 4.6 310 01:31 12.07.2020
5761 Clouds 20 1013 72 10000 5.1 300 00:40 12.07.2020
5762 Clouds 20 1013 72 10000 4.6 300 00:22 12.07.2020
5763 Clouds 21 1013 72 10000 3.1 340 23:55 11.07.2020
5764 Clouds 21 1013 72 10000 3.1 340 23:36 11.07.2020
5765 Clouds 21 1012 73 10000 4.1 330 23:18 11.07.2020
5766 Clouds 22 1012 68 10000 4.6 310 22:43 11.07.2020
5767 Rain 22 1012 68 10000 5.7 290 22:24 11.07.2020
5768 Rain 23 1011 64 10000 8.2 300 21:57 11.07.2020
5769 Rain 24 1011 64 10000 8.2 300 21:38 11.07.2020
5770 Clouds 26 1011 57 10000 7.7 310 21:19 11.07.2020
5771 Clouds 26 1011 51 10000 7.7 310 20:55 11.07.2020
5772 Clouds 26 1011 51 10000 7.7 310 20:55 11.07.2020
5773 Clouds 27 1011 51 10000 7.7 310 20:37 11.07.2020
5774 Clouds 28 1011 45 10000 6.2 310 20:18 11.07.2020
5775 Clouds 29 1011 42 10000 5.1 310 19:50 11.07.2020
5776 Clouds 30 1011 42 10000 5.1 310 19:31 11.07.2020
5777 Clouds 30 1011 35 10000 4.1 300 18:58 11.07.2020
5778 Clouds 31 1011 35 10000 4.1 300 18:40 11.07.2020
5779 Clouds 31 1011 38 10000 4.1 310 18:22 11.07.2020
5780 Clouds 31 1012 38 10000 5.1 330 17:59 11.07.2020
5781 Clouds 32 1012 38 10000 5.1 330 17:39 11.07.2020
5782 Clear 32 1012 36 10000 5.1 340 17:19 11.07.2020
5783 Clear 32 1012 36 10000 4.6 330 16:56 11.07.2020
5784 Clear 32 1012 36 10000 4.6 330 16:38 11.07.2020
5785 Clear 32 1012 38 10000 4.1 330 16:19 11.07.2020
5786 Clear 31 1012 38 10000 2.1 0 15:42 11.07.2020
5787 Clear 29 1012 43 10000 3.1 90 15:21 11.07.2020
5788 Clear 30 1012 43 10000 1.5 0 14:59 11.07.2020
5789 Clear 30 1012 43 10000 1.5 0 14:40 11.07.2020
5790 Clear 28 1012 48 10000 2.6 100 14:22 11.07.2020
5791 Clear 28 1012 48 10000 2.1 90 13:44 11.07.2020
5792 Clear 26 1013 48 10000 2.6 360 13:23 11.07.2020
5793 Clear 26 1013 48 10000 2.6 360 12:59 11.07.2020
5794 Clear 26 1013 48 10000 2.6 360 12:41 11.07.2020
5795 Clear 25 1013 57 10000 2.6 20 12:23 11.07.2020
5796 Clear 24 1013 64 10000 2.6 350 11:57 11.07.2020
5797 Clear 23 1013 64 10000 2.6 350 11:39 11.07.2020
5798 Clear 22 1013 68 10000 3.6 340 11:19 11.07.2020
5799 Clear 21 1013 68 10000 2.6 330 10:45 11.07.2020
5800 Clear 20 1013 72 10000 3.1 330 10:26 11.07.2020
5801 Clouds 19 1013 82 10000 4.1 330 09:56 11.07.2020
5802 Clouds 19 1013 82 10000 4.1 330 09:37 11.07.2020
5803 Clear 19 1012 77 10000 3.1 340 09:18 11.07.2020
5804 Clouds 18 1012 88 10000 4.1 340 08:38 11.07.2020
5805 Clouds 18 1012 88 10000 6.2 320 08:19 11.07.2020
5806 Clouds 18 1012 88 10000 6.2 320 07:46 11.07.2020
5807 Clear 18 1012 88 10000 6.7 320 07:27 11.07.2020
5808 Clear 18 1012 82 10000 6.7 320 06:59 11.07.2020
5809 Clear 18 1012 82 10000 6.7 310 06:22 11.07.2020
5810 Clear 18 1012 88 10000 6.7 310 05:42 11.07.2020
5811 Clear 18 1013 82 10000 4.6 320 04:57 11.07.2020
5812 Clear 18 1013 82 10000 4.6 320 04:37 11.07.2020
5813 Clear 18 1013 82 10000 3.1 320 04:18 11.07.2020
5814 Clear 19 1013 82 10000 6.7 310 02:51 11.07.2020
5815 Clear 19 1014 77 10000 8.2 310 01:53 11.07.2020
5816 Clear 19 1014 77 10000 7.7 310 01:20 11.07.2020
5817 Clear 19 1014 77 10000 6.7 310 00:41 11.07.2020
5818 Clear 19 1014 77 10000 7.2 320 00:22 11.07.2020
5819 Clear 20 1014 72 10000 6.7 320 23:58 10.07.2020
5820 Clear 20 1014 72 10000 6.7 320 23:40 10.07.2020
5821 Clear 20 1014 72 10000 5.7 320 23:21 10.07.2020
5822 Clear 21 1014 68 10000 5.7 320 22:49 10.07.2020
5823 Clear 22 1013 60 10000 4.6 330 22:24 10.07.2020
5824 Clear 23 1013 53 10000 5.7 320 21:59 10.07.2020
5825 Clear 23 1013 53 10000 5.7 320 21:38 10.07.2020
5826 Clear 25 1013 53 10000 6.7 320 21:20 10.07.2020
5827 Clear 25 1013 50 10000 7.2 310 20:54 10.07.2020
5828 Clear 24 1013 50 10000 7.2 310 20:54 10.07.2020
5829 Clear 24 1013 50 10000 7.2 310 20:36 10.07.2020
5830 Clear 25 1013 50 10000 7.7 330 20:18 10.07.2020
5831 Clear 26 1013 50 10000 7.7 330 19:42 10.07.2020
5832 Clear 26 1013 50 10000 7.2 310 19:21 10.07.2020
5833 Clear 26 1013 47 10000 6.2 310 18:55 10.07.2020
5834 Clear 26 1013 44 10000 7.7 340 18:37 10.07.2020
5835 Clear 26 1013 44 10000 7.7 340 18:18 10.07.2020
5836 Clear 27 1014 42 10000 6.2 310 17:43 10.07.2020
5837 Clear 27 1014 42 10000 6.2 330 17:23 10.07.2020
5838 Clear 27 1014 42 10000 5.7 320 16:57 10.07.2020
5839 Clear 27 1014 42 10000 5.7 320 16:39 10.07.2020
5840 Clear 27 1014 42 10000 5.1 320 16:18 10.07.2020
5841 Clear 28 1015 42 10000 4.6 310 15:44 10.07.2020
5842 Clouds 26 1015 50 10000 5.1 320 15:21 10.07.2020
5843 Clouds 27 1015 44 10000 6.2 330 14:54 10.07.2020
5844 Clouds 26 1015 44 10000 6.2 330 14:36 10.07.2020
5845 Clouds 25 1015 53 10000 5.1 320 14:18 10.07.2020
5846 Clouds 25 1015 47 10000 5.1 350 13:54 10.07.2020
5847 Clouds 25 1015 47 10000 5.1 350 13:36 10.07.2020
5848 Clouds 24 1015 57 10000 4.6 310 13:18 10.07.2020
5849 Clouds 23 1015 60 10000 5.1 330 12:42 10.07.2020
5850 Clouds 23 1015 64 10000 6.2 340 12:23 10.07.2020
5851 Clouds 22 1015 64 10000 6.2 340 11:58 10.07.2020
5852 Clouds 22 1016 64 10000 5.1 330 11:38 10.07.2020
5853 Clouds 22 1015 68 10000 6.7 340 11:18 10.07.2020
5854 Clouds 21 1015 72 10000 6.2 340 10:41 10.07.2020
5855 Clouds 19 1015 82 10000 7.2 320 10:21 10.07.2020
5856 Clouds 19 1015 82 10000 7.2 320 09:59 10.07.2020
5857 Clouds 19 1015 82 10000 7.2 320 09:37 10.07.2020
5858 Clouds 19 1015 82 10000 7.7 320 09:19 10.07.2020
5859 Clouds 18 1015 88 10000 6.2 320 08:56 10.07.2020
5860 Clouds 18 1015 88 10000 6.2 320 08:37 10.07.2020
5861 Clouds 18 1015 88 10000 6.2 320 08:19 10.07.2020
5862 Clouds 18 1015 88 10000 8.2 330 07:41 10.07.2020
5863 Clear 18 1015 82 10000 4.6 340 07:22 10.07.2020
5864 Clear 18 1015 82 10000 2.1 330 06:49 10.07.2020
5865 Clouds 18 1015 88 10000 7.7 330 05:55 10.07.2020
5866 Clouds 18 1016 82 10000 7.7 340 04:33 10.07.2020
5867 Clouds 18 1016 82 10000 4.6 340 03:31 10.07.2020
5868 Clear 19 1016 77 10000 9.8 330 02:51 10.07.2020
5869 Clear 19 1017 72 10000 7.7 330 01:48 10.07.2020
5870 Clear 19 1017 72 10000 7.7 340 00:47 10.07.2020
5871 Clear 20 1017 64 10000 6.7 350 00:19 10.07.2020
5872 Clear 20 1016 64 10000 6.2 350 23:46 09.07.2020
5873 Clear 20 1016 60 10000 11.3 330 23:21 09.07.2020
5874 Clear 20 1015 60 10000 10.8 330 22:58 09.07.2020
5875 Clear 20 1015 60 10000 10.8 330 22:40 09.07.2020
5876 Clouds 20 1015 64 10000 8.7 310 22:21 09.07.2020
5877 Clouds 21 1015 64 10000 8.2 320 21:56 09.07.2020
5878 Clouds 21 1015 64 10000 8.2 320 21:38 09.07.2020
5879 Clouds 23 1015 64 10000 8.2 320 21:19 09.07.2020
5880 Clouds 23 1015 60 10000 6.7 310 20:44 09.07.2020
5881 Clouds 23 1015 57 10000 7.7 320 20:25 09.07.2020
5882 Clouds 24 1015 54 10000 7.2 320 19:58 09.07.2020
5883 Clouds 24 1015 54 10000 7.2 320 19:40 09.07.2020
5884 Clouds 25 1016 54 10000 5.7 320 19:20 09.07.2020
5885 Clouds 25 1016 57 10000 4.6 310 18:42 09.07.2020
5886 Clouds 24 1016 61 10000 5.7 310 18:22 09.07.2020
5887 Clouds 25 1016 61 10000 6.2 310 17:55 09.07.2020
5888 Clouds 25 1016 61 10000 6.2 310 17:37 09.07.2020
5889 Clear 25 1016 57 10000 4.1 290 17:18 09.07.2020
5890 Clear 25 1016 54 10000 4.6 330 16:55 09.07.2020
5891 Clear 26 1016 54 10000 4.6 330 16:37 09.07.2020
5892 Clear 26 1017 57 10000 3.1 330 16:18 09.07.2020
5893 Clear 26 1017 61 10000 3.6 320 15:46 09.07.2020
5894 Clouds 25 1017 61 10000 3.6 320 15:28 09.07.2020
5895 Clouds 24 1017 64 10000 3.1 310 14:59 09.07.2020
5896 Clouds 24 1017 64 10000 3.1 310 14:41 09.07.2020
5897 Clouds 22 1017 73 10000 3.1 290 14:23 09.07.2020
5898 Clouds 22 1017 78 10000 2.6 0 13:59 09.07.2020
5899 Clouds 22 1017 78 10000 2.6 0 13:41 09.07.2020
5900 Clouds 22 1017 77 10000 2.1 310 13:20 09.07.2020
5901 Clouds 20 1017 82 10000 2.6 300 12:57 09.07.2020
5902 Clouds 20 1017 82 10000 2.6 300 12:38 09.07.2020
5903 Clouds 20 1017 82 10000 2.1 330 12:20 09.07.2020
5904 Clouds 19 1017 88 10000 2.6 340 11:44 09.07.2020
5905 Clouds 19 1017 88 10000 4.1 340 11:26 09.07.2020
5906 Clouds 19 1017 88 10000 4.1 350 10:59 09.07.2020
5907 Clouds 19 1017 88 10000 4.1 350 10:41 09.07.2020
5908 Clouds 19 1016 88 10000 3.6 340 10:23 09.07.2020
5909 Clouds 19 1016 93 10000 3.6 340 09:58 09.07.2020
5910 Clouds 19 1016 93 10000 3.6 340 09:40 09.07.2020
5911 Clouds 19 1016 93 10000 3.6 340 09:40 09.07.2020
5912 Clouds 19 1016 93 10000 4.1 350 09:21 09.07.2020
5913 Clouds 18 1016 93 10000 2.6 330 08:44 09.07.2020
5914 Clouds 18 1015 88 10000 3.6 340 08:25 09.07.2020
5915 Clouds 18 1015 88 10000 5.1 340 07:47 09.07.2020
5916 Clouds 18 1015 88 10000 3.6 330 07:24 09.07.2020
5917 Clouds 18 1015 88 10000 4.1 330 06:54 09.07.2020
5918 Clouds 19 1015 88 10000 4.1 330 06:20 09.07.2020
5919 Clouds 19 1015 88 10000 5.1 330 05:26 09.07.2020
5920 Clouds 18 1015 88 10000 3.6 310 04:28 09.07.2020
5921 Clouds 18 1015 88 10000 4.1 340 02:21 09.07.2020
5922 Clouds 19 1015 88 10000 4.1 340 01:39 09.07.2020
5923 Clouds 19 1015 93 10000 3.6 310 00:53 09.07.2020
5924 Clouds 19 1015 88 10000 4.6 320 00:25 09.07.2020
5925 Clouds 19 1015 88 10000 4.1 310 23:47 08.07.2020
5926 Clouds 19 1014 82 10000 4.6 310 23:28 08.07.2020
5927 Clouds 19 1014 82 10000 5.1 300 22:59 08.07.2020
5928 Clouds 19 1014 82 10000 5.1 300 22:41 08.07.2020
5929 Clouds 19 1014 77 10000 5.1 300 22:23 08.07.2020
5930 Clouds 20 1013 72 10000 4.6 290 21:58 08.07.2020
5931 Clouds 20 1013 72 10000 4.6 290 21:39 08.07.2020
5932 Clouds 21 1013 64 10000 4.6 290 21:21 08.07.2020
5933 Clear 22 1013 64 10000 3.6 290 20:56 08.07.2020
5934 Clear 22 1013 64 10000 3.6 290 20:38 08.07.2020
5935 Clear 23 1013 64 10000 4.6 310 20:20 08.07.2020
5936 Clear 23 1014 60 10000 4.1 300 19:43 08.07.2020
5937 Clouds 23 1014 57 10000 4.1 310 19:23 08.07.2020
5938 Clouds 23 1014 60 10000 3.6 300 18:57 08.07.2020
5939 Clouds 23 1014 60 10000 3.6 300 18:39 08.07.2020
5940 Clouds 24 1014 57 10000 4.1 270 18:20 08.07.2020
5941 Clouds 24 1014 60 10000 4.6 0 17:56 08.07.2020
5942 Clouds 23 1014 60 10000 4.6 0 17:37 08.07.2020
5943 Clouds 23 1014 60 10000 4.6 280 17:19 08.07.2020
5944 Clouds 24 1014 57 10000 5.7 250 16:43 08.07.2020
5945 Clouds 23 1014 57 10000 4.1 290 16:24 08.07.2020
5946 Clouds 23 1014 60 10000 3.1 290 15:59 08.07.2020
5947 Clouds 24 1014 60 10000 3.1 290 15:41 08.07.2020
5948 Clouds 23 1014 60 10000 3.1 290 15:20 08.07.2020
5949 Clouds 23 1014 60 10000 4.1 270 14:59 08.07.2020
5950 Clouds 23 1014 60 10000 4.1 270 14:41 08.07.2020
5951 Clouds 23 1014 57 10000 3.6 0 14:19 08.07.2020
5952 Clouds 23 1015 60 10000 4.1 270 13:45 08.07.2020
5953 Clouds 22 1015 64 10000 3.6 310 13:27 08.07.2020
5954 Clouds 22 1015 64 10000 3.6 310 12:46 08.07.2020
5955 Clouds 21 1014 68 10000 3.6 290 12:22 08.07.2020
5956 Clouds 21 1014 68 10000 3.6 290 12:22 08.07.2020
5957 Clouds 20 1014 72 10000 4.6 310 11:59 08.07.2020
5958 Clouds 20 1014 72 10000 4.6 310 11:39 08.07.2020
5959 Clouds 20 1014 77 10000 3.1 290 11:20 08.07.2020
5960 Clouds 20 1014 77 10000 3.6 300 10:56 08.07.2020
5961 Clouds 19 1014 77 10000 3.6 300 10:38 08.07.2020
5962 Clouds 19 1014 77 10000 4.1 300 10:19 08.07.2020
5963 Clouds 19 1014 77 10000 4.1 280 09:41 08.07.2020
5964 Clouds 19 1013 77 10000 3.1 300 09:23 08.07.2020
5965 Clouds 18 1013 82 10000 4.1 300 08:43 08.07.2020
5966 Clouds 18 1013 82 10000 3.6 290 08:24 08.07.2020
5967 Clouds 17 1013 82 10000 2.6 300 07:48 08.07.2020
5968 Clouds 17 1013 88 10000 3.1 290 07:24 08.07.2020
5969 Clouds 17 1013 88 10000 4.1 300 06:56 08.07.2020
5970 Clouds 17 1013 88 10000 4.1 300 06:37 08.07.2020
5971 Clouds 17 1013 88 10000 3.6 300 06:19 08.07.2020
5972 Clouds 17 1013 82 10000 3.6 300 05:33 08.07.2020
5973 Clouds 17 1014 88 10000 3.1 310 04:37 08.07.2020
5974 Clouds 18 1014 88 10000 4.1 310 02:49 08.07.2020
5975 Clouds 18 1014 82 10000 5.7 290 01:57 08.07.2020
5976 Clouds 18 1014 82 10000 5.7 290 01:37 08.07.2020
5977 Clouds 19 1014 88 10000 9.3 310 00:37 08.07.2020
5978 Clouds 19 1014 88 10000 7.7 310 00:18 08.07.2020
5979 Clouds 20 1013 82 10000 8.2 320 23:41 07.07.2020
5980 Clouds 20 1013 77 10000 6.7 310 23:20 07.07.2020
5981 Clouds 21 1013 77 10000 6.2 300 22:45 07.07.2020
5982 Clouds 23 1013 68 10000 6.2 310 22:24 07.07.2020
5983 Clouds 24 1013 60 10000 6.2 310 21:59 07.07.2020
5984 Clouds 24 1013 60 10000 6.2 310 21:41 07.07.2020
5985 Clear 27 1013 51 10000 4.1 320 21:22 07.07.2020
5986 Clear 27 1013 51 10000 4.1 320 21:22 07.07.2020
5987 Clouds 26 1013 48 10000 3.6 310 20:58 07.07.2020
5988 Clouds 27 1013 48 10000 3.6 310 20:40 07.07.2020
5989 Clouds 28 1013 48 10000 3.6 310 20:22 07.07.2020
5990 Clouds 29 1013 40 10000 4.1 270 19:55 07.07.2020
5991 Clouds 29 1013 40 10000 4.1 270 19:36 07.07.2020
5992 Clouds 31 1013 28 10000 3.1 210 19:18 07.07.2020
5993 Clouds 31 1013 31 10000 3.6 220 18:54 07.07.2020
5994 Clouds 31 1013 31 10000 3.6 220 18:36 07.07.2020
5995 Clear 32 1014 33 10000 3.6 220 18:18 07.07.2020
5996 Clear 32 1014 33 10000 4.6 220 17:43 07.07.2020
5997 Clear 31 1014 36 10000 4.6 230 17:23 07.07.2020
5998 Clear 31 1014 38 10000 2.6 0 16:58 07.07.2020
5999 Clear 31 1014 38 10000 2.6 0 16:40 07.07.2020
6000 Clouds 31 1014 40 10000 2.1 0 16:21 07.07.2020
6001 Clouds 30 1014 40 10000 2.6 170 15:55 07.07.2020
6002 Clouds 30 1014 40 10000 2.6 170 15:36 07.07.2020
6003 Clouds 29 1015 43 10000 3.1 130 15:18 07.07.2020
6004 Clouds 29 1015 45 10000 2.1 130 14:42 07.07.2020
6005 Clear 28 1015 48 10000 2.6 110 14:23 07.07.2020
6006 Clear 27 1015 51 10000 2.1 0 13:43 07.07.2020
6007 Clear 27 1015 61 10000 3.1 100 13:19 07.07.2020
6008 Clear 26 1015 61 10000 2.6 80 12:56 07.07.2020
6009 Clear 26 1015 61 10000 2.6 80 12:36 07.07.2020
6010 Clear 26 1015 61 10000 2.6 80 12:18 07.07.2020
6011 Clear 24 1015 64 10000 2.1 30 11:42 07.07.2020
6012 Clear 23 1015 64 10000 2.6 350 11:21 07.07.2020
6013 Clear 22 1015 68 10000 2.1 340 10:58 07.07.2020
6014 Clear 22 1015 68 10000 2.1 340 10:39 07.07.2020
6015 Clear 21 1015 73 10000 1.5 310 10:20 07.07.2020
6016 Clear 20 1014 72 10000 2.1 340 09:42 07.07.2020
6017 Clear 19 1014 77 10000 0.57 11 09:21 07.07.2020
6018 Clear 19 1014 82 10000 1 20 08:54 07.07.2020
6019 Clear 18 1014 82 10000 1 20 08:36 07.07.2020
6020 Clear 19 1014 82 10000 2.1 360 08:18 07.07.2020
6021 Clear 19 1014 82 10000 1.5 350 07:38 07.07.2020
6022 Clear 18 1014 82 10000 2.6 350 07:19 07.07.2020
6023 Clear 18 1014 82 10000 2.6 350 06:41 07.07.2020
6024 Clear 19 1014 77 10000 2.1 320 06:22 07.07.2020
6025 Clear 20 1014 68 10000 2.6 310 05:28 07.07.2020
6026 Clear 20 1014 68 10000 1.5 330 04:52 07.07.2020
6027 Clear 20 1015 68 10000 1 0 03:43 07.07.2020
6028 Clear 20 1015 64 10000 1 0 03:23 07.07.2020
6029 Clear 22 1015 60 10000 5.7 310 01:50 07.07.2020
6030 Clear 22 1015 64 10000 5.7 310 00:59 07.07.2020
6031 Clear 23 1015 64 10000 5.7 310 00:40 07.07.2020
6032 Clear 23 1015 64 10000 6.7 310 00:20 07.07.2020
6033 Clear 23 1015 64 10000 3.6 330 23:44 06.07.2020
6034 Clear 24 1015 64 10000 2.1 350 23:25 06.07.2020
6035 Clear 24 1015 61 10000 4.1 350 22:57 06.07.2020
6036 Clear 24 1015 61 10000 4.1 350 22:39 06.07.2020
6037 Clear 25 1015 54 10000 4.1 310 22:18 06.07.2020
6038 Clear 27 1015 51 10000 4.6 300 21:56 06.07.2020
6039 Clear 27 1015 51 10000 4.6 300 21:36 06.07.2020
6040 Clear 28 1015 45 10000 3.6 300 21:18 06.07.2020
6041 Clear 29 1015 45 10000 3.6 290 20:41 06.07.2020
6042 Clear 30 1015 43 10000 4.6 310 20:21 06.07.2020
6043 Clear 30 1015 43 10000 4.6 310 19:59 06.07.2020
6044 Clear 31 1015 38 10000 5.1 320 19:41 06.07.2020
6045 Clear 32 1015 38 10000 5.1 320 19:23 06.07.2020
6046 Clear 32 1015 38 10000 5.1 320 18:58 06.07.2020
6047 Clear 32 1015 38 10000 5.1 320 18:40 06.07.2020
6048 Clear 33 1015 30 10000 4.1 310 18:22 06.07.2020
6049 Clear 33 1015 32 10000 4.6 340 17:56 06.07.2020
6050 Clear 33 1015 32 10000 4.6 340 17:37 06.07.2020
6051 Clear 33 1016 33 10000 4.6 320 17:19 06.07.2020
6052 Clear 33 1016 34 10000 5.1 320 16:43 06.07.2020
6053 Clear 33 1016 34 10000 5.1 330 16:23 06.07.2020
6054 Clear 33 1016 34 10000 3.6 330 15:57 06.07.2020
6055 Clear 33 1016 34 10000 3.6 330 15:38 06.07.2020
6056 Clear 32 1016 36 10000 3.6 340 15:19 06.07.2020
6057 Clear 32 1017 41 10000 2.1 0 14:55 06.07.2020
6058 Clear 31 1017 41 10000 2.1 0 14:36 06.07.2020
6059 Clear 30 1017 40 10000 2.1 340 14:18 06.07.2020
6060 Clear 30 1017 40 10000 2.1 340 13:40 06.07.2020
6061 Clear 28 1016 51 10000 3.1 350 13:21 06.07.2020
6062 Clear 27 1017 57 10000 3.6 320 12:45 06.07.2020
6063 Clear 25 1017 61 10000 4.1 340 12:20 06.07.2020
6064 Clear 24 1017 69 10000 3.6 340 11:59 06.07.2020
6065 Clear 24 1017 69 10000 3.6 340 11:41 06.07.2020
6066 Clouds 22 1017 69 10000 4.6 320 11:23 06.07.2020
6067 Clouds 21 1017 73 10000 5.7 320 10:59 06.07.2020
6068 Clouds 21 1017 73 10000 5.7 320 10:40 06.07.2020
6069 Clouds 21 1017 77 10000 5.1 310 10:19 06.07.2020
6070 Clouds 20 1016 77 10000 5.1 320 09:54 06.07.2020
6071 Clouds 20 1016 77 10000 5.1 320 09:36 06.07.2020
6072 Clouds 19 1016 77 10000 5.7 310 09:18 06.07.2020
6073 Clear 19 1016 77 10000 6.7 310 08:40 06.07.2020
6074 Clear 19 1016 77 10000 5.7 310 08:22 06.07.2020
6075 Clear 19 1016 77 10000 6.2 310 07:50 06.07.2020
6076 Clear 19 1016 77 10000 5.7 320 07:30 06.07.2020
6077 Clear 19 1016 77 10000 5.7 320 06:55 06.07.2020
6078 Clear 19 1016 77 10000 5.7 320 06:37 06.07.2020
6079 Clear 20 1016 72 10000 4.6 310 05:55 06.07.2020
6080 Clear 20 1016 72 10000 6.2 310 05:28 06.07.2020
6081 Clear 20 1017 68 10000 5.1 310 03:58 06.07.2020
6082 Clear 21 1017 64 10000 3.6 330 02:41 06.07.2020
6083 Clear 22 1018 60 10000 3.6 330 01:55 06.07.2020
6084 Clear 23 1018 60 10000 3.6 340 00:49 06.07.2020
6085 Clear 24 1017 56 10000 5.7 310 00:24 06.07.2020
6086 Clear 24 1017 53 10000 5.7 310 23:57 05.07.2020
6087 Clear 25 1017 53 10000 5.7 310 23:38 05.07.2020
6088 Clear 25 1017 50 10000 5.7 310 23:20 05.07.2020
6089 Clear 26 1016 47 10000 7.2 300 22:42 05.07.2020
6090 Clear 27 1016 44 10000 7.2 310 22:21 05.07.2020
6091 Clear 27 1016 45 10000 7.2 320 21:59 05.07.2020
6092 Clear 27 1016 45 10000 7.2 320 21:41 05.07.2020
6093 Clear 27 1016 42 10000 7.7 330 21:19 05.07.2020
6094 Clear 29 1016 38 10000 6.7 320 20:59 05.07.2020
6095 Clear 29 1016 38 10000 6.7 320 20:41 05.07.2020
6096 Clear 31 1016 38 10000 7.2 320 20:22 05.07.2020
6097 Clear 31 1016 38 10000 7.2 320 19:57 05.07.2020
6098 Clear 31 1016 38 10000 7.2 320 19:39 05.07.2020
6099 Clear 32 1017 31 10000 5.7 310 19:19 05.07.2020
6100 Clear 33 1017 34 10000 5.7 320 18:42 05.07.2020
6101 Clear 33 1017 34 10000 5.7 310 18:23 05.07.2020
6102 Clear 33 1017 32 10000 5.7 310 17:58 05.07.2020
6103 Clear 33 1017 32 10000 5.7 310 17:39 05.07.2020
6104 Clear 34 1017 30 10000 5.7 320 17:19 05.07.2020
6105 Clear 34 1017 28 10000 4.6 320 16:44 05.07.2020
6106 Clear 34 1017 23 10000 3.6 0 16:25 05.07.2020
6107 Clear 34 1017 25 10000 3.1 90 15:58 05.07.2020
6108 Clear 34 1017 25 10000 3.1 90 15:38 05.07.2020
6109 Clear 34 1017 26 10000 3.1 100 15:19 05.07.2020
6110 Clear 33 1018 31 10000 3.1 80 14:42 05.07.2020
6111 Clear 32 1018 29 10000 3.6 70 14:23 05.07.2020
6112 Clear 31 1018 33 10000 2.6 80 13:55 05.07.2020
6113 Clear 31 1018 33 10000 2.6 80 13:37 05.07.2020
6114 Clear 29 1018 38 10000 2.6 40 13:19 05.07.2020
6115 Clear 29 1018 38 10000 2.6 40 13:19 05.07.2020
6116 Clear 27 1018 40 10000 2.1 30 12:39 05.07.2020
6117 Clear 26 1018 48 10000 2.1 20 12:20 05.07.2020
6118 Clear 26 1018 57 10000 1.5 50 11:55 05.07.2020
6119 Clear 25 1018 57 10000 1.5 50 11:36 05.07.2020
6120 Clear 25 1018 57 10000 1.5 50 11:36 05.07.2020
6121 Clear 23 1018 64 10000 2.1 60 11:18 05.07.2020
6122 Clear 22 1018 60 10000 1.5 60 10:42 05.07.2020
6123 Clear 21 1018 68 10000 3.6 350 10:20 05.07.2020
6124 Clouds 20 1018 68 10000 5.1 320 09:59 05.07.2020
6125 Clouds 20 1018 68 10000 5.1 320 09:41 05.07.2020
6126 Clouds 19 1018 72 10000 5.7 320 09:20 05.07.2020
6127 Clouds 19 1017 72 10000 5.7 320 08:53 05.07.2020
6128 Clouds 19 1017 72 10000 5.7 320 08:34 05.07.2020
6129 Clouds 18 1017 77 10000 5.7 320 07:51 05.07.2020
6130 Clear 19 1017 77 10000 5.1 310 07:30 05.07.2020
6131 Clear 19 1017 77 10000 5.7 320 06:54 05.07.2020
6132 Clear 19 1017 77 10000 5.7 320 06:20 05.07.2020
6133 Clear 19 1019 77 10000 5.7 320 03:55 05.07.2020
6134 Clear 20 1019 68 10000 5.1 320 02:57 05.07.2020
6135 Clear 20 1019 68 10000 5.1 320 02:33 05.07.2020
6136 Clear 20 1019 68 10000 6.7 310 01:43 05.07.2020
6137 Clear 20 1019 68 10000 6.7 310 01:20 05.07.2020
6138 Clear 20 1019 68 10000 6.2 310 00:45 05.07.2020
6139 Clear 20 1019 68 10000 6.2 320 00:26 05.07.2020
6140 Clear 21 1019 64 10000 6.7 320 23:54 04.07.2020
6141 Clear 21 1019 60 10000 6.7 320 23:31 04.07.2020
6142 Clear 21 1019 53 10000 7.2 320 22:59 04.07.2020
6143 Clear 22 1019 53 10000 7.2 320 22:40 04.07.2020
6144 Clear 23 1019 49 10000 7.7 320 22:22 04.07.2020
6145 Clear 24 1019 38 10000 7.2 320 21:58 04.07.2020
6146 Clear 24 1019 38 10000 7.2 320 21:39 04.07.2020
6147 Clear 26 1018 36 10000 6.7 320 21:20 04.07.2020
6148 Clear 26 1018 32 10000 7.2 320 20:42 04.07.2020
6149 Clear 28 1019 32 10000 6.7 310 20:21 04.07.2020
6150 Clear 27 1019 32 10000 6.7 310 19:56 04.07.2020
6151 Clear 27 1019 32 10000 6.7 310 19:38 04.07.2020
6152 Clear 28 1019 35 10000 6.2 320 19:20 04.07.2020
6153 Clear 29 1019 33 10000 6.2 320 18:43 04.07.2020
6154 Clear 30 1019 31 10000 5.7 310 18:22 04.07.2020
6155 Clear 30 1019 31 10000 5.7 310 17:46 04.07.2020
6156 Clear 31 1019 33 10000 5.1 310 17:28 04.07.2020
6157 Clear 31 1020 29 10000 5.7 330 16:59 04.07.2020
6158 Clear 31 1020 29 10000 5.7 330 16:40 04.07.2020
6159 Clear 31 1020 29 10000 5.7 330 16:40 04.07.2020
6160 Clear 31 1020 33 10000 5.7 340 16:21 04.07.2020
6161 Clear 31 1020 33 10000 4.6 350 15:58 04.07.2020
6162 Clear 31 1020 33 10000 4.6 350 15:40 04.07.2020
6163 Clear 30 1020 35 10000 5.1 330 15:21 04.07.2020
6164 Clear 28 1021 37 10000 4.6 330 14:57 04.07.2020
6165 Clear 28 1021 37 10000 4.6 330 14:37 04.07.2020
6166 Clear 28 1021 37 10000 4.1 340 14:18 04.07.2020
6167 Clear 26 1021 42 10000 5.1 340 13:41 04.07.2020
6168 Clear 25 1021 42 10000 5.1 340 13:19 04.07.2020
6169 Clear 25 1021 50 10000 6.2 350 12:56 04.07.2020
6170 Clear 25 1021 50 10000 6.2 350 12:38 04.07.2020
6171 Clear 24 1021 53 10000 6.2 350 12:19 04.07.2020
6172 Clear 23 1021 60 10000 5.1 340 11:44 04.07.2020
6173 Clear 21 1021 64 10000 6.7 330 11:23 04.07.2020
6174 Clear 21 1021 68 10000 6.7 330 10:56 04.07.2020
6175 Clear 20 1021 68 10000 6.7 330 10:38 04.07.2020
6176 Clear 19 1021 77 10000 6.2 330 10:19 04.07.2020
6177 Clear 18 1021 72 10000 5.7 330 09:41 04.07.2020
6178 Clear 18 1020 77 10000 5.1 330 09:22 04.07.2020
6179 Clear 17 1020 82 10000 5.1 330 08:58 04.07.2020
6180 Clear 17 1020 82 10000 5.1 330 08:39 04.07.2020
6181 Clear 17 1020 82 10000 5.1 330 08:21 04.07.2020
6182 Clear 16 1020 82 10000 5.1 330 07:41 04.07.2020
6183 Clear 16 1020 82 10000 6.7 330 07:20 04.07.2020
6184 Clear 16 1020 82 10000 4.6 320 06:40 04.07.2020
6185 Clear 16 1020 82 10000 4.1 330 06:20 04.07.2020
6186 Clear 17 1020 77 10000 4.6 340 05:31 04.07.2020
6187 Clear 17 1021 77 10000 3.6 330 04:22 04.07.2020
6188 Clear 17 1022 77 10000 5.1 340 02:45 04.07.2020
6189 Clear 17 1022 77 10000 5.7 320 01:42 04.07.2020
6190 Clear 17 1021 72 10000 8.2 330 00:59 04.07.2020
6191 Clear 17 1021 72 10000 8.2 330 00:40 04.07.2020
6192 Clear 17 1021 72 10000 8.2 330 00:21 04.07.2020
6193 Clouds 17 1021 72 10000 7.2 320 23:39 03.07.2020
6194 Clouds 17 1021 72 10000 7.2 320 23:18 03.07.2020
6195 Clouds 18 1021 63 10000 7.2 330 22:42 03.07.2020
6196 Clouds 18 1021 59 10000 7.7 330 22:24 03.07.2020
6197 Clear 19 1020 60 10000 6.2 330 21:59 03.07.2020
6198 Clear 19 1020 60 10000 6.2 330 21:38 03.07.2020
6199 Clear 19 1020 52 10000 8.2 330 21:19 03.07.2020
6200 Clouds 20 1020 52 10000 7.2 320 20:43 03.07.2020
6201 Clouds 21 1020 49 10000 7.7 320 20:25 03.07.2020
6202 Clouds 21 1020 49 10000 7.7 320 19:59 03.07.2020
6203 Clouds 22 1020 49 10000 7.7 320 19:39 03.07.2020
6204 Clouds 22 1020 46 10000 7.7 330 19:18 03.07.2020
6205 Clouds 22 1020 46 10000 7.7 330 19:18 03.07.2020
6206 Clouds 22 1020 46 10000 6.7 320 18:45 03.07.2020
6207 Clouds 22 1020 46 10000 6.7 320 18:23 03.07.2020
6208 Clear 23 1021 46 10000 6.7 320 17:56 03.07.2020
6209 Clear 22 1021 46 10000 6.7 320 17:38 03.07.2020
6210 Clear 23 1021 43 10000 7.7 330 17:20 03.07.2020
6211 Clear 23 1021 43 10000 7.7 340 16:40 03.07.2020
6212 Clouds 23 1021 43 10000 7.2 330 16:21 03.07.2020
6213 Clouds 23 1021 44 10000 6.7 340 15:45 03.07.2020
6214 Clouds 23 1021 46 10000 7.7 360 15:24 03.07.2020
6215 Clouds 22 1021 49 10000 7.2 350 14:57 03.07.2020
6216 Clouds 22 1021 49 10000 7.2 350 14:39 03.07.2020
6217 Clouds 22 1022 46 10000 7.7 360 14:19 03.07.2020
6218 Clouds 22 1022 49 10000 7.2 350 13:47 03.07.2020
6219 Clouds 21 1022 52 10000 7.7 330 13:28 03.07.2020
6220 Clouds 21 1021 56 10000 6.7 330 12:45 03.07.2020
6221 Clouds 20 1021 60 10000 7.2 350 12:24 03.07.2020
6222 Clouds 20 1021 60 10000 7.2 330 11:58 03.07.2020
6223 Clouds 20 1021 60 10000 7.2 330 11:40 03.07.2020
6224 Clouds 19 1021 63 10000 6.2 330 11:21 03.07.2020
6225 Clouds 19 1021 68 10000 8.2 330 10:55 03.07.2020
6226 Clouds 18 1021 68 10000 8.2 330 10:37 03.07.2020
6227 Clouds 18 1021 67 10000 8.2 340 10:18 03.07.2020
6228 Clouds 17 1021 77 10000 6.7 330 09:54 03.07.2020
6229 Clouds 17 1021 77 10000 6.7 330 09:36 03.07.2020
6230 Clouds 17 1021 72 10000 6.7 340 09:18 03.07.2020
6231 Clouds 16 1021 77 10000 7.7 340 08:39 03.07.2020
6232 Clouds 16 1021 77 10000 6.7 350 08:18 03.07.2020
6233 Clouds 16 1021 77 10000 6.7 340 07:47 03.07.2020
6234 Clear 16 1021 77 10000 6.2 330 07:26 03.07.2020
6235 Clear 16 1021 77 10000 6.2 330 06:47 03.07.2020
6236 Clouds 16 1021 82 10000 7.7 340 05:57 03.07.2020
6237 Clouds 16 1021 82 10000 6.7 350 04:40 03.07.2020
6238 Clouds 17 1022 77 10000 5.7 350 02:58 03.07.2020
6239 Clouds 17 1022 77 10000 5.7 350 02:39 03.07.2020
6240 Clear 17 1022 77 10000 4.6 350 02:18 03.07.2020
6241 Clouds 17 1022 77 10000 6.2 350 01:27 03.07.2020
6242 Clouds 17 1022 77 10000 5.7 350 00:44 03.07.2020
6243 Clouds 17 1022 72 10000 5.7 350 00:21 03.07.2020
6244 Clouds 18 1022 72 10000 5.7 350 23:43 02.07.2020
6245 Clouds 18 1021 72 10000 7.2 350 23:20 02.07.2020
6246 Clouds 18 1021 63 10000 7.2 350 22:57 02.07.2020
6247 Clouds 18 1021 63 10000 7.2 350 22:39 02.07.2020
6248 Clouds 19 1021 55 10000 8.2 350 22:20 02.07.2020
6249 Clouds 19 1021 55 10000 8.2 350 22:20 02.07.2020
6250 Clouds 19 1021 52 10000 8.2 330 21:54 02.07.2020
6251 Clouds 20 1021 52 10000 8.2 330 21:36 02.07.2020
6252 Clouds 20 1021 52 10000 7.7 330 21:18 02.07.2020
6253 Clouds 20 1021 52 10000 8.2 340 20:42 02.07.2020
6254 Clouds 21 1020 49 10000 8.7 340 20:21 02.07.2020
6255 Clouds 21 1020 49 10000 8.7 340 19:59 02.07.2020
6256 Clouds 21 1020 49 10000 8.7 340 19:38 02.07.2020
6257 Clear 22 1021 40 0 6.2 310 19:20 02.07.2020
6258 Clear 23 1021 40 10000 7.2 340 18:57 02.07.2020
6259 Clear 22 1021 40 10000 7.2 340 18:38 02.07.2020
6260 Clear 23 1021 40 10000 7.7 340 18:20 02.07.2020
6261 Clear 23 1020 43 10000 8.2 350 17:40 02.07.2020
6262 Clear 23 1020 41 10000 7.7 330 17:20 02.07.2020
6263 Clear 23 1021 41 10000 7.7 350 16:56 02.07.2020
6264 Clear 23 1021 41 10000 7.7 350 16:38 02.07.2020
6265 Clear 24 1020 44 10000 7.2 350 16:19 02.07.2020
6266 Clouds 24 1021 47 10000 7.2 360 15:55 02.07.2020
6267 Clouds 24 1021 47 10000 7.2 360 15:36 02.07.2020
6268 Clouds 24 1021 47 10000 7.2 360 15:36 02.07.2020
6269 Clouds 24 1021 44 10000 6.2 360 15:18 02.07.2020
6270 Clouds 24 1021 50 10000 5.1 330 14:42 02.07.2020
6271 Clouds 24 1021 50 10000 7.2 350 14:19 02.07.2020
6272 Clouds 23 1021 53 10000 6.2 350 13:55 02.07.2020
6273 Clouds 23 1021 53 10000 6.2 350 13:36 02.07.2020
6274 Clouds 23 1020 56 10000 6.7 360 13:18 02.07.2020
6275 Clouds 23 1020 60 10000 5.7 350 12:40 02.07.2020
6276 Clouds 22 1020 60 10000 5.7 360 12:21 02.07.2020
6277 Clouds 22 1020 60 10000 5.1 330 11:45 02.07.2020
6278 Clouds 21 1020 68 10000 4.6 340 11:27 02.07.2020
6279 Clouds 20 1020 72 10000 3.6 340 10:58 02.07.2020
6280 Clouds 20 1020 72 10000 3.6 340 10:39 02.07.2020
6281 Clouds 19 1019 72 10000 4.6 330 10:21 02.07.2020
6282 Clouds 19 1019 77 10000 4.6 340 09:43 02.07.2020
6283 Clouds 18 1019 88 10000 3.1 320 09:22 02.07.2020
6284 Clouds 17 1019 93 10000 2.1 320 08:58 02.07.2020
6285 Clouds 17 1019 93 10000 2.1 320 08:39 02.07.2020
6286 Clouds 17 1019 93 10000 2.6 330 08:19 02.07.2020
6287 Clouds 17 1018 87 10000 1.5 330 07:42 02.07.2020
6288 Clouds 17 1018 93 10000 3.1 330 07:21 02.07.2020
6289 Clouds 17 1018 93 10000 2.6 330 06:45 02.07.2020
6290 Clouds 17 1018 88 10000 3.6 330 06:26 02.07.2020
6291 Clouds 17 1018 88 10000 3.6 330 05:48 02.07.2020
6292 Clouds 18 1018 88 10000 4.6 330 04:50 02.07.2020
6293 Clouds 18 1018 82 10000 5.7 320 03:34 02.07.2020
6294 Clouds 19 1018 88 10000 5.7 310 01:51 02.07.2020
6295 Clouds 19 1018 82 10000 5.1 330 00:44 02.07.2020
6296 Clear 19 1017 77 10000 6.7 320 00:18 02.07.2020
6297 Clouds 20 1017 82 10000 5.1 330 23:43 01.07.2020
6298 Clouds 20 1017 72 10000 5.7 310 23:22 01.07.2020
6299 Clouds 20 1016 72 10000 6.2 310 22:55 01.07.2020
6300 Clouds 20 1016 72 10000 6.2 310 22:37 01.07.2020
6301 Clouds 20 1016 73 10000 5.7 310 22:18 01.07.2020
6302 Clouds 21 1016 64 10000 6.7 320 21:56 01.07.2020
6303 Clouds 22 1016 64 10000 6.7 320 21:38 01.07.2020
6304 Clouds 22 1016 60 10000 6.7 310 21:19 01.07.2020
6305 Clouds 23 1016 60 10000 6.2 330 20:46 01.07.2020
6306 Clouds 24 1016 57 10000 7.2 330 20:26 01.07.2020
6307 Clouds 24 1016 57 10000 6.2 310 19:57 01.07.2020
6308 Clouds 24 1016 57 10000 6.2 310 19:39 01.07.2020
6309 Clouds 24 1016 57 10000 6.2 320 19:20 01.07.2020
6310 Clouds 25 1016 54 10000 5.7 310 18:55 01.07.2020
6311 Clouds 25 1016 54 10000 5.7 310 18:37 01.07.2020
6312 Clouds 25 1016 54 10000 5.7 310 18:19 01.07.2020
6313 Clouds 25 1016 54 10000 5.7 320 17:41 01.07.2020
6314 Clouds 25 1016 54 10000 6.7 340 17:20 01.07.2020
6315 Clouds 25 1017 57 10000 6.2 350 16:56 01.07.2020
6316 Clouds 25 1017 57 10000 6.2 350 16:38 01.07.2020
6317 Clouds 25 1017 61 10000 5.1 320 16:20 01.07.2020
6318 Clouds 25 1017 57 10000 4.6 300 15:41 01.07.2020
6319 Clouds 24 1017 64 10000 5.7 330 15:22 01.07.2020
6320 Clouds 24 1017 64 10000 5.1 330 14:58 01.07.2020
6321 Clouds 24 1017 64 10000 4.1 310 14:38 01.07.2020
6322 Clouds 24 1017 64 10000 4.1 310 14:19 01.07.2020
6323 Clouds 23 1017 64 10000 5.1 330 13:40 01.07.2020
6324 Clouds 23 1017 64 10000 5.1 330 13:22 01.07.2020
6325 Clouds 23 1017 69 10000 5.7 310 12:59 01.07.2020
6326 Clouds 22 1017 69 10000 5.7 310 12:41 01.07.2020
6327 Clouds 22 1017 73 10000 7.2 350 12:22 01.07.2020
6328 Clouds 22 1017 77 10000 6.2 320 11:58 01.07.2020
6329 Clouds 21 1017 77 10000 6.2 320 11:40 01.07.2020
6330 Clouds 21 1016 73 10000 5.1 330 11:21 01.07.2020
6331 Clouds 20 1016 82 10000 8.2 340 10:43 01.07.2020
6332 Clouds 20 1016 77 10000 6.7 340 10:24 01.07.2020
6333 Clouds 20 1016 77 10000 6.7 340 09:59 01.07.2020
6334 Clouds 19 1016 82 10000 6.2 340 09:38 01.07.2020
6335 Clouds 19 1016 82 10000 5.7 330 09:20 01.07.2020
6336 Clouds 19 1016 82 10000 5.7 330 09:20 01.07.2020
6337 Clouds 19 1016 82 10000 6.7 340 08:57 01.07.2020
6338 Clouds 19 1016 82 10000 6.7 340 08:38 01.07.2020
6339 Clouds 19 1015 82 10000 4.6 340 08:19 01.07.2020
6340 Clouds 19 1015 88 10000 5.7 340 07:41 01.07.2020
6341 Clouds 19 1015 88 10000 6.7 340 07:22 01.07.2020
6342 Clouds 19 1015 88 10000 6.2 330 06:54 01.07.2020
6343 Clouds 19 1015 88 10000 6.2 330 06:32 01.07.2020
6344 Clouds 19 1015 82 10000 8.2 350 05:44 01.07.2020
6345 Clouds 19 1015 88 10000 3.1 350 04:26 01.07.2020
6346 Clouds 19 1015 82 10000 5.1 350 03:40 01.07.2020
6347 Clouds 19 1015 82 10000 2.6 330 03:20 01.07.2020
6348 Clouds 19 1015 88 10000 6.2 350 01:56 01.07.2020
6349 Clouds 19 1015 82 10000 8.2 340 00:48 01.07.2020
6350 Clouds 20 1014 82 10000 9.3 330 00:28 01.07.2020
6351 Clouds 20 1014 82 10000 9.3 330 23:59 30.06.2020
6352 Clouds 20 1014 82 10000 9.3 330 23:39 30.06.2020
6353 Clouds 20 1014 77 10000 9.3 330 23:19 30.06.2020
6354 Clouds 20 1014 82 10000 8.2 320 22:42 30.06.2020
6355 Clouds 20 1013 77 10000 7.2 320 22:19 30.06.2020
6356 Clouds 21 1013 77 10000 7.2 330 21:43 30.06.2020
6357 Clouds 21 1013 73 10000 7.2 320 21:20 30.06.2020
6358 Clouds 22 1013 69 10000 6.7 320 20:59 30.06.2020
6359 Clouds 22 1013 69 10000 6.7 320 20:41 30.06.2020
6360 Clouds 22 1013 69 10000 6.7 320 20:20 30.06.2020
6361 Clouds 23 1013 69 10000 6.7 310 19:44 30.06.2020
6362 Clouds 23 1013 69 10000 6.7 310 19:21 30.06.2020
6363 Clouds 23 1013 69 10000 6.7 310 19:21 30.06.2020
6364 Clouds 23 1013 69 10000 6.7 310 19:21 30.06.2020
6365 Clouds 23 1013 64 10000 5.7 300 18:58 30.06.2020
6366 Clouds 23 1013 64 10000 5.7 300 18:40 30.06.2020
6367 Clouds 24 1013 61 10000 5.1 300 18:20 30.06.2020
6368 Clouds 24 1013 61 10000 5.1 310 17:39 30.06.2020
6369 Clouds 24 1013 57 10000 5.1 310 17:20 30.06.2020
6370 Clouds 25 1013 57 10000 5.1 320 16:57 30.06.2020
6371 Clouds 25 1013 57 10000 5.1 320 16:39 30.06.2020
6372 Clouds 25 1013 57 10000 4.6 310 16:19 30.06.2020
6373 Clouds 25 1013 57 10000 4.1 310 15:56 30.06.2020
6374 Clouds 25 1013 57 10000 4.1 310 15:37 30.06.2020
6375 Clouds 25 1014 57 10000 4.6 320 15:19 30.06.2020
6376 Clouds 24 1014 64 10000 4.6 310 14:43 30.06.2020
6377 Clouds 24 1014 64 10000 4.6 310 14:21 30.06.2020
6378 Clouds 24 1014 64 10000 4.1 310 13:54 30.06.2020
6379 Clouds 23 1014 64 10000 4.1 310 13:36 30.06.2020
6380 Clouds 23 1013 69 10000 4.1 310 13:18 30.06.2020
6381 Clouds 22 1013 73 10000 5.7 330 12:54 30.06.2020
6382 Clouds 22 1013 73 10000 5.7 330 12:36 30.06.2020
6383 Clouds 22 1013 73 10000 4.6 320 12:18 30.06.2020
6384 Clouds 21 1013 77 10000 5.1 310 11:39 30.06.2020
6385 Clouds 21 1013 77 10000 5.1 310 11:20 30.06.2020
6386 Clouds 21 1013 77 10000 5.1 310 11:20 30.06.2020
6387 Clouds 20 1013 77 10000 4.1 310 11:00 30.06.2020
6388 Clouds 27 1019 48 10000 8.2 340 16:45 28.06.2020
6389 Clouds 27 1019 48 10000 7.7 340 16:27 28.06.2020
6390 Clouds 26 1019 51 10000 7.2 330 15:59 28.06.2020
6391 Clouds 26 1019 51 10000 7.2 330 15:39 28.06.2020
6392 Clouds 26 1019 51 10000 7.2 340 15:20 28.06.2020
6393 Clouds 26 1020 54 10000 7.2 330 14:55 28.06.2020
6394 Clouds 26 1020 54 10000 7.2 330 14:37 28.06.2020
6395 Clouds 26 1020 54 10000 8.2 350 14:19 28.06.2020
6396 Clouds 25 1020 57 10000 9.3 340 13:39 28.06.2020
6397 Clouds 24 1020 60 10000 7.7 350 13:21 28.06.2020
6398 Clouds 24 1020 60 10000 6.7 340 12:57 28.06.2020
6399 Clouds 24 1020 60 10000 6.7 340 12:38 28.06.2020
6400 Clouds 23 1020 64 10000 7.2 350 12:19 28.06.2020
6401 Clouds 22 1020 68 10000 6.7 350 11:58 28.06.2020
6402 Clouds 22 1020 68 10000 6.7 350 11:39 28.06.2020
6403 Clouds 22 1020 68 10000 6.7 350 11:39 28.06.2020
6404 Clouds 21 1020 73 10000 5.1 350 11:20 28.06.2020
6405 Clouds 21 1020 73 10000 5.1 340 10:57 28.06.2020
6406 Clouds 21 1020 73 10000 5.1 340 10:39 28.06.2020
6407 Clouds 20 1020 77 10000 3.6 340 10:21 28.06.2020
6408 Clouds 20 1020 77 10000 4.1 340 09:40 28.06.2020
6409 Clouds 19 1020 82 10000 5.7 330 09:21 28.06.2020
6410 Clouds 19 1019 82 10000 5.7 330 08:53 28.06.2020
6411 Clouds 19 1019 82 10000 5.7 330 08:34 28.06.2020
6412 Clouds 19 1019 82 10000 3.6 340 07:55 28.06.2020
6413 Clouds 19 1019 82 10000 2.6 330 07:31 28.06.2020
6414 Clouds 20 1019 88 10000 2.6 360 06:55 28.06.2020
6415 Clouds 19 1019 88 10000 2.1 0 06:32 28.06.2020
6416 Clouds 19 1019 88 10000 4.6 330 05:45 28.06.2020
6417 Clouds 19 1019 88 10000 5.1 330 04:24 28.06.2020
6418 Clouds 20 1020 93 10000 5.1 330 02:56 28.06.2020
6419 Clouds 20 1020 88 10000 5.7 330 02:19 28.06.2020
6420 Clouds 20 1020 88 10000 6.2 320 01:27 28.06.2020
6421 Clouds 20 1020 93 10000 5.1 310 00:55 28.06.2020
6422 Clouds 20 1020 93 10000 5.1 310 00:29 28.06.2020
6423 Clouds 20 1020 88 10000 4.6 310 23:58 27.06.2020
6424 Clouds 20 1020 88 10000 4.6 310 23:39 27.06.2020
6425 Clouds 20 1019 88 10000 6.2 310 23:19 27.06.2020
6426 Clouds 20 1019 88 10000 6.7 310 22:42 27.06.2020
6427 Clouds 20 1019 83 10000 5.1 310 22:23 27.06.2020
6428 Clouds 20 1019 83 10000 5.1 310 22:23 27.06.2020
6429 Clouds 21 1019 78 10000 6.2 310 21:59 27.06.2020
6430 Clouds 21 1019 78 10000 6.2 310 21:40 27.06.2020
6431 Clouds 22 1019 73 10000 5.7 300 21:20 27.06.2020
6432 Clouds 22 1019 73 10000 5.7 300 21:20 27.06.2020
6433 Clouds 22 1019 69 10000 5.1 310 20:55 27.06.2020
6434 Clouds 22 1019 69 10000 5.1 310 20:37 27.06.2020
6435 Clouds 22 1019 69 10000 5.7 310 20:18 27.06.2020
6436 Clouds 24 1019 61 10000 5.1 310 19:37 27.06.2020
6437 Clouds 24 1019 61 10000 5.1 310 19:19 27.06.2020
6438 Clouds 24 1019 61 10000 5.1 310 18:48 27.06.2020
6439 Clouds 25 1019 61 10000 5.7 310 18:29 27.06.2020
6440 Clouds 25 1019 57 10000 5.1 320 17:59 27.06.2020
6441 Clouds 25 1019 57 10000 5.1 320 17:40 27.06.2020
6442 Clouds 25 1019 51 10000 4.1 300 17:20 27.06.2020
6443 Clouds 25 1019 54 10000 4.1 350 16:57 27.06.2020
6444 Clouds 26 1019 54 10000 4.1 350 16:38 27.06.2020
6445 Clouds 25 1019 57 10000 4.1 20 16:19 27.06.2020
6446 Clouds 25 1020 61 10000 3.6 320 15:42 27.06.2020
6447 Clouds 25 1020 61 10000 3.6 320 15:24 27.06.2020
6448 Clouds 24 1020 69 10000 3.6 320 14:57 27.06.2020
6449 Clouds 24 1020 69 10000 3.6 320 14:38 27.06.2020
6450 Clouds 23 1020 69 10000 3.1 340 14:19 27.06.2020
6451 Clouds 23 1020 69 10000 3.1 340 13:42 27.06.2020
6452 Clouds 22 1020 77 10000 3.1 300 13:20 27.06.2020
6453 Clouds 22 1020 77 10000 3.1 320 12:58 27.06.2020
6454 Clouds 22 1020 77 10000 3.1 320 12:40 27.06.2020
6455 Clouds 21 1020 82 10000 3.1 300 12:22 27.06.2020
6456 Clouds 21 1020 82 10000 2.6 290 11:58 27.06.2020
6457 Clouds 21 1020 82 10000 2.6 290 11:38 27.06.2020
6458 Clouds 21 1020 82 10000 2.6 330 11:19 27.06.2020
6459 Clouds 20 1020 88 10000 2.1 330 10:41 27.06.2020
6460 Clouds 19 1019 93 10000 1.5 320 10:19 27.06.2020
6461 Clouds 19 1019 100 10000 2.6 360 09:58 27.06.2020
6462 Clouds 19 1019 100 10000 2.6 360 09:39 27.06.2020
6463 Clouds 19 1019 100 10000 2.6 350 09:20 27.06.2020
6464 Drizzle 19 1019 100 2500 1.97 328 08:44 27.06.2020
6465 Drizzle 19 1019 93 3500 1 0 08:23 27.06.2020
6466 Drizzle 18 1019 93 3500 1 0 07:48 27.06.2020
6467 Drizzle 19 1019 93 4000 1.5 260 07:25 27.06.2020
6468 Clouds 19 1018 93 10000 1.5 320 06:52 27.06.2020
6469 Clouds 19 1018 88 10000 2.1 330 06:33 27.06.2020
6470 Clouds 19 1018 88 10000 3.1 310 04:52 27.06.2020
6471 Clouds 19 1018 88 10000 2.6 310 04:18 27.06.2020
6472 Clouds 19 1019 88 10000 2.6 300 03:46 27.06.2020
6473 Clouds 19 1019 88 10000 4.1 300 02:43 27.06.2020
6474 Clouds 19 1019 88 10000 3.6 300 02:24 27.06.2020
6475 Clouds 19 1019 88 10000 2.6 290 01:34 27.06.2020
6476 Clouds 19 1019 88 10000 3.6 280 00:47 27.06.2020
6477 Clouds 19 1019 82 10000 3.6 290 23:56 26.06.2020
6478 Clouds 19 1019 82 10000 3.6 290 23:37 26.06.2020
6479 Clouds 20 1018 82 10000 3.1 300 23:19 26.06.2020
6480 Clouds 20 1018 82 10000 4.1 310 22:42 26.06.2020
6481 Clouds 20 1018 77 10000 5.1 300 22:24 26.06.2020
6482 Clouds 20 1018 68 10000 5.1 300 21:58 26.06.2020
6483 Clouds 20 1018 68 10000 5.1 300 21:39 26.06.2020
6484 Clouds 21 1018 68 10000 5.7 290 21:21 26.06.2020
6485 Clouds 21 1018 68 10000 6.2 300 20:58 26.06.2020
6486 Clouds 21 1018 68 10000 6.2 300 20:38 26.06.2020
6487 Clouds 21 1018 64 10000 5.1 290 20:18 26.06.2020
6488 Clouds 21 1018 64 10000 5.1 290 19:40 26.06.2020
6489 Clouds 22 1018 57 10000 5.7 330 19:20 26.06.2020
6490 Clouds 22 1018 56 10000 4.6 310 18:43 26.06.2020
6491 Clouds 22 1018 49 10000 5.1 300 18:25 26.06.2020
6492 Clouds 23 1018 47 10000 4.6 0 17:54 26.06.2020
6493 Clouds 23 1018 47 10000 4.6 0 17:36 26.06.2020
6494 Clear 22 1018 46 10000 4.1 310 17:18 26.06.2020
6495 Clear 22 1018 46 10000 4.6 320 16:42 26.06.2020
6496 Clouds 22 1019 43 10000 4.1 300 16:23 26.06.2020
6497 Clouds 22 1019 46 10000 4.1 330 15:41 26.06.2020
6498 Clouds 22 1019 49 10000 3.1 310 15:22 26.06.2020
6499 Clouds 22 1019 53 10000 4.1 340 14:58 26.06.2020
6500 Clouds 22 1019 53 10000 4.1 340 14:40 26.06.2020
6501 Clouds 22 1019 53 10000 3.6 300 14:21 26.06.2020
6502 Clouds 21 1019 60 10000 3.6 310 13:47 26.06.2020
6503 Clouds 20 1018 56 10000 4.1 320 13:25 26.06.2020
6504 Clouds 20 1018 56 10000 4.1 320 12:59 26.06.2020
6505 Clouds 20 1018 56 10000 4.1 320 12:41 26.06.2020
6506 Clouds 20 1018 68 10000 4.1 310 12:22 26.06.2020
6507 Clouds 20 1018 68 10000 4.1 320 11:57 26.06.2020
6508 Clouds 19 1018 68 10000 4.1 320 11:39 26.06.2020
6509 Clouds 19 1018 64 10000 4.6 340 11:20 26.06.2020
6510 Clouds 19 1018 68 10000 3.1 300 10:57 26.06.2020
6511 Clouds 19 1018 68 10000 3.1 300 10:38 26.06.2020
6512 Clouds 18 1018 77 10000 4.1 340 10:18 26.06.2020
6513 Clouds 18 1018 77 10000 3.1 330 09:43 26.06.2020
6514 Clouds 18 1018 82 10000 3.1 330 09:24 26.06.2020
6515 Clouds 18 1018 82 10000 3.6 320 08:55 26.06.2020
6516 Clouds 17 1018 88 10000 3.1 330 08:28 26.06.2020
6517 Clouds 17 1018 93 10000 3.1 320 07:53 26.06.2020
6518 Clouds 17 1017 88 10000 3.1 330 07:24 26.06.2020
6519 Clouds 17 1017 88 10000 3.1 330 06:58 26.06.2020
6520 Clouds 17 1017 88 10000 3.1 330 06:36 26.06.2020
6521 Clouds 17 1017 88 10000 3.1 330 06:18 26.06.2020
6522 Clouds 17 1017 88 10000 4.6 330 05:41 26.06.2020
6523 Clouds 17 1018 88 10000 5.1 340 03:52 26.06.2020
6524 Clouds 18 1018 82 10000 5.1 340 02:22 26.06.2020
6525 Clouds 18 1018 82 10000 5.7 330 01:20 26.06.2020
6526 Clouds 18 1018 82 10000 8.2 340 00:41 26.06.2020
6527 Clouds 18 1018 82 10000 7.2 340 00:19 26.06.2020
6528 Clouds 19 1017 77 10000 5.1 330 23:42 25.06.2020
6529 Clouds 18 1017 77 10000 7.2 320 23:18 25.06.2020
6530 Clouds 18 1017 77 10000 8.7 310 22:56 25.06.2020
6531 Clouds 18 1017 77 10000 8.7 310 22:37 25.06.2020
6532 Clouds 18 1016 72 10000 8.7 310 22:18 25.06.2020
6533 Clouds 19 1016 72 10000 7.2 300 21:56 25.06.2020
6534 Clouds 19 1016 72 10000 7.2 300 21:56 25.06.2020
6535 Clouds 19 1016 72 10000 7.2 300 21:38 25.06.2020
6536 Clouds 20 1016 68 10000 7.7 310 21:19 25.06.2020
6537 Clouds 20 1016 68 10000 7.7 310 20:45 25.06.2020
6538 Clouds 21 1016 64 10000 8.2 310 20:24 25.06.2020
6539 Clouds 21 1016 64 10000 8.2 310 19:58 25.06.2020
6540 Clouds 21 1016 64 10000 8.2 310 19:40 25.06.2020
6541 Clouds 21 1016 64 10000 8.2 310 19:40 25.06.2020
6542 Clouds 23 1016 53 10000 5.1 310 19:19 25.06.2020
6543 Clouds 22 1016 53 10000 5.1 310 18:57 25.06.2020
6544 Clouds 23 1016 53 10000 5.1 310 18:37 25.06.2020
6545 Clouds 23 1016 50 10000 5.7 310 18:19 25.06.2020
6546 Clouds 23 1016 53 10000 5.7 310 17:41 25.06.2020
6547 Clouds 23 1016 56 10000 5.1 320 17:19 25.06.2020
6548 Clouds 23 1017 56 10000 6.2 320 16:57 25.06.2020
6549 Clouds 23 1017 56 10000 6.2 320 16:37 25.06.2020
6550 Clouds 23 1016 60 10000 6.2 310 16:18 25.06.2020
6551 Clouds 23 1017 56 10000 5.7 320 15:41 25.06.2020
6552 Clouds 23 1017 60 10000 5.1 320 15:21 25.06.2020
6553 Clouds 22 1017 64 10000 6.7 350 14:44 25.06.2020
6554 Clouds 22 1017 60 10000 5.1 330 14:25 25.06.2020
6555 Clouds 22 1017 60 0 5.7 320 13:57 25.06.2020
6556 Clouds 22 1017 60 0 5.7 320 13:38 25.06.2020
6557 Clouds 21 1017 64 0 5.7 330 13:19 25.06.2020
6558 Clouds 21 1017 64 0 5.7 330 12:46 25.06.2020
6559 Clouds 20 1017 64 10000 5.1 340 12:21 25.06.2020
6560 Clouds 20 1017 72 10000 7.7 340 11:58 25.06.2020
6561 Clouds 20 1017 72 10000 7.7 340 11:40 25.06.2020
6562 Clouds 19 1017 72 10000 5.7 340 11:21 25.06.2020
6563 Clouds 19 1017 77 10000 6.2 340 10:42 25.06.2020
6564 Clouds 19 1016 77 10000 5.7 330 10:24 25.06.2020
6565 Clouds 18 1016 82 10000 6.2 330 09:42 25.06.2020
6566 Clouds 18 1016 82 10000 5.1 340 09:23 25.06.2020
6567 Clouds 18 1016 82 10000 5.1 340 09:23 25.06.2020
6568 Clouds 18 1016 82 10000 4.1 330 08:59 25.06.2020
6569 Clouds 17 1016 82 10000 4.1 330 08:40 25.06.2020
6570 Clouds 17 1016 87 10000 4.6 330 08:18 25.06.2020
6571 Clouds 17 1016 87 10000 4.6 330 07:42 25.06.2020
6572 Clouds 17 1015 87 10000 5.7 330 07:24 25.06.2020
6573 Clouds 17 1015 87 10000 6.2 330 06:37 25.06.2020
6574 Clouds 17 1015 87 10000 6.2 330 06:18 25.06.2020
6575 Clouds 17 1015 87 10000 6.2 320 05:32 25.06.2020
6576 Clouds 17 1016 82 10000 4.6 320 03:42 25.06.2020
6577 Clouds 17 1016 82 10000 4.1 330 02:56 25.06.2020
6578 Clouds 17 1016 82 10000 4.1 330 02:37 25.06.2020
6579 Clouds 18 1016 82 10000 3.1 320 01:42 25.06.2020
6580 Clouds 18 1016 82 10000 6.2 330 00:51 25.06.2020
6581 Clouds 18 1016 82 10000 6.7 330 00:25 25.06.2020
6582 Clouds 18 1015 77 10000 7.7 320 23:59 24.06.2020
6583 Clouds 18 1015 77 10000 7.7 320 23:38 24.06.2020
6584 Clouds 18 1015 77 10000 8.2 310 23:20 24.06.2020
6585 Clouds 18 1015 72 10000 7.2 320 22:43 24.06.2020
6586 Clouds 18 1015 72 10000 7.2 320 22:22 24.06.2020
6587 Clouds 19 1014 72 10000 11.3 360 21:57 24.06.2020
6588 Clouds 19 1015 64 10000 7.7 330 21:38 24.06.2020
6589 Clear 20 1015 64 10000 7.2 330 21:20 24.06.2020
6590 Clear 21 1014 60 10000 7.2 330 20:59 24.06.2020
6591 Clear 21 1014 60 10000 7.2 330 20:59 24.06.2020
6592 Clear 21 1014 60 10000 7.2 330 20:41 24.06.2020
6593 Clear 22 1014 57 10000 5.7 320 20:22 24.06.2020
6594 Clear 23 1015 57 10000 6.7 330 19:59 24.06.2020
6595 Clear 23 1015 57 10000 6.7 330 19:39 24.06.2020
6596 Clear 24 1015 57 10000 5.1 320 19:21 24.06.2020
6597 Clear 24 1015 53 10000 5.7 320 18:58 24.06.2020
6598 Clear 24 1015 53 10000 5.7 320 18:58 24.06.2020
6599 Clear 24 1015 53 10000 5.7 320 18:40 24.06.2020
6600 Clear 24 1015 53 10000 5.7 320 18:21 24.06.2020
6601 Clouds 24 1015 53 10000 5.7 340 17:56 24.06.2020
6602 Clouds 24 1015 53 10000 5.7 340 17:56 24.06.2020
6603 Clouds 24 1015 53 10000 5.7 340 17:38 24.06.2020
6604 Clouds 24 1016 53 10000 5.1 320 17:19 24.06.2020
6605 Clouds 24 1016 57 10000 5.1 330 16:56 24.06.2020
6606 Clouds 24 1016 57 10000 5.1 330 16:37 24.06.2020
6607 Clouds 24 1016 57 10000 5.1 330 16:37 24.06.2020
6608 Clouds 25 1016 57 10000 5.1 330 16:19 24.06.2020
6609 Clouds 25 1016 50 10000 4.6 330 15:56 24.06.2020
6610 Clouds 25 1016 50 10000 4.6 330 15:37 24.06.2020
6611 Clouds 24 1016 60 10000 4.6 320 15:19 24.06.2020
6612 Clouds 23 1016 64 10000 5.1 330 14:42 24.06.2020
6613 Clouds 23 1016 64 10000 5.1 350 14:24 24.06.2020
6614 Clouds 23 1016 64 10000 4.1 330 13:43 24.06.2020
6615 Clouds 23 1016 64 10000 4.1 330 13:22 24.06.2020
6616 Clouds 22 1016 64 10000 4.6 320 12:56 24.06.2020
6617 Clouds 22 1016 68 10000 3.6 330 12:37 24.06.2020
6618 Clouds 21 1016 68 10000 3.6 330 12:18 24.06.2020
6619 Clouds 21 1016 77 10000 3.6 340 11:54 24.06.2020
6620 Clouds 21 1016 77 10000 3.6 340 11:36 24.06.2020
6621 Clouds 21 1016 77 10000 3.6 340 11:36 24.06.2020
6622 Clouds 20 1016 77 10000 4.6 350 11:18 24.06.2020
6623 Clouds 19 1016 82 10000 5.7 340 10:41 24.06.2020
6624 Clouds 18 1016 82 10000 5.7 330 10:18 24.06.2020
6625 Clouds 18 1016 82 10000 5.7 340 09:42 24.06.2020
6626 Clouds 17 1016 88 8000 5.1 330 09:21 24.06.2020
6627 Clouds 17 1015 88 8000 5.1 330 08:42 24.06.2020
6628 Clouds 17 1015 93 9000 6.2 320 08:21 24.06.2020
6629 Clouds 17 1015 93 9000 6.2 320 07:51 24.06.2020
6630 Clouds 17 1015 93 9000 5.7 310 07:31 24.06.2020
6631 Clouds 17 1015 88 10000 5.7 330 06:51 24.06.2020
6632 Clouds 17 1015 88 10000 3.6 320 06:25 24.06.2020
6633 Clouds 17 1015 88 10000 2.6 320 05:57 24.06.2020
6634 Clouds 17 1015 88 10000 3.6 330 04:46 24.06.2020
6635 Clouds 17 1015 88 10000 3.1 320 04:28 24.06.2020
6636 Clouds 18 1016 88 10000 3.6 310 03:34 24.06.2020
6637 Clouds 18 1015 88 10000 4.1 300 02:50 24.06.2020
6638 Clouds 18 1015 88 10000 7.2 330 01:45 24.06.2020
6639 Clouds 18 1015 88 10000 2.6 0 00:47 24.06.2020
6640 Clouds 18 1014 82 10000 3.6 340 00:27 24.06.2020
6641 Clouds 19 1014 82 10000 3.1 360 23:46 23.06.2020
6642 Clouds 19 1014 77 10000 4.1 0 23:20 23.06.2020
6643 Clouds 19 1014 82 10000 6.2 310 22:57 23.06.2020
6644 Clouds 19 1014 82 10000 6.2 310 22:36 23.06.2020
6645 Clouds 19 1013 77 10000 7.7 310 22:18 23.06.2020
6646 Clouds 20 1013 77 10000 7.7 310 21:41 23.06.2020
6647 Clouds 20 1013 77 10000 6.7 310 21:20 23.06.2020
6648 Clouds 20 1013 77 10000 6.7 310 21:20 23.06.2020
6649 Clouds 21 1013 77 10000 6.7 310 20:56 23.06.2020
6650 Clouds 22 1013 77 10000 6.7 310 20:37 23.06.2020
6651 Clouds 22 1013 73 10000 7.7 310 20:19 23.06.2020
6652 Clouds 22 1013 69 10000 8.7 310 19:49 23.06.2020
6653 Clouds 24 1013 69 10000 7.2 300 19:28 23.06.2020
6654 Clouds 24 1013 65 10000 6.7 310 18:55 23.06.2020
6655 Clouds 24 1013 65 10000 7.2 300 18:37 23.06.2020
6656 Clouds 24 1013 65 10000 7.2 300 18:18 23.06.2020
6657 Clouds 26 1013 57 10000 6.7 310 17:39 23.06.2020
6658 Clouds 26 1014 57 10000 5.7 300 17:21 23.06.2020
6659 Clouds 27 1014 58 10000 5.1 300 16:56 23.06.2020
6660 Clouds 27 1014 58 10000 5.1 300 16:38 23.06.2020
6661 Clouds 27 1014 58 10000 5.1 300 16:38 23.06.2020
6662 Clear 27 1014 57 10000 5.7 310 16:20 23.06.2020
6663 Clouds 27 1014 57 10000 5.7 310 15:55 23.06.2020
6664 Clouds 27 1014 57 10000 5.7 310 15:37 23.06.2020
6665 Clouds 27 1014 61 10000 5.7 310 15:18 23.06.2020
6666 Clouds 26 1014 61 10000 5.7 310 14:42 23.06.2020
6667 Clouds 26 1014 57 10000 4.6 320 14:19 23.06.2020
6668 Clouds 26 101